<?xml version="1.0" encoding="UTF-8" standalone="no" ?>
<gpx xmlns="http://www.topografix.com/GPX/1/1" xmlns:xsi="http://www.w3.org/2001/XMLSchema-instance" xsi:schemaLocation="http://www.topografix.com/GPX/1/1 http://www.topografix.com/GPX/1/1/gpx.xsd" version="1.1" creator="VisuGPX - https://www.visugpx.com">
  <metadata>
    <name>du nord au sud par les chemins</name>
    <desc><![CDATA[projet de sortie vtt pour le déconfinement]]></desc>
  </metadata>
  <trk>
    <name><![CDATA[test batterie 500wh]]></name>
    <trkseg>
      <trkpt lat="43.67381" lon="3.85814">
        <ele>65.35049438477</ele>
        <time>2020-11-21T08:59:09.000Z</time>
      </trkpt>
      <trkpt lat="43.67384" lon="3.85811">
        <ele>65.40621185303</ele>
        <time>2020-11-21T08:59:09.001Z</time>
      </trkpt>
      <trkpt lat="43.67384" lon="3.85818">
        <ele>65.09747314453</ele>
        <time>2020-11-21T08:59:09.003Z</time>
      </trkpt>
      <trkpt lat="43.67385" lon="3.85841">
        <ele>63.93874740601</ele>
        <time>2020-11-21T08:59:09.008Z</time>
      </trkpt>
      <trkpt lat="43.67386" lon="3.85889">
        <ele>62.39543914795</ele>
        <time>2020-11-21T08:59:09.020Z</time>
      </trkpt>
      <trkpt lat="43.67389" lon="3.85911">
        <ele>61.36564254761</ele>
        <time>2020-11-21T08:59:09.035Z</time>
      </trkpt>
      <trkpt lat="43.67394" lon="3.85924">
        <ele>60.7477645874</ele>
        <time>2020-11-21T08:59:09.052Z</time>
      </trkpt>
      <trkpt lat="43.67403" lon="3.85925">
        <ele>60.69627380371</ele>
        <time>2020-11-21T08:59:09.071Z</time>
      </trkpt>
      <trkpt lat="43.67421" lon="3.85901">
        <ele>61.29141235352</ele>
        <time>2020-11-21T08:59:09.095Z</time>
      </trkpt>
      <trkpt lat="43.67494" lon="3.85826">
        <ele>60.65601730347</ele>
        <time>2020-11-21T08:59:09.137Z</time>
      </trkpt>
      <trkpt lat="43.67702" lon="3.85614">
        <ele>62.7229385376</ele>
        <time>2020-11-21T08:59:09.231Z</time>
      </trkpt>
      <trkpt lat="43.67731" lon="3.85609">
        <ele>62.42687225342</ele>
        <time>2020-11-21T08:59:09.331Z</time>
      </trkpt>
      <trkpt lat="43.67737" lon="3.8561">
        <ele>62.33666610718</ele>
        <time>2020-11-21T08:59:09.432Z</time>
      </trkpt>
      <trkpt lat="43.6774" lon="3.85608">
        <ele>62.32389450073</ele>
        <time>2020-11-21T08:59:09.534Z</time>
      </trkpt>
      <trkpt lat="43.6777" lon="3.85606">
        <ele>62.0230255127</ele>
        <time>2020-11-21T08:59:09.642Z</time>
      </trkpt>
      <trkpt lat="43.67865" lon="3.85641">
        <ele>64.37076568604</ele>
        <time>2020-11-21T08:59:09.770Z</time>
      </trkpt>
      <trkpt lat="43.67865" lon="3.85641">
        <ele>64.37086486816</ele>
        <time>2020-11-21T08:59:09.898Z</time>
      </trkpt>
      <trkpt lat="43.67987" lon="3.85674">
        <ele>63.92305374146</ele>
        <time>2020-11-21T08:59:10.050Z</time>
      </trkpt>
      <trkpt lat="43.68086" lon="3.85697">
        <ele>65.50501251221</ele>
        <time>2020-11-21T08:59:10.222Z</time>
      </trkpt>
      <trkpt lat="43.68137" lon="3.85691">
        <ele>66.82238006592</ele>
        <time>2020-11-21T08:59:10.405Z</time>
      </trkpt>
      <trkpt lat="43.68187" lon="3.85684">
        <ele>66.80675506592</ele>
        <time>2020-11-21T08:59:10.598Z</time>
      </trkpt>
      <trkpt lat="43.68201" lon="3.85682">
        <ele>65.39159393311</ele>
        <time>2020-11-21T08:59:10.794Z</time>
      </trkpt>
      <trkpt lat="43.68211" lon="3.8568">
        <ele>64.28456115723</ele>
        <time>2020-11-21T08:59:10.992Z</time>
      </trkpt>
      <trkpt lat="43.68275" lon="3.85672">
        <ele>59.05813598633</ele>
        <time>2020-11-21T08:59:11.202Z</time>
      </trkpt>
      <trkpt lat="43.68286" lon="3.85669">
        <ele>59.19972991943</ele>
        <time>2020-11-21T08:59:11.415Z</time>
      </trkpt>
      <trkpt lat="43.68286" lon="3.85669">
        <ele>59.1996307373</ele>
        <time>2020-11-21T08:59:11.628Z</time>
      </trkpt>
      <trkpt lat="43.6831" lon="3.85666">
        <ele>59.48282623291</ele>
        <time>2020-11-21T08:59:11.846Z</time>
      </trkpt>
      <trkpt lat="43.68355" lon="3.85658">
        <ele>61.47010421753</ele>
        <time>2020-11-21T08:59:12.073Z</time>
      </trkpt>
      <trkpt lat="43.68355" lon="3.85658">
        <ele>61.47030639648</ele>
        <time>2020-11-21T08:59:12.300Z</time>
      </trkpt>
      <trkpt lat="43.68396" lon="3.85648">
        <ele>60.96319198608</ele>
        <time>2020-11-21T08:59:12.535Z</time>
      </trkpt>
      <trkpt lat="43.68408" lon="3.85647">
        <ele>60.88585662842</ele>
        <time>2020-11-21T08:59:12.772Z</time>
      </trkpt>
      <trkpt lat="43.68462" lon="3.85642">
        <ele>60.24055862427</ele>
        <time>2020-11-21T08:59:13.020Z</time>
      </trkpt>
      <trkpt lat="43.68529" lon="3.85656">
        <ele>56.81011199951</ele>
        <time>2020-11-21T08:59:13.282Z</time>
      </trkpt>
      <trkpt lat="43.6856" lon="3.85653">
        <ele>56.8616027832</ele>
        <time>2020-11-21T08:59:13.550Z</time>
      </trkpt>
      <trkpt lat="43.68582" lon="3.85648">
        <ele>57.98109817505</ele>
        <time>2020-11-21T08:59:13.823Z</time>
      </trkpt>
      <trkpt lat="43.68582" lon="3.85648">
        <ele>57.98069381714</ele>
        <time>2020-11-21T08:59:14.096Z</time>
      </trkpt>
      <trkpt lat="43.68735" lon="3.85604">
        <ele>62.8325881958</ele>
        <time>2020-11-21T08:59:14.400Z</time>
      </trkpt>
      <trkpt lat="43.68829" lon="3.8554">
        <ele>69.91246795654</ele>
        <time>2020-11-21T08:59:14.725Z</time>
      </trkpt>
      <trkpt lat="43.68889" lon="3.85491">
        <ele>71.78043365479</ele>
        <time>2020-11-21T08:59:15.064Z</time>
      </trkpt>
      <trkpt lat="43.68914" lon="3.85471">
        <ele>71.16098022461</ele>
        <time>2020-11-21T08:59:15.408Z</time>
      </trkpt>
      <trkpt lat="43.68944" lon="3.8543">
        <ele>72.39478302002</ele>
        <time>2020-11-21T08:59:15.761Z</time>
      </trkpt>
      <trkpt lat="43.69035" lon="3.85336">
        <ele>70.23021697998</ele>
        <time>2020-11-21T08:59:16.137Z</time>
      </trkpt>
      <trkpt lat="43.69061" lon="3.85314">
        <ele>70.53915405273</ele>
        <time>2020-11-21T08:59:16.519Z</time>
      </trkpt>
      <trkpt lat="43.69084" lon="3.85297">
        <ele>66.83037567139</ele>
        <time>2020-11-21T08:59:16.906Z</time>
      </trkpt>
      <trkpt lat="43.69095" lon="3.85288">
        <ele>64.88663482666</ele>
        <time>2020-11-21T08:59:17.296Z</time>
      </trkpt>
      <trkpt lat="43.69122" lon="3.85277">
        <ele>64.1721572876</ele>
        <time>2020-11-21T08:59:17.691Z</time>
      </trkpt>
      <trkpt lat="43.69155" lon="3.85277">
        <ele>65.36959838867</ele>
        <time>2020-11-21T08:59:18.093Z</time>
      </trkpt>
      <trkpt lat="43.69155" lon="3.85277">
        <ele>65.36930084229</ele>
        <time>2020-11-21T08:59:18.495Z</time>
      </trkpt>
      <trkpt lat="43.69252" lon="3.85318">
        <ele>69.39655303955</ele>
        <time>2020-11-21T08:59:18.917Z</time>
      </trkpt>
      <trkpt lat="43.69357" lon="3.85341">
        <ele>71.36612701416</ele>
        <time>2020-11-21T08:59:19.360Z</time>
      </trkpt>
      <trkpt lat="43.69357" lon="3.85341">
        <ele>71.36572265625</ele>
        <time>2020-11-21T08:59:19.803Z</time>
      </trkpt>
      <trkpt lat="43.69506" lon="3.85374">
        <ele>72.06088256836</ele>
        <time>2020-11-21T08:59:20.277Z</time>
      </trkpt>
      <trkpt lat="43.69595" lon="3.85368">
        <ele>72.96823883057</ele>
        <time>2020-11-21T08:59:20.768Z</time>
      </trkpt>
      <trkpt lat="43.69686" lon="3.85374">
        <ele>69.7815322876</ele>
        <time>2020-11-21T08:59:21.278Z</time>
      </trkpt>
      <trkpt lat="43.69686" lon="3.85374">
        <ele>69.78182983398</ele>
        <time>2020-11-21T08:59:21.788Z</time>
      </trkpt>
      <trkpt lat="43.69933" lon="3.85385">
        <ele>72.48684692383</ele>
        <time>2020-11-21T08:59:22.347Z</time>
      </trkpt>
      <trkpt lat="43.70024" lon="3.85351">
        <ele>72.23231506348</ele>
        <time>2020-11-21T08:59:22.925Z</time>
      </trkpt>
      <trkpt lat="43.70086" lon="3.85355">
        <ele>69.63188171387</ele>
        <time>2020-11-21T08:59:23.515Z</time>
      </trkpt>
      <trkpt lat="43.70086" lon="3.85355">
        <ele>69.63208007812</ele>
        <time>2020-11-21T08:59:24.105Z</time>
      </trkpt>
      <trkpt lat="43.70093" lon="3.85356">
        <ele>69.21787261963</ele>
        <time>2020-11-21T08:59:24.697Z</time>
      </trkpt>
      <trkpt lat="43.70163" lon="3.85369">
        <ele>68.36801147461</ele>
        <time>2020-11-21T08:59:25.303Z</time>
      </trkpt>
      <trkpt lat="43.70168" lon="3.85377">
        <ele>68.00757598877</ele>
        <time>2020-11-21T08:59:25.910Z</time>
      </trkpt>
      <trkpt lat="43.70174" lon="3.8537">
        <ele>68.31652069092</ele>
        <time>2020-11-21T08:59:26.519Z</time>
      </trkpt>
      <trkpt lat="43.70206" lon="3.85362">
        <ele>69.1605682373</ele>
        <time>2020-11-21T08:59:27.134Z</time>
      </trkpt>
      <trkpt lat="43.70222" lon="3.85349">
        <ele>69.85443878174</ele>
        <time>2020-11-21T08:59:27.753Z</time>
      </trkpt>
      <trkpt lat="43.70224" lon="3.85354">
        <ele>69.55847167969</ele>
        <time>2020-11-21T08:59:28.373Z</time>
      </trkpt>
      <trkpt lat="43.70225" lon="3.85357">
        <ele>69.44376373291</ele>
        <time>2020-11-21T08:59:28.993Z</time>
      </trkpt>
      <trkpt lat="43.70239" lon="3.85379">
        <ele>69.35466003418</ele>
        <time>2020-11-21T08:59:29.618Z</time>
      </trkpt>
      <trkpt lat="43.70235" lon="3.85383">
        <ele>69.2594833374</ele>
        <time>2020-11-21T08:59:30.243Z</time>
      </trkpt>
      <trkpt lat="43.70243" lon="3.85383">
        <ele>69.35004425049</ele>
        <time>2020-11-21T08:59:30.870Z</time>
      </trkpt>
      <trkpt lat="43.7026" lon="3.85388">
        <ele>69.49401855469</ele>
        <time>2020-11-21T08:59:31.500Z</time>
      </trkpt>
      <trkpt lat="43.70284" lon="3.85389">
        <ele>70.10433197021</ele>
        <time>2020-11-21T08:59:32.135Z</time>
      </trkpt>
      <trkpt lat="43.70373" lon="3.85386">
        <ele>68.33606719971</ele>
        <time>2020-11-21T08:59:32.788Z</time>
      </trkpt>
      <trkpt lat="43.70453" lon="3.85382">
        <ele>66.27867126465</ele>
        <time>2020-11-21T08:59:33.457Z</time>
      </trkpt>
      <trkpt lat="43.70485" lon="3.85377">
        <ele>65.42121887207</ele>
        <time>2020-11-21T08:59:34.133Z</time>
      </trkpt>
      <trkpt lat="43.70513" lon="3.85369">
        <ele>65.08527374268</ele>
        <time>2020-11-21T08:59:34.814Z</time>
      </trkpt>
      <trkpt lat="43.70558" lon="3.85356">
        <ele>64.99745178223</ele>
        <time>2020-11-21T08:59:35.504Z</time>
      </trkpt>
      <trkpt lat="43.70588" lon="3.85348">
        <ele>65</ele>
        <time>2020-11-21T08:59:36.201Z</time>
      </trkpt>
      <trkpt lat="43.70642" lon="3.85336">
        <ele>65.23868560791</ele>
        <time>2020-11-21T08:59:36.908Z</time>
      </trkpt>
      <trkpt lat="43.70691" lon="3.85335">
        <ele>65.25068664551</ele>
        <time>2020-11-21T08:59:37.625Z</time>
      </trkpt>
      <trkpt lat="43.70723" lon="3.85333">
        <ele>65.27468109131</ele>
        <time>2020-11-21T08:59:38.349Z</time>
      </trkpt>
      <trkpt lat="43.70758" lon="3.8533">
        <ele>64.98085784912</ele>
        <time>2020-11-21T08:59:39.080Z</time>
      </trkpt>
      <trkpt lat="43.70856" lon="3.85315">
        <ele>61.43056869507</ele>
        <time>2020-11-21T08:59:39.830Z</time>
      </trkpt>
      <trkpt lat="43.70892" lon="3.85308">
        <ele>60.68729400635</ele>
        <time>2020-11-21T08:59:40.588Z</time>
      </trkpt>
      <trkpt lat="43.70912" lon="3.853">
        <ele>60.63930130005</ele>
        <time>2020-11-21T08:59:41.350Z</time>
      </trkpt>
      <trkpt lat="43.70958" lon="3.85283">
        <ele>61</ele>
        <time>2020-11-21T08:59:42.121Z</time>
      </trkpt>
      <trkpt lat="43.71013" lon="3.85272">
        <ele>61.0196723938</ele>
        <time>2020-11-21T08:59:42.903Z</time>
      </trkpt>
      <trkpt lat="43.71039" lon="3.85266">
        <ele>61.91265106201</ele>
        <time>2020-11-21T08:59:43.691Z</time>
      </trkpt>
      <trkpt lat="43.71102" lon="3.85245">
        <ele>64.62409973145</ele>
        <time>2020-11-21T08:59:44.492Z</time>
      </trkpt>
      <trkpt lat="43.71137" lon="3.8523">
        <ele>65.42242431641</ele>
        <time>2020-11-21T08:59:45.300Z</time>
      </trkpt>
      <trkpt lat="43.71231" lon="3.85194">
        <ele>64.52831268311</ele>
        <time>2020-11-21T08:59:46.128Z</time>
      </trkpt>
      <trkpt lat="43.71329" lon="3.85153">
        <ele>64.29490661621</ele>
        <time>2020-11-21T08:59:46.976Z</time>
      </trkpt>
      <trkpt lat="43.71353" lon="3.85139">
        <ele>64.00695800781</ele>
        <time>2020-11-21T08:59:47.829Z</time>
      </trkpt>
      <trkpt lat="43.71373" lon="3.85118">
        <ele>64.14575195312</ele>
        <time>2020-11-21T08:59:48.687Z</time>
      </trkpt>
      <trkpt lat="43.71393" lon="3.85091">
        <ele>63.82180404663</ele>
        <time>2020-11-21T08:59:49.551Z</time>
      </trkpt>
      <trkpt lat="43.71412" lon="3.85066">
        <ele>63.52185440063</ele>
        <time>2020-11-21T08:59:50.420Z</time>
      </trkpt>
      <trkpt lat="43.71434" lon="3.85042">
        <ele>63.23390197754</ele>
        <time>2020-11-21T08:59:51.295Z</time>
      </trkpt>
      <trkpt lat="43.71494" lon="3.84982">
        <ele>69.14269256592</ele>
        <time>2020-11-21T08:59:52.185Z</time>
      </trkpt>
      <trkpt lat="43.71542" lon="3.84932">
        <ele>71.6011428833</ele>
        <time>2020-11-21T08:59:53.087Z</time>
      </trkpt>
      <trkpt lat="43.71556" lon="3.84917">
        <ele>72.86093139648</ele>
        <time>2020-11-21T08:59:53.992Z</time>
      </trkpt>
      <trkpt lat="43.71574" lon="3.84889">
        <ele>73.73417663574</ele>
        <time>2020-11-21T08:59:54.903Z</time>
      </trkpt>
      <trkpt lat="43.71584" lon="3.84865">
        <ele>73.30225372314</ele>
        <time>2020-11-21T08:59:55.818Z</time>
      </trkpt>
      <trkpt lat="43.7159" lon="3.84836">
        <ele>75.0604095459</ele>
        <time>2020-11-21T08:59:56.737Z</time>
      </trkpt>
      <trkpt lat="43.71603" lon="3.8476">
        <ele>79.15856933594</ele>
        <time>2020-11-21T08:59:57.667Z</time>
      </trkpt>
      <trkpt lat="43.71604" lon="3.84756">
        <ele>79.32817077637</ele>
        <time>2020-11-21T08:59:58.598Z</time>
      </trkpt>
      <trkpt lat="43.71605" lon="3.84756">
        <ele>79.08299255371</ele>
        <time>2020-11-21T08:59:59.529Z</time>
      </trkpt>
      <trkpt lat="43.71605" lon="3.84756">
        <ele>79.0850982666</ele>
        <time>2020-11-21T09:00:00.460Z</time>
      </trkpt>
      <trkpt lat="43.71605" lon="3.84756">
        <ele>79.13999938965</ele>
        <time>2020-11-21T09:00:01.391Z</time>
      </trkpt>
      <trkpt lat="43.71605" lon="3.84751">
        <ele>79.62604522705</ele>
        <time>2020-11-21T09:00:02.323Z</time>
      </trkpt>
      <trkpt lat="43.71602" lon="3.84742">
        <ele>80.88222503662</ele>
        <time>2020-11-21T09:00:03.256Z</time>
      </trkpt>
      <trkpt lat="43.71594" lon="3.84739">
        <ele>82.50566864014</ele>
        <time>2020-11-21T09:00:04.191Z</time>
      </trkpt>
      <trkpt lat="43.71587" lon="3.84747">
        <ele>83.22652435303</ele>
        <time>2020-11-21T09:00:05.128Z</time>
      </trkpt>
      <trkpt lat="43.71576" lon="3.84806">
        <ele>78.93438720703</ele>
        <time>2020-11-21T09:00:06.074Z</time>
      </trkpt>
      <trkpt lat="43.71562" lon="3.84834">
        <ele>77.65811920166</ele>
        <time>2020-11-21T09:00:07.025Z</time>
      </trkpt>
      <trkpt lat="43.7154" lon="3.8484">
        <ele>78.43046569824</ele>
        <time>2020-11-21T09:00:07.980Z</time>
      </trkpt>
      <trkpt lat="43.71505" lon="3.84832">
        <ele>80.91103363037</ele>
        <time>2020-11-21T09:00:08.942Z</time>
      </trkpt>
      <trkpt lat="43.71472" lon="3.84788">
        <ele>86.18874359131</ele>
        <time>2020-11-21T09:00:09.913Z</time>
      </trkpt>
      <trkpt lat="43.71467" lon="3.84781">
        <ele>86.96109008789</ele>
        <time>2020-11-21T09:00:10.886Z</time>
      </trkpt>
      <trkpt lat="43.71389" lon="3.8476">
        <ele>89.49456787109</ele>
        <time>2020-11-21T09:00:11.875Z</time>
      </trkpt>
      <trkpt lat="43.71359" lon="3.84777">
        <ele>88.46203613281</ele>
        <time>2020-11-21T09:00:12.870Z</time>
      </trkpt>
      <trkpt lat="43.71354" lon="3.8478">
        <ele>88.00078582764</ele>
        <time>2020-11-21T09:00:13.866Z</time>
      </trkpt>
      <trkpt lat="43.71304" lon="3.84802">
        <ele>83.39641571045</ele>
        <time>2020-11-21T09:00:14.873Z</time>
      </trkpt>
      <trkpt lat="43.71231" lon="3.84773">
        <ele>83.19896697998</ele>
        <time>2020-11-21T09:00:15.895Z</time>
      </trkpt>
      <trkpt lat="43.71231" lon="3.84773">
        <ele>83.19956970215</ele>
        <time>2020-11-21T09:00:16.917Z</time>
      </trkpt>
      <trkpt lat="43.71226" lon="3.84755">
        <ele>84.05127716064</ele>
        <time>2020-11-21T09:00:17.942Z</time>
      </trkpt>
      <trkpt lat="43.71223" lon="3.84716">
        <ele>86.45150756836</ele>
        <time>2020-11-21T09:00:18.972Z</time>
      </trkpt>
      <trkpt lat="43.71194" lon="3.84683">
        <ele>86.60597991943</ele>
        <time>2020-11-21T09:00:20.010Z</time>
      </trkpt>
      <trkpt lat="43.71197" lon="3.8457">
        <ele>90.54969787598</ele>
        <time>2020-11-21T09:00:21.064Z</time>
      </trkpt>
      <trkpt lat="43.71183" lon="3.8455">
        <ele>89.02318572998</ele>
        <time>2020-11-21T09:00:22.122Z</time>
      </trkpt>
      <trkpt lat="43.71172" lon="3.84483">
        <ele>87.14710998535</ele>
        <time>2020-11-21T09:00:23.190Z</time>
      </trkpt>
      <trkpt lat="43.71131" lon="3.84501">
        <ele>85.55072021484</ele>
        <time>2020-11-21T09:00:24.267Z</time>
      </trkpt>
      <trkpt lat="43.71131" lon="3.84449">
        <ele>86.59359741211</ele>
        <time>2020-11-21T09:00:25.352Z</time>
      </trkpt>
      <trkpt lat="43.71138" lon="3.84418">
        <ele>86.74412536621</ele>
        <time>2020-11-21T09:00:26.441Z</time>
      </trkpt>
      <trkpt lat="43.71133" lon="3.84415">
        <ele>87.0913848877</ele>
        <time>2020-11-21T09:00:27.531Z</time>
      </trkpt>
      <trkpt lat="43.71133" lon="3.84351">
        <ele>89.94633483887</ele>
        <time>2020-11-21T09:00:28.631Z</time>
      </trkpt>
      <trkpt lat="43.71122" lon="3.84324">
        <ele>92.39250946045</ele>
        <time>2020-11-21T09:00:29.735Z</time>
      </trkpt>
      <trkpt lat="43.71122" lon="3.84324">
        <ele>92.39210510254</ele>
        <time>2020-11-21T09:00:30.839Z</time>
      </trkpt>
      <trkpt lat="43.71076" lon="3.84237">
        <ele>99.71560668945</ele>
        <time>2020-11-21T09:00:31.959Z</time>
      </trkpt>
      <trkpt lat="43.71067" lon="3.84197">
        <ele>103.35810852051</ele>
        <time>2020-11-21T09:00:33.085Z</time>
      </trkpt>
      <trkpt lat="43.71067" lon="3.84197">
        <ele>103.40765380859</ele>
        <time>2020-11-21T09:00:34.211Z</time>
      </trkpt>
      <trkpt lat="43.71061" lon="3.84166">
        <ele>105.60778045654</ele>
        <time>2020-11-21T09:00:35.342Z</time>
      </trkpt>
      <trkpt lat="43.7102" lon="3.84089">
        <ele>109.40576934814</ele>
        <time>2020-11-21T09:00:36.486Z</time>
      </trkpt>
      <trkpt lat="43.70973" lon="3.84031">
        <ele>114.19432067871</ele>
        <time>2020-11-21T09:00:37.643Z</time>
      </trkpt>
      <trkpt lat="43.70939" lon="3.84027">
        <ele>116.70040130615</ele>
        <time>2020-11-21T09:00:38.807Z</time>
      </trkpt>
      <trkpt lat="43.70914" lon="3.83997">
        <ele>116.2033996582</ele>
        <time>2020-11-21T09:00:39.978Z</time>
      </trkpt>
      <trkpt lat="43.70904" lon="3.83972">
        <ele>116.03565216064</ele>
        <time>2020-11-21T09:00:41.153Z</time>
      </trkpt>
      <trkpt lat="43.70914" lon="3.83904">
        <ele>117.1484375</ele>
        <time>2020-11-21T09:00:42.338Z</time>
      </trkpt>
      <trkpt lat="43.70912" lon="3.83873">
        <ele>116.42758178711</ele>
        <time>2020-11-21T09:00:43.527Z</time>
      </trkpt>
      <trkpt lat="43.70893" lon="3.83843">
        <ele>116.87982177734</ele>
        <time>2020-11-21T09:00:44.722Z</time>
      </trkpt>
      <trkpt lat="43.70886" lon="3.83831">
        <ele>117.806640625</ele>
        <time>2020-11-21T09:00:45.919Z</time>
      </trkpt>
      <trkpt lat="43.70877" lon="3.83807">
        <ele>119.50580596924</ele>
        <time>2020-11-21T09:00:47.120Z</time>
      </trkpt>
      <trkpt lat="43.70876" lon="3.83801">
        <ele>119.96921539307</ele>
        <time>2020-11-21T09:00:48.322Z</time>
      </trkpt>
      <trkpt lat="43.70876" lon="3.83801">
        <ele>119.96921539307</ele>
        <time>2020-11-21T09:00:49.524Z</time>
      </trkpt>
      <trkpt lat="43.70871" lon="3.8376">
        <ele>122.18399047852</ele>
        <time>2020-11-21T09:00:50.732Z</time>
      </trkpt>
      <trkpt lat="43.70872" lon="3.83687">
        <ele>125.80376434326</ele>
        <time>2020-11-21T09:00:51.951Z</time>
      </trkpt>
      <trkpt lat="43.7086" lon="3.83639">
        <ele>126.52452087402</ele>
        <time>2020-11-21T09:00:53.177Z</time>
      </trkpt>
      <trkpt lat="43.70857" lon="3.83626">
        <ele>126.71760559082</ele>
        <time>2020-11-21T09:00:54.405Z</time>
      </trkpt>
      <trkpt lat="43.70848" lon="3.83603">
        <ele>126.54264831543</ele>
        <time>2020-11-21T09:00:55.637Z</time>
      </trkpt>
      <trkpt lat="43.70841" lon="3.83562">
        <ele>125.72604370117</ele>
        <time>2020-11-21T09:00:56.875Z</time>
      </trkpt>
      <trkpt lat="43.70841" lon="3.83562">
        <ele>125.72554779053</ele>
        <time>2020-11-21T09:00:58.113Z</time>
      </trkpt>
      <trkpt lat="43.7084" lon="3.83509">
        <ele>125.50608825684</ele>
        <time>2020-11-21T09:00:59.359Z</time>
      </trkpt>
      <trkpt lat="43.70848" lon="3.83467">
        <ele>124.60942077637</ele>
        <time>2020-11-21T09:01:00.611Z</time>
      </trkpt>
      <trkpt lat="43.70852" lon="3.83458">
        <ele>124.44207763672</ele>
        <time>2020-11-21T09:01:01.864Z</time>
      </trkpt>
      <trkpt lat="43.70852" lon="3.83434">
        <ele>123.87216949463</ele>
        <time>2020-11-21T09:01:03.121Z</time>
      </trkpt>
      <trkpt lat="43.70846" lon="3.83425">
        <ele>123.66620635986</ele>
        <time>2020-11-21T09:01:04.379Z</time>
      </trkpt>
      <trkpt lat="43.70837" lon="3.83385">
        <ele>122.71364593506</ele>
        <time>2020-11-21T09:01:05.644Z</time>
      </trkpt>
      <trkpt lat="43.70856" lon="3.83333">
        <ele>121.32405853271</ele>
        <time>2020-11-21T09:01:06.917Z</time>
      </trkpt>
      <trkpt lat="43.70851" lon="3.83307">
        <ele>120.28659820557</ele>
        <time>2020-11-21T09:01:08.194Z</time>
      </trkpt>
      <trkpt lat="43.70854" lon="3.83295">
        <ele>119.84372711182</ele>
        <time>2020-11-21T09:01:09.473Z</time>
      </trkpt>
      <trkpt lat="43.70852" lon="3.83288">
        <ele>119.57861328125</ele>
        <time>2020-11-21T09:01:10.753Z</time>
      </trkpt>
      <trkpt lat="43.70884" lon="3.83202">
        <ele>118.922706604</ele>
        <time>2020-11-21T09:01:12.047Z</time>
      </trkpt>
      <trkpt lat="43.70884" lon="3.832">
        <ele>118.84547424316</ele>
        <time>2020-11-21T09:01:13.341Z</time>
      </trkpt>
      <trkpt lat="43.70874" lon="3.83171">
        <ele>117.99199676514</ele>
        <time>2020-11-21T09:01:14.640Z</time>
      </trkpt>
      <trkpt lat="43.70875" lon="3.83166">
        <ele>118.04389190674</ele>
        <time>2020-11-21T09:01:15.940Z</time>
      </trkpt>
      <trkpt lat="43.70875" lon="3.83161">
        <ele>118.04389190674</ele>
        <time>2020-11-21T09:01:17.240Z</time>
      </trkpt>
      <trkpt lat="43.70869" lon="3.83162">
        <ele>117.73455047607</ele>
        <time>2020-11-21T09:01:18.542Z</time>
      </trkpt>
      <trkpt lat="43.7081" lon="3.83145">
        <ele>115.95130157471</ele>
        <time>2020-11-21T09:01:19.856Z</time>
      </trkpt>
      <trkpt lat="43.7081" lon="3.83145">
        <ele>115.95150756836</ele>
        <time>2020-11-21T09:01:21.170Z</time>
      </trkpt>
      <trkpt lat="43.70797" lon="3.83139">
        <ele>115.86719512939</ele>
        <time>2020-11-21T09:01:22.486Z</time>
      </trkpt>
      <trkpt lat="43.7076" lon="3.83111">
        <ele>115.20162200928</ele>
        <time>2020-11-21T09:01:23.811Z</time>
      </trkpt>
      <trkpt lat="43.7076" lon="3.83111">
        <ele>115.2013168335</ele>
        <time>2020-11-21T09:01:25.136Z</time>
      </trkpt>
      <trkpt lat="43.70759" lon="3.83111">
        <ele>115.19205474854</ele>
        <time>2020-11-21T09:01:26.461Z</time>
      </trkpt>
      <trkpt lat="43.70736" lon="3.83093">
        <ele>114.42205810547</ele>
        <time>2020-11-21T09:01:27.791Z</time>
      </trkpt>
      <trkpt lat="43.70735" lon="3.83089">
        <ele>114.2161026001</ele>
        <time>2020-11-21T09:01:29.122Z</time>
      </trkpt>
      <trkpt lat="43.70734" lon="3.83091">
        <ele>114.31907653809</ele>
        <time>2020-11-21T09:01:30.453Z</time>
      </trkpt>
      <trkpt lat="43.7073" lon="3.83097">
        <ele>114.57653045654</ele>
        <time>2020-11-21T09:01:31.785Z</time>
      </trkpt>
      <trkpt lat="43.70728" lon="3.83095">
        <ele>114.47354888916</ele>
        <time>2020-11-21T09:01:33.118Z</time>
      </trkpt>
      <trkpt lat="43.70696" lon="3.83087">
        <ele>114.11312103271</ele>
        <time>2020-11-21T09:01:34.457Z</time>
      </trkpt>
      <trkpt lat="43.70672" lon="3.83099">
        <ele>114.67951202393</ele>
        <time>2020-11-21T09:01:35.801Z</time>
      </trkpt>
      <trkpt lat="43.70647" lon="3.83127">
        <ele>115.76367950439</ele>
        <time>2020-11-21T09:01:37.152Z</time>
      </trkpt>
      <trkpt lat="43.7061" lon="3.8319">
        <ele>116.17698669434</ele>
        <time>2020-11-21T09:01:38.515Z</time>
      </trkpt>
      <trkpt lat="43.70592" lon="3.83234">
        <ele>116.41236877441</ele>
        <time>2020-11-21T09:01:39.885Z</time>
      </trkpt>
      <trkpt lat="43.70586" lon="3.83229">
        <ele>116.64377593994</ele>
        <time>2020-11-21T09:01:41.257Z</time>
      </trkpt>
      <trkpt lat="43.70561" lon="3.83291">
        <ele>116.06266784668</ele>
        <time>2020-11-21T09:01:42.639Z</time>
      </trkpt>
      <trkpt lat="43.70519" lon="3.8326">
        <ele>117.36192321777</ele>
        <time>2020-11-21T09:01:44.030Z</time>
      </trkpt>
      <trkpt lat="43.70483" lon="3.83333">
        <ele>116.24993896484</ele>
        <time>2020-11-21T09:01:45.434Z</time>
      </trkpt>
      <trkpt lat="43.70453" lon="3.83395">
        <ele>116.3524017334</ele>
        <time>2020-11-21T09:01:46.849Z</time>
      </trkpt>
      <trkpt lat="43.70368" lon="3.83355">
        <ele>124.79389953613</ele>
        <time>2020-11-21T09:01:48.282Z</time>
      </trkpt>
      <trkpt lat="43.70355" lon="3.83355">
        <ele>125.87519073486</ele>
        <time>2020-11-21T09:01:49.718Z</time>
      </trkpt>
      <trkpt lat="43.70345" lon="3.83361">
        <ele>125.21987915039</ele>
        <time>2020-11-21T09:01:51.156Z</time>
      </trkpt>
      <trkpt lat="43.70344" lon="3.83361">
        <ele>125.18096160889</ele>
        <time>2020-11-21T09:01:52.594Z</time>
      </trkpt>
      <trkpt lat="43.703" lon="3.83332">
        <ele>123.22360992432</ele>
        <time>2020-11-21T09:01:54.042Z</time>
      </trkpt>
      <trkpt lat="43.70277" lon="3.83318">
        <ele>121.87169647217</ele>
        <time>2020-11-21T09:01:55.495Z</time>
      </trkpt>
      <trkpt lat="43.70257" lon="3.83338">
        <ele>121.75704956055</ele>
        <time>2020-11-21T09:01:56.953Z</time>
      </trkpt>
      <trkpt lat="43.70236" lon="3.83366">
        <ele>119.90772247314</ele>
        <time>2020-11-21T09:01:58.417Z</time>
      </trkpt>
      <trkpt lat="43.70236" lon="3.83366">
        <ele>119.90832519531</ele>
        <time>2020-11-21T09:01:59.881Z</time>
      </trkpt>
      <trkpt lat="43.70226" lon="3.83382">
        <ele>118.24717712402</ele>
        <time>2020-11-21T09:02:01.348Z</time>
      </trkpt>
      <trkpt lat="43.70226" lon="3.83382">
        <ele>118.24777984619</ele>
        <time>2020-11-21T09:02:02.815Z</time>
      </trkpt>
      <trkpt lat="43.70188" lon="3.83429">
        <ele>118.75955963135</ele>
        <time>2020-11-21T09:02:04.292Z</time>
      </trkpt>
      <trkpt lat="43.70142" lon="3.83458">
        <ele>118.46898651123</ele>
        <time>2020-11-21T09:02:05.779Z</time>
      </trkpt>
      <trkpt lat="43.70117" lon="3.83474">
        <ele>118.95542144775</ele>
        <time>2020-11-21T09:02:07.271Z</time>
      </trkpt>
      <trkpt lat="43.70093" lon="3.83484">
        <ele>119.62326812744</ele>
        <time>2020-11-21T09:02:08.768Z</time>
      </trkpt>
      <trkpt lat="43.70067" lon="3.83493">
        <ele>119.85604858398</ele>
        <time>2020-11-21T09:02:10.271Z</time>
      </trkpt>
      <trkpt lat="43.70049" lon="3.83485">
        <ele>119.45700073242</ele>
        <time>2020-11-21T09:02:11.777Z</time>
      </trkpt>
      <trkpt lat="43.70048" lon="3.83441">
        <ele>118.07857513428</ele>
        <time>2020-11-21T09:02:13.290Z</time>
      </trkpt>
      <trkpt lat="43.70012" lon="3.8343">
        <ele>117.59339904785</ele>
        <time>2020-11-21T09:02:14.810Z</time>
      </trkpt>
      <trkpt lat="43.69974" lon="3.83456">
        <ele>116.20484161377</ele>
        <time>2020-11-21T09:02:16.339Z</time>
      </trkpt>
      <trkpt lat="43.6994" lon="3.83452">
        <ele>114.45458984375</ele>
        <time>2020-11-21T09:02:17.875Z</time>
      </trkpt>
      <trkpt lat="43.69896" lon="3.83443">
        <ele>111.64546203613</ele>
        <time>2020-11-21T09:02:19.420Z</time>
      </trkpt>
      <trkpt lat="43.69827" lon="3.83443">
        <ele>107.4743347168</ele>
        <time>2020-11-21T09:02:20.978Z</time>
      </trkpt>
      <trkpt lat="43.6975" lon="3.83441">
        <ele>103.37805938721</ele>
        <time>2020-11-21T09:02:22.552Z</time>
      </trkpt>
      <trkpt lat="43.6975" lon="3.83441">
        <ele>103.37775421143</ele>
        <time>2020-11-21T09:02:24.126Z</time>
      </trkpt>
      <trkpt lat="43.69573" lon="3.83437">
        <ele>96.29271697998</ele>
        <time>2020-11-21T09:02:25.735Z</time>
      </trkpt>
      <trkpt lat="43.69519" lon="3.83428">
        <ele>95.08861541748</ele>
        <time>2020-11-21T09:02:27.355Z</time>
      </trkpt>
      <trkpt lat="43.69476" lon="3.83438">
        <ele>94.4503326416</ele>
        <time>2020-11-21T09:02:28.984Z</time>
      </trkpt>
      <trkpt lat="43.69386" lon="3.83509">
        <ele>89.7878036499</ele>
        <time>2020-11-21T09:02:30.633Z</time>
      </trkpt>
      <trkpt lat="43.69364" lon="3.83518">
        <ele>89.25862121582</ele>
        <time>2020-11-21T09:02:32.287Z</time>
      </trkpt>
      <trkpt lat="43.69364" lon="3.83518">
        <ele>89.25821685791</ele>
        <time>2020-11-21T09:02:33.941Z</time>
      </trkpt>
      <trkpt lat="43.69364" lon="3.83518">
        <ele>89.24968719482</ele>
        <time>2020-11-21T09:02:35.595Z</time>
      </trkpt>
      <trkpt lat="43.69312" lon="3.8354">
        <ele>86.31804656982</ele>
        <time>2020-11-21T09:02:37.260Z</time>
      </trkpt>
      <trkpt lat="43.693" lon="3.83533">
        <ele>85.68729400635</ele>
        <time>2020-11-21T09:02:38.927Z</time>
      </trkpt>
      <trkpt lat="43.69293" lon="3.83515">
        <ele>85.54119873047</ele>
        <time>2020-11-21T09:02:40.597Z</time>
      </trkpt>
      <trkpt lat="43.69299" lon="3.8348">
        <ele>86.77695465088</ele>
        <time>2020-11-21T09:02:42.273Z</time>
      </trkpt>
      <trkpt lat="43.69247" lon="3.83484">
        <ele>86.31491088867</ele>
        <time>2020-11-21T09:02:43.959Z</time>
      </trkpt>
      <trkpt lat="43.69234" lon="3.83509">
        <ele>86.22448730469</ele>
        <time>2020-11-21T09:02:45.650Z</time>
      </trkpt>
      <trkpt lat="43.69222" lon="3.8357">
        <ele>85.5846862793</ele>
        <time>2020-11-21T09:02:47.350Z</time>
      </trkpt>
      <trkpt lat="43.69214" lon="3.8359">
        <ele>85.36614990234</ele>
        <time>2020-11-21T09:02:49.053Z</time>
      </trkpt>
      <trkpt lat="43.69204" lon="3.83578">
        <ele>86.03552246094</ele>
        <time>2020-11-21T09:02:50.759Z</time>
      </trkpt>
      <trkpt lat="43.69185" lon="3.83576">
        <ele>86.91413879395</ele>
        <time>2020-11-21T09:02:52.469Z</time>
      </trkpt>
      <trkpt lat="43.69168" lon="3.83599">
        <ele>88.84354400635</ele>
        <time>2020-11-21T09:02:54.183Z</time>
      </trkpt>
      <trkpt lat="43.69137" lon="3.83612">
        <ele>91.92409515381</ele>
        <time>2020-11-21T09:02:55.904Z</time>
      </trkpt>
      <trkpt lat="43.69116" lon="3.83622">
        <ele>94.08682250977</ele>
        <time>2020-11-21T09:02:57.629Z</time>
      </trkpt>
      <trkpt lat="43.69106" lon="3.83641">
        <ele>92.56787872314</ele>
        <time>2020-11-21T09:02:59.358Z</time>
      </trkpt>
      <trkpt lat="43.69045" lon="3.83671">
        <ele>92.28935241699</ele>
        <time>2020-11-21T09:03:01.100Z</time>
      </trkpt>
      <trkpt lat="43.69014" lon="3.83645">
        <ele>95.91620635986</ele>
        <time>2020-11-21T09:03:02.849Z</time>
      </trkpt>
      <trkpt lat="43.68987" lon="3.83633">
        <ele>95.72361755371</ele>
        <time>2020-11-21T09:03:04.604Z</time>
      </trkpt>
      <trkpt lat="43.68958" lon="3.836">
        <ele>98.04447937012</ele>
        <time>2020-11-21T09:03:06.366Z</time>
      </trkpt>
      <trkpt lat="43.68932" lon="3.83589">
        <ele>97.76231384277</ele>
        <time>2020-11-21T09:03:08.133Z</time>
      </trkpt>
      <trkpt lat="43.689" lon="3.83556">
        <ele>99.06243133545</ele>
        <time>2020-11-21T09:03:09.908Z</time>
      </trkpt>
      <trkpt lat="43.689" lon="3.83556">
        <ele>99.06323242188</ele>
        <time>2020-11-21T09:03:11.683Z</time>
      </trkpt>
      <trkpt lat="43.68888" lon="3.83536">
        <ele>100.61999511719</ele>
        <time>2020-11-21T09:03:13.462Z</time>
      </trkpt>
      <trkpt lat="43.68856" lon="3.83513">
        <ele>100.50414276123</ele>
        <time>2020-11-21T09:03:15.248Z</time>
      </trkpt>
      <trkpt lat="43.68856" lon="3.83513">
        <ele>100.50495147705</ele>
        <time>2020-11-21T09:03:17.034Z</time>
      </trkpt>
      <trkpt lat="43.68844" lon="3.83508">
        <ele>99.65258789062</ele>
        <time>2020-11-21T09:03:18.823Z</time>
      </trkpt>
      <trkpt lat="43.68828" lon="3.83467">
        <ele>102.7162322998</ele>
        <time>2020-11-21T09:03:20.619Z</time>
      </trkpt>
      <trkpt lat="43.68816" lon="3.83457">
        <ele>102.29144287109</ele>
        <time>2020-11-21T09:03:22.417Z</time>
      </trkpt>
      <trkpt lat="43.68788" lon="3.83404">
        <ele>103.23336029053</ele>
        <time>2020-11-21T09:03:24.225Z</time>
      </trkpt>
      <trkpt lat="43.68792" lon="3.83386">
        <ele>104.93252563477</ele>
        <time>2020-11-21T09:03:26.036Z</time>
      </trkpt>
      <trkpt lat="43.6878" lon="3.83357">
        <ele>105.81281280518</ele>
        <time>2020-11-21T09:03:27.851Z</time>
      </trkpt>
      <trkpt lat="43.68748" lon="3.83302">
        <ele>105.87847900391</ele>
        <time>2020-11-21T09:03:29.677Z</time>
      </trkpt>
      <trkpt lat="43.68724" lon="3.83272">
        <ele>105.56188201904</ele>
        <time>2020-11-21T09:03:31.509Z</time>
      </trkpt>
      <trkpt lat="43.68717" lon="3.8325">
        <ele>106.20550537109</ele>
        <time>2020-11-21T09:03:33.345Z</time>
      </trkpt>
      <trkpt lat="43.68718" lon="3.83217">
        <ele>108.84403991699</ele>
        <time>2020-11-21T09:03:35.185Z</time>
      </trkpt>
      <trkpt lat="43.68684" lon="3.83141">
        <ele>112.48472595215</ele>
        <time>2020-11-21T09:03:37.038Z</time>
      </trkpt>
      <trkpt lat="43.68683" lon="3.83103">
        <ele>116.60655212402</ele>
        <time>2020-11-21T09:03:38.897Z</time>
      </trkpt>
      <trkpt lat="43.68666" lon="3.83093">
        <ele>114.36674499512</ele>
        <time>2020-11-21T09:03:40.760Z</time>
      </trkpt>
      <trkpt lat="43.68639" lon="3.83058">
        <ele>111.35063934326</ele>
        <time>2020-11-21T09:03:42.630Z</time>
      </trkpt>
      <trkpt lat="43.6861" lon="3.83043">
        <ele>107.54434204102</ele>
        <time>2020-11-21T09:03:44.506Z</time>
      </trkpt>
      <trkpt lat="43.68596" lon="3.83021">
        <ele>106.15808868408</ele>
        <time>2020-11-21T09:03:46.386Z</time>
      </trkpt>
      <trkpt lat="43.68575" lon="3.83011">
        <ele>103.35189056396</ele>
        <time>2020-11-21T09:03:48.271Z</time>
      </trkpt>
      <trkpt lat="43.68563" lon="3.8297">
        <ele>100.52098846436</ele>
        <time>2020-11-21T09:03:50.162Z</time>
      </trkpt>
      <trkpt lat="43.68563" lon="3.8297">
        <ele>100.52169036865</ele>
        <time>2020-11-21T09:03:52.053Z</time>
      </trkpt>
      <trkpt lat="43.68561" lon="3.8294">
        <ele>98.53862762451</ele>
        <time>2020-11-21T09:03:53.949Z</time>
      </trkpt>
      <trkpt lat="43.68566" lon="3.82919">
        <ele>98.18730926514</ele>
        <time>2020-11-21T09:03:55.848Z</time>
      </trkpt>
      <trkpt lat="43.68581" lon="3.82884">
        <ele>97.03054046631</ele>
        <time>2020-11-21T09:03:57.753Z</time>
      </trkpt>
      <trkpt lat="43.68601" lon="3.8286">
        <ele>96.1813583374</ele>
        <time>2020-11-21T09:03:59.663Z</time>
      </trkpt>
      <trkpt lat="43.68613" lon="3.82837">
        <ele>96.00491333008</ele>
        <time>2020-11-21T09:04:01.577Z</time>
      </trkpt>
      <trkpt lat="43.68586" lon="3.82847">
        <ele>95.26934051514</ele>
        <time>2020-11-21T09:04:03.497Z</time>
      </trkpt>
      <trkpt lat="43.68582" lon="3.82846">
        <ele>95.12814331055</ele>
        <time>2020-11-21T09:04:05.417Z</time>
      </trkpt>
      <trkpt lat="43.68582" lon="3.82846">
        <ele>95.12773895264</ele>
        <time>2020-11-21T09:04:07.337Z</time>
      </trkpt>
      <trkpt lat="43.68578" lon="3.82835">
        <ele>95.0505065918</ele>
        <time>2020-11-21T09:04:09.259Z</time>
      </trkpt>
      <trkpt lat="43.68591" lon="3.82756">
        <ele>94.65609741211</ele>
        <time>2020-11-21T09:04:11.193Z</time>
      </trkpt>
      <trkpt lat="43.68576" lon="3.82735">
        <ele>94.2313079834</ele>
        <time>2020-11-21T09:04:13.131Z</time>
      </trkpt>
      <trkpt lat="43.68571" lon="3.82715">
        <ele>93.92980957031</ele>
        <time>2020-11-21T09:04:15.072Z</time>
      </trkpt>
      <trkpt lat="43.68571" lon="3.82715">
        <ele>93.92990875244</ele>
        <time>2020-11-21T09:04:17.013Z</time>
      </trkpt>
      <trkpt lat="43.68571" lon="3.82715">
        <ele>93.92293548584</ele>
        <time>2020-11-21T09:04:18.954Z</time>
      </trkpt>
      <trkpt lat="43.68566" lon="3.82698">
        <ele>93.66491699219</ele>
        <time>2020-11-21T09:04:20.898Z</time>
      </trkpt>
      <trkpt lat="43.6863" lon="3.82636">
        <ele>94.33778381348</ele>
        <time>2020-11-21T09:04:22.857Z</time>
      </trkpt>
      <trkpt lat="43.68655" lon="3.82628">
        <ele>95.31762695312</ele>
        <time>2020-11-21T09:04:24.822Z</time>
      </trkpt>
      <trkpt lat="43.68675" lon="3.82599">
        <ele>95.43784332275</ele>
        <time>2020-11-21T09:04:26.792Z</time>
      </trkpt>
      <trkpt lat="43.68768" lon="3.82497">
        <ele>99.05401611328</ele>
        <time>2020-11-21T09:04:28.786Z</time>
      </trkpt>
      <trkpt lat="43.68775" lon="3.82467">
        <ele>98.18379974365</ele>
        <time>2020-11-21T09:04:30.785Z</time>
      </trkpt>
      <trkpt lat="43.68791" lon="3.82455">
        <ele>98.33856964111</ele>
        <time>2020-11-21T09:04:32.787Z</time>
      </trkpt>
      <trkpt lat="43.68766" lon="3.8243">
        <ele>97.06018829346</ele>
        <time>2020-11-21T09:04:34.796Z</time>
      </trkpt>
      <trkpt lat="43.68748" lon="3.82399">
        <ele>97.15059661865</ele>
        <time>2020-11-21T09:04:36.810Z</time>
      </trkpt>
      <trkpt lat="43.68748" lon="3.82399">
        <ele>97.15029144287</ele>
        <time>2020-11-21T09:04:38.824Z</time>
      </trkpt>
      <trkpt lat="43.68723" lon="3.82365">
        <ele>97.08592987061</ele>
        <time>2020-11-21T09:04:40.845Z</time>
      </trkpt>
      <trkpt lat="43.68658" lon="3.82316">
        <ele>96.39155578613</ele>
        <time>2020-11-21T09:04:42.881Z</time>
      </trkpt>
      <trkpt lat="43.68477" lon="3.82248">
        <ele>95.43991088867</ele>
        <time>2020-11-21T09:04:44.955Z</time>
      </trkpt>
      <trkpt lat="43.68235" lon="3.82203">
        <ele>97.32237243652</ele>
        <time>2020-11-21T09:04:47.078Z</time>
      </trkpt>
      <trkpt lat="43.67948" lon="3.82169">
        <ele>109.04835510254</ele>
        <time>2020-11-21T09:04:49.258Z</time>
      </trkpt>
      <trkpt lat="43.67948" lon="3.82168">
        <ele>109.00164794922</ele>
        <time>2020-11-21T09:04:51.438Z</time>
      </trkpt>
      <trkpt lat="43.67948" lon="3.82159">
        <ele>108.12153625488</ele>
        <time>2020-11-21T09:04:53.619Z</time>
      </trkpt>
      <trkpt lat="43.67936" lon="3.82171">
        <ele>111.38790130615</ele>
        <time>2020-11-21T09:04:55.804Z</time>
      </trkpt>
      <trkpt lat="43.67869" lon="3.82185">
        <ele>119.98505401611</ele>
        <time>2020-11-21T09:04:58.002Z</time>
      </trkpt>
      <trkpt lat="43.67869" lon="3.82185">
        <ele>119.98414611816</ele>
        <time>2020-11-21T09:05:00.200Z</time>
      </trkpt>
      <trkpt lat="43.67794" lon="3.82159">
        <ele>122.70486450195</ele>
        <time>2020-11-21T09:05:02.413Z</time>
      </trkpt>
      <trkpt lat="43.67662" lon="3.82098">
        <ele>120.51591491699</ele>
        <time>2020-11-21T09:05:04.654Z</time>
      </trkpt>
      <trkpt lat="43.67416" lon="3.82133">
        <ele>134.91325378418</ele>
        <time>2020-11-21T09:05:06.945Z</time>
      </trkpt>
      <trkpt lat="43.67383" lon="3.82132">
        <ele>135.24794006348</ele>
        <time>2020-11-21T09:05:09.242Z</time>
      </trkpt>
      <trkpt lat="43.67254" lon="3.82165">
        <ele>129.36714172363</ele>
        <time>2020-11-21T09:05:11.566Z</time>
      </trkpt>
      <trkpt lat="43.67233" lon="3.82158">
        <ele>129.59483337402</ele>
        <time>2020-11-21T09:05:13.894Z</time>
      </trkpt>
      <trkpt lat="43.67215" lon="3.82163">
        <ele>128.89971923828</ele>
        <time>2020-11-21T09:05:16.226Z</time>
      </trkpt>
      <trkpt lat="43.67202" lon="3.82177">
        <ele>127.92140960693</ele>
        <time>2020-11-21T09:05:18.561Z</time>
      </trkpt>
      <trkpt lat="43.67158" lon="3.82235">
        <ele>124.7698059082</ele>
        <time>2020-11-21T09:05:20.908Z</time>
      </trkpt>
      <trkpt lat="43.67136" lon="3.82281">
        <ele>123.82176971436</ele>
        <time>2020-11-21T09:05:23.263Z</time>
      </trkpt>
      <trkpt lat="43.67123" lon="3.82293">
        <ele>124.21878814697</ele>
        <time>2020-11-21T09:05:25.621Z</time>
      </trkpt>
      <trkpt lat="43.67084" lon="3.82264">
        <ele>125.07076263428</ele>
        <time>2020-11-21T09:05:27.988Z</time>
      </trkpt>
      <trkpt lat="43.67074" lon="3.82238">
        <ele>126.59648895264</ele>
        <time>2020-11-21T09:05:30.359Z</time>
      </trkpt>
      <trkpt lat="43.67104" lon="3.82165">
        <ele>127.5583190918</ele>
        <time>2020-11-21T09:05:32.743Z</time>
      </trkpt>
      <trkpt lat="43.67086" lon="3.8214">
        <ele>128.99479675293</ele>
        <time>2020-11-21T09:05:35.132Z</time>
      </trkpt>
      <trkpt lat="43.67045" lon="3.82136">
        <ele>131.02824401855</ele>
        <time>2020-11-21T09:05:37.529Z</time>
      </trkpt>
      <trkpt lat="43.67045" lon="3.82136">
        <ele>131.02864074707</ele>
        <time>2020-11-21T09:05:39.926Z</time>
      </trkpt>
      <trkpt lat="43.67016" lon="3.82136">
        <ele>132.3775177002</ele>
        <time>2020-11-21T09:05:42.329Z</time>
      </trkpt>
      <trkpt lat="43.66959" lon="3.82099">
        <ele>135.32530212402</ele>
        <time>2020-11-21T09:05:44.744Z</time>
      </trkpt>
      <trkpt lat="43.66956" lon="3.82094">
        <ele>135.55700683594</ele>
        <time>2020-11-21T09:05:47.160Z</time>
      </trkpt>
      <trkpt lat="43.66956" lon="3.82094">
        <ele>135.55680847168</ele>
        <time>2020-11-21T09:05:49.576Z</time>
      </trkpt>
      <trkpt lat="43.66956" lon="3.82094">
        <ele>135.57321166992</ele>
        <time>2020-11-21T09:05:51.992Z</time>
      </trkpt>
      <trkpt lat="43.66923" lon="3.82051">
        <ele>137.31303405762</ele>
        <time>2020-11-21T09:05:54.418Z</time>
      </trkpt>
      <trkpt lat="43.66873" lon="3.81947">
        <ele>141.16502380371</ele>
        <time>2020-11-21T09:05:56.862Z</time>
      </trkpt>
      <trkpt lat="43.66873" lon="3.81947">
        <ele>141.16532897949</ele>
        <time>2020-11-21T09:05:59.306Z</time>
      </trkpt>
      <trkpt lat="43.66805" lon="3.81732">
        <ele>143.08135986328</ele>
        <time>2020-11-21T09:06:01.784Z</time>
      </trkpt>
      <trkpt lat="43.668" lon="3.81704">
        <ele>142.58683776855</ele>
        <time>2020-11-21T09:06:04.266Z</time>
      </trkpt>
      <trkpt lat="43.66784" lon="3.81675">
        <ele>143.08885192871</ele>
        <time>2020-11-21T09:06:06.753Z</time>
      </trkpt>
      <trkpt lat="43.66779" lon="3.81649">
        <ele>142.67613220215</ele>
        <time>2020-11-21T09:06:09.244Z</time>
      </trkpt>
      <trkpt lat="43.66779" lon="3.81649">
        <ele>142.67694091797</ele>
        <time>2020-11-21T09:06:11.735Z</time>
      </trkpt>
      <trkpt lat="43.66759" lon="3.81585">
        <ele>141.17643737793</ele>
        <time>2020-11-21T09:06:14.236Z</time>
      </trkpt>
      <trkpt lat="43.66702" lon="3.81513">
        <ele>138.80526733398</ele>
        <time>2020-11-21T09:06:16.753Z</time>
      </trkpt>
      <trkpt lat="43.66688" lon="3.81479">
        <ele>136.83578491211</ele>
        <time>2020-11-21T09:06:19.275Z</time>
      </trkpt>
      <trkpt lat="43.66676" lon="3.814">
        <ele>135.28022766113</ele>
        <time>2020-11-21T09:06:21.809Z</time>
      </trkpt>
      <trkpt lat="43.66656" lon="3.8138">
        <ele>136.50311279297</ele>
        <time>2020-11-21T09:06:24.348Z</time>
      </trkpt>
      <trkpt lat="43.66643" lon="3.81352">
        <ele>137.4899597168</ele>
        <time>2020-11-21T09:06:26.892Z</time>
      </trkpt>
      <trkpt lat="43.66626" lon="3.81345">
        <ele>137.92761230469</ele>
        <time>2020-11-21T09:06:29.439Z</time>
      </trkpt>
      <trkpt lat="43.66642" lon="3.81317">
        <ele>136.6789855957</ele>
        <time>2020-11-21T09:06:31.991Z</time>
      </trkpt>
      <trkpt lat="43.66668" lon="3.813">
        <ele>137.12243652344</ele>
        <time>2020-11-21T09:06:34.549Z</time>
      </trkpt>
      <trkpt lat="43.66704" lon="3.81226">
        <ele>140.86000061035</ele>
        <time>2020-11-21T09:06:37.120Z</time>
      </trkpt>
      <trkpt lat="43.66706" lon="3.81214">
        <ele>141.5036315918</ele>
        <time>2020-11-21T09:06:39.693Z</time>
      </trkpt>
      <trkpt lat="43.66682" lon="3.81134">
        <ele>143.77040100098</ele>
        <time>2020-11-21T09:06:42.278Z</time>
      </trkpt>
      <trkpt lat="43.66682" lon="3.81134">
        <ele>143.77000427246</ele>
        <time>2020-11-21T09:06:44.863Z</time>
      </trkpt>
      <trkpt lat="43.66657" lon="3.81081">
        <ele>145.34477233887</ele>
        <time>2020-11-21T09:06:47.458Z</time>
      </trkpt>
      <trkpt lat="43.66657" lon="3.81037">
        <ele>146.64196777344</ele>
        <time>2020-11-21T09:06:50.059Z</time>
      </trkpt>
      <trkpt lat="43.66634" lon="3.80943">
        <ele>150.12948608398</ele>
        <time>2020-11-21T09:06:52.674Z</time>
      </trkpt>
      <trkpt lat="43.66619" lon="3.80889">
        <ele>149.41355895996</ele>
        <time>2020-11-21T09:06:55.298Z</time>
      </trkpt>
      <trkpt lat="43.66607" lon="3.80796">
        <ele>147.53692626953</ele>
        <time>2020-11-21T09:06:57.936Z</time>
      </trkpt>
      <trkpt lat="43.66599" lon="3.80725">
        <ele>146.5304107666</ele>
        <time>2020-11-21T09:07:00.584Z</time>
      </trkpt>
      <trkpt lat="43.6653" lon="3.80583">
        <ele>147.6177520752</ele>
        <time>2020-11-21T09:07:03.257Z</time>
      </trkpt>
      <trkpt lat="43.66481" lon="3.80523">
        <ele>147.07077026367</ele>
        <time>2020-11-21T09:07:05.943Z</time>
      </trkpt>
      <trkpt lat="43.66482" lon="3.80514">
        <ele>147.27606201172</ele>
        <time>2020-11-21T09:07:08.630Z</time>
      </trkpt>
      <trkpt lat="43.66407" lon="3.80458">
        <ele>146.81285095215</ele>
        <time>2020-11-21T09:07:11.334Z</time>
      </trkpt>
      <trkpt lat="43.66407" lon="3.80458">
        <ele>146.81265258789</ele>
        <time>2020-11-21T09:07:14.038Z</time>
      </trkpt>
      <trkpt lat="43.66296" lon="3.80362">
        <ele>147.15675354004</ele>
        <time>2020-11-21T09:07:16.769Z</time>
      </trkpt>
      <trkpt lat="43.66207" lon="3.80296">
        <ele>147.7029876709</ele>
        <time>2020-11-21T09:07:19.520Z</time>
      </trkpt>
      <trkpt lat="43.66122" lon="3.80218">
        <ele>145.82929992676</ele>
        <time>2020-11-21T09:07:22.291Z</time>
      </trkpt>
      <trkpt lat="43.66097" lon="3.80214">
        <ele>145.23287963867</ele>
        <time>2020-11-21T09:07:25.067Z</time>
      </trkpt>
      <trkpt lat="43.66078" lon="3.80231">
        <ele>145.21990966797</ele>
        <time>2020-11-21T09:07:27.848Z</time>
      </trkpt>
      <trkpt lat="43.66052" lon="3.80237">
        <ele>144.77279663086</ele>
        <time>2020-11-21T09:07:30.634Z</time>
      </trkpt>
      <trkpt lat="43.66028" lon="3.80236">
        <ele>144.20642089844</ele>
        <time>2020-11-21T09:07:33.425Z</time>
      </trkpt>
      <trkpt lat="43.65993" lon="3.80232">
        <ele>143.35682678223</ele>
        <time>2020-11-21T09:07:36.223Z</time>
      </trkpt>
      <trkpt lat="43.65958" lon="3.8022">
        <ele>142.76614379883</ele>
        <time>2020-11-21T09:07:39.028Z</time>
      </trkpt>
      <trkpt lat="43.65916" lon="3.80195">
        <ele>142.61952209473</ele>
        <time>2020-11-21T09:07:41.842Z</time>
      </trkpt>
      <trkpt lat="43.65876" lon="3.80153">
        <ele>140.88221740723</ele>
        <time>2020-11-21T09:07:44.666Z</time>
      </trkpt>
      <trkpt lat="43.65819" lon="3.80069">
        <ele>138.72782897949</ele>
        <time>2020-11-21T09:07:47.507Z</time>
      </trkpt>
      <trkpt lat="43.65819" lon="3.80069">
        <ele>138.72743225098</ele>
        <time>2020-11-21T09:07:50.348Z</time>
      </trkpt>
      <trkpt lat="43.65819" lon="3.80069">
        <ele>138.72775268555</ele>
        <time>2020-11-21T09:07:53.189Z</time>
      </trkpt>
      <trkpt lat="43.65811" lon="3.80058">
        <ele>138.73950195312</ele>
        <time>2020-11-21T09:07:56.032Z</time>
      </trkpt>
      <trkpt lat="43.65748" lon="3.80036">
        <ele>141.36444091797</ele>
        <time>2020-11-21T09:07:58.888Z</time>
      </trkpt>
      <trkpt lat="43.65748" lon="3.80036">
        <ele>141.36402893066</ele>
        <time>2020-11-21T09:08:01.744Z</time>
      </trkpt>
      <trkpt lat="43.6572" lon="3.80043">
        <ele>142.88339233398</ele>
        <time>2020-11-21T09:08:04.606Z</time>
      </trkpt>
      <trkpt lat="43.65709" lon="3.80055">
        <ele>143.43981933594</ele>
        <time>2020-11-21T09:08:07.471Z</time>
      </trkpt>
      <trkpt lat="43.65659" lon="3.80105">
        <ele>144.3249206543</ele>
        <time>2020-11-21T09:08:10.348Z</time>
      </trkpt>
      <trkpt lat="43.65626" lon="3.8014">
        <ele>145.00717163086</ele>
        <time>2020-11-21T09:08:13.234Z</time>
      </trkpt>
      <trkpt lat="43.65611" lon="3.80156">
        <ele>145.93428039551</ele>
        <time>2020-11-21T09:08:16.123Z</time>
      </trkpt>
      <trkpt lat="43.6559" lon="3.80133">
        <ele>145.8296661377</ele>
        <time>2020-11-21T09:08:19.018Z</time>
      </trkpt>
      <trkpt lat="43.65574" lon="3.80154">
        <ele>146.51179504395</ele>
        <time>2020-11-21T09:08:21.917Z</time>
      </trkpt>
      <trkpt lat="43.65571" lon="3.80157">
        <ele>146.62359619141</ele>
        <time>2020-11-21T09:08:24.817Z</time>
      </trkpt>
      <trkpt lat="43.65554" lon="3.80168">
        <ele>146.75231933594</ele>
        <time>2020-11-21T09:08:27.721Z</time>
      </trkpt>
      <trkpt lat="43.65542" lon="3.80173">
        <ele>146.8166809082</ele>
        <time>2020-11-21T09:08:30.627Z</time>
      </trkpt>
      <trkpt lat="43.65513" lon="3.80161">
        <ele>146.82643127441</ele>
        <time>2020-11-21T09:08:33.539Z</time>
      </trkpt>
      <trkpt lat="43.65495" lon="3.8017">
        <ele>147.00421142578</ele>
        <time>2020-11-21T09:08:36.455Z</time>
      </trkpt>
      <trkpt lat="43.65485" lon="3.80184">
        <ele>145.98759460449</ele>
        <time>2020-11-21T09:08:39.374Z</time>
      </trkpt>
      <trkpt lat="43.65429" lon="3.8026">
        <ele>137.36434936523</ele>
        <time>2020-11-21T09:08:42.308Z</time>
      </trkpt>
      <trkpt lat="43.65427" lon="3.80272">
        <ele>136.62365722656</ele>
        <time>2020-11-21T09:08:45.244Z</time>
      </trkpt>
      <trkpt lat="43.65446" lon="3.80323">
        <ele>131.81912231445</ele>
        <time>2020-11-21T09:08:48.189Z</time>
      </trkpt>
      <trkpt lat="43.65444" lon="3.80343">
        <ele>129.45059204102</ele>
        <time>2020-11-21T09:08:51.136Z</time>
      </trkpt>
      <trkpt lat="43.65434" lon="3.80361">
        <ele>126.13938903809</ele>
        <time>2020-11-21T09:08:54.087Z</time>
      </trkpt>
      <trkpt lat="43.65401" lon="3.80349">
        <ele>127.74140930176</ele>
        <time>2020-11-21T09:08:57.044Z</time>
      </trkpt>
      <trkpt lat="43.65357" lon="3.80397">
        <ele>117.27893829346</ele>
        <time>2020-11-21T09:09:00.013Z</time>
      </trkpt>
      <trkpt lat="43.65347" lon="3.80405">
        <ele>114.68433380127</ele>
        <time>2020-11-21T09:09:02.984Z</time>
      </trkpt>
      <trkpt lat="43.65347" lon="3.80405">
        <ele>114.6851348877</ele>
        <time>2020-11-21T09:09:05.955Z</time>
      </trkpt>
      <trkpt lat="43.65313" lon="3.80428">
        <ele>107.09503173828</ele>
        <time>2020-11-21T09:09:08.934Z</time>
      </trkpt>
      <trkpt lat="43.65322" lon="3.8046">
        <ele>103.00823974609</ele>
        <time>2020-11-21T09:09:11.917Z</time>
      </trkpt>
      <trkpt lat="43.65319" lon="3.8047">
        <ele>101.36056518555</ele>
        <time>2020-11-21T09:09:14.902Z</time>
      </trkpt>
      <trkpt lat="43.65293" lon="3.80489">
        <ele>97.73120880127</ele>
        <time>2020-11-21T09:09:17.893Z</time>
      </trkpt>
      <trkpt lat="43.65293" lon="3.80489">
        <ele>97.73161315918</ele>
        <time>2020-11-21T09:09:20.884Z</time>
      </trkpt>
      <trkpt lat="43.6525" lon="3.80514">
        <ele>92.71182250977</ele>
        <time>2020-11-21T09:09:23.884Z</time>
      </trkpt>
      <trkpt lat="43.65215" lon="3.80534">
        <ele>90.09987640381</ele>
        <time>2020-11-21T09:09:26.892Z</time>
      </trkpt>
      <trkpt lat="43.65169" lon="3.80561">
        <ele>84.95638275146</ele>
        <time>2020-11-21T09:09:29.910Z</time>
      </trkpt>
      <trkpt lat="43.65042" lon="3.8051">
        <ele>76.78187561035</ele>
        <time>2020-11-21T09:09:32.954Z</time>
      </trkpt>
      <trkpt lat="43.65001" lon="3.80386">
        <ele>75.12372589111</ele>
        <time>2020-11-21T09:09:36.018Z</time>
      </trkpt>
      <trkpt lat="43.65001" lon="3.80386">
        <ele>75.12442779541</ele>
        <time>2020-11-21T09:09:39.082Z</time>
      </trkpt>
      <trkpt lat="43.64997" lon="3.80373">
        <ele>74.91846466064</ele>
        <time>2020-11-21T09:09:42.148Z</time>
      </trkpt>
      <trkpt lat="43.64959" lon="3.80261">
        <ele>73.13014221191</ele>
        <time>2020-11-21T09:09:45.232Z</time>
      </trkpt>
      <trkpt lat="43.64948" lon="3.80177">
        <ele>71.67889404297</ele>
        <time>2020-11-21T09:09:48.329Z</time>
      </trkpt>
      <trkpt lat="43.64942" lon="3.80043">
        <ele>73.3959197998</ele>
        <time>2020-11-21T09:09:51.445Z</time>
      </trkpt>
      <trkpt lat="43.64931" lon="3.7998">
        <ele>73.58116149902</ele>
        <time>2020-11-21T09:09:54.570Z</time>
      </trkpt>
      <trkpt lat="43.6493" lon="3.79977">
        <ele>73.55461120605</ele>
        <time>2020-11-21T09:09:57.696Z</time>
      </trkpt>
      <trkpt lat="43.6493" lon="3.79977">
        <ele>73.55541992188</ele>
        <time>2020-11-21T09:10:00.822Z</time>
      </trkpt>
      <trkpt lat="43.64913" lon="3.79902">
        <ele>72.05159759521</ele>
        <time>2020-11-21T09:10:03.959Z</time>
      </trkpt>
      <trkpt lat="43.64887" lon="3.79832">
        <ele>69.07161712646</ele>
        <time>2020-11-21T09:10:07.108Z</time>
      </trkpt>
      <trkpt lat="43.64827" lon="3.79817">
        <ele>65.70965576172</ele>
        <time>2020-11-21T09:10:10.269Z</time>
      </trkpt>
      <trkpt lat="43.64812" lon="3.79813">
        <ele>65.09177398682</ele>
        <time>2020-11-21T09:10:13.433Z</time>
      </trkpt>
      <trkpt lat="43.64768" lon="3.79797">
        <ele>64.27127838135</ele>
        <time>2020-11-21T09:10:16.606Z</time>
      </trkpt>
      <trkpt lat="43.64774" lon="3.79778">
        <ele>64.13482666016</ele>
        <time>2020-11-21T09:10:19.782Z</time>
      </trkpt>
      <trkpt lat="43.64731" lon="3.7973">
        <ele>61.74147415161</ele>
        <time>2020-11-21T09:10:22.969Z</time>
      </trkpt>
      <trkpt lat="43.64731" lon="3.7973">
        <ele>61.74207687378</ele>
        <time>2020-11-21T09:10:26.156Z</time>
      </trkpt>
      <trkpt lat="43.64707" lon="3.79718">
        <ele>60.48886108398</ele>
        <time>2020-11-21T09:10:29.348Z</time>
      </trkpt>
      <trkpt lat="43.64695" lon="3.79714">
        <ele>59.96109008789</ele>
        <time>2020-11-21T09:10:32.543Z</time>
      </trkpt>
      <trkpt lat="43.6467" lon="3.79662">
        <ele>57.99193954468</ele>
        <time>2020-11-21T09:10:35.747Z</time>
      </trkpt>
      <trkpt lat="43.6467" lon="3.79662">
        <ele>57.99214172363</ele>
        <time>2020-11-21T09:10:38.951Z</time>
      </trkpt>
      <trkpt lat="43.64649" lon="3.79633">
        <ele>56.80787658691</ele>
        <time>2020-11-21T09:10:42.161Z</time>
      </trkpt>
      <trkpt lat="43.64631" lon="3.79613">
        <ele>55.88105773926</ele>
        <time>2020-11-21T09:10:45.375Z</time>
      </trkpt>
      <trkpt lat="43.64565" lon="3.79567">
        <ele>56.36477661133</ele>
        <time>2020-11-21T09:10:48.604Z</time>
      </trkpt>
      <trkpt lat="43.64602" lon="3.79472">
        <ele>60.92541885376</ele>
        <time>2020-11-21T09:10:51.849Z</time>
      </trkpt>
      <trkpt lat="43.64589" lon="3.79454">
        <ele>64.34949493408</ele>
        <time>2020-11-21T09:10:55.097Z</time>
      </trkpt>
      <trkpt lat="43.64577" lon="3.79445">
        <ele>66.64079284668</ele>
        <time>2020-11-21T09:10:58.348Z</time>
      </trkpt>
      <trkpt lat="43.64571" lon="3.79439">
        <ele>67.90229034424</ele>
        <time>2020-11-21T09:11:01.601Z</time>
      </trkpt>
      <trkpt lat="43.64481" lon="3.79447">
        <ele>76.51828765869</ele>
        <time>2020-11-21T09:11:04.872Z</time>
      </trkpt>
      <trkpt lat="43.64377" lon="3.79542">
        <ele>70.0258026123</ele>
        <time>2020-11-21T09:11:08.168Z</time>
      </trkpt>
      <trkpt lat="43.64359" lon="3.79541">
        <ele>71.5061340332</ele>
        <time>2020-11-21T09:11:11.467Z</time>
      </trkpt>
      <trkpt lat="43.64351" lon="3.79524">
        <ele>74.70770263672</ele>
        <time>2020-11-21T09:11:14.769Z</time>
      </trkpt>
      <trkpt lat="43.64321" lon="3.79514">
        <ele>78.18993377686</ele>
        <time>2020-11-21T09:11:18.077Z</time>
      </trkpt>
      <trkpt lat="43.64311" lon="3.79492">
        <ele>82.82402038574</ele>
        <time>2020-11-21T09:11:21.389Z</time>
      </trkpt>
      <trkpt lat="43.64305" lon="3.79437">
        <ele>91.74015808105</ele>
        <time>2020-11-21T09:11:24.709Z</time>
      </trkpt>
      <trkpt lat="43.64295" lon="3.79413">
        <ele>96.34850311279</ele>
        <time>2020-11-21T09:11:28.033Z</time>
      </trkpt>
      <trkpt lat="43.64295" lon="3.79413">
        <ele>96.34769439697</ele>
        <time>2020-11-21T09:11:31.357Z</time>
      </trkpt>
      <trkpt lat="43.64302" lon="3.79297">
        <ele>113.28454589844</ele>
        <time>2020-11-21T09:11:34.698Z</time>
      </trkpt>
      <trkpt lat="43.64288" lon="3.79286">
        <ele>114.88053131104</ele>
        <time>2020-11-21T09:11:38.042Z</time>
      </trkpt>
      <trkpt lat="43.64291" lon="3.79247">
        <ele>118.10989379883</ele>
        <time>2020-11-21T09:11:41.392Z</time>
      </trkpt>
      <trkpt lat="43.64282" lon="3.79198">
        <ele>119.21998596191</ele>
        <time>2020-11-21T09:11:44.750Z</time>
      </trkpt>
      <trkpt lat="43.64283" lon="3.79091">
        <ele>123.03234863281</ele>
        <time>2020-11-21T09:11:48.123Z</time>
      </trkpt>
      <trkpt lat="43.64266" lon="3.7903">
        <ele>124.51010894775</ele>
        <time>2020-11-21T09:11:51.505Z</time>
      </trkpt>
      <trkpt lat="43.64253" lon="3.79011">
        <ele>124.43286895752</ele>
        <time>2020-11-21T09:11:54.891Z</time>
      </trkpt>
      <trkpt lat="43.64233" lon="3.78968">
        <ele>124.54851531982</ele>
        <time>2020-11-21T09:11:58.285Z</time>
      </trkpt>
      <trkpt lat="43.64224" lon="3.78954">
        <ele>124.47128295898</ele>
        <time>2020-11-21T09:12:01.681Z</time>
      </trkpt>
      <trkpt lat="43.64194" lon="3.78918">
        <ele>123.66079711914</ele>
        <time>2020-11-21T09:12:05.085Z</time>
      </trkpt>
      <trkpt lat="43.64169" lon="3.78887">
        <ele>122.59358215332</ele>
        <time>2020-11-21T09:12:08.496Z</time>
      </trkpt>
      <trkpt lat="43.6414" lon="3.78821">
        <ele>121.64051818848</ele>
        <time>2020-11-21T09:12:11.918Z</time>
      </trkpt>
      <trkpt lat="43.64136" lon="3.78779">
        <ele>121.32225036621</ele>
        <time>2020-11-21T09:12:15.346Z</time>
      </trkpt>
      <trkpt lat="43.64127" lon="3.78779">
        <ele>120.97470092773</ele>
        <time>2020-11-21T09:12:18.776Z</time>
      </trkpt>
      <trkpt lat="43.64112" lon="3.78759">
        <ele>120.33869171143</ele>
        <time>2020-11-21T09:12:22.211Z</time>
      </trkpt>
      <trkpt lat="43.64101" lon="3.78745">
        <ele>119.93669128418</ele>
        <time>2020-11-21T09:12:25.649Z</time>
      </trkpt>
      <trkpt lat="43.64101" lon="3.78727">
        <ele>119.93669128418</ele>
        <time>2020-11-21T09:12:29.089Z</time>
      </trkpt>
      <trkpt lat="43.64069" lon="3.78702">
        <ele>118.39199829102</ele>
        <time>2020-11-21T09:12:32.537Z</time>
      </trkpt>
      <trkpt lat="43.64045" lon="3.78622">
        <ele>116.35063934326</ele>
        <time>2020-11-21T09:12:35.997Z</time>
      </trkpt>
      <trkpt lat="43.64022" lon="3.78632">
        <ele>115.45867919922</ele>
        <time>2020-11-21T09:12:39.462Z</time>
      </trkpt>
      <trkpt lat="43.64026" lon="3.78612">
        <ele>115.43065643311</ele>
        <time>2020-11-21T09:12:42.930Z</time>
      </trkpt>
      <trkpt lat="43.64026" lon="3.78612">
        <ele>115.43045806885</ele>
        <time>2020-11-21T09:12:46.398Z</time>
      </trkpt>
      <trkpt lat="43.64026" lon="3.78611">
        <ele>115.4245223999</ele>
        <time>2020-11-21T09:12:49.866Z</time>
      </trkpt>
      <trkpt lat="43.64043" lon="3.78537">
        <ele>112.50904846191</ele>
        <time>2020-11-21T09:12:53.346Z</time>
      </trkpt>
      <trkpt lat="43.6408" lon="3.7843">
        <ele>110.65556335449</ele>
        <time>2020-11-21T09:12:56.843Z</time>
      </trkpt>
      <trkpt lat="43.64092" lon="3.7842">
        <ele>111.19621276855</ele>
        <time>2020-11-21T09:13:00.343Z</time>
      </trkpt>
      <trkpt lat="43.64138" lon="3.78419">
        <ele>112.72507476807</ele>
        <time>2020-11-21T09:13:03.852Z</time>
      </trkpt>
      <trkpt lat="43.64141" lon="3.78353">
        <ele>114.42637634277</ele>
        <time>2020-11-21T09:13:07.370Z</time>
      </trkpt>
      <trkpt lat="43.6417" lon="3.78286">
        <ele>117.90193939209</ele>
        <time>2020-11-21T09:13:10.900Z</time>
      </trkpt>
      <trkpt lat="43.64183" lon="3.78154">
        <ele>123.25960540771</ele>
        <time>2020-11-21T09:13:14.449Z</time>
      </trkpt>
      <trkpt lat="43.64195" lon="3.781">
        <ele>123.81900787354</ele>
        <time>2020-11-21T09:13:18.006Z</time>
      </trkpt>
      <trkpt lat="43.64198" lon="3.78038">
        <ele>124.51412200928</ele>
        <time>2020-11-21T09:13:21.572Z</time>
      </trkpt>
      <trkpt lat="43.64198" lon="3.77848">
        <ele>125.05158996582</ele>
        <time>2020-11-21T09:13:25.166Z</time>
      </trkpt>
      <trkpt lat="43.64187" lon="3.77816">
        <ele>123.63562011719</ele>
        <time>2020-11-21T09:13:28.765Z</time>
      </trkpt>
      <trkpt lat="43.64195" lon="3.77757">
        <ele>121.49039459229</ele>
        <time>2020-11-21T09:13:32.373Z</time>
      </trkpt>
      <trkpt lat="43.64194" lon="3.77729">
        <ele>119.77835845947</ele>
        <time>2020-11-21T09:13:35.985Z</time>
      </trkpt>
      <trkpt lat="43.64188" lon="3.77719">
        <ele>118.96769714355</ele>
        <time>2020-11-21T09:13:39.599Z</time>
      </trkpt>
      <trkpt lat="43.64192" lon="3.77679">
        <ele>117.23499298096</ele>
        <time>2020-11-21T09:13:43.219Z</time>
      </trkpt>
      <trkpt lat="43.64192" lon="3.77679">
        <ele>117.23529815674</ele>
        <time>2020-11-21T09:13:46.839Z</time>
      </trkpt>
      <trkpt lat="43.64176" lon="3.77201">
        <ele>129.11476135254</ele>
        <time>2020-11-21T09:13:50.528Z</time>
      </trkpt>
      <trkpt lat="43.64166" lon="3.77056">
        <ele>132.38621520996</ele>
        <time>2020-11-21T09:13:54.238Z</time>
      </trkpt>
      <trkpt lat="43.64133" lon="3.76744">
        <ele>144.46365356445</ele>
        <time>2020-11-21T09:13:57.994Z</time>
      </trkpt>
      <trkpt lat="43.64133" lon="3.76744">
        <ele>144.46395874023</ele>
        <time>2020-11-21T09:14:01.750Z</time>
      </trkpt>
      <trkpt lat="43.64117" lon="3.76674">
        <ele>142.54864501953</ele>
        <time>2020-11-21T09:14:05.517Z</time>
      </trkpt>
      <trkpt lat="43.64107" lon="3.76655">
        <ele>141.85353088379</ele>
        <time>2020-11-21T09:14:09.287Z</time>
      </trkpt>
      <trkpt lat="43.6408" lon="3.76628">
        <ele>139.37315368652</ele>
        <time>2020-11-21T09:14:13.064Z</time>
      </trkpt>
      <trkpt lat="43.64071" lon="3.76604">
        <ele>138.33625793457</ele>
        <time>2020-11-21T09:14:16.845Z</time>
      </trkpt>
      <trkpt lat="43.64033" lon="3.76593">
        <ele>134.79634094238</ele>
        <time>2020-11-21T09:14:20.634Z</time>
      </trkpt>
      <trkpt lat="43.63983" lon="3.76541">
        <ele>130.4348449707</ele>
        <time>2020-11-21T09:14:24.435Z</time>
      </trkpt>
      <trkpt lat="43.6395" lon="3.76488">
        <ele>127.30684661865</ele>
        <time>2020-11-21T09:14:28.246Z</time>
      </trkpt>
      <trkpt lat="43.63899" lon="3.76426">
        <ele>123.84384918213</ele>
        <time>2020-11-21T09:14:32.071Z</time>
      </trkpt>
      <trkpt lat="43.63897" lon="3.76412">
        <ele>124.41023254395</ele>
        <time>2020-11-21T09:14:35.898Z</time>
      </trkpt>
      <trkpt lat="43.63917" lon="3.7634">
        <ele>125.88303375244</ele>
        <time>2020-11-21T09:14:39.736Z</time>
      </trkpt>
      <trkpt lat="43.63925" lon="3.76279">
        <ele>126.41797637939</ele>
        <time>2020-11-21T09:14:43.583Z</time>
      </trkpt>
      <trkpt lat="43.6393" lon="3.76184">
        <ele>128.37953186035</ele>
        <time>2020-11-21T09:14:47.444Z</time>
      </trkpt>
      <trkpt lat="43.63903" lon="3.76063">
        <ele>131.38339233398</ele>
        <time>2020-11-21T09:14:51.323Z</time>
      </trkpt>
      <trkpt lat="43.63902" lon="3.76057">
        <ele>131.42321777344</ele>
        <time>2020-11-21T09:14:55.203Z</time>
      </trkpt>
      <trkpt lat="43.63902" lon="3.76057">
        <ele>131.42321777344</ele>
        <time>2020-11-21T09:14:59.083Z</time>
      </trkpt>
      <trkpt lat="43.63902" lon="3.76057">
        <ele>131.42321777344</ele>
        <time>2020-11-21T09:15:02.963Z</time>
      </trkpt>
      <trkpt lat="43.63902" lon="3.76057">
        <ele>131.42530822754</ele>
        <time>2020-11-21T09:15:06.843Z</time>
      </trkpt>
      <trkpt lat="43.63892" lon="3.75951">
        <ele>134.97552490234</ele>
        <time>2020-11-21T09:15:10.739Z</time>
      </trkpt>
      <trkpt lat="43.63876" lon="3.75877">
        <ele>140.21839904785</ele>
        <time>2020-11-21T09:15:14.646Z</time>
      </trkpt>
      <trkpt lat="43.63876" lon="3.75877">
        <ele>140.21789550781</ele>
        <time>2020-11-21T09:15:18.553Z</time>
      </trkpt>
      <trkpt lat="43.63862" lon="3.75774">
        <ele>146.34750366211</ele>
        <time>2020-11-21T09:15:22.475Z</time>
      </trkpt>
      <trkpt lat="43.63893" lon="3.75758">
        <ele>145.51277160645</ele>
        <time>2020-11-21T09:15:26.404Z</time>
      </trkpt>
      <trkpt lat="43.63951" lon="3.75745">
        <ele>144.97361755371</ele>
        <time>2020-11-21T09:15:30.345Z</time>
      </trkpt>
      <trkpt lat="43.63907" lon="3.75537">
        <ele>155.68690490723</ele>
        <time>2020-11-21T09:15:34.317Z</time>
      </trkpt>
      <trkpt lat="43.639" lon="3.7535">
        <ele>155.57116699219</ele>
        <time>2020-11-21T09:15:38.316Z</time>
      </trkpt>
      <trkpt lat="43.63879" lon="3.75197">
        <ele>154.71209716797</ele>
        <time>2020-11-21T09:15:42.338Z</time>
      </trkpt>
      <trkpt lat="43.63888" lon="3.7515">
        <ele>156.46925354004</ele>
        <time>2020-11-21T09:15:46.367Z</time>
      </trkpt>
      <trkpt lat="43.63942" lon="3.75079">
        <ele>157.69825744629</ele>
        <time>2020-11-21T09:15:50.411Z</time>
      </trkpt>
      <trkpt lat="43.63978" lon="3.7505">
        <ele>156.73812866211</ele>
        <time>2020-11-21T09:15:54.463Z</time>
      </trkpt>
      <trkpt lat="43.63964" lon="3.74988">
        <ele>156.04991149902</ele>
        <time>2020-11-21T09:15:58.525Z</time>
      </trkpt>
      <trkpt lat="43.63966" lon="3.74964">
        <ele>156.18827819824</ele>
        <time>2020-11-21T09:16:02.590Z</time>
      </trkpt>
      <trkpt lat="43.63966" lon="3.74964">
        <ele>156.18878173828</ele>
        <time>2020-11-21T09:16:06.655Z</time>
      </trkpt>
      <trkpt lat="43.63945" lon="3.74956">
        <ele>157.31141662598</ele>
        <time>2020-11-21T09:16:10.724Z</time>
      </trkpt>
      <trkpt lat="43.63899" lon="3.74958">
        <ele>160.37142944336</ele>
        <time>2020-11-21T09:16:14.803Z</time>
      </trkpt>
      <trkpt lat="43.63856" lon="3.74949">
        <ele>163.28948974609</ele>
        <time>2020-11-21T09:16:18.890Z</time>
      </trkpt>
      <trkpt lat="43.63741" lon="3.74931">
        <ele>162.73168945312</ele>
        <time>2020-11-21T09:16:23.001Z</time>
      </trkpt>
      <trkpt lat="43.63608" lon="3.74921">
        <ele>163.22682189941</ele>
        <time>2020-11-21T09:16:27.138Z</time>
      </trkpt>
      <trkpt lat="43.6356" lon="3.74891">
        <ele>162.80932617188</ele>
        <time>2020-11-21T09:16:31.286Z</time>
      </trkpt>
      <trkpt lat="43.63558" lon="3.74889">
        <ele>162.83506774902</ele>
        <time>2020-11-21T09:16:35.434Z</time>
      </trkpt>
      <trkpt lat="43.63317" lon="3.74735">
        <ele>155.74014282227</ele>
        <time>2020-11-21T09:16:39.635Z</time>
      </trkpt>
      <trkpt lat="43.63263" lon="3.747">
        <ele>153.79264831543</ele>
        <time>2020-11-21T09:16:43.848Z</time>
      </trkpt>
      <trkpt lat="43.632" lon="3.74661">
        <ele>150.22590637207</ele>
        <time>2020-11-21T09:16:48.075Z</time>
      </trkpt>
      <trkpt lat="43.63218" lon="3.74732">
        <ele>152.62135314941</ele>
        <time>2020-11-21T09:16:52.313Z</time>
      </trkpt>
      <trkpt lat="43.63125" lon="3.74797">
        <ele>149.97727966309</ele>
        <time>2020-11-21T09:16:56.572Z</time>
      </trkpt>
      <trkpt lat="43.63114" lon="3.74834">
        <ele>150.23422241211</ele>
        <time>2020-11-21T09:17:00.837Z</time>
      </trkpt>
      <trkpt lat="43.6307" lon="3.74887">
        <ele>147.32748413086</ele>
        <time>2020-11-21T09:17:05.114Z</time>
      </trkpt>
      <trkpt lat="43.63057" lon="3.74923">
        <ele>149.24136352539</ele>
        <time>2020-11-21T09:17:09.397Z</time>
      </trkpt>
      <trkpt lat="43.63029" lon="3.74971">
        <ele>149.31900024414</ele>
        <time>2020-11-21T09:17:13.688Z</time>
      </trkpt>
      <trkpt lat="43.63003" lon="3.74991">
        <ele>150.29684448242</ele>
        <time>2020-11-21T09:17:17.985Z</time>
      </trkpt>
      <trkpt lat="43.6296" lon="3.75008">
        <ele>151.40936279297</ele>
        <time>2020-11-21T09:17:22.291Z</time>
      </trkpt>
      <trkpt lat="43.6296" lon="3.75008">
        <ele>151.40946960449</ele>
        <time>2020-11-21T09:17:26.597Z</time>
      </trkpt>
      <trkpt lat="43.62954" lon="3.75013">
        <ele>151.57681274414</ele>
        <time>2020-11-21T09:17:30.905Z</time>
      </trkpt>
      <trkpt lat="43.62944" lon="3.75064">
        <ele>150.03550720215</ele>
        <time>2020-11-21T09:17:35.220Z</time>
      </trkpt>
      <trkpt lat="43.62939" lon="3.75187">
        <ele>146.04655456543</ele>
        <time>2020-11-21T09:17:39.553Z</time>
      </trkpt>
      <trkpt lat="43.62944" lon="3.75449">
        <ele>145.1837310791</ele>
        <time>2020-11-21T09:17:43.924Z</time>
      </trkpt>
      <trkpt lat="43.6296" lon="3.75653">
        <ele>140.52355957031</ele>
        <time>2020-11-21T09:17:48.325Z</time>
      </trkpt>
      <trkpt lat="43.62919" lon="3.75662">
        <ele>140.65693664551</ele>
        <time>2020-11-21T09:17:52.734Z</time>
      </trkpt>
      <trkpt lat="43.62894" lon="3.75682">
        <ele>141.75109863281</ele>
        <time>2020-11-21T09:17:57.149Z</time>
      </trkpt>
      <trkpt lat="43.62855" lon="3.75775">
        <ele>143.88180541992</ele>
        <time>2020-11-21T09:18:01.580Z</time>
      </trkpt>
      <trkpt lat="43.62854" lon="3.75812">
        <ele>142.55595397949</ele>
        <time>2020-11-21T09:18:06.016Z</time>
      </trkpt>
      <trkpt lat="43.62847" lon="3.7583">
        <ele>141.87307739258</ele>
        <time>2020-11-21T09:18:10.455Z</time>
      </trkpt>
      <trkpt lat="43.62793" lon="3.75878">
        <ele>143.14852905273</ele>
        <time>2020-11-21T09:18:14.907Z</time>
      </trkpt>
      <trkpt lat="43.62766" lon="3.75873">
        <ele>142.00863647461</ele>
        <time>2020-11-21T09:18:19.364Z</time>
      </trkpt>
      <trkpt lat="43.62761" lon="3.759">
        <ele>142.20252990723</ele>
        <time>2020-11-21T09:18:23.825Z</time>
      </trkpt>
      <trkpt lat="43.62745" lon="3.75923">
        <ele>143.23304748535</ele>
        <time>2020-11-21T09:18:28.291Z</time>
      </trkpt>
      <trkpt lat="43.62697" lon="3.75985">
        <ele>143.75846862793</ele>
        <time>2020-11-21T09:18:32.770Z</time>
      </trkpt>
      <trkpt lat="43.62677" lon="3.75998">
        <ele>142.91302490234</ele>
        <time>2020-11-21T09:18:37.254Z</time>
      </trkpt>
      <trkpt lat="43.62662" lon="3.76024">
        <ele>141.24446105957</ele>
        <time>2020-11-21T09:18:41.742Z</time>
      </trkpt>
      <trkpt lat="43.62626" lon="3.76126">
        <ele>134.43090820312</ele>
        <time>2020-11-21T09:18:46.247Z</time>
      </trkpt>
      <trkpt lat="43.6248" lon="3.76253">
        <ele>128.63037109375</ele>
        <time>2020-11-21T09:18:50.786Z</time>
      </trkpt>
      <trkpt lat="43.62476" lon="3.76257">
        <ele>128.3214263916</ele>
        <time>2020-11-21T09:18:55.327Z</time>
      </trkpt>
      <trkpt lat="43.62476" lon="3.76257">
        <ele>128.32133483887</ele>
        <time>2020-11-21T09:18:59.868Z</time>
      </trkpt>
      <trkpt lat="43.62432" lon="3.76295">
        <ele>126.41539001465</ele>
        <time>2020-11-21T09:19:04.419Z</time>
      </trkpt>
      <trkpt lat="43.62432" lon="3.76295">
        <ele>126.41579437256</ele>
        <time>2020-11-21T09:19:08.970Z</time>
      </trkpt>
      <trkpt lat="43.62432" lon="3.76296">
        <ele>126.41228485107</ele>
        <time>2020-11-21T09:19:13.521Z</time>
      </trkpt>
      <trkpt lat="43.62419" lon="3.76307">
        <ele>126.1255645752</ele>
        <time>2020-11-21T09:19:18.075Z</time>
      </trkpt>
      <trkpt lat="43.62337" lon="3.76457">
        <ele>117.01984405518</ele>
        <time>2020-11-21T09:19:22.656Z</time>
      </trkpt>
      <trkpt lat="43.62337" lon="3.76457">
        <ele>117.02054595947</ele>
        <time>2020-11-21T09:19:27.237Z</time>
      </trkpt>
      <trkpt lat="43.62275" lon="3.76648">
        <ele>114.30509185791</ele>
        <time>2020-11-21T09:19:31.849Z</time>
      </trkpt>
      <trkpt lat="43.62227" lon="3.77027">
        <ele>103.1653213501</ele>
        <time>2020-11-21T09:19:36.517Z</time>
      </trkpt>
      <trkpt lat="43.62187" lon="3.77166">
        <ele>98.95291137695</ele>
        <time>2020-11-21T09:19:41.206Z</time>
      </trkpt>
      <trkpt lat="43.62094" lon="3.77287">
        <ele>96.32112121582</ele>
        <time>2020-11-21T09:19:45.921Z</time>
      </trkpt>
      <trkpt lat="43.6193" lon="3.77436">
        <ele>100.47364044189</ele>
        <time>2020-11-21T09:19:50.675Z</time>
      </trkpt>
      <trkpt lat="43.61925" lon="3.7745">
        <ele>100.45947265625</ele>
        <time>2020-11-21T09:19:55.431Z</time>
      </trkpt>
      <trkpt lat="43.61925" lon="3.7745">
        <ele>100.45896911621</ele>
        <time>2020-11-21T09:20:00.187Z</time>
      </trkpt>
      <trkpt lat="43.61868" lon="3.77679">
        <ele>96.07029724121</ele>
        <time>2020-11-21T09:20:04.978Z</time>
      </trkpt>
      <trkpt lat="43.6183" lon="3.77819">
        <ele>91.92790222168</ele>
        <time>2020-11-21T09:20:09.791Z</time>
      </trkpt>
      <trkpt lat="43.6183" lon="3.77819">
        <ele>91.9275970459</ele>
        <time>2020-11-21T09:20:14.604Z</time>
      </trkpt>
      <trkpt lat="43.61809" lon="3.77864">
        <ele>91.83807373047</ele>
        <time>2020-11-21T09:20:19.425Z</time>
      </trkpt>
      <trkpt lat="43.61833" lon="3.77866">
        <ele>90.08681488037</ele>
        <time>2020-11-21T09:20:24.251Z</time>
      </trkpt>
      <trkpt lat="43.61837" lon="3.77866">
        <ele>89.77848052979</ele>
        <time>2020-11-21T09:20:29.078Z</time>
      </trkpt>
      <trkpt lat="43.61837" lon="3.77961">
        <ele>87.23925018311</ele>
        <time>2020-11-21T09:20:33.918Z</time>
      </trkpt>
      <trkpt lat="43.61823" lon="3.78022">
        <ele>86.04951477051</ele>
        <time>2020-11-21T09:20:38.768Z</time>
      </trkpt>
      <trkpt lat="43.61807" lon="3.78052">
        <ele>86.48718261719</ele>
        <time>2020-11-21T09:20:43.623Z</time>
      </trkpt>
      <trkpt lat="43.61765" lon="3.78101">
        <ele>88.27590179443</ele>
        <time>2020-11-21T09:20:48.489Z</time>
      </trkpt>
      <trkpt lat="43.6175" lon="3.78145">
        <ele>86.92657470703</ele>
        <time>2020-11-21T09:20:53.362Z</time>
      </trkpt>
      <trkpt lat="43.61726" lon="3.78258">
        <ele>82.70440673828</ele>
        <time>2020-11-21T09:20:58.252Z</time>
      </trkpt>
      <trkpt lat="43.61713" lon="3.7835">
        <ele>80.12675476074</ele>
        <time>2020-11-21T09:21:03.156Z</time>
      </trkpt>
      <trkpt lat="43.61727" lon="3.7842">
        <ele>78.51803588867</ele>
        <time>2020-11-21T09:21:08.070Z</time>
      </trkpt>
      <trkpt lat="43.61729" lon="3.78454">
        <ele>78.72783660889</ele>
        <time>2020-11-21T09:21:12.989Z</time>
      </trkpt>
      <trkpt lat="43.6172" lon="3.785">
        <ele>79.89905548096</ele>
        <time>2020-11-21T09:21:17.915Z</time>
      </trkpt>
      <trkpt lat="43.61706" lon="3.78536">
        <ele>79.69588470459</ele>
        <time>2020-11-21T09:21:22.847Z</time>
      </trkpt>
      <trkpt lat="43.6167" lon="3.78611">
        <ele>74.88344573975</ele>
        <time>2020-11-21T09:21:27.792Z</time>
      </trkpt>
      <trkpt lat="43.6164" lon="3.7865">
        <ele>74.05960845947</ele>
        <time>2020-11-21T09:21:32.746Z</time>
      </trkpt>
      <trkpt lat="43.61578" lon="3.7866">
        <ele>78.1270904541</ele>
        <time>2020-11-21T09:21:37.712Z</time>
      </trkpt>
      <trkpt lat="43.61511" lon="3.78693">
        <ele>85.79558563232</ele>
        <time>2020-11-21T09:21:42.692Z</time>
      </trkpt>
      <trkpt lat="43.61418" lon="3.78659">
        <ele>87.60442352295</ele>
        <time>2020-11-21T09:21:47.691Z</time>
      </trkpt>
      <trkpt lat="43.61396" lon="3.78627">
        <ele>85.93100738525</ele>
        <time>2020-11-21T09:21:52.697Z</time>
      </trkpt>
      <trkpt lat="43.61386" lon="3.78585">
        <ele>84.31625366211</ele>
        <time>2020-11-21T09:21:57.709Z</time>
      </trkpt>
      <trkpt lat="43.61367" lon="3.78555">
        <ele>82.14131164551</ele>
        <time>2020-11-21T09:22:02.727Z</time>
      </trkpt>
      <trkpt lat="43.61223" lon="3.7867">
        <ele>78.2420501709</ele>
        <time>2020-11-21T09:22:07.778Z</time>
      </trkpt>
      <trkpt lat="43.61223" lon="3.7867">
        <ele>78.24185180664</ele>
        <time>2020-11-21T09:22:12.829Z</time>
      </trkpt>
      <trkpt lat="43.60937" lon="3.78899">
        <ele>80.0717010498</ele>
        <time>2020-11-21T09:22:17.946Z</time>
      </trkpt>
      <trkpt lat="43.60915" lon="3.78902">
        <ele>78.89101409912</ele>
        <time>2020-11-21T09:22:23.068Z</time>
      </trkpt>
      <trkpt lat="43.60907" lon="3.78883">
        <ele>78.00281524658</ele>
        <time>2020-11-21T09:22:28.193Z</time>
      </trkpt>
      <trkpt lat="43.60895" lon="3.78887">
        <ele>77.37206268311</ele>
        <time>2020-11-21T09:22:33.320Z</time>
      </trkpt>
      <trkpt lat="43.60891" lon="3.789">
        <ele>77.49034881592</ele>
        <time>2020-11-21T09:22:38.449Z</time>
      </trkpt>
      <trkpt lat="43.60896" lon="3.78912">
        <ele>78.21120452881</ele>
        <time>2020-11-21T09:22:43.581Z</time>
      </trkpt>
      <trkpt lat="43.6089" lon="3.78925">
        <ele>78.3660736084</ele>
        <time>2020-11-21T09:22:48.715Z</time>
      </trkpt>
      <trkpt lat="43.60887" lon="3.78939">
        <ele>78.68651580811</ele>
        <time>2020-11-21T09:22:53.851Z</time>
      </trkpt>
      <trkpt lat="43.60774" lon="3.79025">
        <ele>77.09020996094</ele>
        <time>2020-11-21T09:22:59.013Z</time>
      </trkpt>
      <trkpt lat="43.60771" lon="3.7903">
        <ele>77.18697357178</ele>
        <time>2020-11-21T09:23:04.176Z</time>
      </trkpt>
      <trkpt lat="43.60764" lon="3.79104">
        <ele>78.83535003662</ele>
        <time>2020-11-21T09:23:09.350Z</time>
      </trkpt>
      <trkpt lat="43.60714" lon="3.79227">
        <ele>76.19100189209</ele>
        <time>2020-11-21T09:23:14.544Z</time>
      </trkpt>
      <trkpt lat="43.6063" lon="3.79341">
        <ele>76.16942596436</ele>
        <time>2020-11-21T09:23:19.762Z</time>
      </trkpt>
      <trkpt lat="43.60578" lon="3.79446">
        <ele>74.62186431885</ele>
        <time>2020-11-21T09:23:24.998Z</time>
      </trkpt>
      <trkpt lat="43.60621" lon="3.79562">
        <ele>73.32224273682</ele>
        <time>2020-11-21T09:23:30.253Z</time>
      </trkpt>
      <trkpt lat="43.60533" lon="3.79668">
        <ele>72.66286468506</ele>
        <time>2020-11-21T09:23:35.531Z</time>
      </trkpt>
      <trkpt lat="43.60462" lon="3.79776">
        <ele>66.96238708496</ele>
        <time>2020-11-21T09:23:40.831Z</time>
      </trkpt>
      <trkpt lat="43.60456" lon="3.79824">
        <ele>66.76930236816</ele>
        <time>2020-11-21T09:23:46.138Z</time>
      </trkpt>
      <trkpt lat="43.60438" lon="3.79854">
        <ele>66.11280822754</ele>
        <time>2020-11-21T09:23:51.450Z</time>
      </trkpt>
      <trkpt lat="43.60289" lon="3.80089">
        <ele>57.55762481689</ele>
        <time>2020-11-21T09:23:56.808Z</time>
      </trkpt>
      <trkpt lat="43.60419" lon="3.80275">
        <ele>56.57222747803</ele>
        <time>2020-11-21T09:24:02.203Z</time>
      </trkpt>
      <trkpt lat="43.60544" lon="3.80473">
        <ele>55.6879234314</ele>
        <time>2020-11-21T09:24:07.636Z</time>
      </trkpt>
      <trkpt lat="43.60536" lon="3.80483">
        <ele>55.79100418091</ele>
        <time>2020-11-21T09:24:13.072Z</time>
      </trkpt>
      <trkpt lat="43.60533" lon="3.80498">
        <ele>55.82962036133</ele>
        <time>2020-11-21T09:24:18.510Z</time>
      </trkpt>
      <trkpt lat="43.60548" lon="3.80533">
        <ele>55.77836608887</ele>
        <time>2020-11-21T09:24:23.954Z</time>
      </trkpt>
      <trkpt lat="43.60546" lon="3.80546">
        <ele>55.97145080566</ele>
        <time>2020-11-21T09:24:29.400Z</time>
      </trkpt>
      <trkpt lat="43.60433" lon="3.80669">
        <ele>52.36584091187</ele>
        <time>2020-11-21T09:24:34.874Z</time>
      </trkpt>
      <trkpt lat="43.60368" lon="3.80737">
        <ele>46.64345169067</ele>
        <time>2020-11-21T09:24:40.365Z</time>
      </trkpt>
      <trkpt lat="43.60317" lon="3.8081">
        <ele>45.29689788818</ele>
        <time>2020-11-21T09:24:45.871Z</time>
      </trkpt>
      <trkpt lat="43.60257" lon="3.80898">
        <ele>42.10091018677</ele>
        <time>2020-11-21T09:24:51.394Z</time>
      </trkpt>
      <trkpt lat="43.60228" lon="3.80964">
        <ele>39.9072265625</ele>
        <time>2020-11-21T09:24:56.928Z</time>
      </trkpt>
      <trkpt lat="43.60208" lon="3.81019">
        <ele>37.65950393677</ele>
        <time>2020-11-21T09:25:02.471Z</time>
      </trkpt>
      <trkpt lat="43.60057" lon="3.81335">
        <ele>32.53211975098</ele>
        <time>2020-11-21T09:25:08.069Z</time>
      </trkpt>
      <trkpt lat="43.60039" lon="3.81367">
        <ele>32.31976318359</ele>
        <time>2020-11-21T09:25:13.673Z</time>
      </trkpt>
      <trkpt lat="43.60029" lon="3.81364">
        <ele>32.55146789551</ele>
        <time>2020-11-21T09:25:19.279Z</time>
      </trkpt>
      <trkpt lat="43.59955" lon="3.81264">
        <ele>36.02001571655</ele>
        <time>2020-11-21T09:25:24.906Z</time>
      </trkpt>
      <trkpt lat="43.5987" lon="3.81193">
        <ele>40.13920211792</ele>
        <time>2020-11-21T09:25:30.553Z</time>
      </trkpt>
      <trkpt lat="43.59831" lon="3.81134">
        <ele>43.29202270508</ele>
        <time>2020-11-21T09:25:36.211Z</time>
      </trkpt>
      <trkpt lat="43.59819" lon="3.81156">
        <ele>43.34351348877</ele>
        <time>2020-11-21T09:25:41.873Z</time>
      </trkpt>
      <trkpt lat="43.59808" lon="3.81196">
        <ele>42.03706359863</ele>
        <time>2020-11-21T09:25:47.541Z</time>
      </trkpt>
      <trkpt lat="43.59771" lon="3.81257">
        <ele>41.36426544189</ele>
        <time>2020-11-21T09:25:53.221Z</time>
      </trkpt>
      <trkpt lat="43.59683" lon="3.81429">
        <ele>35.03584289551</ele>
        <time>2020-11-21T09:25:58.932Z</time>
      </trkpt>
      <trkpt lat="43.59676" lon="3.81432">
        <ele>34.77839279175</ele>
        <time>2020-11-21T09:26:04.644Z</time>
      </trkpt>
      <trkpt lat="43.5964" lon="3.81422">
        <ele>33.58125305176</ele>
        <time>2020-11-21T09:26:10.363Z</time>
      </trkpt>
      <trkpt lat="43.59469" lon="3.81405">
        <ele>27.47509765625</ele>
        <time>2020-11-21T09:26:16.117Z</time>
      </trkpt>
      <trkpt lat="43.59272" lon="3.81316">
        <ele>26</ele>
        <time>2020-11-21T09:26:21.912Z</time>
      </trkpt>
      <trkpt lat="43.59272" lon="3.81316">
        <ele>26</ele>
        <time>2020-11-21T09:26:27.707Z</time>
      </trkpt>
      <trkpt lat="43.59267" lon="3.81315">
        <ele>26.01912307739</ele>
        <time>2020-11-21T09:26:33.503Z</time>
      </trkpt>
      <trkpt lat="43.59227" lon="3.81379">
        <ele>26</ele>
        <time>2020-11-21T09:26:39.312Z</time>
      </trkpt>
      <trkpt lat="43.59227" lon="3.81379">
        <ele>26</ele>
        <time>2020-11-21T09:26:45.121Z</time>
      </trkpt>
      <trkpt lat="43.59152" lon="3.81503">
        <ele>25.60352516174</ele>
        <time>2020-11-21T09:26:50.953Z</time>
      </trkpt>
      <trkpt lat="43.59178" lon="3.81587">
        <ele>27.47763252258</ele>
        <time>2020-11-21T09:26:56.798Z</time>
      </trkpt>
      <trkpt lat="43.59163" lon="3.816">
        <ele>27.60645675659</ele>
        <time>2020-11-21T09:27:02.647Z</time>
      </trkpt>
      <trkpt lat="43.59121" lon="3.81617">
        <ele>26.9441986084</ele>
        <time>2020-11-21T09:27:08.505Z</time>
      </trkpt>
      <trkpt lat="43.59116" lon="3.8161">
        <ele>27.06246376038</ele>
        <time>2020-11-21T09:27:14.364Z</time>
      </trkpt>
      <trkpt lat="43.59116" lon="3.8161">
        <ele>27.06216239929</ele>
        <time>2020-11-21T09:27:20.223Z</time>
      </trkpt>
      <trkpt lat="43.59116" lon="3.8161">
        <ele>27.06464576721</ele>
        <time>2020-11-21T09:27:26.082Z</time>
      </trkpt>
      <trkpt lat="43.59098" lon="3.81583">
        <ele>26.50228691101</ele>
        <time>2020-11-21T09:27:31.946Z</time>
      </trkpt>
      <trkpt lat="43.58905" lon="3.81311">
        <ele>25.81155776978</ele>
        <time>2020-11-21T09:27:37.865Z</time>
      </trkpt>
      <trkpt lat="43.58905" lon="3.81311">
        <ele>25.81135559082</ele>
        <time>2020-11-21T09:27:43.784Z</time>
      </trkpt>
      <trkpt lat="43.58775" lon="3.81124">
        <ele>26.64192771912</ele>
        <time>2020-11-21T09:27:49.741Z</time>
      </trkpt>
      <trkpt lat="43.58772" lon="3.81123">
        <ele>26.62905502319</ele>
        <time>2020-11-21T09:27:55.699Z</time>
      </trkpt>
      <trkpt lat="43.58761" lon="3.81128">
        <ele>26.45365524292</ele>
        <time>2020-11-21T09:28:01.659Z</time>
      </trkpt>
      <trkpt lat="43.58745" lon="3.81115">
        <ele>26.76259422302</ele>
        <time>2020-11-21T09:28:07.623Z</time>
      </trkpt>
      <trkpt lat="43.58732" lon="3.81125">
        <ele>26.53089141846</ele>
        <time>2020-11-21T09:28:13.590Z</time>
      </trkpt>
      <trkpt lat="43.58677" lon="3.81292">
        <ele>24.85631561279</ele>
        <time>2020-11-21T09:28:19.584Z</time>
      </trkpt>
      <trkpt lat="43.58666" lon="3.81307">
        <ele>24.80482673645</ele>
        <time>2020-11-21T09:28:25.581Z</time>
      </trkpt>
      <trkpt lat="43.58599" lon="3.81276">
        <ele>26</ele>
        <time>2020-11-21T09:28:31.592Z</time>
      </trkpt>
      <trkpt lat="43.58567" lon="3.81247">
        <ele>26</ele>
        <time>2020-11-21T09:28:37.610Z</time>
      </trkpt>
      <trkpt lat="43.58549" lon="3.8123">
        <ele>26</ele>
        <time>2020-11-21T09:28:43.633Z</time>
      </trkpt>
      <trkpt lat="43.58495" lon="3.81183">
        <ele>26.07033348083</ele>
        <time>2020-11-21T09:28:49.668Z</time>
      </trkpt>
      <trkpt lat="43.58491" lon="3.81175">
        <ele>26.16044044495</ele>
        <time>2020-11-21T09:28:55.705Z</time>
      </trkpt>
      <trkpt lat="43.58487" lon="3.81179">
        <ele>26.10894966125</ele>
        <time>2020-11-21T09:29:01.743Z</time>
      </trkpt>
      <trkpt lat="43.58405" lon="3.81158">
        <ele>25.65498733521</ele>
        <time>2020-11-21T09:29:07.798Z</time>
      </trkpt>
      <trkpt lat="43.584" lon="3.81193">
        <ele>25.04307937622</ele>
        <time>2020-11-21T09:29:13.858Z</time>
      </trkpt>
      <trkpt lat="43.58377" lon="3.81197">
        <ele>24.42520141602</ele>
        <time>2020-11-21T09:29:19.922Z</time>
      </trkpt>
      <trkpt lat="43.58318" lon="3.81181">
        <ele>24</ele>
        <time>2020-11-21T09:29:25.998Z</time>
      </trkpt>
      <trkpt lat="43.583" lon="3.81285">
        <ele>23</ele>
        <time>2020-11-21T09:29:32.090Z</time>
      </trkpt>
      <trkpt lat="43.58289" lon="3.81354">
        <ele>23</ele>
        <time>2020-11-21T09:29:38.192Z</time>
      </trkpt>
      <trkpt lat="43.58277" lon="3.81367">
        <ele>23.14373016357</ele>
        <time>2020-11-21T09:29:44.297Z</time>
      </trkpt>
      <trkpt lat="43.5821" lon="3.81359">
        <ele>23.73924446106</ele>
        <time>2020-11-21T09:29:50.416Z</time>
      </trkpt>
      <trkpt lat="43.58202" lon="3.81348">
        <ele>23.87657546997</ele>
        <time>2020-11-21T09:29:56.537Z</time>
      </trkpt>
      <trkpt lat="43.58174" lon="3.81427">
        <ele>24.74130249023</ele>
        <time>2020-11-21T09:30:02.671Z</time>
      </trkpt>
      <trkpt lat="43.58174" lon="3.81428">
        <ele>24.75343132019</ele>
        <time>2020-11-21T09:30:08.805Z</time>
      </trkpt>
      <trkpt lat="43.58136" lon="3.81506">
        <ele>23.84895133972</ele>
        <time>2020-11-21T09:30:14.953Z</time>
      </trkpt>
      <trkpt lat="43.58115" lon="3.81497">
        <ele>22.97362327576</ele>
        <time>2020-11-21T09:30:21.105Z</time>
      </trkpt>
      <trkpt lat="43.5802" lon="3.81483">
        <ele>23.53262138367</ele>
        <time>2020-11-21T09:30:27.276Z</time>
      </trkpt>
      <trkpt lat="43.57983" lon="3.81458">
        <ele>22.71366691589</ele>
        <time>2020-11-21T09:30:33.455Z</time>
      </trkpt>
      <trkpt lat="43.57953" lon="3.81449">
        <ele>22.36611175537</ele>
        <time>2020-11-21T09:30:39.640Z</time>
      </trkpt>
      <trkpt lat="43.57871" lon="3.8144">
        <ele>20.52479171753</ele>
        <time>2020-11-21T09:30:45.842Z</time>
      </trkpt>
      <trkpt lat="43.57853" lon="3.81427">
        <ele>20.30078125</ele>
        <time>2020-11-21T09:30:52.048Z</time>
      </trkpt>
      <trkpt lat="43.57818" lon="3.81381">
        <ele>20.98091506958</ele>
        <time>2020-11-21T09:30:58.264Z</time>
      </trkpt>
      <trkpt lat="43.57805" lon="3.81375">
        <ele>20.98091506958</ele>
        <time>2020-11-21T09:31:04.482Z</time>
      </trkpt>
      <trkpt lat="43.57683" lon="3.81368">
        <ele>21.47358131409</ele>
        <time>2020-11-21T09:31:10.725Z</time>
      </trkpt>
      <trkpt lat="43.57656" lon="3.8136">
        <ele>20.81708717346</ele>
        <time>2020-11-21T09:31:16.973Z</time>
      </trkpt>
      <trkpt lat="43.57519" lon="3.81274">
        <ele>20.00053787231</ele>
        <time>2020-11-21T09:31:23.252Z</time>
      </trkpt>
      <trkpt lat="43.57458" lon="3.8125">
        <ele>19.48126411438</ele>
        <time>2020-11-21T09:31:29.543Z</time>
      </trkpt>
      <trkpt lat="43.57397" lon="3.81203">
        <ele>21.08338546753</ele>
        <time>2020-11-21T09:31:35.848Z</time>
      </trkpt>
      <trkpt lat="43.57384" lon="3.81181">
        <ele>21.27740478516</ele>
        <time>2020-11-21T09:31:42.157Z</time>
      </trkpt>
      <trkpt lat="43.5732" lon="3.81128">
        <ele>21.48537826538</ele>
        <time>2020-11-21T09:31:48.481Z</time>
      </trkpt>
      <trkpt lat="43.5732" lon="3.81128">
        <ele>21.4852771759</ele>
        <time>2020-11-21T09:31:54.805Z</time>
      </trkpt>
      <trkpt lat="43.5732" lon="3.81128">
        <ele>21.48210716248</ele>
        <time>2020-11-21T09:32:01.129Z</time>
      </trkpt>
      <trkpt lat="43.57299" lon="3.81111">
        <ele>20.89595985413</ele>
        <time>2020-11-21T09:32:07.458Z</time>
      </trkpt>
      <trkpt lat="43.57273" lon="3.81141">
        <ele>21.55534362793</ele>
        <time>2020-11-21T09:32:13.794Z</time>
      </trkpt>
      <trkpt lat="43.57235" lon="3.81156">
        <ele>20.39435577393</ele>
        <time>2020-11-21T09:32:20.138Z</time>
      </trkpt>
      <trkpt lat="43.57135" lon="3.81228">
        <ele>18.79008865356</ele>
        <time>2020-11-21T09:32:26.505Z</time>
      </trkpt>
      <trkpt lat="43.57129" lon="3.81235">
        <ele>18.98317527771</ele>
        <time>2020-11-21T09:32:32.873Z</time>
      </trkpt>
      <trkpt lat="43.57123" lon="3.81252">
        <ele>19.21487998962</ele>
        <time>2020-11-21T09:32:39.244Z</time>
      </trkpt>
      <trkpt lat="43.57124" lon="3.81299">
        <ele>19.81604766846</ele>
        <time>2020-11-21T09:32:45.622Z</time>
      </trkpt>
      <trkpt lat="43.57118" lon="3.81315">
        <ele>20.43362426758</ele>
        <time>2020-11-21T09:32:52.002Z</time>
      </trkpt>
      <trkpt lat="43.5679" lon="3.80831">
        <ele>19.43615531921</ele>
        <time>2020-11-21T09:32:58.478Z</time>
      </trkpt>
      <trkpt lat="43.56623" lon="3.80581">
        <ele>15.55492305756</ele>
        <time>2020-11-21T09:33:05.004Z</time>
      </trkpt>
      <trkpt lat="43.56602" lon="3.80549">
        <ele>15.68364715576</ele>
        <time>2020-11-21T09:33:11.536Z</time>
      </trkpt>
      <trkpt lat="43.56534" lon="3.80451">
        <ele>15.19472789764</ele>
        <time>2020-11-21T09:33:18.088Z</time>
      </trkpt>
      <trkpt lat="43.56479" lon="3.80365">
        <ele>15.4174785614</ele>
        <time>2020-11-21T09:33:24.656Z</time>
      </trkpt>
      <trkpt lat="43.56355" lon="3.80193">
        <ele>13.15131568909</ele>
        <time>2020-11-21T09:33:31.260Z</time>
      </trkpt>
      <trkpt lat="43.56161" lon="3.79981">
        <ele>18.44896507263</ele>
        <time>2020-11-21T09:33:37.913Z</time>
      </trkpt>
      <trkpt lat="43.56161" lon="3.79981">
        <ele>18.44946861267</ele>
        <time>2020-11-21T09:33:44.566Z</time>
      </trkpt>
      <trkpt lat="43.55991" lon="3.79801">
        <ele>25.96869468689</ele>
        <time>2020-11-21T09:33:51.262Z</time>
      </trkpt>
      <trkpt lat="43.55943" lon="3.79747">
        <ele>26.60421562195</ele>
        <time>2020-11-21T09:33:57.970Z</time>
      </trkpt>
      <trkpt lat="43.55834" lon="3.79607">
        <ele>25.41625595093</ele>
        <time>2020-11-21T09:34:04.708Z</time>
      </trkpt>
      <trkpt lat="43.55866" lon="3.7967">
        <ele>25.7795009613</ele>
        <time>2020-11-21T09:34:11.457Z</time>
      </trkpt>
      <trkpt lat="43.55863" lon="3.79694">
        <ele>26.06269645691</ele>
        <time>2020-11-21T09:34:18.210Z</time>
      </trkpt>
      <trkpt lat="43.55845" lon="3.79721">
        <ele>25.93060874939</ele>
        <time>2020-11-21T09:34:24.968Z</time>
      </trkpt>
      <trkpt lat="43.55825" lon="3.79751">
        <ele>25.6142578125</ele>
        <time>2020-11-21T09:34:31.732Z</time>
      </trkpt>
      <trkpt lat="43.55812" lon="3.79788">
        <ele>25.25859832764</ele>
        <time>2020-11-21T09:34:38.502Z</time>
      </trkpt>
      <trkpt lat="43.55807" lon="3.79829">
        <ele>25.40190505981</ele>
        <time>2020-11-21T09:34:45.278Z</time>
      </trkpt>
      <trkpt lat="43.558" lon="3.79843">
        <ele>25.1702003479</ele>
        <time>2020-11-21T09:34:52.057Z</time>
      </trkpt>
      <trkpt lat="43.55799" lon="3.79854">
        <ele>25.13128089905</ele>
        <time>2020-11-21T09:34:58.837Z</time>
      </trkpt>
      <trkpt lat="43.55795" lon="3.79874">
        <ele>25.6526184082</ele>
        <time>2020-11-21T09:35:05.620Z</time>
      </trkpt>
      <trkpt lat="43.55783" lon="3.7988">
        <ele>25.3410358429</ele>
        <time>2020-11-21T09:35:12.406Z</time>
      </trkpt>
      <trkpt lat="43.5573" lon="3.79875">
        <ele>22.68971061707</ele>
        <time>2020-11-21T09:35:19.202Z</time>
      </trkpt>
      <trkpt lat="43.55687" lon="3.79886">
        <ele>20.5586566925</ele>
        <time>2020-11-21T09:35:26.007Z</time>
      </trkpt>
      <trkpt lat="43.55567" lon="3.79965">
        <ele>16.27721595764</ele>
        <time>2020-11-21T09:35:32.839Z</time>
      </trkpt>
      <trkpt lat="43.55567" lon="3.79965">
        <ele>16.27731513977</ele>
        <time>2020-11-21T09:35:39.671Z</time>
      </trkpt>
      <trkpt lat="43.55517" lon="3.79996">
        <ele>20.24836158752</ele>
        <time>2020-11-21T09:35:46.514Z</time>
      </trkpt>
      <trkpt lat="43.55517" lon="3.79996">
        <ele>20.24725532532</ele>
        <time>2020-11-21T09:35:53.357Z</time>
      </trkpt>
      <trkpt lat="43.55465" lon="3.80008">
        <ele>26.05233573914</ele>
        <time>2020-11-21T09:36:00.210Z</time>
      </trkpt>
      <trkpt lat="43.55342" lon="3.79981">
        <ele>33.04487609863</ele>
        <time>2020-11-21T09:36:07.088Z</time>
      </trkpt>
      <trkpt lat="43.55277" lon="3.79976">
        <ele>36.56717300415</ele>
        <time>2020-11-21T09:36:13.979Z</time>
      </trkpt>
      <trkpt lat="43.55277" lon="3.79976">
        <ele>36.56676864624</ele>
        <time>2020-11-21T09:36:20.870Z</time>
      </trkpt>
      <trkpt lat="43.55218" lon="3.80004">
        <ele>40.38150405884</ele>
        <time>2020-11-21T09:36:27.774Z</time>
      </trkpt>
      <trkpt lat="43.5518" lon="3.80037">
        <ele>41.90870666504</ele>
        <time>2020-11-21T09:36:34.687Z</time>
      </trkpt>
      <trkpt lat="43.55125" lon="3.80121">
        <ele>36.96307373047</ele>
        <time>2020-11-21T09:36:41.616Z</time>
      </trkpt>
      <trkpt lat="43.55108" lon="3.80145">
        <ele>37.56384658813</ele>
        <time>2020-11-21T09:36:48.550Z</time>
      </trkpt>
      <trkpt lat="43.55093" lon="3.80166">
        <ele>38.55729675293</ele>
        <time>2020-11-21T09:36:55.488Z</time>
      </trkpt>
      <trkpt lat="43.55062" lon="3.80213">
        <ele>42.14218521118</ele>
        <time>2020-11-21T09:37:02.436Z</time>
      </trkpt>
      <trkpt lat="43.55047" lon="3.80231">
        <ele>43.26920318604</ele>
        <time>2020-11-21T09:37:09.388Z</time>
      </trkpt>
      <trkpt lat="43.55034" lon="3.80251">
        <ele>43.08918762207</ele>
        <time>2020-11-21T09:37:16.343Z</time>
      </trkpt>
      <trkpt lat="43.55034" lon="3.80251">
        <ele>43.08898925781</ele>
        <time>2020-11-21T09:37:23.298Z</time>
      </trkpt>
      <trkpt lat="43.54992" lon="3.80317">
        <ele>44.57866287231</ele>
        <time>2020-11-21T09:37:30.266Z</time>
      </trkpt>
      <trkpt lat="43.54964" lon="3.80379">
        <ele>43.56335067749</ele>
        <time>2020-11-21T09:37:37.245Z</time>
      </trkpt>
      <trkpt lat="43.54957" lon="3.80396">
        <ele>43.2839012146</ele>
        <time>2020-11-21T09:37:44.227Z</time>
      </trkpt>
      <trkpt lat="43.54957" lon="3.80396">
        <ele>43.28400421143</ele>
        <time>2020-11-21T09:37:51.209Z</time>
      </trkpt>
      <trkpt lat="43.54854" lon="3.80627">
        <ele>47.07311630249</ele>
        <time>2020-11-21T09:37:58.230Z</time>
      </trkpt>
      <trkpt lat="43.5479" lon="3.8077">
        <ele>42.89754867554</ele>
        <time>2020-11-21T09:38:05.275Z</time>
      </trkpt>
      <trkpt lat="43.54765" lon="3.8084">
        <ele>39.56179428101</ele>
        <time>2020-11-21T09:38:12.332Z</time>
      </trkpt>
      <trkpt lat="43.54768" lon="3.80873">
        <ele>39.39240646362</ele>
        <time>2020-11-21T09:38:19.394Z</time>
      </trkpt>
      <trkpt lat="43.54733" lon="3.80857">
        <ele>42.37710952759</ele>
        <time>2020-11-21T09:38:26.463Z</time>
      </trkpt>
      <trkpt lat="43.54728" lon="3.80855">
        <ele>42.76328277588</ele>
        <time>2020-11-21T09:38:33.533Z</time>
      </trkpt>
      <trkpt lat="43.54715" lon="3.80843">
        <ele>43.38910293579</ele>
        <time>2020-11-21T09:38:40.606Z</time>
      </trkpt>
      <trkpt lat="43.54695" lon="3.80884">
        <ele>45.99220275879</ele>
        <time>2020-11-21T09:38:47.686Z</time>
      </trkpt>
      <trkpt lat="43.54674" lon="3.80893">
        <ele>48.18538284302</ele>
        <time>2020-11-21T09:38:54.771Z</time>
      </trkpt>
      <trkpt lat="43.54612" lon="3.80947">
        <ele>57.37212371826</ele>
        <time>2020-11-21T09:39:01.870Z</time>
      </trkpt>
      <trkpt lat="43.54531" lon="3.80978">
        <ele>65.71628570557</ele>
        <time>2020-11-21T09:39:08.986Z</time>
      </trkpt>
      <trkpt lat="43.54514" lon="3.8097">
        <ele>67.93502807617</ele>
        <time>2020-11-21T09:39:16.106Z</time>
      </trkpt>
      <trkpt lat="43.54498" lon="3.80939">
        <ele>71.14027404785</ele>
        <time>2020-11-21T09:39:23.232Z</time>
      </trkpt>
      <trkpt lat="43.54461" lon="3.80957">
        <ele>72.01559448242</ele>
        <time>2020-11-21T09:39:30.365Z</time>
      </trkpt>
      <trkpt lat="43.54455" lon="3.80976">
        <ele>71.68011474609</ele>
        <time>2020-11-21T09:39:37.501Z</time>
      </trkpt>
      <trkpt lat="43.54453" lon="3.81006">
        <ele>70.80558776855</ele>
        <time>2020-11-21T09:39:44.642Z</time>
      </trkpt>
      <trkpt lat="43.54417" lon="3.81012">
        <ele>73.16128540039</ele>
        <time>2020-11-21T09:39:51.790Z</time>
      </trkpt>
      <trkpt lat="43.54417" lon="3.81012">
        <ele>73.1616897583</ele>
        <time>2020-11-21T09:39:58.938Z</time>
      </trkpt>
      <trkpt lat="43.54397" lon="3.81017">
        <ele>73.94690704346</ele>
        <time>2020-11-21T09:40:06.090Z</time>
      </trkpt>
      <trkpt lat="43.54368" lon="3.8104">
        <ele>74.55095672607</ele>
        <time>2020-11-21T09:40:13.249Z</time>
      </trkpt>
      <trkpt lat="43.54359" lon="3.81043">
        <ele>75.13021850586</ele>
        <time>2020-11-21T09:40:20.409Z</time>
      </trkpt>
      <trkpt lat="43.54354" lon="3.81037">
        <ele>75.59362792969</ele>
        <time>2020-11-21T09:40:27.571Z</time>
      </trkpt>
      <trkpt lat="43.5433" lon="3.80937">
        <ele>78.45502471924</ele>
        <time>2020-11-21T09:40:34.748Z</time>
      </trkpt>
      <trkpt lat="43.54341" lon="3.80904">
        <ele>78.11652374268</ele>
        <time>2020-11-21T09:40:41.930Z</time>
      </trkpt>
      <trkpt lat="43.5434" lon="3.80888">
        <ele>77.87194824219</ele>
        <time>2020-11-21T09:40:49.115Z</time>
      </trkpt>
      <trkpt lat="43.54324" lon="3.80823">
        <ele>76.58971405029</ele>
        <time>2020-11-21T09:40:56.310Z</time>
      </trkpt>
      <trkpt lat="43.54315" lon="3.80811">
        <ele>76.10056304932</ele>
        <time>2020-11-21T09:41:03.507Z</time>
      </trkpt>
      <trkpt lat="43.54246" lon="3.80824">
        <ele>72.16442108154</ele>
        <time>2020-11-21T09:41:10.718Z</time>
      </trkpt>
      <trkpt lat="43.54151" lon="3.80795">
        <ele>68.41355133057</ele>
        <time>2020-11-21T09:41:17.948Z</time>
      </trkpt>
      <trkpt lat="43.54113" lon="3.80772">
        <ele>67</ele>
        <time>2020-11-21T09:41:25.187Z</time>
      </trkpt>
      <trkpt lat="43.54084" lon="3.8074">
        <ele>67.82386779785</ele>
        <time>2020-11-21T09:41:32.433Z</time>
      </trkpt>
      <trkpt lat="43.54062" lon="3.80658">
        <ele>68.12373352051</ele>
        <time>2020-11-21T09:41:39.692Z</time>
      </trkpt>
      <trkpt lat="43.54022" lon="3.80617">
        <ele>69.05014801025</ele>
        <time>2020-11-21T09:41:46.961Z</time>
      </trkpt>
      <trkpt lat="43.53966" lon="3.80635">
        <ele>73.46104431152</ele>
        <time>2020-11-21T09:41:54.242Z</time>
      </trkpt>
      <trkpt lat="43.53943" lon="3.8067">
        <ele>75.23792266846</ele>
        <time>2020-11-21T09:42:01.529Z</time>
      </trkpt>
      <trkpt lat="43.53931" lon="3.80707">
        <ele>77.60981750488</ele>
        <time>2020-11-21T09:42:08.822Z</time>
      </trkpt>
      <trkpt lat="43.5391" lon="3.80722">
        <ele>82.11517333984</ele>
        <time>2020-11-21T09:42:16.120Z</time>
      </trkpt>
      <trkpt lat="43.53889" lon="3.80721">
        <ele>85.4748916626</ele>
        <time>2020-11-21T09:42:23.422Z</time>
      </trkpt>
      <trkpt lat="43.53819" lon="3.80675">
        <ele>93.76308441162</ele>
        <time>2020-11-21T09:42:30.740Z</time>
      </trkpt>
      <trkpt lat="43.5378" lon="3.80604">
        <ele>95.95804595947</ele>
        <time>2020-11-21T09:42:38.071Z</time>
      </trkpt>
      <trkpt lat="43.53778" lon="3.80602">
        <ele>96.02331542969</ele>
        <time>2020-11-21T09:42:45.402Z</time>
      </trkpt>
      <trkpt lat="43.53778" lon="3.80602">
        <ele>96.02281188965</ele>
        <time>2020-11-21T09:42:52.733Z</time>
      </trkpt>
      <trkpt lat="43.53778" lon="3.80602">
        <ele>96.02542114258</ele>
        <time>2020-11-21T09:43:00.064Z</time>
      </trkpt>
      <trkpt lat="43.5376" lon="3.80582">
        <ele>96.51775360107</ele>
        <time>2020-11-21T09:43:07.400Z</time>
      </trkpt>
      <trkpt lat="43.53712" lon="3.80578">
        <ele>101.95517730713</ele>
        <time>2020-11-21T09:43:14.745Z</time>
      </trkpt>
      <trkpt lat="43.53666" lon="3.80598">
        <ele>109.36353302002</ele>
        <time>2020-11-21T09:43:22.100Z</time>
      </trkpt>
      <trkpt lat="43.53623" lon="3.80586">
        <ele>112.91632843018</ele>
        <time>2020-11-21T09:43:29.464Z</time>
      </trkpt>
      <trkpt lat="43.53619" lon="3.80571">
        <ele>112.6065826416</ele>
        <time>2020-11-21T09:43:36.830Z</time>
      </trkpt>
      <trkpt lat="43.53602" lon="3.80452">
        <ele>112.66366577148</ele>
        <time>2020-11-21T09:43:44.214Z</time>
      </trkpt>
      <trkpt lat="43.53602" lon="3.80374">
        <ele>112.77119445801</ele>
        <time>2020-11-21T09:43:51.609Z</time>
      </trkpt>
      <trkpt lat="43.53621" lon="3.80286">
        <ele>115.39386749268</ele>
        <time>2020-11-21T09:43:59.018Z</time>
      </trkpt>
      <trkpt lat="43.53559" lon="3.80363">
        <ele>116.00358581543</ele>
        <time>2020-11-21T09:44:06.443Z</time>
      </trkpt>
      <trkpt lat="43.53544" lon="3.80369">
        <ele>117.08487701416</ele>
        <time>2020-11-21T09:44:13.871Z</time>
      </trkpt>
      <trkpt lat="43.53517" lon="3.80365">
        <ele>117.88455200195</ele>
        <time>2020-11-21T09:44:21.305Z</time>
      </trkpt>
      <trkpt lat="43.53413" lon="3.80322">
        <ele>104.33420562744</ele>
        <time>2020-11-21T09:44:28.761Z</time>
      </trkpt>
      <trkpt lat="43.53395" lon="3.80296">
        <ele>100.93587493896</ele>
        <time>2020-11-21T09:44:36.222Z</time>
      </trkpt>
      <trkpt lat="43.53388" lon="3.80252">
        <ele>100.86434936523</ele>
        <time>2020-11-21T09:44:43.689Z</time>
      </trkpt>
      <trkpt lat="43.53381" lon="3.80246">
        <ele>98.70177459717</ele>
        <time>2020-11-21T09:44:51.158Z</time>
      </trkpt>
      <trkpt lat="43.53375" lon="3.80327">
        <ele>95.00857543945</ele>
        <time>2020-11-21T09:44:58.639Z</time>
      </trkpt>
      <trkpt lat="43.53385" lon="3.8035">
        <ele>96.92656707764</ele>
        <time>2020-11-21T09:45:06.124Z</time>
      </trkpt>
      <trkpt lat="43.53378" lon="3.80358">
        <ele>94.72470855713</ele>
        <time>2020-11-21T09:45:13.611Z</time>
      </trkpt>
      <trkpt lat="43.53365" lon="3.80343">
        <ele>92.36972045898</ele>
        <time>2020-11-21T09:45:21.101Z</time>
      </trkpt>
      <trkpt lat="43.53357" lon="3.80316">
        <ele>90.9794921875</ele>
        <time>2020-11-21T09:45:28.595Z</time>
      </trkpt>
      <trkpt lat="43.53356" lon="3.80233">
        <ele>91.59617614746</ele>
        <time>2020-11-21T09:45:36.101Z</time>
      </trkpt>
      <trkpt lat="43.53344" lon="3.80083">
        <ele>96.4493560791</ele>
        <time>2020-11-21T09:45:43.629Z</time>
      </trkpt>
      <trkpt lat="43.53334" lon="3.80037">
        <ele>101.14780426025</ele>
        <time>2020-11-21T09:45:51.164Z</time>
      </trkpt>
      <trkpt lat="43.53327" lon="3.80029">
        <ele>102.75685882568</ele>
        <time>2020-11-21T09:45:58.701Z</time>
      </trkpt>
      <trkpt lat="43.53322" lon="3.80029">
        <ele>103.72078704834</ele>
        <time>2020-11-21T09:46:06.239Z</time>
      </trkpt>
      <trkpt lat="43.53314" lon="3.80031">
        <ele>104.9451751709</ele>
        <time>2020-11-21T09:46:13.779Z</time>
      </trkpt>
      <trkpt lat="43.53298" lon="3.80086">
        <ele>102.9485168457</ele>
        <time>2020-11-21T09:46:21.327Z</time>
      </trkpt>
      <trkpt lat="43.53266" lon="3.80152">
        <ele>99.49632263184</ele>
        <time>2020-11-21T09:46:28.887Z</time>
      </trkpt>
      <trkpt lat="43.53247" lon="3.80182">
        <ele>97.28225708008</ele>
        <time>2020-11-21T09:46:36.452Z</time>
      </trkpt>
      <trkpt lat="43.53221" lon="3.80198">
        <ele>96.97952270508</ele>
        <time>2020-11-21T09:46:44.023Z</time>
      </trkpt>
      <trkpt lat="43.53209" lon="3.80199">
        <ele>97.67463684082</ele>
        <time>2020-11-21T09:46:51.597Z</time>
      </trkpt>
      <trkpt lat="43.53201" lon="3.8019">
        <ele>99.52826690674</ele>
        <time>2020-11-21T09:46:59.173Z</time>
      </trkpt>
      <trkpt lat="43.5323" lon="3.80151">
        <ele>102.25102996826</ele>
        <time>2020-11-21T09:47:06.757Z</time>
      </trkpt>
      <trkpt lat="43.53224" lon="3.80142">
        <ele>103.66699981689</ele>
        <time>2020-11-21T09:47:14.342Z</time>
      </trkpt>
      <trkpt lat="43.53203" lon="3.80148">
        <ele>104.43934631348</ele>
        <time>2020-11-21T09:47:21.932Z</time>
      </trkpt>
      <trkpt lat="43.53203" lon="3.80141">
        <ele>105.34041595459</ele>
        <time>2020-11-21T09:47:29.523Z</time>
      </trkpt>
      <trkpt lat="43.53219" lon="3.80123">
        <ele>106.37021636963</ele>
        <time>2020-11-21T09:47:37.118Z</time>
      </trkpt>
      <trkpt lat="43.5322" lon="3.80105">
        <ele>108.35256958008</ele>
        <time>2020-11-21T09:47:44.716Z</time>
      </trkpt>
      <trkpt lat="43.53173" lon="3.80085">
        <ele>113.49284362793</ele>
        <time>2020-11-21T09:47:52.324Z</time>
      </trkpt>
      <trkpt lat="43.53191" lon="3.80065">
        <ele>115.81287384033</ele>
        <time>2020-11-21T09:47:59.936Z</time>
      </trkpt>
      <trkpt lat="43.53148" lon="3.80046">
        <ele>118.29417419434</ele>
        <time>2020-11-21T09:48:07.557Z</time>
      </trkpt>
      <trkpt lat="43.53088" lon="3.79978">
        <ele>124.29917907715</ele>
        <time>2020-11-21T09:48:15.194Z</time>
      </trkpt>
      <trkpt lat="43.5306" lon="3.79934">
        <ele>126.51324462891</ele>
        <time>2020-11-21T09:48:22.839Z</time>
      </trkpt>
      <trkpt lat="43.53033" lon="3.79909">
        <ele>126.95090484619</ele>
        <time>2020-11-21T09:48:30.491Z</time>
      </trkpt>
      <trkpt lat="43.53035" lon="3.79902">
        <ele>127.82683563232</ele>
        <time>2020-11-21T09:48:38.144Z</time>
      </trkpt>
      <trkpt lat="43.53076" lon="3.79908">
        <ele>130.1432800293</ele>
        <time>2020-11-21T09:48:45.805Z</time>
      </trkpt>
      <trkpt lat="43.53107" lon="3.79902">
        <ele>132.60057067871</ele>
        <time>2020-11-21T09:48:53.472Z</time>
      </trkpt>
      <trkpt lat="43.53122" lon="3.79879">
        <ele>134.94326782227</ele>
        <time>2020-11-21T09:49:01.144Z</time>
      </trkpt>
      <trkpt lat="43.53115" lon="3.79861">
        <ele>136.30558776855</ele>
        <time>2020-11-21T09:49:08.819Z</time>
      </trkpt>
      <trkpt lat="43.53119" lon="3.79842">
        <ele>138.00476074219</ele>
        <time>2020-11-21T09:49:16.497Z</time>
      </trkpt>
      <trkpt lat="43.53117" lon="3.79783">
        <ele>144.16815185547</ele>
        <time>2020-11-21T09:49:24.183Z</time>
      </trkpt>
      <trkpt lat="43.53063" lon="3.79754">
        <ele>144.81430053711</ele>
        <time>2020-11-21T09:49:31.881Z</time>
      </trkpt>
      <trkpt lat="43.53043" lon="3.79731">
        <ele>145.53515625</ele>
        <time>2020-11-21T09:49:39.584Z</time>
      </trkpt>
      <trkpt lat="43.53033" lon="3.79671">
        <ele>149.77426147461</ele>
        <time>2020-11-21T09:49:47.296Z</time>
      </trkpt>
      <trkpt lat="43.52971" lon="3.79658">
        <ele>141.70684814453</ele>
        <time>2020-11-21T09:49:55.021Z</time>
      </trkpt>
      <trkpt lat="43.52948" lon="3.79639">
        <ele>138.69348144531</ele>
        <time>2020-11-21T09:50:02.751Z</time>
      </trkpt>
      <trkpt lat="43.52943" lon="3.79609">
        <ele>138.41123962402</ele>
        <time>2020-11-21T09:50:10.486Z</time>
      </trkpt>
      <trkpt lat="43.52976" lon="3.79539">
        <ele>141.49584960938</ele>
        <time>2020-11-21T09:50:18.233Z</time>
      </trkpt>
      <trkpt lat="43.52984" lon="3.79489">
        <ele>143.19911193848</ele>
        <time>2020-11-21T09:50:25.987Z</time>
      </trkpt>
      <trkpt lat="43.52982" lon="3.79461">
        <ele>143.24014282227</ele>
        <time>2020-11-21T09:50:33.745Z</time>
      </trkpt>
      <trkpt lat="43.52982" lon="3.79461">
        <ele>143.23773193359</ele>
        <time>2020-11-21T09:50:41.503Z</time>
      </trkpt>
      <trkpt lat="43.52968" lon="3.79382">
        <ele>144.45248413086</ele>
        <time>2020-11-21T09:50:49.273Z</time>
      </trkpt>
      <trkpt lat="43.52901" lon="3.79238">
        <ele>145.9997253418</ele>
        <time>2020-11-21T09:50:57.068Z</time>
      </trkpt>
      <trkpt lat="43.52874" lon="3.79223">
        <ele>145.1773223877</ele>
        <time>2020-11-21T09:51:04.869Z</time>
      </trkpt>
      <trkpt lat="43.52797" lon="3.79244">
        <ele>135.67654418945</ele>
        <time>2020-11-21T09:51:12.686Z</time>
      </trkpt>
      <trkpt lat="43.52786" lon="3.79229">
        <ele>134.95568847656</ele>
        <time>2020-11-21T09:51:20.506Z</time>
      </trkpt>
      <trkpt lat="43.52782" lon="3.79217">
        <ele>134.38929748535</ele>
        <time>2020-11-21T09:51:28.327Z</time>
      </trkpt>
      <trkpt lat="43.52787" lon="3.79113">
        <ele>137.43531799316</ele>
        <time>2020-11-21T09:51:36.164Z</time>
      </trkpt>
      <trkpt lat="43.52778" lon="3.79068">
        <ele>137.9030456543</ele>
        <time>2020-11-21T09:51:44.008Z</time>
      </trkpt>
      <trkpt lat="43.52769" lon="3.79047">
        <ele>137.02770996094</ele>
        <time>2020-11-21T09:51:51.855Z</time>
      </trkpt>
      <trkpt lat="43.52716" lon="3.78967">
        <ele>125.80104064941</ele>
        <time>2020-11-21T09:51:59.718Z</time>
      </trkpt>
      <trkpt lat="43.52709" lon="3.78961">
        <ele>124.25634765625</ele>
        <time>2020-11-21T09:52:07.582Z</time>
      </trkpt>
      <trkpt lat="43.52646" lon="3.79019">
        <ele>109.91116333008</ele>
        <time>2020-11-21T09:52:15.462Z</time>
      </trkpt>
      <trkpt lat="43.52635" lon="3.7902">
        <ele>107.55550384521</ele>
        <time>2020-11-21T09:52:23.344Z</time>
      </trkpt>
      <trkpt lat="43.52618" lon="3.78966">
        <ele>105.77910614014</ele>
        <time>2020-11-21T09:52:31.234Z</time>
      </trkpt>
      <trkpt lat="43.52618" lon="3.78912">
        <ele>108.92992401123</ele>
        <time>2020-11-21T09:52:39.132Z</time>
      </trkpt>
      <trkpt lat="43.52613" lon="3.78892">
        <ele>110.16567993164</ele>
        <time>2020-11-21T09:52:47.033Z</time>
      </trkpt>
      <trkpt lat="43.52579" lon="3.78905">
        <ele>106.08074188232</ele>
        <time>2020-11-21T09:52:54.941Z</time>
      </trkpt>
      <trkpt lat="43.52564" lon="3.78904">
        <ele>105.87229156494</ele>
        <time>2020-11-21T09:53:02.852Z</time>
      </trkpt>
      <trkpt lat="43.52564" lon="3.78904">
        <ele>105.87274169922</ele>
        <time>2020-11-21T09:53:10.763Z</time>
      </trkpt>
      <trkpt lat="43.52529" lon="3.78902">
        <ele>106.06024932861</ele>
        <time>2020-11-21T09:53:18.681Z</time>
      </trkpt>
      <trkpt lat="43.52521" lon="3.78908">
        <ele>105.51959991455</ele>
        <time>2020-11-21T09:53:26.601Z</time>
      </trkpt>
      <trkpt lat="43.52512" lon="3.78891">
        <ele>106.83308410645</ele>
        <time>2020-11-21T09:53:34.524Z</time>
      </trkpt>
      <trkpt lat="43.52495" lon="3.78891">
        <ele>106.42136383057</ele>
        <time>2020-11-21T09:53:42.451Z</time>
      </trkpt>
      <trkpt lat="43.52467" lon="3.78875">
        <ele>107.10340881348</ele>
        <time>2020-11-21T09:53:50.384Z</time>
      </trkpt>
      <trkpt lat="43.52367" lon="3.78812">
        <ele>106.20258331299</ele>
        <time>2020-11-21T09:53:58.339Z</time>
      </trkpt>
      <trkpt lat="43.52326" lon="3.78799">
        <ele>101.12731933594</ele>
        <time>2020-11-21T09:54:06.302Z</time>
      </trkpt>
      <trkpt lat="43.52299" lon="3.78776">
        <ele>98.90209197998</ele>
        <time>2020-11-21T09:54:14.271Z</time>
      </trkpt>
      <trkpt lat="43.52273" lon="3.78724">
        <ele>95.83425140381</ele>
        <time>2020-11-21T09:54:22.250Z</time>
      </trkpt>
      <trkpt lat="43.52252" lon="3.78639">
        <ele>94.49459075928</ele>
        <time>2020-11-21T09:54:30.242Z</time>
      </trkpt>
      <trkpt lat="43.52239" lon="3.78549">
        <ele>95.68304443359</ele>
        <time>2020-11-21T09:54:38.247Z</time>
      </trkpt>
      <trkpt lat="43.52253" lon="3.78481">
        <ele>102.8865814209</ele>
        <time>2020-11-21T09:54:46.262Z</time>
      </trkpt>
      <trkpt lat="43.52208" lon="3.78438">
        <ele>98.38121795654</ele>
        <time>2020-11-21T09:54:54.288Z</time>
      </trkpt>
      <trkpt lat="43.52192" lon="3.7841">
        <ele>97.8277053833</ele>
        <time>2020-11-21T09:55:02.319Z</time>
      </trkpt>
      <trkpt lat="43.52138" lon="3.78275">
        <ele>98.02844238281</ele>
        <time>2020-11-21T09:55:10.373Z</time>
      </trkpt>
      <trkpt lat="43.52111" lon="3.78189">
        <ele>97.86940002441</ele>
        <time>2020-11-21T09:55:18.440Z</time>
      </trkpt>
      <trkpt lat="43.52111" lon="3.78189">
        <ele>97.86779022217</ele>
        <time>2020-11-21T09:55:26.507Z</time>
      </trkpt>
      <trkpt lat="43.52086" lon="3.78114">
        <ele>97.79742431641</ele>
        <time>2020-11-21T09:55:34.586Z</time>
      </trkpt>
      <trkpt lat="43.52055" lon="3.78052">
        <ele>101.56034851074</ele>
        <time>2020-11-21T09:55:42.676Z</time>
      </trkpt>
      <trkpt lat="43.52006" lon="3.78006">
        <ele>101.44953918457</ele>
        <time>2020-11-21T09:55:50.778Z</time>
      </trkpt>
      <trkpt lat="43.51937" lon="3.77958">
        <ele>97.28317260742</ele>
        <time>2020-11-21T09:55:58.896Z</time>
      </trkpt>
      <trkpt lat="43.51885" lon="3.77903">
        <ele>93.54595947266</ele>
        <time>2020-11-21T09:56:07.027Z</time>
      </trkpt>
      <trkpt lat="43.51834" lon="3.77771">
        <ele>90.60832214355</ele>
        <time>2020-11-21T09:56:15.180Z</time>
      </trkpt>
      <trkpt lat="43.51817" lon="3.77694">
        <ele>87.63491821289</ele>
        <time>2020-11-21T09:56:23.344Z</time>
      </trkpt>
      <trkpt lat="43.51817" lon="3.77694">
        <ele>87.63311004639</ele>
        <time>2020-11-21T09:56:31.508Z</time>
      </trkpt>
      <trkpt lat="43.51827" lon="3.77612">
        <ele>87.20933532715</ele>
        <time>2020-11-21T09:56:39.684Z</time>
      </trkpt>
      <trkpt lat="43.51851" lon="3.77552">
        <ele>88.56736755371</ele>
        <time>2020-11-21T09:56:47.870Z</time>
      </trkpt>
      <trkpt lat="43.51874" lon="3.7752">
        <ele>91.17333221436</ele>
        <time>2020-11-21T09:56:56.063Z</time>
      </trkpt>
      <trkpt lat="43.51874" lon="3.77504">
        <ele>92.52494049072</ele>
        <time>2020-11-21T09:57:04.258Z</time>
      </trkpt>
      <trkpt lat="43.51839" lon="3.77467">
        <ele>90.18209838867</ele>
        <time>2020-11-21T09:57:12.462Z</time>
      </trkpt>
      <trkpt lat="43.51818" lon="3.77425">
        <ele>91.27146911621</ele>
        <time>2020-11-21T09:57:20.674Z</time>
      </trkpt>
      <trkpt lat="43.51743" lon="3.77346">
        <ele>91.45182800293</ele>
        <time>2020-11-21T09:57:28.905Z</time>
      </trkpt>
      <trkpt lat="43.51731" lon="3.77339">
        <ele>91.55480957031</ele>
        <time>2020-11-21T09:57:37.138Z</time>
      </trkpt>
      <trkpt lat="43.51667" lon="3.77344">
        <ele>86.72746276855</ele>
        <time>2020-11-21T09:57:45.384Z</time>
      </trkpt>
      <trkpt lat="43.51614" lon="3.77322">
        <ele>84.66786956787</ele>
        <time>2020-11-21T09:57:53.641Z</time>
      </trkpt>
      <trkpt lat="43.51585" lon="3.77298">
        <ele>84.28314971924</ele>
        <time>2020-11-21T09:58:01.905Z</time>
      </trkpt>
      <trkpt lat="43.5155" lon="3.77249">
        <ele>82.95732879639</ele>
        <time>2020-11-21T09:58:10.179Z</time>
      </trkpt>
      <trkpt lat="43.5155" lon="3.77249">
        <ele>82.95652008057</ele>
        <time>2020-11-21T09:58:18.453Z</time>
      </trkpt>
      <trkpt lat="43.51537" lon="3.77211">
        <ele>81.15438079834</ele>
        <time>2020-11-21T09:58:26.733Z</time>
      </trkpt>
      <trkpt lat="43.51535" lon="3.77183">
        <ele>81.21946716309</ele>
        <time>2020-11-21T09:58:35.017Z</time>
      </trkpt>
      <trkpt lat="43.51546" lon="3.77142">
        <ele>82.50670623779</ele>
        <time>2020-11-21T09:58:43.307Z</time>
      </trkpt>
      <trkpt lat="43.51592" lon="3.77064">
        <ele>83.53690338135</ele>
        <time>2020-11-21T09:58:51.612Z</time>
      </trkpt>
      <trkpt lat="43.51601" lon="3.77027">
        <ele>82.30991363525</ele>
        <time>2020-11-21T09:58:59.923Z</time>
      </trkpt>
      <trkpt lat="43.51597" lon="3.77002">
        <ele>82.32274627686</ele>
        <time>2020-11-21T09:59:08.237Z</time>
      </trkpt>
      <trkpt lat="43.51594" lon="3.76999">
        <ele>82.3999786377</ele>
        <time>2020-11-21T09:59:16.552Z</time>
      </trkpt>
      <trkpt lat="43.51586" lon="3.76989">
        <ele>82.73466491699</ele>
        <time>2020-11-21T09:59:24.869Z</time>
      </trkpt>
      <trkpt lat="43.51582" lon="3.76984">
        <ele>82.88933563232</ele>
        <time>2020-11-21T09:59:33.187Z</time>
      </trkpt>
      <trkpt lat="43.51575" lon="3.76965">
        <ele>83.27530670166</ele>
        <time>2020-11-21T09:59:41.508Z</time>
      </trkpt>
      <trkpt lat="43.51542" lon="3.7692">
        <ele>84.40163421631</ele>
        <time>2020-11-21T09:59:49.839Z</time>
      </trkpt>
      <trkpt lat="43.51508" lon="3.7683">
        <ele>85.52222442627</ele>
        <time>2020-11-21T09:59:58.185Z</time>
      </trkpt>
      <trkpt lat="43.51508" lon="3.7683">
        <ele>85.52292633057</ele>
        <time>2020-11-21T10:00:06.531Z</time>
      </trkpt>
      <trkpt lat="43.51508" lon="3.7683">
        <ele>85.52487182617</ele>
        <time>2020-11-21T10:00:14.877Z</time>
      </trkpt>
      <trkpt lat="43.51506" lon="3.76825">
        <ele>85.64582061768</ele>
        <time>2020-11-21T10:00:23.223Z</time>
      </trkpt>
      <trkpt lat="43.51482" lon="3.76706">
        <ele>86.58631134033</ele>
        <time>2020-11-21T10:00:31.587Z</time>
      </trkpt>
      <trkpt lat="43.51458" lon="3.76647">
        <ele>86.65863037109</ele>
        <time>2020-11-21T10:00:39.961Z</time>
      </trkpt>
      <trkpt lat="43.51442" lon="3.76619">
        <ele>86.86458587646</ele>
        <time>2020-11-21T10:00:48.340Z</time>
      </trkpt>
      <trkpt lat="43.51353" lon="3.76521">
        <ele>89.75924682617</ele>
        <time>2020-11-21T10:00:56.742Z</time>
      </trkpt>
      <trkpt lat="43.51298" lon="3.76478">
        <ele>92.49147033691</ele>
        <time>2020-11-21T10:01:05.157Z</time>
      </trkpt>
      <trkpt lat="43.51298" lon="3.76468">
        <ele>92.45528411865</ele>
        <time>2020-11-21T10:01:13.573Z</time>
      </trkpt>
      <trkpt lat="43.51282" lon="3.76448">
        <ele>93.02086639404</ele>
        <time>2020-11-21T10:01:21.994Z</time>
      </trkpt>
      <trkpt lat="43.51194" lon="3.76392">
        <ele>96.94012451172</ele>
        <time>2020-11-21T10:01:30.434Z</time>
      </trkpt>
      <trkpt lat="43.51126" lon="3.76365">
        <ele>99.91365814209</ele>
        <time>2020-11-21T10:01:38.888Z</time>
      </trkpt>
      <trkpt lat="43.51069" lon="3.76347">
        <ele>102.68328857422</ele>
        <time>2020-11-21T10:01:47.354Z</time>
      </trkpt>
      <trkpt lat="43.51043" lon="3.76328">
        <ele>104.38245391846</ele>
        <time>2020-11-21T10:01:55.826Z</time>
      </trkpt>
      <trkpt lat="43.51017" lon="3.76295">
        <ele>106.41630554199</ele>
        <time>2020-11-21T10:02:04.305Z</time>
      </trkpt>
      <trkpt lat="43.50998" lon="3.76251">
        <ele>107.28075408936</ele>
        <time>2020-11-21T10:02:12.791Z</time>
      </trkpt>
      <trkpt lat="43.50987" lon="3.76184">
        <ele>109.50380706787</ele>
        <time>2020-11-21T10:02:21.287Z</time>
      </trkpt>
      <trkpt lat="43.5098" lon="3.76056">
        <ele>114.20900726318</ele>
        <time>2020-11-21T10:02:29.802Z</time>
      </trkpt>
      <trkpt lat="43.50955" lon="3.75927">
        <ele>119.30215454102</ele>
        <time>2020-11-21T10:02:38.336Z</time>
      </trkpt>
      <trkpt lat="43.50956" lon="3.75848">
        <ele>119.83648681641</ele>
        <time>2020-11-21T10:02:46.882Z</time>
      </trkpt>
      <trkpt lat="43.50942" lon="3.75773">
        <ele>119.7048034668</ele>
        <time>2020-11-21T10:02:55.439Z</time>
      </trkpt>
      <trkpt lat="43.50923" lon="3.75739">
        <ele>120.3568572998</ele>
        <time>2020-11-21T10:03:04.002Z</time>
      </trkpt>
      <trkpt lat="43.50901" lon="3.75722">
        <ele>121.33515930176</ele>
        <time>2020-11-21T10:03:12.570Z</time>
      </trkpt>
      <trkpt lat="43.50818" lon="3.75668">
        <ele>127.8221206665</ele>
        <time>2020-11-21T10:03:21.157Z</time>
      </trkpt>
      <trkpt lat="43.50784" lon="3.75665">
        <ele>131.12953186035</ele>
        <time>2020-11-21T10:03:29.751Z</time>
      </trkpt>
      <trkpt lat="43.50742" lon="3.75665">
        <ele>136.37245178223</ele>
        <time>2020-11-21T10:03:38.353Z</time>
      </trkpt>
      <trkpt lat="43.50673" lon="3.75663">
        <ele>143.55982971191</ele>
        <time>2020-11-21T10:03:46.969Z</time>
      </trkpt>
      <trkpt lat="43.50603" lon="3.75687">
        <ele>144.88137817383</ele>
        <time>2020-11-21T10:03:55.599Z</time>
      </trkpt>
      <trkpt lat="43.50589" lon="3.75683">
        <ele>146.00756835938</ele>
        <time>2020-11-21T10:04:04.232Z</time>
      </trkpt>
      <trkpt lat="43.50554" lon="3.75623">
        <ele>152.31597900391</ele>
        <time>2020-11-21T10:04:12.876Z</time>
      </trkpt>
      <trkpt lat="43.50531" lon="3.75609">
        <ele>154.19535827637</ele>
        <time>2020-11-21T10:04:21.525Z</time>
      </trkpt>
      <trkpt lat="43.50511" lon="3.75582">
        <ele>153.77940368652</ele>
        <time>2020-11-21T10:04:30.180Z</time>
      </trkpt>
      <trkpt lat="43.50499" lon="3.75553">
        <ele>151.88716125488</ele>
        <time>2020-11-21T10:04:38.840Z</time>
      </trkpt>
      <trkpt lat="43.50498" lon="3.75545">
        <ele>151.50099182129</ele>
        <time>2020-11-21T10:04:47.501Z</time>
      </trkpt>
      <trkpt lat="43.50495" lon="3.75485">
        <ele>149.72770690918</ele>
        <time>2020-11-21T10:04:56.171Z</time>
      </trkpt>
      <trkpt lat="43.50493" lon="3.7548">
        <ele>149.47004699707</ele>
        <time>2020-11-21T10:05:04.842Z</time>
      </trkpt>
      <trkpt lat="43.50481" lon="3.75485">
        <ele>149.39302062988</ele>
        <time>2020-11-21T10:05:13.515Z</time>
      </trkpt>
      <trkpt lat="43.50428" lon="3.75417">
        <ele>146.80319213867</ele>
        <time>2020-11-21T10:05:22.202Z</time>
      </trkpt>
      <trkpt lat="43.50391" lon="3.75353">
        <ele>149.47442626953</ele>
        <time>2020-11-21T10:05:30.901Z</time>
      </trkpt>
      <trkpt lat="43.50361" lon="3.7533">
        <ele>149.2942199707</ele>
        <time>2020-11-21T10:05:39.607Z</time>
      </trkpt>
      <trkpt lat="43.50324" lon="3.75348">
        <ele>156.94207763672</ele>
        <time>2020-11-21T10:05:48.321Z</time>
      </trkpt>
      <trkpt lat="43.50324" lon="3.75348">
        <ele>156.93975830078</ele>
        <time>2020-11-21T10:05:57.035Z</time>
      </trkpt>
      <trkpt lat="43.50284" lon="3.75379">
        <ele>164.66687011719</ele>
        <time>2020-11-21T10:06:05.758Z</time>
      </trkpt>
      <trkpt lat="43.50268" lon="3.75374">
        <ele>168.65731811523</ele>
        <time>2020-11-21T10:06:14.484Z</time>
      </trkpt>
      <trkpt lat="43.50257" lon="3.75379">
        <ele>171.02937316895</ele>
        <time>2020-11-21T10:06:23.213Z</time>
      </trkpt>
      <trkpt lat="43.50235" lon="3.7544">
        <ele>168.14819335938</ele>
        <time>2020-11-21T10:06:31.952Z</time>
      </trkpt>
      <trkpt lat="43.5016" lon="3.75554">
        <ele>165.91058349609</ele>
        <time>2020-11-21T10:06:40.713Z</time>
      </trkpt>
      <trkpt lat="43.5012" lon="3.75567">
        <ele>166.32604980469</ele>
        <time>2020-11-21T10:06:49.482Z</time>
      </trkpt>
      <trkpt lat="43.50097" lon="3.75569">
        <ele>166.69845581055</ele>
        <time>2020-11-21T10:06:58.256Z</time>
      </trkpt>
      <trkpt lat="43.50081" lon="3.75562">
        <ele>166.17068481445</ele>
        <time>2020-11-21T10:07:07.033Z</time>
      </trkpt>
      <trkpt lat="43.49986" lon="3.75444">
        <ele>187.02813720703</ele>
        <time>2020-11-21T10:07:15.836Z</time>
      </trkpt>
      <trkpt lat="43.49949" lon="3.75425">
        <ele>187.6261138916</ele>
        <time>2020-11-21T10:07:24.647Z</time>
      </trkpt>
      <trkpt lat="43.49857" lon="3.75398">
        <ele>184.19453430176</ele>
        <time>2020-11-21T10:07:33.477Z</time>
      </trkpt>
      <trkpt lat="43.49857" lon="3.75398">
        <ele>184.19514465332</ele>
        <time>2020-11-21T10:07:42.307Z</time>
      </trkpt>
      <trkpt lat="43.49849" lon="3.75388">
        <ele>185.36250305176</ele>
        <time>2020-11-21T10:07:51.139Z</time>
      </trkpt>
      <trkpt lat="43.49813" lon="3.75299">
        <ele>199.52708435059</ele>
        <time>2020-11-21T10:07:59.986Z</time>
      </trkpt>
      <trkpt lat="43.49701" lon="3.75227">
        <ele>208.04341125488</ele>
        <time>2020-11-21T10:08:08.857Z</time>
      </trkpt>
      <trkpt lat="43.49631" lon="3.75217">
        <ele>210.0386505127</ele>
        <time>2020-11-21T10:08:17.743Z</time>
      </trkpt>
      <trkpt lat="43.49582" lon="3.75198">
        <ele>213.63931274414</ele>
        <time>2020-11-21T10:08:26.639Z</time>
      </trkpt>
      <trkpt lat="43.49522" lon="3.75176">
        <ele>216.96189880371</ele>
        <time>2020-11-21T10:08:35.547Z</time>
      </trkpt>
      <trkpt lat="43.49522" lon="3.75176">
        <ele>216.9621887207</ele>
        <time>2020-11-21T10:08:44.455Z</time>
      </trkpt>
      <trkpt lat="43.49522" lon="3.75176">
        <ele>216.96189880371</ele>
        <time>2020-11-21T10:08:53.363Z</time>
      </trkpt>
      <trkpt lat="43.49522" lon="3.75176">
        <ele>216.96405029297</ele>
        <time>2020-11-21T10:09:02.271Z</time>
      </trkpt>
      <trkpt lat="43.49498" lon="3.75158">
        <ele>216.90368652344</ele>
        <time>2020-11-21T10:09:11.185Z</time>
      </trkpt>
      <trkpt lat="43.49488" lon="3.75151">
        <ele>216.76208496094</ele>
        <time>2020-11-21T10:09:20.101Z</time>
      </trkpt>
      <trkpt lat="43.49459" lon="3.75131">
        <ele>216.31135559082</ele>
        <time>2020-11-21T10:09:29.023Z</time>
      </trkpt>
      <trkpt lat="43.4944" lon="3.75105">
        <ele>216.15687561035</ele>
        <time>2020-11-21T10:09:37.951Z</time>
      </trkpt>
      <trkpt lat="43.49346" lon="3.74951">
        <ele>216.8335723877</ele>
        <time>2020-11-21T10:09:46.908Z</time>
      </trkpt>
      <trkpt lat="43.49323" lon="3.74927">
        <ele>216.87036132812</ele>
        <time>2020-11-21T10:09:55.871Z</time>
      </trkpt>
      <trkpt lat="43.49229" lon="3.74853">
        <ele>215.92866516113</ele>
        <time>2020-11-21T10:10:04.855Z</time>
      </trkpt>
      <trkpt lat="43.49134" lon="3.74802">
        <ele>215.26818847656</ele>
        <time>2020-11-21T10:10:13.860Z</time>
      </trkpt>
      <trkpt lat="43.49075" lon="3.74778">
        <ele>214.19729614258</ele>
        <time>2020-11-21T10:10:22.877Z</time>
      </trkpt>
      <trkpt lat="43.48946" lon="3.74774">
        <ele>211.14793395996</ele>
        <time>2020-11-21T10:10:31.920Z</time>
      </trkpt>
      <trkpt lat="43.48889" lon="3.74716">
        <ele>212.1869354248</ele>
        <time>2020-11-21T10:10:40.977Z</time>
      </trkpt>
      <trkpt lat="43.48871" lon="3.74654">
        <ele>213.93798828125</ele>
        <time>2020-11-21T10:10:50.044Z</time>
      </trkpt>
      <trkpt lat="43.48864" lon="3.74502">
        <ele>213.92153930664</ele>
        <time>2020-11-21T10:10:59.133Z</time>
      </trkpt>
      <trkpt lat="43.48855" lon="3.7447">
        <ele>211.6805267334</ele>
        <time>2020-11-21T10:11:08.227Z</time>
      </trkpt>
      <trkpt lat="43.48843" lon="3.74441">
        <ele>210.31942749023</ele>
        <time>2020-11-21T10:11:17.326Z</time>
      </trkpt>
      <trkpt lat="43.48827" lon="3.74417">
        <ele>209.99710083008</ele>
        <time>2020-11-21T10:11:26.430Z</time>
      </trkpt>
      <trkpt lat="43.4874" lon="3.7433">
        <ele>212.58238220215</ele>
        <time>2020-11-21T10:11:35.555Z</time>
      </trkpt>
      <trkpt lat="43.48673" lon="3.74308">
        <ele>216.70956420898</ele>
        <time>2020-11-21T10:11:44.694Z</time>
      </trkpt>
      <trkpt lat="43.48629" lon="3.74265">
        <ele>215.88800048828</ele>
        <time>2020-11-21T10:11:53.844Z</time>
      </trkpt>
      <trkpt lat="43.4861" lon="3.74255">
        <ele>216.46726989746</ele>
        <time>2020-11-21T10:12:02.998Z</time>
      </trkpt>
      <trkpt lat="43.48498" lon="3.7416">
        <ele>217.21998596191</ele>
        <time>2020-11-21T10:12:12.178Z</time>
      </trkpt>
      <trkpt lat="43.48429" lon="3.74119">
        <ele>218.17739868164</ele>
        <time>2020-11-21T10:12:21.373Z</time>
      </trkpt>
      <trkpt lat="43.48336" lon="3.74066">
        <ele>217.7103729248</ele>
        <time>2020-11-21T10:12:30.588Z</time>
      </trkpt>
      <trkpt lat="43.48267" lon="3.74044">
        <ele>218</ele>
        <time>2020-11-21T10:12:39.817Z</time>
      </trkpt>
      <trkpt lat="43.48173" lon="3.74047">
        <ele>218.12962341309</ele>
        <time>2020-11-21T10:12:49.065Z</time>
      </trkpt>
      <trkpt lat="43.48122" lon="3.74086">
        <ele>216.48342895508</ele>
        <time>2020-11-21T10:12:58.325Z</time>
      </trkpt>
      <trkpt lat="43.48103" lon="3.7409">
        <ele>216.21310424805</ele>
        <time>2020-11-21T10:13:07.589Z</time>
      </trkpt>
      <trkpt lat="43.48063" lon="3.74075">
        <ele>216.85943603516</ele>
        <time>2020-11-21T10:13:16.861Z</time>
      </trkpt>
      <trkpt lat="43.48059" lon="3.7408">
        <ele>216.46038818359</ele>
        <time>2020-11-21T10:13:26.134Z</time>
      </trkpt>
      <trkpt lat="43.48051" lon="3.74074">
        <ele>216.64059448242</ele>
        <time>2020-11-21T10:13:35.409Z</time>
      </trkpt>
      <trkpt lat="43.47951" lon="3.74072">
        <ele>213.97909545898</ele>
        <time>2020-11-21T10:13:44.704Z</time>
      </trkpt>
      <trkpt lat="43.47905" lon="3.74054">
        <ele>212.20050048828</ele>
        <time>2020-11-21T10:13:54.009Z</time>
      </trkpt>
      <trkpt lat="43.47864" lon="3.74019">
        <ele>211.26597595215</ele>
        <time>2020-11-21T10:14:03.323Z</time>
      </trkpt>
      <trkpt lat="43.47843" lon="3.73983">
        <ele>210.52165222168</ele>
        <time>2020-11-21T10:14:12.644Z</time>
      </trkpt>
      <trkpt lat="43.47834" lon="3.73919">
        <ele>212.4935760498</ele>
        <time>2020-11-21T10:14:21.974Z</time>
      </trkpt>
      <trkpt lat="43.47799" lon="3.73806">
        <ele>213.67993164062</ele>
        <time>2020-11-21T10:14:31.322Z</time>
      </trkpt>
      <trkpt lat="43.47772" lon="3.73766">
        <ele>213.4266204834</ele>
        <time>2020-11-21T10:14:40.678Z</time>
      </trkpt>
      <trkpt lat="43.47772" lon="3.73766">
        <ele>213.42692565918</ele>
        <time>2020-11-21T10:14:50.034Z</time>
      </trkpt>
      <trkpt lat="43.47705" lon="3.73715">
        <ele>213.45237731934</ele>
        <time>2020-11-21T10:14:59.406Z</time>
      </trkpt>
      <trkpt lat="43.47499" lon="3.73667">
        <ele>203.15277099609</ele>
        <time>2020-11-21T10:15:08.819Z</time>
      </trkpt>
      <trkpt lat="43.47414" lon="3.73572">
        <ele>199.88705444336</ele>
        <time>2020-11-21T10:15:18.254Z</time>
      </trkpt>
      <trkpt lat="43.4739" lon="3.73551">
        <ele>198.57406616211</ele>
        <time>2020-11-21T10:15:27.695Z</time>
      </trkpt>
      <trkpt lat="43.47323" lon="3.73519">
        <ele>190.74505615234</ele>
        <time>2020-11-21T10:15:37.150Z</time>
      </trkpt>
      <trkpt lat="43.47269" lon="3.73456">
        <ele>196.3960723877</ele>
        <time>2020-11-21T10:15:46.619Z</time>
      </trkpt>
      <trkpt lat="43.47198" lon="3.73444">
        <ele>193.39573669434</ele>
        <time>2020-11-21T10:15:56.103Z</time>
      </trkpt>
      <trkpt lat="43.47127" lon="3.73453">
        <ele>183.79486083984</ele>
        <time>2020-11-21T10:16:05.601Z</time>
      </trkpt>
      <trkpt lat="43.47021" lon="3.73438">
        <ele>170.83050537109</ele>
        <time>2020-11-21T10:16:15.120Z</time>
      </trkpt>
      <trkpt lat="43.47" lon="3.73424">
        <ele>166.62326049805</ele>
        <time>2020-11-21T10:16:24.644Z</time>
      </trkpt>
      <trkpt lat="43.46966" lon="3.7337">
        <ele>163.04472351074</ele>
        <time>2020-11-21T10:16:34.178Z</time>
      </trkpt>
      <trkpt lat="43.4692" lon="3.73318">
        <ele>151.58415222168</ele>
        <time>2020-11-21T10:16:43.724Z</time>
      </trkpt>
      <trkpt lat="43.46913" lon="3.73295">
        <ele>150.81181335449</ele>
        <time>2020-11-21T10:16:53.274Z</time>
      </trkpt>
      <trkpt lat="43.46917" lon="3.732">
        <ele>156.05728149414</ele>
        <time>2020-11-21T10:17:02.838Z</time>
      </trkpt>
      <trkpt lat="43.46907" lon="3.73171">
        <ele>153.58166503906</ele>
        <time>2020-11-21T10:17:12.406Z</time>
      </trkpt>
      <trkpt lat="43.46871" lon="3.7312">
        <ele>142.68370056152</ele>
        <time>2020-11-21T10:17:21.985Z</time>
      </trkpt>
      <trkpt lat="43.46874" lon="3.73023">
        <ele>138.04194641113</ele>
        <time>2020-11-21T10:17:31.578Z</time>
      </trkpt>
      <trkpt lat="43.46883" lon="3.72978">
        <ele>137.32418823242</ele>
        <time>2020-11-21T10:17:41.178Z</time>
      </trkpt>
      <trkpt lat="43.46897" lon="3.72953">
        <ele>135.42672729492</ele>
        <time>2020-11-21T10:17:50.782Z</time>
      </trkpt>
      <trkpt lat="43.46916" lon="3.72941">
        <ele>136.0059967041</ele>
        <time>2020-11-21T10:18:00.390Z</time>
      </trkpt>
      <trkpt lat="43.47038" lon="3.72911">
        <ele>142.37982177734</ele>
        <time>2020-11-21T10:18:10.023Z</time>
      </trkpt>
      <trkpt lat="43.47056" lon="3.72882">
        <ele>141.1078338623</ele>
        <time>2020-11-21T10:18:19.662Z</time>
      </trkpt>
      <trkpt lat="43.47079" lon="3.72827">
        <ele>143.82054138184</ele>
        <time>2020-11-21T10:18:29.310Z</time>
      </trkpt>
      <trkpt lat="43.47041" lon="3.72679">
        <ele>158.38571166992</ele>
        <time>2020-11-21T10:18:38.981Z</time>
      </trkpt>
      <trkpt lat="43.46999" lon="3.72638">
        <ele>165.90953063965</ele>
        <time>2020-11-21T10:18:48.662Z</time>
      </trkpt>
      <trkpt lat="43.46983" lon="3.72606">
        <ele>170.15744018555</ele>
        <time>2020-11-21T10:18:58.349Z</time>
      </trkpt>
      <trkpt lat="43.46894" lon="3.7258">
        <ele>175.85722351074</ele>
        <time>2020-11-21T10:19:08.054Z</time>
      </trkpt>
      <trkpt lat="43.46791" lon="3.72576">
        <ele>184.56639099121</ele>
        <time>2020-11-21T10:19:17.779Z</time>
      </trkpt>
      <trkpt lat="43.46707" lon="3.72527">
        <ele>188.21858215332</ele>
        <time>2020-11-21T10:19:27.523Z</time>
      </trkpt>
      <trkpt lat="43.46656" lon="3.72504">
        <ele>185.55041503906</ele>
        <time>2020-11-21T10:19:37.278Z</time>
      </trkpt>
      <trkpt lat="43.46604" lon="3.72469">
        <ele>180.80047607422</ele>
        <time>2020-11-21T10:19:47.044Z</time>
      </trkpt>
      <trkpt lat="43.46585" lon="3.72465">
        <ele>180.51252746582</ele>
        <time>2020-11-21T10:19:56.814Z</time>
      </trkpt>
      <trkpt lat="43.4655" lon="3.72433">
        <ele>180.32501220703</ele>
        <time>2020-11-21T10:20:06.592Z</time>
      </trkpt>
      <trkpt lat="43.46501" lon="3.72406">
        <ele>176.3390045166</ele>
        <time>2020-11-21T10:20:16.381Z</time>
      </trkpt>
      <trkpt lat="43.46501" lon="3.72406">
        <ele>176.34042358398</ele>
        <time>2020-11-21T10:20:26.170Z</time>
      </trkpt>
      <trkpt lat="43.46442" lon="3.72244">
        <ele>157.16389465332</ele>
        <time>2020-11-21T10:20:35.985Z</time>
      </trkpt>
      <trkpt lat="43.46435" lon="3.72223">
        <ele>156.26281738281</ele>
        <time>2020-11-21T10:20:45.804Z</time>
      </trkpt>
      <trkpt lat="43.46409" lon="3.72185">
        <ele>151.0634765625</ele>
        <time>2020-11-21T10:20:55.630Z</time>
      </trkpt>
      <trkpt lat="43.46359" lon="3.72145">
        <ele>137.35430908203</ele>
        <time>2020-11-21T10:21:05.468Z</time>
      </trkpt>
      <trkpt lat="43.46224" lon="3.71961">
        <ele>107.82209014893</ele>
        <time>2020-11-21T10:21:15.344Z</time>
      </trkpt>
      <trkpt lat="43.46115" lon="3.71835">
        <ele>117.34818267822</ele>
        <time>2020-11-21T10:21:25.248Z</time>
      </trkpt>
      <trkpt lat="43.46082" lon="3.71797">
        <ele>120.26854705811</ele>
        <time>2020-11-21T10:21:35.161Z</time>
      </trkpt>
      <trkpt lat="43.46034" lon="3.71754">
        <ele>125.86685180664</ele>
        <time>2020-11-21T10:21:45.085Z</time>
      </trkpt>
      <trkpt lat="43.46008" lon="3.71718">
        <ele>125.41655731201</ele>
        <time>2020-11-21T10:21:55.017Z</time>
      </trkpt>
      <trkpt lat="43.45985" lon="3.71708">
        <ele>124.64420318604</ele>
        <time>2020-11-21T10:22:04.954Z</time>
      </trkpt>
      <trkpt lat="43.45845" lon="3.71591">
        <ele>111.85766601562</ele>
        <time>2020-11-21T10:22:14.923Z</time>
      </trkpt>
      <trkpt lat="43.45845" lon="3.71591">
        <ele>111.85746765137</ele>
        <time>2020-11-21T10:22:24.892Z</time>
      </trkpt>
      <trkpt lat="43.45823" lon="3.71577">
        <ele>113.20927429199</ele>
        <time>2020-11-21T10:22:34.866Z</time>
      </trkpt>
      <trkpt lat="43.45811" lon="3.71587">
        <ele>110.82781219482</ele>
        <time>2020-11-21T10:22:44.843Z</time>
      </trkpt>
      <trkpt lat="43.45721" lon="3.71592">
        <ele>104.66345214844</ele>
        <time>2020-11-21T10:22:54.838Z</time>
      </trkpt>
      <trkpt lat="43.45675" lon="3.71604">
        <ele>99.57649993896</ele>
        <time>2020-11-21T10:23:04.842Z</time>
      </trkpt>
      <trkpt lat="43.45569" lon="3.71604">
        <ele>93.16485595703</ele>
        <time>2020-11-21T10:23:14.868Z</time>
      </trkpt>
      <trkpt lat="43.45549" lon="3.7161">
        <ele>91.47856903076</ele>
        <time>2020-11-21T10:23:24.898Z</time>
      </trkpt>
      <trkpt lat="43.45504" lon="3.71633">
        <ele>85.24681091309</ele>
        <time>2020-11-21T10:23:34.937Z</time>
      </trkpt>
      <trkpt lat="43.45454" lon="3.71672">
        <ele>77.70586395264</ele>
        <time>2020-11-21T10:23:44.988Z</time>
      </trkpt>
      <trkpt lat="43.45454" lon="3.71672">
        <ele>77.70546722412</ele>
        <time>2020-11-21T10:23:55.039Z</time>
      </trkpt>
      <trkpt lat="43.45421" lon="3.71712">
        <ele>72.45405578613</ele>
        <time>2020-11-21T10:24:05.099Z</time>
      </trkpt>
      <trkpt lat="43.45412" lon="3.71731">
        <ele>70.58654022217</ele>
        <time>2020-11-21T10:24:15.162Z</time>
      </trkpt>
      <trkpt lat="43.45412" lon="3.7173">
        <ele>70.58895874023</ele>
        <time>2020-11-21T10:24:25.225Z</time>
      </trkpt>
      <trkpt lat="43.45412" lon="3.71731">
        <ele>70.58575439453</ele>
        <time>2020-11-21T10:24:35.288Z</time>
      </trkpt>
      <trkpt lat="43.4538" lon="3.71791">
        <ele>67.4778213501</ele>
        <time>2020-11-21T10:24:45.362Z</time>
      </trkpt>
      <trkpt lat="43.45387" lon="3.71828">
        <ele>67.27018737793</ele>
        <time>2020-11-21T10:24:55.441Z</time>
      </trkpt>
      <trkpt lat="43.45376" lon="3.71865">
        <ele>64.89049530029</ele>
        <time>2020-11-21T10:25:05.526Z</time>
      </trkpt>
      <trkpt lat="43.45395" lon="3.71938">
        <ele>66.48251342773</ele>
        <time>2020-11-21T10:25:15.622Z</time>
      </trkpt>
      <trkpt lat="43.45417" lon="3.71957">
        <ele>67.66677856445</ele>
        <time>2020-11-21T10:25:25.723Z</time>
      </trkpt>
      <trkpt lat="43.45474" lon="3.71983">
        <ele>74.1145324707</ele>
        <time>2020-11-21T10:25:35.836Z</time>
      </trkpt>
      <trkpt lat="43.45475" lon="3.71983">
        <ele>74.28187561035</ele>
        <time>2020-11-21T10:25:45.950Z</time>
      </trkpt>
      <trkpt lat="43.45479" lon="3.7201">
        <ele>73.01906585693</ele>
        <time>2020-11-21T10:25:56.068Z</time>
      </trkpt>
      <trkpt lat="43.45476" lon="3.72045">
        <ele>69.67334747314</ele>
        <time>2020-11-21T10:26:06.191Z</time>
      </trkpt>
      <trkpt lat="43.4546" lon="3.72117">
        <ele>63.15139007568</ele>
        <time>2020-11-21T10:26:16.325Z</time>
      </trkpt>
      <trkpt lat="43.45464" lon="3.7216">
        <ele>61.83453369141</ele>
        <time>2020-11-21T10:26:26.465Z</time>
      </trkpt>
      <trkpt lat="43.45445" lon="3.72209">
        <ele>59.78672409058</ele>
        <time>2020-11-21T10:26:36.613Z</time>
      </trkpt>
      <trkpt lat="43.45454" lon="3.72306">
        <ele>57.45887756348</ele>
        <time>2020-11-21T10:26:46.775Z</time>
      </trkpt>
      <trkpt lat="43.45463" lon="3.72356">
        <ele>56.79121780396</ele>
        <time>2020-11-21T10:26:56.945Z</time>
      </trkpt>
      <trkpt lat="43.45476" lon="3.72386">
        <ele>57.20363998413</ele>
        <time>2020-11-21T10:27:07.120Z</time>
      </trkpt>
      <trkpt lat="43.45477" lon="3.72387">
        <ele>57.25513076782</ele>
        <time>2020-11-21T10:27:17.295Z</time>
      </trkpt>
      <trkpt lat="43.45494" lon="3.72416">
        <ele>57.93686676025</ele>
        <time>2020-11-21T10:27:27.476Z</time>
      </trkpt>
      <trkpt lat="43.45489" lon="3.72474">
        <ele>56.47601699829</ele>
        <time>2020-11-21T10:27:37.665Z</time>
      </trkpt>
      <trkpt lat="43.45476" lon="3.72511">
        <ele>54.46505355835</ele>
        <time>2020-11-21T10:27:47.860Z</time>
      </trkpt>
      <trkpt lat="43.45475" lon="3.72542">
        <ele>53.52280807495</ele>
        <time>2020-11-21T10:27:58.060Z</time>
      </trkpt>
      <trkpt lat="43.45485" lon="3.72589">
        <ele>52.97595977783</ele>
        <time>2020-11-21T10:28:08.267Z</time>
      </trkpt>
      <trkpt lat="43.45493" lon="3.72637">
        <ele>52.26876449585</ele>
        <time>2020-11-21T10:28:18.481Z</time>
      </trkpt>
      <trkpt lat="43.45476" lon="3.72705">
        <ele>50.10982513428</ele>
        <time>2020-11-21T10:28:28.706Z</time>
      </trkpt>
      <trkpt lat="43.4545" lon="3.72774">
        <ele>48.9986114502</ele>
        <time>2020-11-21T10:28:38.942Z</time>
      </trkpt>
      <trkpt lat="43.45444" lon="3.72822">
        <ele>48.52892303467</ele>
        <time>2020-11-21T10:28:49.185Z</time>
      </trkpt>
      <trkpt lat="43.45433" lon="3.72866">
        <ele>48.01021957397</ele>
        <time>2020-11-21T10:28:59.435Z</time>
      </trkpt>
      <trkpt lat="43.45407" lon="3.72927">
        <ele>46.83560943604</ele>
        <time>2020-11-21T10:29:09.695Z</time>
      </trkpt>
      <trkpt lat="43.45391" lon="3.73008">
        <ele>47.00551986694</ele>
        <time>2020-11-21T10:29:19.967Z</time>
      </trkpt>
      <trkpt lat="43.45358" lon="3.73089">
        <ele>43.76964569092</ele>
        <time>2020-11-21T10:29:30.253Z</time>
      </trkpt>
      <trkpt lat="43.45352" lon="3.73119">
        <ele>42.14618682861</ele>
        <time>2020-11-21T10:29:40.543Z</time>
      </trkpt>
      <trkpt lat="43.45352" lon="3.73119">
        <ele>42.14678955078</ele>
        <time>2020-11-21T10:29:50.833Z</time>
      </trkpt>
      <trkpt lat="43.45344" lon="3.73186">
        <ele>36.88750457764</ele>
        <time>2020-11-21T10:30:01.133Z</time>
      </trkpt>
      <trkpt lat="43.45296" lon="3.73322">
        <ele>32.09829330444</ele>
        <time>2020-11-21T10:30:11.455Z</time>
      </trkpt>
      <trkpt lat="43.45292" lon="3.7334">
        <ele>31.80222702026</ele>
        <time>2020-11-21T10:30:21.780Z</time>
      </trkpt>
      <trkpt lat="43.45303" lon="3.73365">
        <ele>31.50747680664</ele>
        <time>2020-11-21T10:30:32.109Z</time>
      </trkpt>
      <trkpt lat="43.45303" lon="3.73385">
        <ele>30.77394676208</ele>
        <time>2020-11-21T10:30:42.441Z</time>
      </trkpt>
      <trkpt lat="43.45294" lon="3.73405">
        <ele>29.55969619751</ele>
        <time>2020-11-21T10:30:52.777Z</time>
      </trkpt>
      <trkpt lat="43.45229" lon="3.73471">
        <ele>24.46559524536</ele>
        <time>2020-11-21T10:31:03.129Z</time>
      </trkpt>
      <trkpt lat="43.45213" lon="3.73525">
        <ele>23.84763145447</ele>
        <time>2020-11-21T10:31:13.489Z</time>
      </trkpt>
      <trkpt lat="43.45213" lon="3.73525">
        <ele>23.84732818604</ele>
        <time>2020-11-21T10:31:23.849Z</time>
      </trkpt>
      <trkpt lat="43.45213" lon="3.73525">
        <ele>23.84666633606</ele>
        <time>2020-11-21T10:31:34.209Z</time>
      </trkpt>
      <trkpt lat="43.45208" lon="3.73545">
        <ele>23.12808036804</ele>
        <time>2020-11-21T10:31:44.572Z</time>
      </trkpt>
      <trkpt lat="43.45147" lon="3.73694">
        <ele>20.15866470337</ele>
        <time>2020-11-21T10:31:54.960Z</time>
      </trkpt>
      <trkpt lat="43.45136" lon="3.73744">
        <ele>20.12265205383</ele>
        <time>2020-11-21T10:32:05.356Z</time>
      </trkpt>
      <trkpt lat="43.45069" lon="3.73841">
        <ele>16.91892814636</ele>
        <time>2020-11-21T10:32:15.771Z</time>
      </trkpt>
      <trkpt lat="43.45002" lon="3.73975">
        <ele>12.29986953735</ele>
        <time>2020-11-21T10:32:26.210Z</time>
      </trkpt>
      <trkpt lat="43.44965" lon="3.7413">
        <ele>10.99662590027</ele>
        <time>2020-11-21T10:32:36.673Z</time>
      </trkpt>
      <trkpt lat="43.44948" lon="3.74206">
        <ele>9.15023708344</ele>
        <time>2020-11-21T10:32:47.147Z</time>
      </trkpt>
      <trkpt lat="43.44929" lon="3.74286">
        <ele>7.81449174881</ele>
        <time>2020-11-21T10:32:57.634Z</time>
      </trkpt>
      <trkpt lat="43.44903" lon="3.74339">
        <ele>7.01199483871</ele>
        <time>2020-11-21T10:33:08.130Z</time>
      </trkpt>
      <trkpt lat="43.44895" lon="3.74332">
        <ele>7.07625675201</ele>
        <time>2020-11-21T10:33:18.628Z</time>
      </trkpt>
      <trkpt lat="43.44886" lon="3.74339">
        <ele>6.80593490601</ele>
        <time>2020-11-21T10:33:29.128Z</time>
      </trkpt>
      <trkpt lat="43.44886" lon="3.74375">
        <ele>6.69247531891</ele>
        <time>2020-11-21T10:33:39.633Z</time>
      </trkpt>
      <trkpt lat="43.44889" lon="3.74382">
        <ele>6.80822706223</ele>
        <time>2020-11-21T10:33:50.139Z</time>
      </trkpt>
      <trkpt lat="43.44887" lon="3.74395">
        <ele>6.93695163727</ele>
        <time>2020-11-21T10:34:00.647Z</time>
      </trkpt>
      <trkpt lat="43.44859" lon="3.7444">
        <ele>7.11664104462</ele>
        <time>2020-11-21T10:34:11.164Z</time>
      </trkpt>
      <trkpt lat="43.44859" lon="3.7444">
        <ele>7.11674165726</ele>
        <time>2020-11-21T10:34:21.681Z</time>
      </trkpt>
      <trkpt lat="43.44783" lon="3.74543">
        <ele>6</ele>
        <time>2020-11-21T10:34:32.219Z</time>
      </trkpt>
      <trkpt lat="43.4471" lon="3.74623">
        <ele>6.22745990753</ele>
        <time>2020-11-21T10:34:42.776Z</time>
      </trkpt>
      <trkpt lat="43.44699" lon="3.74649">
        <ele>6.19864463806</ele>
        <time>2020-11-21T10:34:53.337Z</time>
      </trkpt>
      <trkpt lat="43.4468" lon="3.74656">
        <ele>5.93388128281</ele>
        <time>2020-11-21T10:35:03.902Z</time>
      </trkpt>
      <trkpt lat="43.44629" lon="3.7472">
        <ele>4.72407150269</ele>
        <time>2020-11-21T10:35:14.481Z</time>
      </trkpt>
      <trkpt lat="43.44623" lon="3.74744">
        <ele>4.56940078735</ele>
        <time>2020-11-21T10:35:25.064Z</time>
      </trkpt>
      <trkpt lat="43.44578" lon="3.748">
        <ele>3.48831534386</ele>
        <time>2020-11-21T10:35:35.659Z</time>
      </trkpt>
      <trkpt lat="43.44546" lon="3.74839">
        <ele>3.17270755768</ele>
        <time>2020-11-21T10:35:46.262Z</time>
      </trkpt>
      <trkpt lat="43.44541" lon="3.74826">
        <ele>2.96674823761</ele>
        <time>2020-11-21T10:35:56.867Z</time>
      </trkpt>
      <trkpt lat="43.44516" lon="3.74859">
        <ele>2.94059920311</ele>
        <time>2020-11-21T10:36:07.480Z</time>
      </trkpt>
      <trkpt lat="43.44522" lon="3.74876">
        <ele>2.80932927132</ele>
        <time>2020-11-21T10:36:18.095Z</time>
      </trkpt>
      <trkpt lat="43.44505" lon="3.74898">
        <ele>2.47719073296</ele>
        <time>2020-11-21T10:36:28.715Z</time>
      </trkpt>
      <trkpt lat="43.44413" lon="3.75013">
        <ele>0.19967547059</ele>
        <time>2020-11-21T10:36:39.360Z</time>
      </trkpt>
      <trkpt lat="43.44435" lon="3.75044">
        <ele>0.0320202373</ele>
        <time>2020-11-21T10:36:50.011Z</time>
      </trkpt>
      <trkpt lat="43.44405" lon="3.75096">
        <ele>0.2325219959</ele>
        <time>2020-11-21T10:37:00.672Z</time>
      </trkpt>
      <trkpt lat="43.44405" lon="3.75096">
        <ele>0.23262256384</ele>
        <time>2020-11-21T10:37:11.333Z</time>
      </trkpt>
      <trkpt lat="43.4442" lon="3.75179">
        <ele>1</ele>
        <time>2020-11-21T10:37:22.006Z</time>
      </trkpt>
      <trkpt lat="43.44414" lon="3.75217">
        <ele>1.35880172253</ele>
        <time>2020-11-21T10:37:32.685Z</time>
      </trkpt>
      <trkpt lat="43.44414" lon="3.75217">
        <ele>1.35880172253</ele>
        <time>2020-11-21T10:37:43.364Z</time>
      </trkpt>
      <trkpt lat="43.444" lon="3.75268">
        <ele>2.32038545609</ele>
        <time>2020-11-21T10:37:54.051Z</time>
      </trkpt>
      <trkpt lat="43.44392" lon="3.75281">
        <ele>2.71943163872</ele>
        <time>2020-11-21T10:38:04.740Z</time>
      </trkpt>
      <trkpt lat="43.44387" lon="3.75284">
        <ele>2.86092805862</ele>
        <time>2020-11-21T10:38:15.431Z</time>
      </trkpt>
      <trkpt lat="43.44387" lon="3.75284">
        <ele>2.86102867126</ele>
        <time>2020-11-21T10:38:26.122Z</time>
      </trkpt>
      <trkpt lat="43.44385" lon="3.75291">
        <ele>3.06688737869</ele>
        <time>2020-11-21T10:38:36.814Z</time>
      </trkpt>
      <trkpt lat="43.44386" lon="3.75298">
        <ele>3.20858502388</ele>
        <time>2020-11-21T10:38:47.507Z</time>
      </trkpt>
      <trkpt lat="43.4438" lon="3.7531">
        <ele>3.5561413765</ele>
        <time>2020-11-21T10:38:58.202Z</time>
      </trkpt>
      <trkpt lat="43.4437" lon="3.75322">
        <ele>3.96795940399</ele>
        <time>2020-11-21T10:39:08.900Z</time>
      </trkpt>
      <trkpt lat="43.44343" lon="3.75349">
        <ele>4.70035791397</ele>
        <time>2020-11-21T10:39:19.604Z</time>
      </trkpt>
      <trkpt lat="43.44343" lon="3.75349">
        <ele>4.69995546341</ele>
        <time>2020-11-21T10:39:30.308Z</time>
      </trkpt>
      <trkpt lat="43.44341" lon="3.75374">
        <ele>4.12061452866</ele>
        <time>2020-11-21T10:39:41.016Z</time>
      </trkpt>
      <trkpt lat="43.44349" lon="3.75414">
        <ele>3.57330060005</ele>
        <time>2020-11-21T10:39:51.730Z</time>
      </trkpt>
      <trkpt lat="43.44341" lon="3.75444">
        <ele>2.87337827682</ele>
        <time>2020-11-21T10:40:02.449Z</time>
      </trkpt>
      <trkpt lat="43.44285" lon="3.75506">
        <ele>3.46447873116</ele>
        <time>2020-11-21T10:40:13.182Z</time>
      </trkpt>
      <trkpt lat="43.44282" lon="3.75524">
        <ele>3.91935062408</ele>
        <time>2020-11-21T10:40:23.918Z</time>
      </trkpt>
      <trkpt lat="43.44349" lon="3.75568">
        <ele>2.86603283882</ele>
        <time>2020-11-21T10:40:34.669Z</time>
      </trkpt>
      <trkpt lat="43.44362" lon="3.75593">
        <ele>2.42836928368</ele>
        <time>2020-11-21T10:40:45.424Z</time>
      </trkpt>
      <trkpt lat="43.44396" lon="3.75673">
        <ele>3.13742470741</ele>
        <time>2020-11-21T10:40:56.193Z</time>
      </trkpt>
      <trkpt lat="43.44396" lon="3.75673">
        <ele>3.13722348213</ele>
        <time>2020-11-21T10:41:06.962Z</time>
      </trkpt>
      <trkpt lat="43.4442" lon="3.75795">
        <ele>2.71581602097</ele>
        <time>2020-11-21T10:41:17.749Z</time>
      </trkpt>
      <trkpt lat="43.44427" lon="3.75833">
        <ele>2.25240755081</ele>
        <time>2020-11-21T10:41:28.542Z</time>
      </trkpt>
      <trkpt lat="43.44439" lon="3.75893">
        <ele>2.46845006943</ele>
        <time>2020-11-21T10:41:39.344Z</time>
      </trkpt>
      <trkpt lat="43.44458" lon="3.75923">
        <ele>2.82887887955</ele>
        <time>2020-11-21T10:41:50.152Z</time>
      </trkpt>
      <trkpt lat="43.44458" lon="3.75923">
        <ele>2.82887887955</ele>
        <time>2020-11-21T10:42:00.960Z</time>
      </trkpt>
      <trkpt lat="43.44468" lon="3.75949">
        <ele>2.72436404228</ele>
        <time>2020-11-21T10:42:11.772Z</time>
      </trkpt>
      <trkpt lat="43.44492" lon="3.75993">
        <ele>1.66882252693</ele>
        <time>2020-11-21T10:42:22.592Z</time>
      </trkpt>
      <trkpt lat="43.44509" lon="3.76036">
        <ele>0.63902586699</ele>
        <time>2020-11-21T10:42:33.419Z</time>
      </trkpt>
      <trkpt lat="43.44517" lon="3.76055">
        <ele>0.22775539756</ele>
        <time>2020-11-21T10:42:44.249Z</time>
      </trkpt>
      <trkpt lat="43.44528" lon="3.76083">
        <ele>0.26586994529</ele>
        <time>2020-11-21T10:42:55.084Z</time>
      </trkpt>
      <trkpt lat="43.44518" lon="3.76097">
        <ele>-0.71243685484</ele>
        <time>2020-11-21T10:43:05.922Z</time>
      </trkpt>
      <trkpt lat="43.44517" lon="3.76111">
        <ele>-0.91844087839</ele>
        <time>2020-11-21T10:43:16.762Z</time>
      </trkpt>
      <trkpt lat="43.44514" lon="3.76162">
        <ele>-0.28259959817</ele>
        <time>2020-11-21T10:43:27.609Z</time>
      </trkpt>
      <trkpt lat="43.44508" lon="3.76347">
        <ele>0.01230494771</ele>
        <time>2020-11-21T10:43:38.483Z</time>
      </trkpt>
      <trkpt lat="43.44508" lon="3.76362">
        <ele>-0.00212325971</ele>
        <time>2020-11-21T10:43:49.360Z</time>
      </trkpt>
      <trkpt lat="43.44508" lon="3.76363">
        <ele>-0.02806929499</ele>
        <time>2020-11-21T10:44:00.237Z</time>
      </trkpt>
      <trkpt lat="43.44527" lon="3.76371">
        <ele>-0.3933878541</ele>
        <time>2020-11-21T10:44:11.118Z</time>
      </trkpt>
      <trkpt lat="43.44594" lon="3.76336">
        <ele>-1.78477525711</ele>
        <time>2020-11-21T10:44:22.013Z</time>
      </trkpt>
      <trkpt lat="43.44611" lon="3.7634">
        <ele>-1.82339262962</ele>
        <time>2020-11-21T10:44:32.911Z</time>
      </trkpt>
      <trkpt lat="43.44697" lon="3.76568">
        <ele>-2</ele>
        <time>2020-11-21T10:44:43.847Z</time>
      </trkpt>
      <trkpt lat="43.44697" lon="3.76568">
        <ele>-2</ele>
        <time>2020-11-21T10:44:54.783Z</time>
      </trkpt>
      <trkpt lat="43.44697" lon="3.76568">
        <ele>-2</ele>
        <time>2020-11-21T10:45:05.719Z</time>
      </trkpt>
      <trkpt lat="43.45048" lon="3.77503">
        <ele>-2</ele>
        <time>2020-11-21T10:45:16.808Z</time>
      </trkpt>
      <trkpt lat="43.45171" lon="3.77805">
        <ele>-2</ele>
        <time>2020-11-21T10:45:27.948Z</time>
      </trkpt>
      <trkpt lat="43.45171" lon="3.77805">
        <ele>-2</ele>
        <time>2020-11-21T10:45:39.088Z</time>
      </trkpt>
      <trkpt lat="43.45206" lon="3.7786">
        <ele>-2</ele>
        <time>2020-11-21T10:45:50.238Z</time>
      </trkpt>
      <trkpt lat="43.45319" lon="3.77872">
        <ele>-1.5663369894</ele>
        <time>2020-11-21T10:46:01.411Z</time>
      </trkpt>
      <trkpt lat="43.45369" lon="3.77821">
        <ele>-1</ele>
        <time>2020-11-21T10:46:12.596Z</time>
      </trkpt>
      <trkpt lat="43.45404" lon="3.77767">
        <ele>-1.05623841286</ele>
        <time>2020-11-21T10:46:23.792Z</time>
      </trkpt>
      <trkpt lat="43.45428" lon="3.77743">
        <ele>-0.78248000145</ele>
        <time>2020-11-21T10:46:34.994Z</time>
      </trkpt>
      <trkpt lat="43.45435" lon="3.77759">
        <ele>-0.85365438461</ele>
        <time>2020-11-21T10:46:46.199Z</time>
      </trkpt>
      <trkpt lat="43.45429" lon="3.77792">
        <ele>-1</ele>
        <time>2020-11-21T10:46:57.409Z</time>
      </trkpt>
      <trkpt lat="43.45382" lon="3.77856">
        <ele>-1</ele>
        <time>2020-11-21T10:47:08.632Z</time>
      </trkpt>
      <trkpt lat="43.45341" lon="3.77895">
        <ele>-1.59208190441</ele>
        <time>2020-11-21T10:47:19.865Z</time>
      </trkpt>
      <trkpt lat="43.4522" lon="3.77892">
        <ele>-2</ele>
        <time>2020-11-21T10:47:31.122Z</time>
      </trkpt>
      <trkpt lat="43.45204" lon="3.77906">
        <ele>-2</ele>
        <time>2020-11-21T10:47:42.383Z</time>
      </trkpt>
      <trkpt lat="43.45206" lon="3.77924">
        <ele>-2</ele>
        <time>2020-11-21T10:47:53.646Z</time>
      </trkpt>
      <trkpt lat="43.45284" lon="3.7814">
        <ele>-1.20924258232</ele>
        <time>2020-11-21T10:48:04.944Z</time>
      </trkpt>
      <trkpt lat="43.45303" lon="3.78176">
        <ele>-1.41520190239</ele>
        <time>2020-11-21T10:48:16.249Z</time>
      </trkpt>
      <trkpt lat="43.45491" lon="3.78259">
        <ele>-3.49851465225</ele>
        <time>2020-11-21T10:48:27.593Z</time>
      </trkpt>
      <trkpt lat="43.45556" lon="3.78296">
        <ele>-3.64481186867</ele>
        <time>2020-11-21T10:48:38.951Z</time>
      </trkpt>
      <trkpt lat="43.45577" lon="3.78424">
        <ele>-1.60252809525</ele>
        <time>2020-11-21T10:48:50.329Z</time>
      </trkpt>
      <trkpt lat="43.45631" lon="3.78556">
        <ele>-1</ele>
        <time>2020-11-21T10:49:01.729Z</time>
      </trkpt>
      <trkpt lat="43.45631" lon="3.78556">
        <ele>-1</ele>
        <time>2020-11-21T10:49:13.129Z</time>
      </trkpt>
      <trkpt lat="43.45676" lon="3.78655">
        <ele>-0.3978433013</ele>
        <time>2020-11-21T10:49:24.546Z</time>
      </trkpt>
      <trkpt lat="43.45712" lon="3.78674">
        <ele>-0.8666292429</ele>
        <time>2020-11-21T10:49:35.970Z</time>
      </trkpt>
      <trkpt lat="43.45743" lon="3.78734">
        <ele>-0.89237415791</ele>
        <time>2020-11-21T10:49:47.405Z</time>
      </trkpt>
      <trkpt lat="43.45755" lon="3.78756">
        <ele>-0.91811907291</ele>
        <time>2020-11-21T10:49:58.844Z</time>
      </trkpt>
      <trkpt lat="43.45783" lon="3.78941">
        <ele>-0.16072435677</ele>
        <time>2020-11-21T10:50:10.311Z</time>
      </trkpt>
      <trkpt lat="43.45811" lon="3.79019">
        <ele>-0.86261630058</ele>
        <time>2020-11-21T10:50:21.790Z</time>
      </trkpt>
      <trkpt lat="43.45805" lon="3.79032">
        <ele>-0.93911159039</ele>
        <time>2020-11-21T10:50:33.271Z</time>
      </trkpt>
      <trkpt lat="43.45824" lon="3.79068">
        <ele>-0.03824067116</ele>
        <time>2020-11-21T10:50:44.759Z</time>
      </trkpt>
      <trkpt lat="43.45836" lon="3.79131">
        <ele>0.2128226012</ele>
        <time>2020-11-21T10:50:56.256Z</time>
      </trkpt>
      <trkpt lat="43.45862" lon="3.79207">
        <ele>-0.76109457016</ele>
        <time>2020-11-21T10:51:07.766Z</time>
      </trkpt>
      <trkpt lat="43.45862" lon="3.79207">
        <ele>-0.75529837608</ele>
        <time>2020-11-21T10:51:19.276Z</time>
      </trkpt>
      <trkpt lat="43.45862" lon="3.79207">
        <ele>-0.75499671698</ele>
        <time>2020-11-21T10:51:30.786Z</time>
      </trkpt>
      <trkpt lat="43.45866" lon="3.7922">
        <ele>-1.33988893032</ele>
        <time>2020-11-21T10:51:42.298Z</time>
      </trkpt>
      <trkpt lat="43.45905" lon="3.79269">
        <ele>-3.19352293015</ele>
        <time>2020-11-21T10:51:53.820Z</time>
      </trkpt>
      <trkpt lat="43.45914" lon="3.79294">
        <ele>-2.68134903908</ele>
        <time>2020-11-21T10:52:05.346Z</time>
      </trkpt>
      <trkpt lat="43.45953" lon="3.794">
        <ele>-0.46435752511</ele>
        <time>2020-11-21T10:52:16.890Z</time>
      </trkpt>
      <trkpt lat="43.45953" lon="3.794">
        <ele>-0.46435752511</ele>
        <time>2020-11-21T10:52:28.434Z</time>
      </trkpt>
      <trkpt lat="43.45979" lon="3.7947">
        <ele>0.38522467017</ele>
        <time>2020-11-21T10:52:39.989Z</time>
      </trkpt>
      <trkpt lat="43.45989" lon="3.79552">
        <ele>0.37754911184</ele>
        <time>2020-11-21T10:52:51.556Z</time>
      </trkpt>
      <trkpt lat="43.45986" lon="3.79575">
        <ele>0.58237719536</ele>
        <time>2020-11-21T10:53:03.127Z</time>
      </trkpt>
      <trkpt lat="43.45956" lon="3.79614">
        <ele>-0.85933804512</ele>
        <time>2020-11-21T10:53:14.706Z</time>
      </trkpt>
      <trkpt lat="43.45956" lon="3.7964">
        <ele>-0.59152299166</ele>
        <time>2020-11-21T10:53:26.289Z</time>
      </trkpt>
      <trkpt lat="43.45988" lon="3.79698">
        <ele>1.20274782181</ele>
        <time>2020-11-21T10:53:37.882Z</time>
      </trkpt>
      <trkpt lat="43.45992" lon="3.79741">
        <ele>0.79082912207</ele>
        <time>2020-11-21T10:53:49.481Z</time>
      </trkpt>
      <trkpt lat="43.46003" lon="3.79757">
        <ele>0.85519140959</ele>
        <time>2020-11-21T10:54:01.084Z</time>
      </trkpt>
      <trkpt lat="43.46004" lon="3.79773">
        <ele>1.01525783539</ele>
        <time>2020-11-21T10:54:12.689Z</time>
      </trkpt>
      <trkpt lat="43.46066" lon="3.79754">
        <ele>3.60947346687</ele>
        <time>2020-11-21T10:54:24.307Z</time>
      </trkpt>
      <trkpt lat="43.46066" lon="3.79754">
        <ele>3.60907125473</ele>
        <time>2020-11-21T10:54:35.925Z</time>
      </trkpt>
      <trkpt lat="43.46077" lon="3.79799">
        <ele>5.20431041718</ele>
        <time>2020-11-21T10:54:47.550Z</time>
      </trkpt>
      <trkpt lat="43.46105" lon="3.79849">
        <ele>8.90150356293</ele>
        <time>2020-11-21T10:54:59.184Z</time>
      </trkpt>
      <trkpt lat="43.46114" lon="3.79889">
        <ele>8.72128391266</ele>
        <time>2020-11-21T10:55:10.824Z</time>
      </trkpt>
      <trkpt lat="43.46131" lon="3.79925">
        <ele>8.46413612366</ele>
        <time>2020-11-21T10:55:22.470Z</time>
      </trkpt>
      <trkpt lat="43.4619" lon="3.8008">
        <ele>6.48614311218</ele>
        <time>2020-11-21T10:55:34.142Z</time>
      </trkpt>
      <trkpt lat="43.4619" lon="3.8008">
        <ele>6.4859418869</ele>
        <time>2020-11-21T10:55:45.814Z</time>
      </trkpt>
      <trkpt lat="43.46231" lon="3.80208">
        <ele>4.93667078018</ele>
        <time>2020-11-21T10:55:57.506Z</time>
      </trkpt>
      <trkpt lat="43.46379" lon="3.80589">
        <ele>5.92331933975</ele>
        <time>2020-11-21T10:56:09.261Z</time>
      </trkpt>
      <trkpt lat="43.46415" lon="3.80641">
        <ele>6.21078109741</ele>
        <time>2020-11-21T10:56:21.026Z</time>
      </trkpt>
      <trkpt lat="43.46449" lon="3.80744">
        <ele>5.19912719727</ele>
        <time>2020-11-21T10:56:32.808Z</time>
      </trkpt>
      <trkpt lat="43.46394" lon="3.80809">
        <ele>1.71128070354</ele>
        <time>2020-11-21T10:56:44.604Z</time>
      </trkpt>
      <trkpt lat="43.46394" lon="3.80828">
        <ele>1.40557384491</ele>
        <time>2020-11-21T10:56:56.403Z</time>
      </trkpt>
      <trkpt lat="43.46393" lon="3.80836">
        <ele>1.2766481638</ele>
        <time>2020-11-21T10:57:08.203Z</time>
      </trkpt>
      <trkpt lat="43.46388" lon="3.80908">
        <ele>0.74536240101</ele>
        <time>2020-11-21T10:57:20.014Z</time>
      </trkpt>
      <trkpt lat="43.46393" lon="3.80936">
        <ele>0.60406708717</ele>
        <time>2020-11-21T10:57:31.829Z</time>
      </trkpt>
      <trkpt lat="43.46441" lon="3.80975">
        <ele>1.67120635509</ele>
        <time>2020-11-21T10:57:43.655Z</time>
      </trkpt>
      <trkpt lat="43.46441" lon="3.80975">
        <ele>1.67110586166</ele>
        <time>2020-11-21T10:57:55.481Z</time>
      </trkpt>
      <trkpt lat="43.46461" lon="3.81031">
        <ele>1.22056984901</ele>
        <time>2020-11-21T10:58:07.316Z</time>
      </trkpt>
      <trkpt lat="43.46463" lon="3.81134">
        <ele>-0.33984807134</ele>
        <time>2020-11-21T10:58:19.166Z</time>
      </trkpt>
      <trkpt lat="43.46477" lon="3.81172">
        <ele>-0.80094283819</ele>
        <time>2020-11-21T10:58:31.022Z</time>
      </trkpt>
      <trkpt lat="43.46478" lon="3.81223">
        <ele>-1</ele>
        <time>2020-11-21T10:58:42.886Z</time>
      </trkpt>
      <trkpt lat="43.46478" lon="3.81223">
        <ele>-1</ele>
        <time>2020-11-21T10:58:54.750Z</time>
      </trkpt>
      <trkpt lat="43.46577" lon="3.8136">
        <ele>0.17633840442</ele>
        <time>2020-11-21T10:59:06.642Z</time>
      </trkpt>
      <trkpt lat="43.46577" lon="3.8136">
        <ele>0.17664007843</ele>
        <time>2020-11-21T10:59:18.534Z</time>
      </trkpt>
      <trkpt lat="43.46642" lon="3.81449">
        <ele>0.75592601299</ele>
        <time>2020-11-21T10:59:30.444Z</time>
      </trkpt>
      <trkpt lat="43.46676" lon="3.81427">
        <ele>1.11619496346</ele>
        <time>2020-11-21T10:59:42.362Z</time>
      </trkpt>
      <trkpt lat="43.467" lon="3.81411">
        <ele>2.06855559349</ele>
        <time>2020-11-21T10:59:54.285Z</time>
      </trkpt>
      <trkpt lat="43.46712" lon="3.81412">
        <ele>2.32620596886</ele>
        <time>2020-11-21T11:00:06.211Z</time>
      </trkpt>
      <trkpt lat="43.46717" lon="3.81417">
        <ele>2.35195088387</ele>
        <time>2020-11-21T11:00:18.138Z</time>
      </trkpt>
      <trkpt lat="43.46721" lon="3.81411">
        <ele>2.56412220001</ele>
        <time>2020-11-21T11:00:30.066Z</time>
      </trkpt>
      <trkpt lat="43.46721" lon="3.81411">
        <ele>2.56454753876</ele>
        <time>2020-11-21T11:00:41.994Z</time>
      </trkpt>
      <trkpt lat="43.46721" lon="3.81411">
        <ele>2.56414532661</ele>
        <time>2020-11-21T11:00:53.922Z</time>
      </trkpt>
      <trkpt lat="43.4694" lon="3.81064">
        <ele>9.23154735565</ele>
        <time>2020-11-21T11:01:05.917Z</time>
      </trkpt>
      <trkpt lat="43.46927" lon="3.81057">
        <ele>9.51125049591</ele>
        <time>2020-11-21T11:01:17.915Z</time>
      </trkpt>
      <trkpt lat="43.46949" lon="3.81027">
        <ele>9.23124408722</ele>
        <time>2020-11-21T11:01:29.919Z</time>
      </trkpt>
      <trkpt lat="43.4697" lon="3.80981">
        <ele>7.22073793411</ele>
        <time>2020-11-21T11:01:41.931Z</time>
      </trkpt>
      <trkpt lat="43.46999" lon="3.80948">
        <ele>6.40561103821</ele>
        <time>2020-11-21T11:01:53.950Z</time>
      </trkpt>
      <trkpt lat="43.47176" lon="3.80825">
        <ele>2.34869480133</ele>
        <time>2020-11-21T11:02:06.009Z</time>
      </trkpt>
      <trkpt lat="43.47224" lon="3.80795">
        <ele>3.17679309845</ele>
        <time>2020-11-21T11:02:18.078Z</time>
      </trkpt>
      <trkpt lat="43.47306" lon="3.80711">
        <ele>1.08472788334</ele>
        <time>2020-11-21T11:02:30.168Z</time>
      </trkpt>
      <trkpt lat="43.47306" lon="3.80711">
        <ele>1.08513009548</ele>
        <time>2020-11-21T11:02:42.258Z</time>
      </trkpt>
      <trkpt lat="43.47365" lon="3.80645">
        <ele>-1.51943397522</ele>
        <time>2020-11-21T11:02:54.363Z</time>
      </trkpt>
      <trkpt lat="43.47395" lon="3.80629">
        <ele>-1.71252083778</ele>
        <time>2020-11-21T11:03:06.475Z</time>
      </trkpt>
      <trkpt lat="43.47423" lon="3.80624">
        <ele>-1.77688312531</ele>
        <time>2020-11-21T11:03:18.592Z</time>
      </trkpt>
      <trkpt lat="43.47511" lon="3.80632">
        <ele>1.13816726208</ele>
        <time>2020-11-21T11:03:30.727Z</time>
      </trkpt>
      <trkpt lat="43.47593" lon="3.80628">
        <ele>0.08433628082</ele>
        <time>2020-11-21T11:03:42.878Z</time>
      </trkpt>
      <trkpt lat="43.47616" lon="3.80618">
        <ele>-0.11865139753</ele>
        <time>2020-11-21T11:03:55.034Z</time>
      </trkpt>
      <trkpt lat="43.47686" lon="3.80569">
        <ele>1.43337845802</ele>
        <time>2020-11-21T11:04:07.206Z</time>
      </trkpt>
      <trkpt lat="43.47765" lon="3.80553">
        <ele>-0.21731898189</ele>
        <time>2020-11-21T11:04:19.394Z</time>
      </trkpt>
      <trkpt lat="43.47842" lon="3.80487">
        <ele>1.41168522835</ele>
        <time>2020-11-21T11:04:31.600Z</time>
      </trkpt>
      <trkpt lat="43.47894" lon="3.80453">
        <ele>2.35642838478</ele>
        <time>2020-11-21T11:04:43.817Z</time>
      </trkpt>
      <trkpt lat="43.47997" lon="3.80412">
        <ele>-0.1430657059</ele>
        <time>2020-11-21T11:04:56.056Z</time>
      </trkpt>
      <trkpt lat="43.48249" lon="3.80142">
        <ele>2.70065045357</ele>
        <time>2020-11-21T11:05:08.359Z</time>
      </trkpt>
      <trkpt lat="43.48249" lon="3.80142">
        <ele>2.70044922829</ele>
        <time>2020-11-21T11:05:20.662Z</time>
      </trkpt>
      <trkpt lat="43.48253" lon="3.80134">
        <ele>2.98364329338</ele>
        <time>2020-11-21T11:05:32.966Z</time>
      </trkpt>
      <trkpt lat="43.48278" lon="3.80126">
        <ele>3.64057135582</ele>
        <time>2020-11-21T11:05:45.275Z</time>
      </trkpt>
      <trkpt lat="43.48339" lon="3.8006">
        <ele>4.28471231461</ele>
        <time>2020-11-21T11:05:57.600Z</time>
      </trkpt>
      <trkpt lat="43.48352" lon="3.80054">
        <ele>4.70055150986</ele>
        <time>2020-11-21T11:06:09.928Z</time>
      </trkpt>
      <trkpt lat="43.48352" lon="3.80054">
        <ele>4.70024967194</ele>
        <time>2020-11-21T11:06:22.256Z</time>
      </trkpt>
      <trkpt lat="43.48358" lon="3.80055">
        <ele>4.88046455383</ele>
        <time>2020-11-21T11:06:34.585Z</time>
      </trkpt>
      <trkpt lat="43.48397" lon="3.80018">
        <ele>6.04057168961</ele>
        <time>2020-11-21T11:06:46.923Z</time>
      </trkpt>
      <trkpt lat="43.48397" lon="3.80018">
        <ele>6.04037046432</ele>
        <time>2020-11-21T11:06:59.261Z</time>
      </trkpt>
      <trkpt lat="43.4853" lon="3.79905">
        <ele>9.76486301422</ele>
        <time>2020-11-21T11:07:11.631Z</time>
      </trkpt>
      <trkpt lat="43.4853" lon="3.79905">
        <ele>9.76476192474</ele>
        <time>2020-11-21T11:07:24.001Z</time>
      </trkpt>
      <trkpt lat="43.48576" lon="3.79883">
        <ele>10.43941497803</ele>
        <time>2020-11-21T11:07:36.380Z</time>
      </trkpt>
      <trkpt lat="43.48605" lon="3.79882">
        <ele>11</ele>
        <time>2020-11-21T11:07:48.765Z</time>
      </trkpt>
      <trkpt lat="43.48624" lon="3.7989">
        <ele>11</ele>
        <time>2020-11-21T11:08:01.154Z</time>
      </trkpt>
      <trkpt lat="43.4863" lon="3.79881">
        <ele>11</ele>
        <time>2020-11-21T11:08:13.545Z</time>
      </trkpt>
      <trkpt lat="43.4872" lon="3.79937">
        <ele>11.88923358917</ele>
        <time>2020-11-21T11:08:25.955Z</time>
      </trkpt>
      <trkpt lat="43.48771" lon="3.79954">
        <ele>12.56897163391</ele>
        <time>2020-11-21T11:08:38.376Z</time>
      </trkpt>
      <trkpt lat="43.48811" lon="3.79952">
        <ele>12.13120746613</ele>
        <time>2020-11-21T11:08:50.805Z</time>
      </trkpt>
      <trkpt lat="43.48811" lon="3.79952">
        <ele>12.13130760193</ele>
        <time>2020-11-21T11:09:03.234Z</time>
      </trkpt>
      <trkpt lat="43.48974" lon="3.79871">
        <ele>10.82236862183</ele>
        <time>2020-11-21T11:09:15.698Z</time>
      </trkpt>
      <trkpt lat="43.49002" lon="3.79836">
        <ele>10.22526741028</ele>
        <time>2020-11-21T11:09:28.169Z</time>
      </trkpt>
      <trkpt lat="43.49018" lon="3.79768">
        <ele>10.9741563797</ele>
        <time>2020-11-21T11:09:40.651Z</time>
      </trkpt>
      <trkpt lat="43.49024" lon="3.79742">
        <ele>10.72957992554</ele>
        <time>2020-11-21T11:09:53.137Z</time>
      </trkpt>
      <trkpt lat="43.49044" lon="3.79689">
        <ele>10.66439914703</ele>
        <time>2020-11-21T11:10:05.631Z</time>
      </trkpt>
      <trkpt lat="43.49057" lon="3.79656">
        <ele>10.19765853882</ele>
        <time>2020-11-21T11:10:18.131Z</time>
      </trkpt>
      <trkpt lat="43.49059" lon="3.79648">
        <ele>10.06893348694</ele>
        <time>2020-11-21T11:10:30.632Z</time>
      </trkpt>
      <trkpt lat="43.49065" lon="3.79641">
        <ele>9.87251281738</ele>
        <time>2020-11-21T11:10:43.134Z</time>
      </trkpt>
      <trkpt lat="43.49076" lon="3.79621">
        <ele>9.28047943115</ele>
        <time>2020-11-21T11:10:55.640Z</time>
      </trkpt>
      <trkpt lat="43.49101" lon="3.79575">
        <ele>7.51470184326</ele>
        <time>2020-11-21T11:11:08.154Z</time>
      </trkpt>
      <trkpt lat="43.49115" lon="3.79584">
        <ele>7.08991098404</ele>
        <time>2020-11-21T11:11:20.671Z</time>
      </trkpt>
      <trkpt lat="43.49124" lon="3.79592">
        <ele>6.93544149399</ele>
        <time>2020-11-21T11:11:33.191Z</time>
      </trkpt>
      <trkpt lat="43.49126" lon="3.79594">
        <ele>6.90969657898</ele>
        <time>2020-11-21T11:11:45.711Z</time>
      </trkpt>
      <trkpt lat="43.49168" lon="3.79641">
        <ele>6.23317432404</ele>
        <time>2020-11-21T11:11:58.242Z</time>
      </trkpt>
      <trkpt lat="43.49188" lon="3.7963">
        <ele>4.56700801849</ele>
        <time>2020-11-21T11:12:10.777Z</time>
      </trkpt>
      <trkpt lat="43.49188" lon="3.7963">
        <ele>4.5676112175</ele>
        <time>2020-11-21T11:12:23.312Z</time>
      </trkpt>
      <trkpt lat="43.49326" lon="3.79534">
        <ele>-0.14469969273</ele>
        <time>2020-11-21T11:12:35.878Z</time>
      </trkpt>
      <trkpt lat="43.49339" lon="3.7953">
        <ele>-0.10608232021</ele>
        <time>2020-11-21T11:12:48.447Z</time>
      </trkpt>
      <trkpt lat="43.49423" lon="3.79536">
        <ele>1.58170902729</ele>
        <time>2020-11-21T11:13:01.033Z</time>
      </trkpt>
      <trkpt lat="43.49455" lon="3.79544">
        <ele>1.72657573223</ele>
        <time>2020-11-21T11:13:13.625Z</time>
      </trkpt>
      <trkpt lat="43.49472" lon="3.79553">
        <ele>1.53168952465</ele>
        <time>2020-11-21T11:13:26.221Z</time>
      </trkpt>
      <trkpt lat="43.4948" lon="3.79551">
        <ele>1.44168293476</ele>
        <time>2020-11-21T11:13:38.818Z</time>
      </trkpt>
      <trkpt lat="43.49488" lon="3.79535">
        <ele>1.33860266209</ele>
        <time>2020-11-21T11:13:51.418Z</time>
      </trkpt>
      <trkpt lat="43.495" lon="3.79508">
        <ele>1.19700562954</ele>
        <time>2020-11-21T11:14:04.023Z</time>
      </trkpt>
      <trkpt lat="43.49518" lon="3.79468">
        <ele>2.30276608467</ele>
        <time>2020-11-21T11:14:16.635Z</time>
      </trkpt>
      <trkpt lat="43.49556" lon="3.79395">
        <ele>2.01189112663</ele>
        <time>2020-11-21T11:14:29.260Z</time>
      </trkpt>
      <trkpt lat="43.49575" lon="3.79357">
        <ele>2.68322181702</ele>
        <time>2020-11-21T11:14:41.892Z</time>
      </trkpt>
      <trkpt lat="43.49621" lon="3.79265">
        <ele>3.59568881989</ele>
        <time>2020-11-21T11:14:54.540Z</time>
      </trkpt>
      <trkpt lat="43.49638" lon="3.79286">
        <ele>3.20710778236</ele>
        <time>2020-11-21T11:15:07.192Z</time>
      </trkpt>
      <trkpt lat="43.49606" lon="3.79372">
        <ele>2.79904150963</ele>
        <time>2020-11-21T11:15:19.858Z</time>
      </trkpt>
      <trkpt lat="43.49618" lon="3.79401">
        <ele>2.45148515701</ele>
        <time>2020-11-21T11:15:32.529Z</time>
      </trkpt>
      <trkpt lat="43.49832" lon="3.79618">
        <ele>1.60065734386</ele>
        <time>2020-11-21T11:15:45.253Z</time>
      </trkpt>
      <trkpt lat="43.4988" lon="3.79639">
        <ele>0.68671280146</ele>
        <time>2020-11-21T11:15:57.987Z</time>
      </trkpt>
      <trkpt lat="43.4992" lon="3.79669">
        <ele>0.16387459636</ele>
        <time>2020-11-21T11:16:10.730Z</time>
      </trkpt>
      <trkpt lat="43.4992" lon="3.79669">
        <ele>0.16397516429</ele>
        <time>2020-11-21T11:16:23.473Z</time>
      </trkpt>
      <trkpt lat="43.4996" lon="3.79719">
        <ele>-0.27872154117</ele>
        <time>2020-11-21T11:16:36.227Z</time>
      </trkpt>
      <trkpt lat="43.50063" lon="3.79896">
        <ele>1.43024671078</ele>
        <time>2020-11-21T11:16:49.014Z</time>
      </trkpt>
      <trkpt lat="43.50185" lon="3.80018">
        <ele>2.95017814636</ele>
        <time>2020-11-21T11:17:01.831Z</time>
      </trkpt>
      <trkpt lat="43.50219" lon="3.80051">
        <ele>3</ele>
        <time>2020-11-21T11:17:14.657Z</time>
      </trkpt>
      <trkpt lat="43.50314" lon="3.80139">
        <ele>3.74141263962</ele>
        <time>2020-11-21T11:17:27.506Z</time>
      </trkpt>
      <trkpt lat="43.50351" lon="3.80186">
        <ele>4.06110477448</ele>
        <time>2020-11-21T11:17:40.365Z</time>
      </trkpt>
      <trkpt lat="43.50357" lon="3.80195">
        <ele>4.11569547653</ele>
        <time>2020-11-21T11:17:53.225Z</time>
      </trkpt>
      <trkpt lat="43.5038" lon="3.80226">
        <ele>4.26918363571</ele>
        <time>2020-11-21T11:18:06.092Z</time>
      </trkpt>
      <trkpt lat="43.50455" lon="3.80332">
        <ele>5</ele>
        <time>2020-11-21T11:18:18.980Z</time>
      </trkpt>
      <trkpt lat="43.50496" lon="3.80391">
        <ele>5</ele>
        <time>2020-11-21T11:18:31.880Z</time>
      </trkpt>
      <trkpt lat="43.50515" lon="3.80419">
        <ele>5</ele>
        <time>2020-11-21T11:18:44.786Z</time>
      </trkpt>
      <trkpt lat="43.50546" lon="3.80463">
        <ele>5.06139278412</ele>
        <time>2020-11-21T11:18:57.701Z</time>
      </trkpt>
      <trkpt lat="43.5059" lon="3.80519">
        <ele>4.91969490051</ele>
        <time>2020-11-21T11:19:10.628Z</time>
      </trkpt>
      <trkpt lat="43.5059" lon="3.80519">
        <ele>4.91979551315</ele>
        <time>2020-11-21T11:19:23.555Z</time>
      </trkpt>
      <trkpt lat="43.50671" lon="3.80616">
        <ele>2.15315413475</ele>
        <time>2020-11-21T11:19:36.503Z</time>
      </trkpt>
      <trkpt lat="43.50732" lon="3.80721">
        <ele>2.58057594299</ele>
        <time>2020-11-21T11:19:49.471Z</time>
      </trkpt>
      <trkpt lat="43.50781" lon="3.80794">
        <ele>3.07537937164</ele>
        <time>2020-11-21T11:20:02.453Z</time>
      </trkpt>
      <trkpt lat="43.50781" lon="3.80794">
        <ele>3.07558035851</ele>
        <time>2020-11-21T11:20:15.435Z</time>
      </trkpt>
      <trkpt lat="43.50865" lon="3.80888">
        <ele>3.61025857925</ele>
        <time>2020-11-21T11:20:28.439Z</time>
      </trkpt>
      <trkpt lat="43.50951" lon="3.80981">
        <ele>3.30318856239</ele>
        <time>2020-11-21T11:20:41.465Z</time>
      </trkpt>
      <trkpt lat="43.50964" lon="3.80997">
        <ele>3.34170532227</ele>
        <time>2020-11-21T11:20:54.494Z</time>
      </trkpt>
      <trkpt lat="43.50987" lon="3.81016">
        <ele>3.29031610489</ele>
        <time>2020-11-21T11:21:07.529Z</time>
      </trkpt>
      <trkpt lat="43.51026" lon="3.81066">
        <ele>3</ele>
        <time>2020-11-21T11:21:20.574Z</time>
      </trkpt>
      <trkpt lat="43.51026" lon="3.81066">
        <ele>3</ele>
        <time>2020-11-21T11:21:33.619Z</time>
      </trkpt>
      <trkpt lat="43.51119" lon="3.81213">
        <ele>2.22743272781</ele>
        <time>2020-11-21T11:21:46.693Z</time>
      </trkpt>
      <trkpt lat="43.51192" lon="3.81361">
        <ele>3.10286045074</ele>
        <time>2020-11-21T11:21:59.793Z</time>
      </trkpt>
      <trkpt lat="43.51258" lon="3.81493">
        <ele>3.12615180016</ele>
        <time>2020-11-21T11:22:12.916Z</time>
      </trkpt>
      <trkpt lat="43.51349" lon="3.81618">
        <ele>3.65250682831</ele>
        <time>2020-11-21T11:22:26.065Z</time>
      </trkpt>
      <trkpt lat="43.51532" lon="3.81369">
        <ele>6.73331594467</ele>
        <time>2020-11-21T11:22:39.265Z</time>
      </trkpt>
      <trkpt lat="43.51571" lon="3.81474">
        <ele>6.07880735397</ele>
        <time>2020-11-21T11:22:52.482Z</time>
      </trkpt>
      <trkpt lat="43.5176" lon="3.81735">
        <ele>6.44101667404</ele>
        <time>2020-11-21T11:23:05.753Z</time>
      </trkpt>
      <trkpt lat="43.51791" lon="3.81815">
        <ele>5.26250123978</ele>
        <time>2020-11-21T11:23:19.037Z</time>
      </trkpt>
      <trkpt lat="43.51894" lon="3.82015">
        <ele>7.88008403778</ele>
        <time>2020-11-21T11:23:32.357Z</time>
      </trkpt>
      <trkpt lat="43.52061" lon="3.82268">
        <ele>11.4860458374</ele>
        <time>2020-11-21T11:23:45.727Z</time>
      </trkpt>
      <trkpt lat="43.52088" lon="3.82318">
        <ele>12.39999008179</ele>
        <time>2020-11-21T11:23:59.106Z</time>
      </trkpt>
      <trkpt lat="43.52117" lon="3.82404">
        <ele>13.59645557404</ele>
        <time>2020-11-21T11:24:12.498Z</time>
      </trkpt>
      <trkpt lat="43.52136" lon="3.82433">
        <ele>14.2915687561</ele>
        <time>2020-11-21T11:24:25.896Z</time>
      </trkpt>
      <trkpt lat="43.52167" lon="3.82515">
        <ele>12.65969181061</ele>
        <time>2020-11-21T11:24:39.308Z</time>
      </trkpt>
      <trkpt lat="43.52167" lon="3.82515">
        <ele>12.65999317169</ele>
        <time>2020-11-21T11:24:52.720Z</time>
      </trkpt>
      <trkpt lat="43.52171" lon="3.82615">
        <ele>7.79777240753</ele>
        <time>2020-11-21T11:25:06.146Z</time>
      </trkpt>
      <trkpt lat="43.52166" lon="3.8266">
        <ele>4.88859701157</ele>
        <time>2020-11-21T11:25:19.579Z</time>
      </trkpt>
      <trkpt lat="43.52179" lon="3.82766">
        <ele>0.17318122089</ele>
        <time>2020-11-21T11:25:33.027Z</time>
      </trkpt>
      <trkpt lat="43.52245" lon="3.82836">
        <ele>0.76612502337</ele>
        <time>2020-11-21T11:25:46.492Z</time>
      </trkpt>
      <trkpt lat="43.52278" lon="3.82861">
        <ele>1.06759619713</ele>
        <time>2020-11-21T11:25:59.964Z</time>
      </trkpt>
      <trkpt lat="43.52312" lon="3.8289">
        <ele>1.13185799122</ele>
        <time>2020-11-21T11:26:13.445Z</time>
      </trkpt>
      <trkpt lat="43.52396" lon="3.82927">
        <ele>1.68547427654</ele>
        <time>2020-11-21T11:26:26.943Z</time>
      </trkpt>
      <trkpt lat="43.52402" lon="3.82956">
        <ele>1.830732584</ele>
        <time>2020-11-21T11:26:40.446Z</time>
      </trkpt>
      <trkpt lat="43.5246" lon="3.83005">
        <ele>2.16396331787</ele>
        <time>2020-11-21T11:26:53.962Z</time>
      </trkpt>
      <trkpt lat="43.52472" lon="3.83029">
        <ele>2.16396331787</ele>
        <time>2020-11-21T11:27:07.482Z</time>
      </trkpt>
      <trkpt lat="43.52496" lon="3.8314">
        <ele>3.07526493073</ele>
        <time>2020-11-21T11:27:21.019Z</time>
      </trkpt>
      <trkpt lat="43.52433" lon="3.83171">
        <ele>3.78603768349</ele>
        <time>2020-11-21T11:27:34.569Z</time>
      </trkpt>
      <trkpt lat="43.5236" lon="3.83215">
        <ele>1.68989741802</ele>
        <time>2020-11-21T11:27:48.135Z</time>
      </trkpt>
      <trkpt lat="43.5236" lon="3.83215">
        <ele>1.68989741802</ele>
        <time>2020-11-21T11:28:01.701Z</time>
      </trkpt>
      <trkpt lat="43.52293" lon="3.83298">
        <ele>0.68584567308</ele>
        <time>2020-11-21T11:28:15.285Z</time>
      </trkpt>
      <trkpt lat="43.52288" lon="3.83304">
        <ele>0.62148338556</ele>
        <time>2020-11-21T11:28:28.871Z</time>
      </trkpt>
      <trkpt lat="43.5224" lon="3.83373">
        <ele>0.85692405701</ele>
        <time>2020-11-21T11:28:42.471Z</time>
      </trkpt>
      <trkpt lat="43.52145" lon="3.8346">
        <ele>0.54081094265</ele>
        <time>2020-11-21T11:28:56.093Z</time>
      </trkpt>
      <trkpt lat="43.52145" lon="3.8346">
        <ele>0.54074317217</ele>
        <time>2020-11-21T11:29:09.715Z</time>
      </trkpt>
      <trkpt lat="43.52145" lon="3.8346">
        <ele>0.54094433784</ele>
        <time>2020-11-21T11:29:23.337Z</time>
      </trkpt>
      <trkpt lat="43.52104" lon="3.83498">
        <ele>0.04434902966</ele>
        <time>2020-11-21T11:29:36.969Z</time>
      </trkpt>
      <trkpt lat="43.52069" lon="3.83505">
        <ele>0.38044208288</ele>
        <time>2020-11-21T11:29:50.609Z</time>
      </trkpt>
      <trkpt lat="43.52004" lon="3.83483">
        <ele>1</ele>
        <time>2020-11-21T11:30:04.262Z</time>
      </trkpt>
      <trkpt lat="43.52004" lon="3.83483">
        <ele>1</ele>
        <time>2020-11-21T11:30:17.915Z</time>
      </trkpt>
      <trkpt lat="43.51994" lon="3.8347">
        <ele>1</ele>
        <time>2020-11-21T11:30:31.571Z</time>
      </trkpt>
      <trkpt lat="43.51954" lon="3.83368">
        <ele>-0.60693097115</ele>
        <time>2020-11-21T11:30:45.244Z</time>
      </trkpt>
      <trkpt lat="43.51932" lon="3.8335">
        <ele>-0.98475575447</ele>
        <time>2020-11-21T11:30:58.922Z</time>
      </trkpt>
      <trkpt lat="43.51915" lon="3.83355">
        <ele>-0.99639457464</ele>
        <time>2020-11-21T11:31:12.603Z</time>
      </trkpt>
      <trkpt lat="43.5176" lon="3.8347">
        <ele>0.53854244947</ele>
        <time>2020-11-21T11:31:26.319Z</time>
      </trkpt>
      <trkpt lat="43.5173" lon="3.83486">
        <ele>1</ele>
        <time>2020-11-21T11:31:40.042Z</time>
      </trkpt>
      <trkpt lat="43.51691" lon="3.83493">
        <ele>1</ele>
        <time>2020-11-21T11:31:53.773Z</time>
      </trkpt>
      <trkpt lat="43.51638" lon="3.83482">
        <ele>1</ele>
        <time>2020-11-21T11:32:07.514Z</time>
      </trkpt>
      <trkpt lat="43.51512" lon="3.83375">
        <ele>0.71065348387</ele>
        <time>2020-11-21T11:32:21.285Z</time>
      </trkpt>
      <trkpt lat="43.51502" lon="3.83385">
        <ele>0.46607676148</ele>
        <time>2020-11-21T11:32:35.058Z</time>
      </trkpt>
      <trkpt lat="43.51476" lon="3.83468">
        <ele>0.3480026722</ele>
        <time>2020-11-21T11:32:48.845Z</time>
      </trkpt>
      <trkpt lat="43.51456" lon="3.83482">
        <ele>0.76130479574</ele>
        <time>2020-11-21T11:33:02.636Z</time>
      </trkpt>
      <trkpt lat="43.51376" lon="3.8329">
        <ele>-0.88160079718</ele>
        <time>2020-11-21T11:33:16.459Z</time>
      </trkpt>
      <trkpt lat="43.51341" lon="3.83246">
        <ele>-0.8993409276</ele>
        <time>2020-11-21T11:33:30.292Z</time>
      </trkpt>
      <trkpt lat="43.51274" lon="3.83057">
        <ele>-0.17248730361</ele>
        <time>2020-11-21T11:33:44.155Z</time>
      </trkpt>
      <trkpt lat="43.51266" lon="3.83049">
        <ele>-0.01035401411</ele>
        <time>2020-11-21T11:33:58.020Z</time>
      </trkpt>
      <trkpt lat="43.51243" lon="3.83049">
        <ele>-0.85993623734</ele>
        <time>2020-11-21T11:34:11.890Z</time>
      </trkpt>
      <trkpt lat="43.51195" lon="3.83063">
        <ele>-2</ele>
        <time>2020-11-21T11:34:25.770Z</time>
      </trkpt>
      <trkpt lat="43.51171" lon="3.83102">
        <ele>-2</ele>
        <time>2020-11-21T11:34:39.657Z</time>
      </trkpt>
      <trkpt lat="43.51152" lon="3.83111">
        <ele>-2</ele>
        <time>2020-11-21T11:34:53.548Z</time>
      </trkpt>
      <trkpt lat="43.51031" lon="3.83049">
        <ele>-2</ele>
        <time>2020-11-21T11:35:07.465Z</time>
      </trkpt>
      <trkpt lat="43.51007" lon="3.83053">
        <ele>-2</ele>
        <time>2020-11-21T11:35:21.387Z</time>
      </trkpt>
      <trkpt lat="43.50923" lon="3.83095">
        <ele>-1.74354588985</ele>
        <time>2020-11-21T11:35:35.327Z</time>
      </trkpt>
      <trkpt lat="43.50837" lon="3.83222">
        <ele>-0.64239597321</ele>
        <time>2020-11-21T11:35:49.292Z</time>
      </trkpt>
      <trkpt lat="43.50779" lon="3.83391">
        <ele>-1.72567784786</ele>
        <time>2020-11-21T11:36:03.284Z</time>
      </trkpt>
      <trkpt lat="43.5078" lon="3.83498">
        <ele>-1.54869544506</ele>
        <time>2020-11-21T11:36:17.292Z</time>
      </trkpt>
      <trkpt lat="43.50821" lon="3.8376">
        <ele>-0.84931123257</ele>
        <time>2020-11-21T11:36:31.339Z</time>
      </trkpt>
      <trkpt lat="43.50804" lon="3.83752">
        <ele>-0.75920403004</ele>
        <time>2020-11-21T11:36:45.389Z</time>
      </trkpt>
      <trkpt lat="43.50745" lon="3.83745">
        <ele>-0.93415188789</ele>
        <time>2020-11-21T11:36:59.451Z</time>
      </trkpt>
      <trkpt lat="43.50647" lon="3.83807">
        <ele>-1</ele>
        <time>2020-11-21T11:37:13.535Z</time>
      </trkpt>
      <trkpt lat="43.50636" lon="3.83847">
        <ele>-1</ele>
        <time>2020-11-21T11:37:27.625Z</time>
      </trkpt>
      <trkpt lat="43.50596" lon="3.83871">
        <ele>-1.18804681301</ele>
        <time>2020-11-21T11:37:41.724Z</time>
      </trkpt>
      <trkpt lat="43.50584" lon="3.83901">
        <ele>-1.54847562313</ele>
        <time>2020-11-21T11:37:55.828Z</time>
      </trkpt>
      <trkpt lat="43.50586" lon="3.8392">
        <ele>-1.7673074007</ele>
        <time>2020-11-21T11:38:09.934Z</time>
      </trkpt>
      <trkpt lat="43.50636" lon="3.84002">
        <ele>-0.37185996771</ele>
        <time>2020-11-21T11:38:24.056Z</time>
      </trkpt>
      <trkpt lat="43.50656" lon="3.84052">
        <ele>-0.00578944851</ele>
        <time>2020-11-21T11:38:38.186Z</time>
      </trkpt>
      <trkpt lat="43.50656" lon="3.84052">
        <ele>-0.00569109805</ele>
        <time>2020-11-21T11:38:52.316Z</time>
      </trkpt>
      <trkpt lat="43.50656" lon="3.84052">
        <ele>-0.00559054269</ele>
        <time>2020-11-21T11:39:06.446Z</time>
      </trkpt>
      <trkpt lat="43.5068" lon="3.84112">
        <ele>-0.03740255162</ele>
        <time>2020-11-21T11:39:20.586Z</time>
      </trkpt>
      <trkpt lat="43.50695" lon="3.84129">
        <ele>0.14281186461</ele>
        <time>2020-11-21T11:39:34.730Z</time>
      </trkpt>
      <trkpt lat="43.50703" lon="3.84297">
        <ele>-0.7699111104</ele>
        <time>2020-11-21T11:39:48.899Z</time>
      </trkpt>
      <trkpt lat="43.50739" lon="3.84312">
        <ele>1.16095757484</ele>
        <time>2020-11-21T11:40:03.075Z</time>
      </trkpt>
      <trkpt lat="43.50814" lon="3.84326">
        <ele>3.21762371063</ele>
        <time>2020-11-21T11:40:17.266Z</time>
      </trkpt>
      <trkpt lat="43.50867" lon="3.8447">
        <ele>9.11263465881</ele>
        <time>2020-11-21T11:40:31.481Z</time>
      </trkpt>
      <trkpt lat="43.50996" lon="3.84699">
        <ele>15.02747631073</ele>
        <time>2020-11-21T11:40:45.738Z</time>
      </trkpt>
      <trkpt lat="43.51076" lon="3.84828">
        <ele>13.04225540161</ele>
        <time>2020-11-21T11:41:00.020Z</time>
      </trkpt>
      <trkpt lat="43.5113" lon="3.84882">
        <ele>12.5593328476</ele>
        <time>2020-11-21T11:41:14.315Z</time>
      </trkpt>
      <trkpt lat="43.51202" lon="3.84983">
        <ele>13.13451576233</ele>
        <time>2020-11-21T11:41:28.631Z</time>
      </trkpt>
      <trkpt lat="43.51277" lon="3.85021">
        <ele>12.59023475647</ele>
        <time>2020-11-21T11:41:42.963Z</time>
      </trkpt>
      <trkpt lat="43.51356" lon="3.85085">
        <ele>11.20460987091</ele>
        <time>2020-11-21T11:41:57.313Z</time>
      </trkpt>
      <trkpt lat="43.51399" lon="3.85137">
        <ele>10.02897071838</ele>
        <time>2020-11-21T11:42:11.674Z</time>
      </trkpt>
      <trkpt lat="43.51482" lon="3.8527">
        <ele>8.63416957855</ele>
        <time>2020-11-21T11:42:26.061Z</time>
      </trkpt>
      <trkpt lat="43.51386" lon="3.85247">
        <ele>12.08305168152</ele>
        <time>2020-11-21T11:42:40.467Z</time>
      </trkpt>
      <trkpt lat="43.51343" lon="3.85218">
        <ele>12.85041046143</ele>
        <time>2020-11-21T11:42:54.883Z</time>
      </trkpt>
      <trkpt lat="43.51225" lon="3.85229">
        <ele>14</ele>
        <time>2020-11-21T11:43:09.323Z</time>
      </trkpt>
      <trkpt lat="43.51193" lon="3.85236">
        <ele>13.5538187027</ele>
        <time>2020-11-21T11:43:23.769Z</time>
      </trkpt>
      <trkpt lat="43.51181" lon="3.85246">
        <ele>13.32233428955</ele>
        <time>2020-11-21T11:43:38.218Z</time>
      </trkpt>
      <trkpt lat="43.51217" lon="3.85347">
        <ele>13</ele>
        <time>2020-11-21T11:43:52.683Z</time>
      </trkpt>
      <trkpt lat="43.51217" lon="3.85347">
        <ele>13</ele>
        <time>2020-11-21T11:44:07.148Z</time>
      </trkpt>
      <trkpt lat="43.51243" lon="3.85404">
        <ele>13</ele>
        <time>2020-11-21T11:44:21.623Z</time>
      </trkpt>
      <trkpt lat="43.51396" lon="3.85588">
        <ele>11.98056793213</ele>
        <time>2020-11-21T11:44:36.139Z</time>
      </trkpt>
      <trkpt lat="43.51441" lon="3.85634">
        <ele>11.91082954407</ele>
        <time>2020-11-21T11:44:50.666Z</time>
      </trkpt>
      <trkpt lat="43.51441" lon="3.85634">
        <ele>11.90554141998</ele>
        <time>2020-11-21T11:45:05.193Z</time>
      </trkpt>
      <trkpt lat="43.51442" lon="3.85634">
        <ele>11.90499687195</ele>
        <time>2020-11-21T11:45:19.720Z</time>
      </trkpt>
      <trkpt lat="43.51442" lon="3.85634">
        <ele>11.90509796143</ele>
        <time>2020-11-21T11:45:34.247Z</time>
      </trkpt>
      <trkpt lat="43.51469" lon="3.85653">
        <ele>11.57614612579</ele>
        <time>2020-11-21T11:45:48.780Z</time>
      </trkpt>
      <trkpt lat="43.51502" lon="3.85661">
        <ele>11.17710018158</ele>
        <time>2020-11-21T11:46:03.320Z</time>
      </trkpt>
      <trkpt lat="43.51523" lon="3.85664">
        <ele>10.93252277374</ele>
        <time>2020-11-21T11:46:17.864Z</time>
      </trkpt>
      <trkpt lat="43.51549" lon="3.8568">
        <ele>10.61071205139</ele>
        <time>2020-11-21T11:46:32.414Z</time>
      </trkpt>
      <trkpt lat="43.51581" lon="3.85715">
        <ele>9.63145065308</ele>
        <time>2020-11-21T11:46:46.972Z</time>
      </trkpt>
      <trkpt lat="43.51581" lon="3.85715">
        <ele>9.63155174255</ele>
        <time>2020-11-21T11:47:01.530Z</time>
      </trkpt>
      <trkpt lat="43.51631" lon="3.85784">
        <ele>8.36759471893</ele>
        <time>2020-11-21T11:47:16.102Z</time>
      </trkpt>
      <trkpt lat="43.51709" lon="3.85933">
        <ele>6.52740812302</ele>
        <time>2020-11-21T11:47:30.701Z</time>
      </trkpt>
      <trkpt lat="43.51826" lon="3.85927">
        <ele>4.58626556396</ele>
        <time>2020-11-21T11:47:45.323Z</time>
      </trkpt>
      <trkpt lat="43.51826" lon="3.85927">
        <ele>4.58616495132</ele>
        <time>2020-11-21T11:47:59.945Z</time>
      </trkpt>
      <trkpt lat="43.51939" lon="3.85908">
        <ele>4.88403749466</ele>
        <time>2020-11-21T11:48:14.590Z</time>
      </trkpt>
      <trkpt lat="43.51997" lon="3.85932">
        <ele>5.68212985992</ele>
        <time>2020-11-21T11:48:29.247Z</time>
      </trkpt>
      <trkpt lat="43.52055" lon="3.85906">
        <ele>5.09556818008</ele>
        <time>2020-11-21T11:48:43.916Z</time>
      </trkpt>
      <trkpt lat="43.52055" lon="3.85906">
        <ele>5.0953669548</ele>
        <time>2020-11-21T11:48:58.585Z</time>
      </trkpt>
      <trkpt lat="43.52162" lon="3.85922">
        <ele>5.90429592133</ele>
        <time>2020-11-21T11:49:13.276Z</time>
      </trkpt>
      <trkpt lat="43.52209" lon="3.85943">
        <ele>6.35061264038</ele>
        <time>2020-11-21T11:49:27.977Z</time>
      </trkpt>
      <trkpt lat="43.52289" lon="3.85993">
        <ele>8.16659164429</ele>
        <time>2020-11-21T11:49:42.695Z</time>
      </trkpt>
      <trkpt lat="43.52289" lon="3.85993">
        <ele>8.16679286957</ele>
        <time>2020-11-21T11:49:57.413Z</time>
      </trkpt>
      <trkpt lat="43.52337" lon="3.8602">
        <ele>9.64712619781</ele>
        <time>2020-11-21T11:50:12.142Z</time>
      </trkpt>
      <trkpt lat="43.52356" lon="3.86029">
        <ele>9.92035770416</ele>
        <time>2020-11-21T11:50:26.875Z</time>
      </trkpt>
      <trkpt lat="43.52359" lon="3.8603">
        <ele>9.91256809235</ele>
        <time>2020-11-21T11:50:41.609Z</time>
      </trkpt>
      <trkpt lat="43.52334" lon="3.86216">
        <ele>7.20094490051</ele>
        <time>2020-11-21T11:50:56.370Z</time>
      </trkpt>
      <trkpt lat="43.52319" lon="3.86335">
        <ele>7.2567896843</ele>
        <time>2020-11-21T11:51:11.149Z</time>
      </trkpt>
      <trkpt lat="43.52309" lon="3.86401">
        <ele>6.92337179184</ele>
        <time>2020-11-21T11:51:25.937Z</time>
      </trkpt>
      <trkpt lat="43.52305" lon="3.8652">
        <ele>6.42164373398</ele>
        <time>2020-11-21T11:51:40.743Z</time>
      </trkpt>
      <trkpt lat="43.52309" lon="3.86559">
        <ele>6.06953525543</ele>
        <time>2020-11-21T11:51:55.554Z</time>
      </trkpt>
      <trkpt lat="43.52305" lon="3.86742">
        <ele>4.45149850845</ele>
        <time>2020-11-21T11:52:10.392Z</time>
      </trkpt>
      <trkpt lat="43.52255" lon="3.86836">
        <ele>4.47337913513</ele>
        <time>2020-11-21T11:52:25.247Z</time>
      </trkpt>
      <trkpt lat="43.52312" lon="3.86889">
        <ele>4.74506425858</ele>
        <time>2020-11-21T11:52:40.116Z</time>
      </trkpt>
      <trkpt lat="43.52278" lon="3.86953">
        <ele>1.10162866116</ele>
        <time>2020-11-21T11:52:54.996Z</time>
      </trkpt>
      <trkpt lat="43.52295" lon="3.87018">
        <ele>0.72832733393</ele>
        <time>2020-11-21T11:53:09.886Z</time>
      </trkpt>
      <trkpt lat="43.52411" lon="3.87122">
        <ele>2.72587203979</ele>
        <time>2020-11-21T11:53:24.804Z</time>
      </trkpt>
      <trkpt lat="43.52343" lon="3.87248">
        <ele>1.74472141266</ele>
        <time>2020-11-21T11:53:39.745Z</time>
      </trkpt>
      <trkpt lat="43.52378" lon="3.87264">
        <ele>1.34634840488</ele>
        <time>2020-11-21T11:53:54.693Z</time>
      </trkpt>
      <trkpt lat="43.52449" lon="3.87262">
        <ele>0.56799709797</ele>
        <time>2020-11-21T11:54:09.655Z</time>
      </trkpt>
      <trkpt lat="43.52449" lon="3.87262">
        <ele>0.56990247965</ele>
        <time>2020-11-21T11:54:24.617Z</time>
      </trkpt>
      <trkpt lat="43.52479" lon="3.87262">
        <ele>0.94179576635</ele>
        <time>2020-11-21T11:54:39.585Z</time>
      </trkpt>
      <trkpt lat="43.5252" lon="3.87273">
        <ele>0.95452660322</ele>
        <time>2020-11-21T11:54:54.562Z</time>
      </trkpt>
      <trkpt lat="43.52548" lon="3.87263">
        <ele>0.74856728315</ele>
        <time>2020-11-21T11:55:09.545Z</time>
      </trkpt>
      <trkpt lat="43.52749" lon="3.87259">
        <ele>0.94142746925</ele>
        <time>2020-11-21T11:55:24.568Z</time>
      </trkpt>
      <trkpt lat="43.52806" lon="3.87176">
        <ele>2.16478300095</ele>
        <time>2020-11-21T11:55:39.607Z</time>
      </trkpt>
      <trkpt lat="43.5287" lon="3.87063">
        <ele>1</ele>
        <time>2020-11-21T11:55:54.667Z</time>
      </trkpt>
      <trkpt lat="43.52914" lon="3.8696">
        <ele>1.72174358368</ele>
        <time>2020-11-21T11:56:09.745Z</time>
      </trkpt>
      <trkpt lat="43.52948" lon="3.86864">
        <ele>1.73918390274</ele>
        <time>2020-11-21T11:56:24.838Z</time>
      </trkpt>
      <trkpt lat="43.52985" lon="3.86735">
        <ele>2.84262561798</ele>
        <time>2020-11-21T11:56:39.951Z</time>
      </trkpt>
      <trkpt lat="43.53004" lon="3.86598">
        <ele>3.2082798481</ele>
        <time>2020-11-21T11:56:55.085Z</time>
      </trkpt>
      <trkpt lat="43.53002" lon="3.86596">
        <ele>3.24689722061</ele>
        <time>2020-11-21T11:57:10.219Z</time>
      </trkpt>
      <trkpt lat="43.52989" lon="3.86594">
        <ele>3.53009128571</ele>
        <time>2020-11-21T11:57:25.356Z</time>
      </trkpt>
      <trkpt lat="43.5299" lon="3.86586">
        <ele>3.4011657238</ele>
        <time>2020-11-21T11:57:40.494Z</time>
      </trkpt>
      <trkpt lat="43.53003" lon="3.86589">
        <ele>3.2436041832</ele>
        <time>2020-11-21T11:57:55.635Z</time>
      </trkpt>
      <trkpt lat="43.53014" lon="3.86592">
        <ele>3.29499340057</ele>
        <time>2020-11-21T11:58:10.778Z</time>
      </trkpt>
      <trkpt lat="43.53014" lon="3.86592">
        <ele>3.29509401321</ele>
        <time>2020-11-21T11:58:25.921Z</time>
      </trkpt>
      <trkpt lat="43.53072" lon="3.86601">
        <ele>3.12884068489</ele>
        <time>2020-11-21T11:58:41.075Z</time>
      </trkpt>
      <trkpt lat="43.53138" lon="3.86574">
        <ele>3.38623189926</ele>
        <time>2020-11-21T11:58:56.243Z</time>
      </trkpt>
      <trkpt lat="43.53159" lon="3.86565">
        <ele>3.6764986515</ele>
        <time>2020-11-21T11:59:11.416Z</time>
      </trkpt>
      <trkpt lat="43.53182" lon="3.86547">
        <ele>4.39725589752</ele>
        <time>2020-11-21T11:59:26.594Z</time>
      </trkpt>
      <trkpt lat="43.53205" lon="3.86507">
        <ele>5.68730592728</ele>
        <time>2020-11-21T11:59:41.779Z</time>
      </trkpt>
      <trkpt lat="43.53248" lon="3.86503">
        <ele>6.76638889313</ele>
        <time>2020-11-21T11:59:56.973Z</time>
      </trkpt>
      <trkpt lat="43.53308" lon="3.86461">
        <ele>7.26216030121</ele>
        <time>2020-11-21T12:00:12.180Z</time>
      </trkpt>
      <trkpt lat="43.53312" lon="3.86457">
        <ele>7.21067047119</ele>
        <time>2020-11-21T12:00:27.388Z</time>
      </trkpt>
      <trkpt lat="43.53331" lon="3.86456">
        <ele>7.19779777527</ele>
        <time>2020-11-21T12:00:42.600Z</time>
      </trkpt>
      <trkpt lat="43.53349" lon="3.86452">
        <ele>7.14630794525</ele>
        <time>2020-11-21T12:00:57.816Z</time>
      </trkpt>
      <trkpt lat="43.53367" lon="3.86466">
        <ele>7.31365013123</ele>
        <time>2020-11-21T12:01:13.036Z</time>
      </trkpt>
      <trkpt lat="43.53378" lon="3.86482">
        <ele>7.50673675537</ele>
        <time>2020-11-21T12:01:28.259Z</time>
      </trkpt>
      <trkpt lat="43.53443" lon="3.86585">
        <ele>8</ele>
        <time>2020-11-21T12:01:43.502Z</time>
      </trkpt>
      <trkpt lat="43.53475" lon="3.86622">
        <ele>8</ele>
        <time>2020-11-21T12:01:58.754Z</time>
      </trkpt>
      <trkpt lat="43.53475" lon="3.86622">
        <ele>8</ele>
        <time>2020-11-21T12:02:14.006Z</time>
      </trkpt>
      <trkpt lat="43.53481" lon="3.86628">
        <ele>8</ele>
        <time>2020-11-21T12:02:29.259Z</time>
      </trkpt>
      <trkpt lat="43.53548" lon="3.86683">
        <ele>7.25844430923</ele>
        <time>2020-11-21T12:02:44.528Z</time>
      </trkpt>
      <trkpt lat="43.53711" lon="3.86826">
        <ele>3.36120414734</ele>
        <time>2020-11-21T12:02:59.835Z</time>
      </trkpt>
      <trkpt lat="43.53797" lon="3.86944">
        <ele>4.28562355042</ele>
        <time>2020-11-21T12:03:15.167Z</time>
      </trkpt>
      <trkpt lat="43.53797" lon="3.86944">
        <ele>4.2858247757</ele>
        <time>2020-11-21T12:03:30.499Z</time>
      </trkpt>
      <trkpt lat="43.53817" lon="3.8696">
        <ele>3.79647040367</ele>
        <time>2020-11-21T12:03:45.835Z</time>
      </trkpt>
      <trkpt lat="43.53829" lon="3.86967">
        <ele>3.51327633858</ele>
        <time>2020-11-21T12:04:01.174Z</time>
      </trkpt>
      <trkpt lat="43.53843" lon="3.86982">
        <ele>3.17879343033</ele>
        <time>2020-11-21T12:04:16.516Z</time>
      </trkpt>
      <trkpt lat="43.53848" lon="3.86994">
        <ele>3.07561278343</ele>
        <time>2020-11-21T12:04:31.860Z</time>
      </trkpt>
      <trkpt lat="43.53842" lon="3.86997">
        <ele>3.20453834534</ele>
        <time>2020-11-21T12:04:47.206Z</time>
      </trkpt>
      <trkpt lat="43.53843" lon="3.86998">
        <ele>3.17859244347</ele>
        <time>2020-11-21T12:05:02.552Z</time>
      </trkpt>
      <trkpt lat="43.53843" lon="3.86998">
        <ele>3.17879343033</ele>
        <time>2020-11-21T12:05:17.898Z</time>
      </trkpt>
      <trkpt lat="43.53871" lon="3.87354">
        <ele>0.51852917671</ele>
        <time>2020-11-21T12:05:33.296Z</time>
      </trkpt>
      <trkpt lat="43.53878" lon="3.87459">
        <ele>0.5561683774</ele>
        <time>2020-11-21T12:05:48.709Z</time>
      </trkpt>
      <trkpt lat="43.53886" lon="3.87712">
        <ele>-0.15415613353</ele>
        <time>2020-11-21T12:06:04.159Z</time>
      </trkpt>
      <trkpt lat="43.53889" lon="3.87921">
        <ele>0.56315052509</ele>
        <time>2020-11-21T12:06:19.640Z</time>
      </trkpt>
      <trkpt lat="43.53889" lon="3.87921">
        <ele>0.56315052509</ele>
        <time>2020-11-21T12:06:35.121Z</time>
      </trkpt>
      <trkpt lat="43.53894" lon="3.88014">
        <ele>0.11139336973</ele>
        <time>2020-11-21T12:06:50.615Z</time>
      </trkpt>
      <trkpt lat="43.5391" lon="3.88166">
        <ele>0.70879620314</ele>
        <time>2020-11-21T12:07:06.131Z</time>
      </trkpt>
      <trkpt lat="43.53935" lon="3.88701">
        <ele>-0.98226481676</ele>
        <time>2020-11-21T12:07:21.725Z</time>
      </trkpt>
      <trkpt lat="43.53942" lon="3.88866">
        <ele>0.20430809259</ele>
        <time>2020-11-21T12:07:37.343Z</time>
      </trkpt>
      <trkpt lat="43.53966" lon="3.89356">
        <ele>-0.23592455685</ele>
        <time>2020-11-21T12:07:53.033Z</time>
      </trkpt>
      <trkpt lat="43.53966" lon="3.89356">
        <ele>-0.23572342098</ele>
        <time>2020-11-21T12:08:08.723Z</time>
      </trkpt>
      <trkpt lat="43.53967" lon="3.89376">
        <ele>-0.45475637913</ele>
        <time>2020-11-21T12:08:24.416Z</time>
      </trkpt>
      <trkpt lat="43.53972" lon="3.89569">
        <ele>-0.35692578554</ele>
        <time>2020-11-21T12:08:40.137Z</time>
      </trkpt>
      <trkpt lat="43.53968" lon="3.89588">
        <ele>-0.02829108573</ele>
        <time>2020-11-21T12:08:55.861Z</time>
      </trkpt>
      <trkpt lat="43.53968" lon="3.89588">
        <ele>-0.02737076022</ele>
        <time>2020-11-21T12:09:11.585Z</time>
      </trkpt>
      <trkpt lat="43.53968" lon="3.89588">
        <ele>-0.02767246217</ele>
        <time>2020-11-21T12:09:27.309Z</time>
      </trkpt>
      <trkpt lat="43.53949" lon="3.89667">
        <ele>0.45991235971</ele>
        <time>2020-11-21T12:09:43.045Z</time>
      </trkpt>
      <trkpt lat="43.53951" lon="3.89714">
        <ele>0.48940193653</ele>
        <time>2020-11-21T12:09:58.788Z</time>
      </trkpt>
      <trkpt lat="43.53948" lon="3.89812">
        <ele>1</ele>
        <time>2020-11-21T12:10:14.545Z</time>
      </trkpt>
      <trkpt lat="43.53956" lon="3.89816">
        <ele>1</ele>
        <time>2020-11-21T12:10:30.304Z</time>
      </trkpt>
      <trkpt lat="43.53968" lon="3.89828">
        <ele>1</ele>
        <time>2020-11-21T12:10:46.066Z</time>
      </trkpt>
      <trkpt lat="43.53972" lon="3.89835">
        <ele>1</ele>
        <time>2020-11-21T12:11:01.829Z</time>
      </trkpt>
      <trkpt lat="43.54018" lon="3.89837">
        <ele>1.24108743668</ele>
        <time>2020-11-21T12:11:17.601Z</time>
      </trkpt>
      <trkpt lat="43.54014" lon="3.89858">
        <ele>0.98363828659</ele>
        <time>2020-11-21T12:11:33.376Z</time>
      </trkpt>
      <trkpt lat="43.53968" lon="3.89878">
        <ele>0.73906159401</ele>
        <time>2020-11-21T12:11:49.161Z</time>
      </trkpt>
      <trkpt lat="43.53889" lon="3.9">
        <ele>0.56894773245</ele>
        <time>2020-11-21T12:12:04.970Z</time>
      </trkpt>
      <trkpt lat="43.53889" lon="3.9">
        <ele>0.56894773245</ele>
        <time>2020-11-21T12:12:20.779Z</time>
      </trkpt>
      <trkpt lat="43.53795" lon="3.90148">
        <ele>0.31519326568</ele>
        <time>2020-11-21T12:12:36.616Z</time>
      </trkpt>
      <trkpt lat="43.53836" lon="3.90201">
        <ele>1.82059657574</ele>
        <time>2020-11-21T12:12:52.465Z</time>
      </trkpt>
      <trkpt lat="43.5379" lon="3.90268">
        <ele>1.93364059925</ele>
        <time>2020-11-21T12:13:08.327Z</time>
      </trkpt>
      <trkpt lat="43.5378" lon="3.90271">
        <ele>1.97225797176</ele>
        <time>2020-11-21T12:13:24.191Z</time>
      </trkpt>
      <trkpt lat="43.53778" lon="3.90272">
        <ele>1.98513042927</ele>
        <time>2020-11-21T12:13:40.055Z</time>
      </trkpt>
      <trkpt lat="43.53775" lon="3.90278">
        <ele>1.95050728321</ele>
        <time>2020-11-21T12:13:55.920Z</time>
      </trkpt>
      <trkpt lat="43.53775" lon="3.90285">
        <ele>1.91323411465</ele>
        <time>2020-11-21T12:14:11.786Z</time>
      </trkpt>
      <trkpt lat="43.53785" lon="3.90326">
        <ele>1.7845095396</ele>
        <time>2020-11-21T12:14:27.659Z</time>
      </trkpt>
      <trkpt lat="43.53785" lon="3.90327">
        <ele>1.78440892696</ele>
        <time>2020-11-21T12:14:43.532Z</time>
      </trkpt>
      <trkpt lat="43.5379" lon="3.90343">
        <ele>1.73291909695</ele>
        <time>2020-11-21T12:14:59.407Z</time>
      </trkpt>
      <trkpt lat="43.5379" lon="3.90343">
        <ele>1.73301970959</ele>
        <time>2020-11-21T12:15:15.282Z</time>
      </trkpt>
      <trkpt lat="43.53846" lon="3.90291">
        <ele>1.78316533566</ele>
        <time>2020-11-21T12:15:31.171Z</time>
      </trkpt>
      <trkpt lat="43.53868" lon="3.90301">
        <ele>1.66731321812</ele>
        <time>2020-11-21T12:15:47.065Z</time>
      </trkpt>
      <trkpt lat="43.53861" lon="3.90308">
        <ele>1.59007847309</ele>
        <time>2020-11-21T12:16:02.960Z</time>
      </trkpt>
      <trkpt lat="43.53861" lon="3.90308">
        <ele>1.59007847309</ele>
        <time>2020-11-21T12:16:18.855Z</time>
      </trkpt>
      <trkpt lat="43.5377" lon="3.90411">
        <ele>1.92944777012</ele>
        <time>2020-11-21T12:16:34.774Z</time>
      </trkpt>
      <trkpt lat="43.53679" lon="3.90533">
        <ele>1</ele>
        <time>2020-11-21T12:16:50.718Z</time>
      </trkpt>
      <trkpt lat="43.53635" lon="3.90635">
        <ele>0.07732520998</ele>
        <time>2020-11-21T12:17:06.680Z</time>
      </trkpt>
      <trkpt lat="43.53608" lon="3.90762">
        <ele>-0.13215632737</ele>
        <time>2020-11-21T12:17:22.661Z</time>
      </trkpt>
      <trkpt lat="43.53604" lon="3.90847">
        <ele>1</ele>
        <time>2020-11-21T12:17:38.654Z</time>
      </trkpt>
      <trkpt lat="43.5361" lon="3.91319">
        <ele>0.43126887083</ele>
        <time>2020-11-21T12:17:54.716Z</time>
      </trkpt>
      <trkpt lat="43.53609" lon="3.91344">
        <ele>0.74020785093</ele>
        <time>2020-11-21T12:18:10.781Z</time>
      </trkpt>
      <trkpt lat="43.53594" lon="3.91467">
        <ele>-1.57429003716</ele>
        <time>2020-11-21T12:18:26.865Z</time>
      </trkpt>
      <trkpt lat="43.53558" lon="3.91627">
        <ele>-0.51347053051</ele>
        <time>2020-11-21T12:18:42.973Z</time>
      </trkpt>
      <trkpt lat="43.53525" lon="3.91732">
        <ele>0.92160791159</ele>
        <time>2020-11-21T12:18:59.098Z</time>
      </trkpt>
      <trkpt lat="43.53475" lon="3.9183">
        <ele>1</ele>
        <time>2020-11-21T12:19:15.240Z</time>
      </trkpt>
      <trkpt lat="43.53468" lon="3.91846">
        <ele>1</ele>
        <time>2020-11-21T12:19:31.385Z</time>
      </trkpt>
      <trkpt lat="43.53449" lon="3.9188">
        <ele>0.72171121836</ele>
        <time>2020-11-21T12:19:47.536Z</time>
      </trkpt>
      <trkpt lat="43.53432" lon="3.91912">
        <ele>1.65424609184</ele>
        <time>2020-11-21T12:20:03.693Z</time>
      </trkpt>
      <trkpt lat="43.53331" lon="3.9208">
        <ele>0.09521889687</ele>
        <time>2020-11-21T12:20:19.881Z</time>
      </trkpt>
      <trkpt lat="43.53145" lon="3.92428">
        <ele>0.68483543396</ele>
        <time>2020-11-21T12:20:36.132Z</time>
      </trkpt>
      <trkpt lat="43.53145" lon="3.92428">
        <ele>0.68473488092</ele>
        <time>2020-11-21T12:20:52.383Z</time>
      </trkpt>
      <trkpt lat="43.53146" lon="3.92454">
        <ele>0.54360616207</ele>
        <time>2020-11-21T12:21:08.638Z</time>
      </trkpt>
      <trkpt lat="43.53163" lon="3.9249">
        <ele>0.7494649291</ele>
        <time>2020-11-21T12:21:24.899Z</time>
      </trkpt>
      <trkpt lat="43.53159" lon="3.92526">
        <ele>1.30202484131</ele>
        <time>2020-11-21T12:21:41.166Z</time>
      </trkpt>
      <trkpt lat="43.53188" lon="3.92555">
        <ele>1</ele>
        <time>2020-11-21T12:21:57.440Z</time>
      </trkpt>
      <trkpt lat="43.53196" lon="3.92585">
        <ele>1</ele>
        <time>2020-11-21T12:22:13.719Z</time>
      </trkpt>
      <trkpt lat="43.53196" lon="3.92585">
        <ele>1</ele>
        <time>2020-11-21T12:22:29.998Z</time>
      </trkpt>
      <trkpt lat="43.53197" lon="3.92592">
        <ele>1</ele>
        <time>2020-11-21T12:22:46.278Z</time>
      </trkpt>
      <trkpt lat="43.53208" lon="3.92619">
        <ele>1</ele>
        <time>2020-11-21T12:23:02.562Z</time>
      </trkpt>
      <trkpt lat="43.53205" lon="3.92635">
        <ele>1.07879185677</ele>
        <time>2020-11-21T12:23:18.848Z</time>
      </trkpt>
      <trkpt lat="43.5321" lon="3.92644">
        <ele>1.13018107414</ele>
        <time>2020-11-21T12:23:35.136Z</time>
      </trkpt>
      <trkpt lat="43.5321" lon="3.92644">
        <ele>1.13028168678</ele>
        <time>2020-11-21T12:23:51.424Z</time>
      </trkpt>
      <trkpt lat="43.53217" lon="3.92653">
        <ele>1.15592598915</ele>
        <time>2020-11-21T12:24:07.714Z</time>
      </trkpt>
      <trkpt lat="43.53217" lon="3.92653">
        <ele>1.15602660179</ele>
        <time>2020-11-21T12:24:24.004Z</time>
      </trkpt>
      <trkpt lat="43.53236" lon="3.92665">
        <ele>1.06591939926</ele>
        <time>2020-11-21T12:24:40.298Z</time>
      </trkpt>
      <trkpt lat="43.53271" lon="3.92655">
        <ele>1</ele>
        <time>2020-11-21T12:24:56.599Z</time>
      </trkpt>
      <trkpt lat="43.533" lon="3.92661">
        <ele>1</ele>
        <time>2020-11-21T12:25:12.906Z</time>
      </trkpt>
      <trkpt lat="43.53379" lon="3.92748">
        <ele>-0.38952633739</ele>
        <time>2020-11-21T12:25:29.233Z</time>
      </trkpt>
      <trkpt lat="43.53382" lon="3.92772">
        <ele>-0.95591449738</ele>
        <time>2020-11-21T12:25:45.564Z</time>
      </trkpt>
      <trkpt lat="43.53382" lon="3.92772">
        <ele>-0.95591449738</ele>
        <time>2020-11-21T12:26:01.895Z</time>
      </trkpt>
      <trkpt lat="43.53401" lon="3.92785">
        <ele>-1</ele>
        <time>2020-11-21T12:26:18.230Z</time>
      </trkpt>
      <trkpt lat="43.53459" lon="3.9289">
        <ele>-0.4227437973</ele>
        <time>2020-11-21T12:26:34.584Z</time>
      </trkpt>
      <trkpt lat="43.53515" lon="3.93055">
        <ele>0.46109107137</ele>
        <time>2020-11-21T12:26:50.965Z</time>
      </trkpt>
      <trkpt lat="43.53515" lon="3.93055">
        <ele>0.46139276028</ele>
        <time>2020-11-21T12:27:07.346Z</time>
      </trkpt>
      <trkpt lat="43.53527" lon="3.9308">
        <ele>0.4458963275</ele>
        <time>2020-11-21T12:27:23.731Z</time>
      </trkpt>
      <trkpt lat="43.53555" lon="3.93254">
        <ele>-1</ele>
        <time>2020-11-21T12:27:40.142Z</time>
      </trkpt>
      <trkpt lat="43.53559" lon="3.93305">
        <ele>-1</ele>
        <time>2020-11-21T12:27:56.561Z</time>
      </trkpt>
      <trkpt lat="43.53554" lon="3.93445">
        <ele>-1</ele>
        <time>2020-11-21T12:28:13.000Z</time>
      </trkpt>
      <trkpt lat="43.53537" lon="3.93566">
        <ele>-1.24195277691</ele>
        <time>2020-11-21T12:28:29.457Z</time>
      </trkpt>
      <trkpt lat="43.53484" lon="3.93776">
        <ele>-0.94684439898</ele>
        <time>2020-11-21T12:28:45.946Z</time>
      </trkpt>
      <trkpt lat="43.53473" lon="3.93795">
        <ele>-0.48343589902</ele>
        <time>2020-11-21T12:29:02.439Z</time>
      </trkpt>
      <trkpt lat="43.53461" lon="3.93798">
        <ele>-0.431946069</ele>
        <time>2020-11-21T12:29:18.934Z</time>
      </trkpt>
      <trkpt lat="43.53447" lon="3.93813">
        <ele>-0.07151722908</ele>
        <time>2020-11-21T12:29:35.433Z</time>
      </trkpt>
      <trkpt lat="43.5344" lon="3.93833">
        <ele>0.41763615608</ele>
        <time>2020-11-21T12:29:51.935Z</time>
      </trkpt>
      <trkpt lat="43.5344" lon="3.93833">
        <ele>0.41763615608</ele>
        <time>2020-11-21T12:30:08.437Z</time>
      </trkpt>
      <trkpt lat="43.53441" lon="3.93846">
        <ele>0.72657513618</ele>
        <time>2020-11-21T12:30:24.941Z</time>
      </trkpt>
      <trkpt lat="43.53458" lon="3.93857">
        <ele>0.98402428627</ele>
        <time>2020-11-21T12:30:41.449Z</time>
      </trkpt>
      <trkpt lat="43.53464" lon="3.93861">
        <ele>1</ele>
        <time>2020-11-21T12:30:57.958Z</time>
      </trkpt>
      <trkpt lat="43.53472" lon="3.93882">
        <ele>1</ele>
        <time>2020-11-21T12:31:14.471Z</time>
      </trkpt>
      <trkpt lat="43.53472" lon="3.93946">
        <ele>2.02590703964</ele>
        <time>2020-11-21T12:31:30.993Z</time>
      </trkpt>
      <trkpt lat="43.53469" lon="3.94033">
        <ele>0.95757865906</ele>
        <time>2020-11-21T12:31:47.528Z</time>
      </trkpt>
      <trkpt lat="43.53474" lon="3.94132">
        <ele>0.1402361095</ele>
        <time>2020-11-21T12:32:04.077Z</time>
      </trkpt>
      <trkpt lat="43.53474" lon="3.94132">
        <ele>0.13815069199</ele>
        <time>2020-11-21T12:32:20.626Z</time>
      </trkpt>
      <trkpt lat="43.53474" lon="3.94132">
        <ele>0.13774842024</ele>
        <time>2020-11-21T12:32:37.175Z</time>
      </trkpt>
      <trkpt lat="43.53476" lon="3.94163">
        <ele>0.32646489143</ele>
        <time>2020-11-21T12:32:53.729Z</time>
      </trkpt>
      <trkpt lat="43.53487" lon="3.94246">
        <ele>-0.02776712552</ele>
        <time>2020-11-21T12:33:10.295Z</time>
      </trkpt>
      <trkpt lat="43.53515" lon="3.94385">
        <ele>-0.97163110971</ele>
        <time>2020-11-21T12:33:26.882Z</time>
      </trkpt>
      <trkpt lat="43.53537" lon="3.94455">
        <ele>-0.65031272173</ele>
        <time>2020-11-21T12:33:43.480Z</time>
      </trkpt>
      <trkpt lat="43.53716" lon="3.94891">
        <ele>-0.40106153488</ele>
        <time>2020-11-21T12:34:00.151Z</time>
      </trkpt>
      <trkpt lat="43.53742" lon="3.94956">
        <ele>-1</ele>
        <time>2020-11-21T12:34:16.833Z</time>
      </trkpt>
      <trkpt lat="43.53871" lon="3.95289">
        <ele>-0.82325661182</ele>
        <time>2020-11-21T12:34:33.570Z</time>
      </trkpt>
      <trkpt lat="43.53958" lon="3.95492">
        <ele>0.57611358166</ele>
        <time>2020-11-21T12:34:50.341Z</time>
      </trkpt>
      <trkpt lat="43.53958" lon="3.95492">
        <ele>0.57591247559</ele>
        <time>2020-11-21T12:35:07.112Z</time>
      </trkpt>
      <trkpt lat="43.54177" lon="3.96037">
        <ele>-0.08606237918</ele>
        <time>2020-11-21T12:35:23.973Z</time>
      </trkpt>
      <trkpt lat="43.54275" lon="3.96318">
        <ele>-0.91466873884</ele>
        <time>2020-11-21T12:35:40.880Z</time>
      </trkpt>
      <trkpt lat="43.54356" lon="3.96589">
        <ele>-0.77816230059</ele>
        <time>2020-11-21T12:35:57.829Z</time>
      </trkpt>
      <trkpt lat="43.54356" lon="3.96589">
        <ele>-0.77816230059</ele>
        <time>2020-11-21T12:36:14.778Z</time>
      </trkpt>
      <trkpt lat="43.54374" lon="3.96654">
        <ele>-1</ele>
        <time>2020-11-21T12:36:31.737Z</time>
      </trkpt>
      <trkpt lat="43.54409" lon="3.96788">
        <ele>-0.14604444802</ele>
        <time>2020-11-21T12:36:48.717Z</time>
      </trkpt>
      <trkpt lat="43.54408" lon="3.96815">
        <ele>0.16299510002</ele>
        <time>2020-11-21T12:37:05.701Z</time>
      </trkpt>
      <trkpt lat="43.54399" lon="3.96835">
        <ele>0.45191037655</ele>
        <time>2020-11-21T12:37:22.688Z</time>
      </trkpt>
      <trkpt lat="43.54388" lon="3.96849">
        <ele>0.78659427166</ele>
        <time>2020-11-21T12:37:39.678Z</time>
      </trkpt>
      <trkpt lat="43.54388" lon="3.96859">
        <ele>1.00914919376</ele>
        <time>2020-11-21T12:37:56.670Z</time>
      </trkpt>
      <trkpt lat="43.54388" lon="3.96868">
        <ele>1.1250013113</ele>
        <time>2020-11-21T12:38:13.663Z</time>
      </trkpt>
      <trkpt lat="43.54432" lon="3.96893">
        <ele>1.42106795311</ele>
        <time>2020-11-21T12:38:30.666Z</time>
      </trkpt>
      <trkpt lat="43.54478" lon="3.96985">
        <ele>0.93480443954</ele>
        <time>2020-11-21T12:38:47.685Z</time>
      </trkpt>
      <trkpt lat="43.54543" lon="3.97073">
        <ele>0.84058517218</ele>
        <time>2020-11-21T12:39:04.722Z</time>
      </trkpt>
      <trkpt lat="43.54559" lon="3.9707">
        <ele>0.14547246695</ele>
        <time>2020-11-21T12:39:21.762Z</time>
      </trkpt>
      <trkpt lat="43.54566" lon="3.97077">
        <ele>0.14517079294</ele>
        <time>2020-11-21T12:39:38.804Z</time>
      </trkpt>
      <trkpt lat="43.54574" lon="3.9709">
        <ele>0.33855935931</ele>
        <time>2020-11-21T12:39:55.849Z</time>
      </trkpt>
      <trkpt lat="43.54581" lon="3.97115">
        <ele>0.87077063322</ele>
        <time>2020-11-21T12:40:12.898Z</time>
      </trkpt>
      <trkpt lat="43.54602" lon="3.9712">
        <ele>0.32291981578</ele>
        <time>2020-11-21T12:40:29.951Z</time>
      </trkpt>
      <trkpt lat="43.54615" lon="3.97126">
        <ele>0.76058340073</ele>
        <time>2020-11-21T12:40:47.006Z</time>
      </trkpt>
      <trkpt lat="43.54619" lon="3.97118">
        <ele>0.49713623524</ele>
        <time>2020-11-21T12:41:04.063Z</time>
      </trkpt>
      <trkpt lat="43.54625" lon="3.97111">
        <ele>0.13670736551</ele>
        <time>2020-11-21T12:41:21.121Z</time>
      </trkpt>
      <trkpt lat="43.54627" lon="3.97094">
        <ele>4.6</ele>
        <time>2020-11-21T12:41:38.182Z</time>
      </trkpt>
      <trkpt lat="43.54635" lon="3.97084">
        <ele>5</ele>
        <time>2020-11-21T12:41:55.245Z</time>
      </trkpt>
      <trkpt lat="43.54634" lon="3.9708">
        <ele>4.8</ele>
        <time>2020-11-21T12:42:12.309Z</time>
      </trkpt>
      <trkpt lat="43.54631" lon="3.97068">
        <ele>3.9</ele>
        <time>2020-11-21T12:42:29.375Z</time>
      </trkpt>
      <trkpt lat="43.5463" lon="3.97066">
        <ele>3.7</ele>
        <time>2020-11-21T12:42:46.441Z</time>
      </trkpt>
      <trkpt lat="43.54721" lon="3.97012">
        <ele>1.15008926392</ele>
        <time>2020-11-21T12:43:03.527Z</time>
      </trkpt>
      <trkpt lat="43.54751" lon="3.96986">
        <ele>1.19929742813</ele>
        <time>2020-11-21T12:43:20.620Z</time>
      </trkpt>
      <trkpt lat="43.54751" lon="3.96986">
        <ele>1.19919681549</ele>
        <time>2020-11-21T12:43:37.713Z</time>
      </trkpt>
      <trkpt lat="43.54807" lon="3.96937">
        <ele>0.42760694027</ele>
        <time>2020-11-21T12:43:54.819Z</time>
      </trkpt>
      <trkpt lat="43.54895" lon="3.96898">
        <ele>0.94172072411</ele>
        <time>2020-11-21T12:44:11.944Z</time>
      </trkpt>
      <trkpt lat="43.54958" lon="3.96886">
        <ele>-0.19484125078</ele>
        <time>2020-11-21T12:44:29.081Z</time>
      </trkpt>
      <trkpt lat="43.54998" lon="3.96852">
        <ele>1.28410363197</ele>
        <time>2020-11-21T12:44:46.228Z</time>
      </trkpt>
      <trkpt lat="43.55024" lon="3.96862">
        <ele>1.86905407906</ele>
        <time>2020-11-21T12:45:03.380Z</time>
      </trkpt>
      <trkpt lat="43.55044" lon="3.96889">
        <ele>1.31553840637</ele>
        <time>2020-11-21T12:45:20.538Z</time>
      </trkpt>
      <trkpt lat="43.55087" lon="3.96893">
        <ele>0.74915021658</ele>
        <time>2020-11-21T12:45:37.704Z</time>
      </trkpt>
      <trkpt lat="43.55087" lon="3.96893">
        <ele>0.74904966354</ele>
        <time>2020-11-21T12:45:54.870Z</time>
      </trkpt>
      <trkpt lat="43.55119" lon="3.96894">
        <ele>0.78201526403</ele>
        <time>2020-11-21T12:46:12.043Z</time>
      </trkpt>
      <trkpt lat="43.55119" lon="3.96894">
        <ele>0.78211581707</ele>
        <time>2020-11-21T12:46:29.216Z</time>
      </trkpt>
      <trkpt lat="43.5512" lon="3.96894">
        <ele>0.79488772154</ele>
        <time>2020-11-21T12:46:46.389Z</time>
      </trkpt>
      <trkpt lat="43.55121" lon="3.96878">
        <ele>1</ele>
        <time>2020-11-21T12:47:03.564Z</time>
      </trkpt>
      <trkpt lat="43.55122" lon="3.96873">
        <ele>1</ele>
        <time>2020-11-21T12:47:20.740Z</time>
      </trkpt>
      <trkpt lat="43.55122" lon="3.96873">
        <ele>1</ele>
        <time>2020-11-21T12:47:37.916Z</time>
      </trkpt>
      <trkpt lat="43.55132" lon="3.96834">
        <ele>0.42616543174</ele>
        <time>2020-11-21T12:47:55.098Z</time>
      </trkpt>
      <trkpt lat="43.55156" lon="3.96779">
        <ele>-0.27692097425</ele>
        <time>2020-11-21T12:48:12.289Z</time>
      </trkpt>
      <trkpt lat="43.55186" lon="3.96751">
        <ele>-0.25117605925</ele>
        <time>2020-11-21T12:48:29.488Z</time>
      </trkpt>
      <trkpt lat="43.55224" lon="3.96741">
        <ele>0.07073593885</ele>
        <time>2020-11-21T12:48:46.694Z</time>
      </trkpt>
      <trkpt lat="43.55224" lon="3.96741">
        <ele>0.07063538581</ele>
        <time>2020-11-21T12:49:03.900Z</time>
      </trkpt>
      <trkpt lat="43.55245" lon="3.96732">
        <ele>0.22510486841</ele>
        <time>2020-11-21T12:49:21.111Z</time>
      </trkpt>
      <trkpt lat="43.55256" lon="3.96718">
        <ele>0.18658807874</ele>
        <time>2020-11-21T12:49:38.325Z</time>
      </trkpt>
      <trkpt lat="43.55271" lon="3.96671">
        <ele>-0.79834264517</ele>
        <time>2020-11-21T12:49:55.546Z</time>
      </trkpt>
      <trkpt lat="43.55276" lon="3.96628">
        <ele>-2.65197658539</ele>
        <time>2020-11-21T12:50:12.774Z</time>
      </trkpt>
      <trkpt lat="43.55284" lon="3.96605">
        <ele>-2.32643008232</ele>
        <time>2020-11-21T12:50:30.005Z</time>
      </trkpt>
      <trkpt lat="43.55286" lon="3.96597">
        <ele>-1.81153154373</ele>
        <time>2020-11-21T12:50:47.238Z</time>
      </trkpt>
      <trkpt lat="43.55292" lon="3.96561">
        <ele>-0.02225995995</ele>
        <time>2020-11-21T12:51:04.476Z</time>
      </trkpt>
      <trkpt lat="43.55295" lon="3.96546">
        <ele>0.57182109356</ele>
        <time>2020-11-21T12:51:21.716Z</time>
      </trkpt>
      <trkpt lat="43.55309" lon="3.96494">
        <ele>2.07998180389</ele>
        <time>2020-11-21T12:51:38.964Z</time>
      </trkpt>
      <trkpt lat="43.55278" lon="3.964">
        <ele>0.40447995067</ele>
        <time>2020-11-21T12:51:56.227Z</time>
      </trkpt>
      <trkpt lat="43.55278" lon="3.964">
        <ele>0.40588867664</ele>
        <time>2020-11-21T12:52:13.490Z</time>
      </trkpt>
      <trkpt lat="43.55278" lon="3.964">
        <ele>0.40619039536</ele>
        <time>2020-11-21T12:52:30.753Z</time>
      </trkpt>
      <trkpt lat="43.55274" lon="3.96389">
        <ele>0.03057608381</ele>
        <time>2020-11-21T12:52:48.018Z</time>
      </trkpt>
      <trkpt lat="43.55294" lon="3.96377">
        <ele>-0.20176403224</ele>
        <time>2020-11-21T12:53:05.287Z</time>
      </trkpt>
      <trkpt lat="43.55294" lon="3.96377">
        <ele>-0.20216630399</ele>
        <time>2020-11-21T12:53:22.556Z</time>
      </trkpt>
      <trkpt lat="43.55296" lon="3.96377">
        <ele>-0.09918665141</ele>
        <time>2020-11-21T12:53:39.826Z</time>
      </trkpt>
      <trkpt lat="43.55297" lon="3.96376">
        <ele>-0.02154961042</ele>
        <time>2020-11-21T12:53:57.096Z</time>
      </trkpt>
      <trkpt lat="43.55329" lon="3.96362">
        <ele>1.85782921314</ele>
        <time>2020-11-21T12:54:14.373Z</time>
      </trkpt>
      <trkpt lat="43.55345" lon="3.96354">
        <ele>2.72857928276</ele>
        <time>2020-11-21T12:54:31.653Z</time>
      </trkpt>
      <trkpt lat="43.55413" lon="3.96324">
        <ele>2.80266952515</ele>
        <time>2020-11-21T12:54:48.947Z</time>
      </trkpt>
      <trkpt lat="43.55473" lon="3.96292">
        <ele>3.28455686569</ele>
        <time>2020-11-21T12:55:06.254Z</time>
      </trkpt>
      <trkpt lat="43.55498" lon="3.96276">
        <ele>2.49933695793</ele>
        <time>2020-11-21T12:55:23.567Z</time>
      </trkpt>
      <trkpt lat="43.55563" lon="3.96247">
        <ele>3.20155715942</ele>
        <time>2020-11-21T12:55:40.893Z</time>
      </trkpt>
      <trkpt lat="43.55579" lon="3.96213">
        <ele>3.26165938377</ele>
        <time>2020-11-21T12:55:58.225Z</time>
      </trkpt>
      <trkpt lat="43.55573" lon="3.96125">
        <ele>2.88217639923</ele>
        <time>2020-11-21T12:56:15.570Z</time>
      </trkpt>
      <trkpt lat="43.55569" lon="3.96086">
        <ele>2.4960026741</ele>
        <time>2020-11-21T12:56:32.921Z</time>
      </trkpt>
      <trkpt lat="43.55567" lon="3.96053">
        <ele>2.40325641632</ele>
        <time>2020-11-21T12:56:50.277Z</time>
      </trkpt>
      <trkpt lat="43.5556" lon="3.95958">
        <ele>2.89243769646</ele>
        <time>2020-11-21T12:57:07.647Z</time>
      </trkpt>
      <trkpt lat="43.55551" lon="3.95865">
        <ele>4.12141513824</ele>
        <time>2020-11-21T12:57:25.030Z</time>
      </trkpt>
      <trkpt lat="43.55551" lon="3.95865">
        <ele>4.12171697617</ele>
        <time>2020-11-21T12:57:42.413Z</time>
      </trkpt>
      <trkpt lat="43.55548" lon="3.95838">
        <ele>4.09481620789</ele>
        <time>2020-11-21T12:57:59.800Z</time>
      </trkpt>
      <trkpt lat="43.55442" lon="3.95898">
        <ele>2.28356647491</ele>
        <time>2020-11-21T12:58:17.210Z</time>
      </trkpt>
      <trkpt lat="43.55435" lon="3.95896">
        <ele>2.3610022068</ele>
        <time>2020-11-21T12:58:34.622Z</time>
      </trkpt>
      <trkpt lat="43.5538" lon="3.9571">
        <ele>1.77725315094</ele>
        <time>2020-11-21T12:58:52.063Z</time>
      </trkpt>
      <trkpt lat="43.55356" lon="3.95701">
        <ele>1.9392311573</ele>
        <time>2020-11-21T12:59:09.509Z</time>
      </trkpt>
      <trkpt lat="43.55348" lon="3.95675">
        <ele>1.80519664288</ele>
        <time>2020-11-21T12:59:26.959Z</time>
      </trkpt>
      <trkpt lat="43.55348" lon="3.95675">
        <ele>1.80409026146</ele>
        <time>2020-11-21T12:59:44.409Z</time>
      </trkpt>
      <trkpt lat="43.55348" lon="3.95675">
        <ele>1.80429148674</ele>
        <time>2020-11-21T13:00:01.859Z</time>
      </trkpt>
      <trkpt lat="43.55326" lon="3.95602">
        <ele>1</ele>
        <time>2020-11-21T13:00:19.320Z</time>
      </trkpt>
      <trkpt lat="43.55329" lon="3.9559">
        <ele>1</ele>
        <time>2020-11-21T13:00:36.783Z</time>
      </trkpt>
      <trkpt lat="43.55335" lon="3.95581">
        <ele>1</ele>
        <time>2020-11-21T13:00:54.248Z</time>
      </trkpt>
      <trkpt lat="43.55332" lon="3.95566">
        <ele>1</ele>
        <time>2020-11-21T13:01:11.715Z</time>
      </trkpt>
      <trkpt lat="43.55315" lon="3.9556">
        <ele>1</ele>
        <time>2020-11-21T13:01:29.186Z</time>
      </trkpt>
      <trkpt lat="43.5531" lon="3.95551">
        <ele>1</ele>
        <time>2020-11-21T13:01:46.658Z</time>
      </trkpt>
      <trkpt lat="43.55279" lon="3.95561">
        <ele>1</ele>
        <time>2020-11-21T13:02:04.137Z</time>
      </trkpt>
      <trkpt lat="43.55211" lon="3.95532">
        <ele>0.32298699021</ele>
        <time>2020-11-21T13:02:21.630Z</time>
      </trkpt>
      <trkpt lat="43.55176" lon="3.9553">
        <ele>-0.02875769138</ele>
        <time>2020-11-21T13:02:39.130Z</time>
      </trkpt>
      <trkpt lat="43.5517" lon="3.95523">
        <ele>-0.16616639495</ele>
        <time>2020-11-21T13:02:56.632Z</time>
      </trkpt>
      <trkpt lat="43.5516" lon="3.95446">
        <ele>-0.9438777566</ele>
        <time>2020-11-21T13:03:14.145Z</time>
      </trkpt>
      <trkpt lat="43.5515" lon="3.95418">
        <ele>-1</ele>
        <time>2020-11-21T13:03:31.663Z</time>
      </trkpt>
      <trkpt lat="43.55138" lon="3.95387">
        <ele>-0.90047723055</ele>
        <time>2020-11-21T13:03:49.186Z</time>
      </trkpt>
      <trkpt lat="43.5514" lon="3.95357">
        <ele>-0.52659523487</ele>
        <time>2020-11-21T13:04:06.713Z</time>
      </trkpt>
      <trkpt lat="43.55138" lon="3.9532">
        <ele>-0.55234014988</ele>
        <time>2020-11-21T13:04:24.245Z</time>
      </trkpt>
      <trkpt lat="43.5514" lon="3.95287">
        <ele>-0.2158087641</ele>
        <time>2020-11-21T13:04:41.782Z</time>
      </trkpt>
      <trkpt lat="43.5514" lon="3.95287">
        <ele>-0.21444666386</ele>
        <time>2020-11-21T13:04:59.319Z</time>
      </trkpt>
      <trkpt lat="43.5514" lon="3.95287">
        <ele>-0.21414497495</ele>
        <time>2020-11-21T13:05:16.856Z</time>
      </trkpt>
      <trkpt lat="43.5514" lon="3.9528">
        <ele>-0.12695418298</ele>
        <time>2020-11-21T13:05:34.394Z</time>
      </trkpt>
      <trkpt lat="43.55156" lon="3.95265">
        <ele>0.33298328519</ele>
        <time>2020-11-21T13:05:51.936Z</time>
      </trkpt>
      <trkpt lat="43.55178" lon="3.9526">
        <ele>0.84808272123</ele>
        <time>2020-11-21T13:06:09.482Z</time>
      </trkpt>
      <trkpt lat="43.55212" lon="3.95258">
        <ele>1.33596003056</ele>
        <time>2020-11-21T13:06:27.035Z</time>
      </trkpt>
      <trkpt lat="43.55233" lon="3.95229">
        <ele>1.58053672314</ele>
        <time>2020-11-21T13:06:44.594Z</time>
      </trkpt>
      <trkpt lat="43.55238" lon="3.95186">
        <ele>1.64479839802</ele>
        <time>2020-11-21T13:07:02.160Z</time>
      </trkpt>
      <trkpt lat="43.55267" lon="3.95143">
        <ele>1.99245536327</ele>
        <time>2020-11-21T13:07:19.734Z</time>
      </trkpt>
      <trkpt lat="43.55279" lon="3.95113">
        <ele>1.99736881256</ele>
        <time>2020-11-21T13:07:37.313Z</time>
      </trkpt>
      <trkpt lat="43.55288" lon="3.95071">
        <ele>0.87746495008</ele>
        <time>2020-11-21T13:07:54.898Z</time>
      </trkpt>
      <trkpt lat="43.553" lon="3.95054">
        <ele>0.35767513514</ele>
        <time>2020-11-21T13:08:12.487Z</time>
      </trkpt>
      <trkpt lat="43.55303" lon="3.95015">
        <ele>2.5</ele>
        <time>2020-11-21T13:08:30.081Z</time>
      </trkpt>
      <trkpt lat="43.55313" lon="3.95012">
        <ele>2.4</ele>
        <time>2020-11-21T13:08:47.677Z</time>
      </trkpt>
      <trkpt lat="43.55328" lon="3.95008">
        <ele>2.3</ele>
        <time>2020-11-21T13:09:05.277Z</time>
      </trkpt>
      <trkpt lat="43.55328" lon="3.95">
        <ele>-0.01203267742</ele>
        <time>2020-11-21T13:09:22.878Z</time>
      </trkpt>
      <trkpt lat="43.55339" lon="3.94998">
        <ele>-0.16650216281</ele>
        <time>2020-11-21T13:09:40.481Z</time>
      </trkpt>
      <trkpt lat="43.5534" lon="3.94991">
        <ele>-0.26948183775</ele>
        <time>2020-11-21T13:09:58.085Z</time>
      </trkpt>
      <trkpt lat="43.5537" lon="3.94987">
        <ele>-0.44041725993</ele>
        <time>2020-11-21T13:10:15.695Z</time>
      </trkpt>
      <trkpt lat="43.55419" lon="3.94971">
        <ele>-0.17975616455</ele>
        <time>2020-11-21T13:10:33.315Z</time>
      </trkpt>
      <trkpt lat="43.55447" lon="3.94994">
        <ele>0.15492773056</ele>
        <time>2020-11-21T13:10:50.942Z</time>
      </trkpt>
      <trkpt lat="43.55476" lon="3.94877">
        <ele>0.23384878039</ele>
        <time>2020-11-21T13:11:08.587Z</time>
      </trkpt>
      <trkpt lat="43.55476" lon="3.94877">
        <ele>0.23432298005</ele>
        <time>2020-11-21T13:11:26.232Z</time>
      </trkpt>
      <trkpt lat="43.55476" lon="3.94877">
        <ele>0.23402127624</ele>
        <time>2020-11-21T13:11:43.877Z</time>
      </trkpt>
      <trkpt lat="43.55508" lon="3.94747">
        <ele>2.1113421917</ele>
        <time>2020-11-21T13:12:01.541Z</time>
      </trkpt>
      <trkpt lat="43.55508" lon="3.94747">
        <ele>2.11124157906</ele>
        <time>2020-11-21T13:12:19.205Z</time>
      </trkpt>
      <trkpt lat="43.55546" lon="3.94611">
        <ele>2.95864987373</ele>
        <time>2020-11-21T13:12:36.891Z</time>
      </trkpt>
      <trkpt lat="43.55548" lon="3.94583">
        <ele>2.41333222389</ele>
        <time>2020-11-21T13:12:54.581Z</time>
      </trkpt>
      <trkpt lat="43.55537" lon="3.94526">
        <ele>1.26064002514</ele>
        <time>2020-11-21T13:13:12.279Z</time>
      </trkpt>
      <trkpt lat="43.55539" lon="3.9448">
        <ele>1.26195907593</ele>
        <time>2020-11-21T13:13:29.984Z</time>
      </trkpt>
      <trkpt lat="43.55566" lon="3.94366">
        <ele>2.0611114502</ele>
        <time>2020-11-21T13:13:47.706Z</time>
      </trkpt>
      <trkpt lat="43.55566" lon="3.94366">
        <ele>2.06131267548</ele>
        <time>2020-11-21T13:14:05.428Z</time>
      </trkpt>
      <trkpt lat="43.55589" lon="3.94246">
        <ele>1</ele>
        <time>2020-11-21T13:14:23.168Z</time>
      </trkpt>
      <trkpt lat="43.55595" lon="3.94032">
        <ele>1</ele>
        <time>2020-11-21T13:14:40.940Z</time>
      </trkpt>
      <trkpt lat="43.55753" lon="3.93891">
        <ele>1.22750902176</ele>
        <time>2020-11-21T13:14:58.749Z</time>
      </trkpt>
      <trkpt lat="43.55684" lon="3.93835">
        <ele>0.53035587072</ele>
        <time>2020-11-21T13:15:16.574Z</time>
      </trkpt>
      <trkpt lat="43.55686" lon="3.93784">
        <ele>1.77534234524</ele>
        <time>2020-11-21T13:15:34.407Z</time>
      </trkpt>
      <trkpt lat="43.55686" lon="3.93784">
        <ele>1.77813708782</ele>
        <time>2020-11-21T13:15:52.240Z</time>
      </trkpt>
      <trkpt lat="43.55686" lon="3.93784">
        <ele>1.77874052525</ele>
        <time>2020-11-21T13:16:10.073Z</time>
      </trkpt>
      <trkpt lat="43.55686" lon="3.9376">
        <ele>2.28204631805</ele>
        <time>2020-11-21T13:16:27.909Z</time>
      </trkpt>
      <trkpt lat="43.557" lon="3.93712">
        <ele>3.10568261147</ele>
        <time>2020-11-21T13:16:45.753Z</time>
      </trkpt>
      <trkpt lat="43.55716" lon="3.93664">
        <ele>3.22817063332</ele>
        <time>2020-11-21T13:17:03.604Z</time>
      </trkpt>
      <trkpt lat="43.55716" lon="3.93664">
        <ele>3.22796964645</ele>
        <time>2020-11-21T13:17:21.455Z</time>
      </trkpt>
      <trkpt lat="43.55743" lon="3.93596">
        <ele>3.02028369904</ele>
        <time>2020-11-21T13:17:39.318Z</time>
      </trkpt>
      <trkpt lat="43.55887" lon="3.93498">
        <ele>2.95258688927</ele>
        <time>2020-11-21T13:17:57.213Z</time>
      </trkpt>
      <trkpt lat="43.55915" lon="3.93607">
        <ele>3.77458977699</ele>
        <time>2020-11-21T13:18:15.124Z</time>
      </trkpt>
      <trkpt lat="43.55925" lon="3.93608">
        <ele>3.87756943703</ele>
        <time>2020-11-21T13:18:33.037Z</time>
      </trkpt>
      <trkpt lat="43.55814" lon="3.93158">
        <ele>3.3280749321</ele>
        <time>2020-11-21T13:18:51.019Z</time>
      </trkpt>
      <trkpt lat="43.55814" lon="3.93101">
        <ele>4.44269180298</ele>
        <time>2020-11-21T13:19:09.010Z</time>
      </trkpt>
      <trkpt lat="43.55823" lon="3.93054">
        <ele>4.63658618927</ele>
        <time>2020-11-21T13:19:27.008Z</time>
      </trkpt>
      <trkpt lat="43.55862" lon="3.92968">
        <ele>6.469435215</ele>
        <time>2020-11-21T13:19:45.021Z</time>
      </trkpt>
      <trkpt lat="43.55918" lon="3.9285">
        <ele>8.91764640808</ele>
        <time>2020-11-21T13:20:03.054Z</time>
      </trkpt>
      <trkpt lat="43.55949" lon="3.92776">
        <ele>9.79131507874</ele>
        <time>2020-11-21T13:20:21.099Z</time>
      </trkpt>
      <trkpt lat="43.55988" lon="3.92629">
        <ele>9.26592063904</ele>
        <time>2020-11-21T13:20:39.167Z</time>
      </trkpt>
      <trkpt lat="43.55988" lon="3.92629">
        <ele>9.26592063904</ele>
        <time>2020-11-21T13:20:57.235Z</time>
      </trkpt>
      <trkpt lat="43.56022" lon="3.92341">
        <ele>1.91235947609</ele>
        <time>2020-11-21T13:21:15.346Z</time>
      </trkpt>
      <trkpt lat="43.56032" lon="3.92315">
        <ele>1.83512473106</ele>
        <time>2020-11-21T13:21:33.461Z</time>
      </trkpt>
      <trkpt lat="43.56053" lon="3.92288">
        <ele>1.2620486021</ele>
        <time>2020-11-21T13:21:51.582Z</time>
      </trkpt>
      <trkpt lat="43.56125" lon="3.92242">
        <ele>0.489926368</ele>
        <time>2020-11-21T13:22:09.719Z</time>
      </trkpt>
      <trkpt lat="43.56234" lon="3.92212">
        <ele>2.39629673958</ele>
        <time>2020-11-21T13:22:27.878Z</time>
      </trkpt>
      <trkpt lat="43.56259" lon="3.92196">
        <ele>2.85930275917</ele>
        <time>2020-11-21T13:22:46.042Z</time>
      </trkpt>
      <trkpt lat="43.56314" lon="3.92137">
        <ele>3.70074748993</ele>
        <time>2020-11-21T13:23:04.220Z</time>
      </trkpt>
      <trkpt lat="43.56364" lon="3.92069">
        <ele>1.60476732254</ele>
        <time>2020-11-21T13:23:22.412Z</time>
      </trkpt>
      <trkpt lat="43.56388" lon="3.92013">
        <ele>0.89956581593</ele>
        <time>2020-11-21T13:23:40.614Z</time>
      </trkpt>
      <trkpt lat="43.56388" lon="3.92013">
        <ele>0.89916354418</ele>
        <time>2020-11-21T13:23:58.816Z</time>
      </trkpt>
      <trkpt lat="43.56396" lon="3.91993">
        <ele>1.50457131863</ele>
        <time>2020-11-21T13:24:17.021Z</time>
      </trkpt>
      <trkpt lat="43.56429" lon="3.91906">
        <ele>1.18631792068</ele>
        <time>2020-11-21T13:24:35.240Z</time>
      </trkpt>
      <trkpt lat="43.56429" lon="3.91906">
        <ele>1.18399131298</ele>
        <time>2020-11-21T13:24:53.459Z</time>
      </trkpt>
      <trkpt lat="43.56429" lon="3.91906">
        <ele>1.18419241905</ele>
        <time>2020-11-21T13:25:11.678Z</time>
      </trkpt>
      <trkpt lat="43.56464" lon="3.91813">
        <ele>1.94807803631</ele>
        <time>2020-11-21T13:25:29.913Z</time>
      </trkpt>
      <trkpt lat="43.56478" lon="3.91792">
        <ele>2.24923706055</ele>
        <time>2020-11-21T13:25:48.152Z</time>
      </trkpt>
      <trkpt lat="43.56492" lon="3.91788">
        <ele>2.13328433037</ele>
        <time>2020-11-21T13:26:06.394Z</time>
      </trkpt>
      <trkpt lat="43.56491" lon="3.91747">
        <ele>2.00493073463</ele>
        <time>2020-11-21T13:26:24.641Z</time>
      </trkpt>
      <trkpt lat="43.56501" lon="3.91723">
        <ele>2.4069879055</ele>
        <time>2020-11-21T13:26:42.893Z</time>
      </trkpt>
      <trkpt lat="43.56495" lon="3.91718">
        <ele>2.394115448</ele>
        <time>2020-11-21T13:27:01.146Z</time>
      </trkpt>
      <trkpt lat="43.56491" lon="3.91708">
        <ele>2.47135019302</ele>
        <time>2020-11-21T13:27:19.401Z</time>
      </trkpt>
      <trkpt lat="43.56517" lon="3.91655">
        <ele>2.98876833916</ele>
        <time>2020-11-21T13:27:37.665Z</time>
      </trkpt>
      <trkpt lat="43.56542" lon="3.91532">
        <ele>4.61766862869</ele>
        <time>2020-11-21T13:27:55.947Z</time>
      </trkpt>
      <trkpt lat="43.56278" lon="3.91663">
        <ele>1.11821007729</ele>
        <time>2020-11-21T13:28:14.286Z</time>
      </trkpt>
      <trkpt lat="43.5627" lon="3.91653">
        <ele>1.02810287476</ele>
        <time>2020-11-21T13:28:32.627Z</time>
      </trkpt>
      <trkpt lat="43.56242" lon="3.91525">
        <ele>1.30658102036</ele>
        <time>2020-11-21T13:28:50.987Z</time>
      </trkpt>
      <trkpt lat="43.56218" lon="3.91457">
        <ele>2.00470471382</ele>
        <time>2020-11-21T13:29:09.358Z</time>
      </trkpt>
      <trkpt lat="43.56201" lon="3.91387">
        <ele>1.56398034096</ele>
        <time>2020-11-21T13:29:27.740Z</time>
      </trkpt>
      <trkpt lat="43.56196" lon="3.91387">
        <ele>1.4995174408</ele>
        <time>2020-11-21T13:29:46.123Z</time>
      </trkpt>
      <trkpt lat="43.56195" lon="3.91379">
        <ele>1.3966383934</ele>
        <time>2020-11-21T13:30:04.507Z</time>
      </trkpt>
      <trkpt lat="43.56193" lon="3.91369">
        <ele>1.24206829071</ele>
        <time>2020-11-21T13:30:22.893Z</time>
      </trkpt>
      <trkpt lat="43.56199" lon="3.91359">
        <ele>1.2034509182</ele>
        <time>2020-11-21T13:30:41.280Z</time>
      </trkpt>
      <trkpt lat="43.55928" lon="3.90667">
        <ele>2.15642237663</ele>
        <time>2020-11-21T13:30:59.782Z</time>
      </trkpt>
      <trkpt lat="43.55919" lon="3.90659">
        <ele>2.3623816967</ele>
        <time>2020-11-21T13:31:18.286Z</time>
      </trkpt>
      <trkpt lat="43.55904" lon="3.90661">
        <ele>2.71644496918</ele>
        <time>2020-11-21T13:31:36.793Z</time>
      </trkpt>
      <trkpt lat="43.55844" lon="3.90692">
        <ele>2.81721282005</ele>
        <time>2020-11-21T13:31:55.313Z</time>
      </trkpt>
      <trkpt lat="43.55799" lon="3.90648">
        <ele>3.28271579742</ele>
        <time>2020-11-21T13:32:13.844Z</time>
      </trkpt>
      <trkpt lat="43.55775" lon="3.90609">
        <ele>3.97291779518</ele>
        <time>2020-11-21T13:32:32.382Z</time>
      </trkpt>
      <trkpt lat="43.55742" lon="3.90553">
        <ele>3.38970732689</ele>
        <time>2020-11-21T13:32:50.931Z</time>
      </trkpt>
      <trkpt lat="43.55667" lon="3.90547">
        <ele>1.58756315708</ele>
        <time>2020-11-21T13:33:09.495Z</time>
      </trkpt>
      <trkpt lat="43.55639" lon="3.90534">
        <ele>0.91819536686</ele>
        <time>2020-11-21T13:33:28.064Z</time>
      </trkpt>
      <trkpt lat="43.55597" lon="3.90606">
        <ele>1</ele>
        <time>2020-11-21T13:33:46.647Z</time>
      </trkpt>
      <trkpt lat="43.55567" lon="3.90602">
        <ele>1</ele>
        <time>2020-11-21T13:34:05.236Z</time>
      </trkpt>
      <trkpt lat="43.55517" lon="3.90579">
        <ele>0.99163746834</ele>
        <time>2020-11-21T13:34:23.836Z</time>
      </trkpt>
      <trkpt lat="43.5549" lon="3.90545">
        <ele>0.66982603073</ele>
        <time>2020-11-21T13:34:42.443Z</time>
      </trkpt>
      <trkpt lat="43.55482" lon="3.90522">
        <ele>0.58243328333</ele>
        <time>2020-11-21T13:35:01.054Z</time>
      </trkpt>
      <trkpt lat="43.55468" lon="3.90391">
        <ele>1.37304461002</ele>
        <time>2020-11-21T13:35:19.684Z</time>
      </trkpt>
      <trkpt lat="43.55298" lon="3.90431">
        <ele>0.21949158609</ele>
        <time>2020-11-21T13:35:38.348Z</time>
      </trkpt>
      <trkpt lat="43.55211" lon="3.90337">
        <ele>1.56550908089</ele>
        <time>2020-11-21T13:35:57.034Z</time>
      </trkpt>
      <trkpt lat="43.55191" lon="3.90327">
        <ele>1.43678450584</ele>
        <time>2020-11-21T13:36:15.725Z</time>
      </trkpt>
      <trkpt lat="43.55183" lon="3.90312">
        <ele>1.51539599895</ele>
        <time>2020-11-21T13:36:34.418Z</time>
      </trkpt>
      <trkpt lat="43.55178" lon="3.903">
        <ele>1.52806723118</ele>
        <time>2020-11-21T13:36:53.113Z</time>
      </trkpt>
      <trkpt lat="43.55169" lon="3.90281">
        <ele>1.55381214619</ele>
        <time>2020-11-21T13:37:11.812Z</time>
      </trkpt>
      <trkpt lat="43.55173" lon="3.90279">
        <ele>1.6569930315</ele>
        <time>2020-11-21T13:37:30.511Z</time>
      </trkpt>
      <trkpt lat="43.55203" lon="3.90258">
        <ele>1.81778848171</ele>
        <time>2020-11-21T13:37:49.217Z</time>
      </trkpt>
      <trkpt lat="43.55209" lon="3.90253">
        <ele>1.75342619419</ele>
        <time>2020-11-21T13:38:07.925Z</time>
      </trkpt>
      <trkpt lat="43.55203" lon="3.90244">
        <ele>1.65044653416</ele>
        <time>2020-11-21T13:38:26.634Z</time>
      </trkpt>
      <trkpt lat="43.55207" lon="3.90232">
        <ele>1.50884950161</ele>
        <time>2020-11-21T13:38:45.345Z</time>
      </trkpt>
      <trkpt lat="43.55197" lon="3.90214">
        <ele>1.29001772404</ele>
        <time>2020-11-21T13:39:04.060Z</time>
      </trkpt>
      <trkpt lat="43.55199" lon="3.90215">
        <ele>1.30289018154</ele>
        <time>2020-11-21T13:39:22.775Z</time>
      </trkpt>
      <trkpt lat="43.55203" lon="3.9018">
        <ele>1</ele>
        <time>2020-11-21T13:39:41.495Z</time>
      </trkpt>
      <trkpt lat="43.55192" lon="3.9">
        <ele>1.19319105148</ele>
        <time>2020-11-21T13:40:00.241Z</time>
      </trkpt>
      <trkpt lat="43.55192" lon="3.9">
        <ele>1.19309055805</ele>
        <time>2020-11-21T13:40:18.987Z</time>
      </trkpt>
      <trkpt lat="43.55191" lon="3.89978">
        <ele>1.46373772621</ele>
        <time>2020-11-21T13:40:37.737Z</time>
      </trkpt>
      <trkpt lat="43.55191" lon="3.89978">
        <ele>1.46693193913</ele>
        <time>2020-11-21T13:40:56.487Z</time>
      </trkpt>
      <trkpt lat="43.55191" lon="3.89978">
        <ele>1.46723365784</ele>
        <time>2020-11-21T13:41:15.237Z</time>
      </trkpt>
      <trkpt lat="43.55181" lon="3.89805">
        <ele>0.3856112659</ele>
        <time>2020-11-21T13:41:34.012Z</time>
      </trkpt>
      <trkpt lat="43.5517" lon="3.89687">
        <ele>0.83383357525</ele>
        <time>2020-11-21T13:41:52.804Z</time>
      </trkpt>
      <trkpt lat="43.55177" lon="3.89675">
        <ele>1.00696527958</ele>
        <time>2020-11-21T13:42:11.598Z</time>
      </trkpt>
      <trkpt lat="43.55525" lon="3.89727">
        <ele>2.45946097374</ele>
        <time>2020-11-21T13:42:30.463Z</time>
      </trkpt>
      <trkpt lat="43.55557" lon="3.89725">
        <ele>2.06416320801</ele>
        <time>2020-11-21T13:42:49.334Z</time>
      </trkpt>
      <trkpt lat="43.5564" lon="3.89693">
        <ele>1.90993714333</ele>
        <time>2020-11-21T13:43:08.222Z</time>
      </trkpt>
      <trkpt lat="43.55691" lon="3.89657">
        <ele>2.45526075363</ele>
        <time>2020-11-21T13:43:27.121Z</time>
      </trkpt>
      <trkpt lat="43.55708" lon="3.89673">
        <ele>2.23642897606</ele>
        <time>2020-11-21T13:43:46.025Z</time>
      </trkpt>
      <trkpt lat="43.55735" lon="3.89682">
        <ele>1.69578576088</ele>
        <time>2020-11-21T13:44:04.934Z</time>
      </trkpt>
      <trkpt lat="43.55772" lon="3.89675">
        <ele>0.75988894701</ele>
        <time>2020-11-21T13:44:23.851Z</time>
      </trkpt>
      <trkpt lat="43.56198" lon="3.8957">
        <ele>3.13308596611</ele>
        <time>2020-11-21T13:44:42.854Z</time>
      </trkpt>
      <trkpt lat="43.56288" lon="3.89599">
        <ele>3.98923277855</ele>
        <time>2020-11-21T13:45:01.876Z</time>
      </trkpt>
      <trkpt lat="43.56289" lon="3.89587">
        <ele>3.53879737854</ele>
        <time>2020-11-21T13:45:20.900Z</time>
      </trkpt>
      <trkpt lat="43.56338" lon="3.89602">
        <ele>4.65870094299</ele>
        <time>2020-11-21T13:45:39.934Z</time>
      </trkpt>
      <trkpt lat="43.56477" lon="3.89646">
        <ele>3</ele>
        <time>2020-11-21T13:45:58.996Z</time>
      </trkpt>
      <trkpt lat="43.56557" lon="3.89672">
        <ele>3</ele>
        <time>2020-11-21T13:46:18.074Z</time>
      </trkpt>
      <trkpt lat="43.56557" lon="3.89672">
        <ele>3</ele>
        <time>2020-11-21T13:46:37.152Z</time>
      </trkpt>
      <trkpt lat="43.56607" lon="3.89691">
        <ele>2.95461964607</ele>
        <time>2020-11-21T13:46:56.241Z</time>
      </trkpt>
      <trkpt lat="43.56925" lon="3.89763">
        <ele>4.74142599106</ele>
        <time>2020-11-21T13:47:15.394Z</time>
      </trkpt>
      <trkpt lat="43.57053" lon="3.89813">
        <ele>6.37427568436</ele>
        <time>2020-11-21T13:47:34.574Z</time>
      </trkpt>
      <trkpt lat="43.57094" lon="3.89723">
        <ele>6.39443206787</ele>
        <time>2020-11-21T13:47:53.769Z</time>
      </trkpt>
      <trkpt lat="43.57094" lon="3.89723">
        <ele>6.39443206787</ele>
        <time>2020-11-21T13:48:12.964Z</time>
      </trkpt>
      <trkpt lat="43.57092" lon="3.89717">
        <ele>6.33006954193</ele>
        <time>2020-11-21T13:48:32.160Z</time>
      </trkpt>
      <trkpt lat="43.57078" lon="3.89712">
        <ele>6.26570749283</ele>
        <time>2020-11-21T13:48:51.359Z</time>
      </trkpt>
      <trkpt lat="43.57068" lon="3.89717">
        <ele>6.33006954193</ele>
        <time>2020-11-21T13:49:10.560Z</time>
      </trkpt>
      <trkpt lat="43.57081" lon="3.89735">
        <ele>6.536028862</ele>
        <time>2020-11-21T13:49:29.765Z</time>
      </trkpt>
      <trkpt lat="43.57108" lon="3.89741">
        <ele>6.450278759</ele>
        <time>2020-11-21T13:49:48.975Z</time>
      </trkpt>
      <trkpt lat="43.57184" lon="3.89712">
        <ele>5.73429250717</ele>
        <time>2020-11-21T13:50:08.201Z</time>
      </trkpt>
      <trkpt lat="43.57208" lon="3.89695">
        <ele>5.8686709404</ele>
        <time>2020-11-21T13:50:27.433Z</time>
      </trkpt>
      <trkpt lat="43.57208" lon="3.89695">
        <ele>5.87245845795</ele>
        <time>2020-11-21T13:50:46.665Z</time>
      </trkpt>
      <trkpt lat="43.57208" lon="3.89695">
        <ele>5.87205600739</ele>
        <time>2020-11-21T13:51:05.897Z</time>
      </trkpt>
      <trkpt lat="43.57213" lon="3.89692">
        <ele>5.95773839951</ele>
        <time>2020-11-21T13:51:25.130Z</time>
      </trkpt>
      <trkpt lat="43.57213" lon="3.89692">
        <ele>5.95773839951</ele>
        <time>2020-11-21T13:51:44.363Z</time>
      </trkpt>
      <trkpt lat="43.57329" lon="3.89688">
        <ele>6.75070524216</ele>
        <time>2020-11-21T13:52:03.619Z</time>
      </trkpt>
      <trkpt lat="43.57415" lon="3.89709">
        <ele>7</ele>
        <time>2020-11-21T13:52:22.892Z</time>
      </trkpt>
      <trkpt lat="43.57524" lon="3.8982">
        <ele>4.96501731873</ele>
        <time>2020-11-21T13:52:42.193Z</time>
      </trkpt>
      <trkpt lat="43.57524" lon="3.8982">
        <ele>4.96471595764</ele>
        <time>2020-11-21T13:53:01.494Z</time>
      </trkpt>
      <trkpt lat="43.57598" lon="3.89925">
        <ele>5.89261722565</ele>
        <time>2020-11-21T13:53:20.816Z</time>
      </trkpt>
      <trkpt lat="43.57662" lon="3.89975">
        <ele>6.53469800949</ele>
        <time>2020-11-21T13:53:40.152Z</time>
      </trkpt>
      <trkpt lat="43.57679" lon="3.9">
        <ele>7.216837883</ele>
        <time>2020-11-21T13:53:59.493Z</time>
      </trkpt>
      <trkpt lat="43.57679" lon="3.9">
        <ele>7.21693849564</ele>
        <time>2020-11-21T13:54:18.834Z</time>
      </trkpt>
      <trkpt lat="43.57713" lon="3.90052">
        <ele>8</ele>
        <time>2020-11-21T13:54:38.186Z</time>
      </trkpt>
      <trkpt lat="43.57732" lon="3.90099">
        <ele>8</ele>
        <time>2020-11-21T13:54:57.545Z</time>
      </trkpt>
      <trkpt lat="43.57744" lon="3.90096">
        <ele>8</ele>
        <time>2020-11-21T13:55:16.907Z</time>
      </trkpt>
      <trkpt lat="43.57779" lon="3.90099">
        <ele>8.07888698578</ele>
        <time>2020-11-21T13:55:36.276Z</time>
      </trkpt>
      <trkpt lat="43.57834" lon="3.90141">
        <ele>8.3482208252</ele>
        <time>2020-11-21T13:55:55.657Z</time>
      </trkpt>
      <trkpt lat="43.57899" lon="3.90148">
        <ele>9.84686279297</ele>
        <time>2020-11-21T13:56:15.051Z</time>
      </trkpt>
      <trkpt lat="43.57933" lon="3.90169">
        <ele>9.53772258759</ele>
        <time>2020-11-21T13:56:34.453Z</time>
      </trkpt>
      <trkpt lat="43.57971" lon="3.90181">
        <ele>8.48909759521</ele>
        <time>2020-11-21T13:56:53.863Z</time>
      </trkpt>
      <trkpt lat="43.58094" lon="3.90187">
        <ele>7.03179359436</ele>
        <time>2020-11-21T13:57:13.297Z</time>
      </trkpt>
      <trkpt lat="43.58187" lon="3.90209">
        <ele>8.96881484985</ele>
        <time>2020-11-21T13:57:32.750Z</time>
      </trkpt>
      <trkpt lat="43.58241" lon="3.9023">
        <ele>8.32519245148</ele>
        <time>2020-11-21T13:57:52.214Z</time>
      </trkpt>
      <trkpt lat="43.58275" lon="3.90254">
        <ele>8</ele>
        <time>2020-11-21T13:58:11.686Z</time>
      </trkpt>
      <trkpt lat="43.58358" lon="3.90283">
        <ele>8.03584861755</ele>
        <time>2020-11-21T13:58:31.175Z</time>
      </trkpt>
      <trkpt lat="43.5852" lon="3.90183">
        <ele>5.93846416473</ele>
        <time>2020-11-21T13:58:50.700Z</time>
      </trkpt>
      <trkpt lat="43.58579" lon="3.90144">
        <ele>6.1830406189</ele>
        <time>2020-11-21T13:59:10.238Z</time>
      </trkpt>
      <trkpt lat="43.58612" lon="3.90126">
        <ele>6.49183320999</ele>
        <time>2020-11-21T13:59:29.783Z</time>
      </trkpt>
      <trkpt lat="43.58677" lon="3.90095">
        <ele>7.80205202103</ele>
        <time>2020-11-21T13:59:49.342Z</time>
      </trkpt>
      <trkpt lat="43.58713" lon="3.90087">
        <ele>8.33868980408</ele>
        <time>2020-11-21T14:00:08.908Z</time>
      </trkpt>
      <trkpt lat="43.58737" lon="3.90091">
        <ele>8.62188339233</ele>
        <time>2020-11-21T14:00:28.479Z</time>
      </trkpt>
      <trkpt lat="43.58737" lon="3.90091">
        <ele>8.62198448181</ele>
        <time>2020-11-21T14:00:48.050Z</time>
      </trkpt>
      <trkpt lat="43.58782" lon="3.90108">
        <ele>9.16252708435</ele>
        <time>2020-11-21T14:01:07.630Z</time>
      </trkpt>
      <trkpt lat="43.58796" lon="3.90103">
        <ele>9.28115081787</ele>
        <time>2020-11-21T14:01:27.213Z</time>
      </trkpt>
      <trkpt lat="43.58829" lon="3.90063">
        <ele>9.4578294754</ele>
        <time>2020-11-21T14:01:46.805Z</time>
      </trkpt>
      <trkpt lat="43.58849" lon="3.90055">
        <ele>9.94718456268</ele>
        <time>2020-11-21T14:02:06.401Z</time>
      </trkpt>
      <trkpt lat="43.58876" lon="3.90063">
        <ele>9.11409091949</ele>
        <time>2020-11-21T14:02:26.002Z</time>
      </trkpt>
      <trkpt lat="43.59032" lon="3.90059">
        <ele>8.57648849487</ele>
        <time>2020-11-21T14:02:45.635Z</time>
      </trkpt>
      <trkpt lat="43.59041" lon="3.90049">
        <ele>8.69234085083</ele>
        <time>2020-11-21T14:03:05.270Z</time>
      </trkpt>
      <trkpt lat="43.59043" lon="3.90037">
        <ele>8.97128200531</ele>
        <time>2020-11-21T14:03:24.907Z</time>
      </trkpt>
      <trkpt lat="43.5903" lon="3.9">
        <ele>9.98958683014</ele>
        <time>2020-11-21T14:03:44.550Z</time>
      </trkpt>
      <trkpt lat="43.59012" lon="3.89961">
        <ele>11.17375183105</ele>
        <time>2020-11-21T14:04:04.199Z</time>
      </trkpt>
      <trkpt lat="43.59009" lon="3.89937">
        <ele>11.79825878143</ele>
        <time>2020-11-21T14:04:23.852Z</time>
      </trkpt>
      <trkpt lat="43.59018" lon="3.89915">
        <ele>11.68200397491</ele>
        <time>2020-11-21T14:04:43.509Z</time>
      </trkpt>
      <trkpt lat="43.59037" lon="3.89901">
        <ele>11.75743198395</ele>
        <time>2020-11-21T14:05:03.170Z</time>
      </trkpt>
      <trkpt lat="43.59135" lon="3.89868">
        <ele>11.07173156738</ele>
        <time>2020-11-21T14:05:22.851Z</time>
      </trkpt>
      <trkpt lat="43.59142" lon="3.89856">
        <ele>10.51821613312</ele>
        <time>2020-11-21T14:05:42.534Z</time>
      </trkpt>
      <trkpt lat="43.59379" lon="3.89751">
        <ele>14.26834106445</ele>
        <time>2020-11-21T14:06:02.267Z</time>
      </trkpt>
      <trkpt lat="43.59377" lon="3.89744">
        <ele>14.26834106445</ele>
        <time>2020-11-21T14:06:22.001Z</time>
      </trkpt>
      <trkpt lat="43.59377" lon="3.89744">
        <ele>14.26864337921</ele>
        <time>2020-11-21T14:06:41.735Z</time>
      </trkpt>
      <trkpt lat="43.59376" lon="3.89742">
        <ele>14.25577068329</ele>
        <time>2020-11-21T14:07:01.470Z</time>
      </trkpt>
      <trkpt lat="43.59395" lon="3.89734">
        <ele>15.04883003235</ele>
        <time>2020-11-21T14:07:21.209Z</time>
      </trkpt>
      <trkpt lat="43.59395" lon="3.89734">
        <ele>15.04872894287</ele>
        <time>2020-11-21T14:07:40.948Z</time>
      </trkpt>
      <trkpt lat="43.59517" lon="3.89677">
        <ele>14.43757152557</ele>
        <time>2020-11-21T14:08:00.712Z</time>
      </trkpt>
      <trkpt lat="43.59542" lon="3.89672">
        <ele>14.34252071381</ele>
        <time>2020-11-21T14:08:20.481Z</time>
      </trkpt>
      <trkpt lat="43.59542" lon="3.89672">
        <ele>14.34262084961</ele>
        <time>2020-11-21T14:08:40.250Z</time>
      </trkpt>
      <trkpt lat="43.59546" lon="3.89671">
        <ele>14.34262084961</ele>
        <time>2020-11-21T14:09:00.020Z</time>
      </trkpt>
      <trkpt lat="43.59547" lon="3.8967">
        <ele>14.36836624146</ele>
        <time>2020-11-21T14:09:19.790Z</time>
      </trkpt>
      <trkpt lat="43.59554" lon="3.89681">
        <ele>13.89198493958</ele>
        <time>2020-11-21T14:09:39.563Z</time>
      </trkpt>
      <trkpt lat="43.59556" lon="3.89684">
        <ele>13.75048828125</ele>
        <time>2020-11-21T14:09:59.336Z</time>
      </trkpt>
      <trkpt lat="43.59594" lon="3.89739">
        <ele>13.68054103851</ele>
        <time>2020-11-21T14:10:19.120Z</time>
      </trkpt>
      <trkpt lat="43.59653" lon="3.89854">
        <ele>14.43436336517</ele>
        <time>2020-11-21T14:10:38.925Z</time>
      </trkpt>
      <trkpt lat="43.59656" lon="3.89861">
        <ele>14.22074317932</ele>
        <time>2020-11-21T14:10:58.731Z</time>
      </trkpt>
      <trkpt lat="43.5966" lon="3.89858">
        <ele>14.13023376465</ele>
        <time>2020-11-21T14:11:18.538Z</time>
      </trkpt>
      <trkpt lat="43.59667" lon="3.89854">
        <ele>13.76499557495</ele>
        <time>2020-11-21T14:11:38.346Z</time>
      </trkpt>
      <trkpt lat="43.59674" lon="3.89876">
        <ele>12.80477237701</ele>
        <time>2020-11-21T14:11:58.158Z</time>
      </trkpt>
      <trkpt lat="43.59697" lon="3.89869">
        <ele>11.99380779266</ele>
        <time>2020-11-21T14:12:17.974Z</time>
      </trkpt>
      <trkpt lat="43.59697" lon="3.89869">
        <ele>11.9934053421</ele>
        <time>2020-11-21T14:12:37.790Z</time>
      </trkpt>
      <trkpt lat="43.5972" lon="3.89867">
        <ele>11.24485206604</ele>
        <time>2020-11-21T14:12:57.611Z</time>
      </trkpt>
      <trkpt lat="43.59783" lon="3.89822">
        <ele>10.91884613037</ele>
        <time>2020-11-21T14:13:17.446Z</time>
      </trkpt>
      <trkpt lat="43.59844" lon="3.89788">
        <ele>11.37513256073</ele>
        <time>2020-11-21T14:13:37.294Z</time>
      </trkpt>
      <trkpt lat="43.59844" lon="3.89788">
        <ele>11.37503147125</ele>
        <time>2020-11-21T14:13:57.142Z</time>
      </trkpt>
      <trkpt lat="43.59857" lon="3.89783">
        <ele>11.78175926208</ele>
        <time>2020-11-21T14:14:16.993Z</time>
      </trkpt>
      <trkpt lat="43.59893" lon="3.89766">
        <ele>11.59227657318</ele>
        <time>2020-11-21T14:14:36.852Z</time>
      </trkpt>
      <trkpt lat="43.59899" lon="3.89763">
        <ele>11.56643104553</ele>
        <time>2020-11-21T14:14:56.712Z</time>
      </trkpt>
      <trkpt lat="43.59899" lon="3.89763">
        <ele>11.56653118134</ele>
        <time>2020-11-21T14:15:16.572Z</time>
      </trkpt>
      <trkpt lat="43.59917" lon="3.89773">
        <ele>11.21897506714</ele>
        <time>2020-11-21T14:15:36.436Z</time>
      </trkpt>
      <trkpt lat="43.59962" lon="3.89735">
        <ele>11.14174079895</ele>
        <time>2020-11-21T14:15:56.311Z</time>
      </trkpt>
      <trkpt lat="43.60043" lon="3.89625">
        <ele>14.2533864975</ele>
        <time>2020-11-21T14:16:16.208Z</time>
      </trkpt>
      <trkpt lat="43.60105" lon="3.89566">
        <ele>15.03842830658</ele>
        <time>2020-11-21T14:16:36.120Z</time>
      </trkpt>
      <trkpt lat="43.60141" lon="3.89549">
        <ele>17.1398601532</ele>
        <time>2020-11-21T14:16:56.040Z</time>
      </trkpt>
      <trkpt lat="43.60176" lon="3.89553">
        <ele>19.75367164612</ele>
        <time>2020-11-21T14:17:15.967Z</time>
      </trkpt>
      <trkpt lat="43.60176" lon="3.89553">
        <ele>19.75296783447</ele>
        <time>2020-11-21T14:17:35.894Z</time>
      </trkpt>
      <trkpt lat="43.60302" lon="3.89594">
        <ele>17.60105133057</ele>
        <time>2020-11-21T14:17:55.847Z</time>
      </trkpt>
      <trkpt lat="43.60353" lon="3.89618">
        <ele>16.97922134399</ele>
        <time>2020-11-21T14:18:15.811Z</time>
      </trkpt>
      <trkpt lat="43.60353" lon="3.89618">
        <ele>16.97932243347</ele>
        <time>2020-11-21T14:18:35.775Z</time>
      </trkpt>
      <trkpt lat="43.60416" lon="3.89658">
        <ele>16.95869827271</ele>
        <time>2020-11-21T14:18:55.753Z</time>
      </trkpt>
      <trkpt lat="43.60465" lon="3.8968">
        <ele>17.68057060242</ele>
        <time>2020-11-21T14:19:15.741Z</time>
      </trkpt>
      <trkpt lat="43.6059" lon="3.89694">
        <ele>18.14738082886</ele>
        <time>2020-11-21T14:19:35.754Z</time>
      </trkpt>
      <trkpt lat="43.6063" lon="3.89693">
        <ele>17.17870330811</ele>
        <time>2020-11-21T14:19:55.775Z</time>
      </trkpt>
      <trkpt lat="43.60639" lon="3.89685">
        <ele>16.66574668884</ele>
        <time>2020-11-21T14:20:15.798Z</time>
      </trkpt>
      <trkpt lat="43.60679" lon="3.89669">
        <ele>15.74757289886</ele>
        <time>2020-11-21T14:20:35.829Z</time>
      </trkpt>
      <trkpt lat="43.6068" lon="3.89662">
        <ele>16.01789474487</ele>
        <time>2020-11-21T14:20:55.861Z</time>
      </trkpt>
      <trkpt lat="43.6068" lon="3.89662">
        <ele>16.01789474487</ele>
        <time>2020-11-21T14:21:15.893Z</time>
      </trkpt>
      <trkpt lat="43.6075" lon="3.89669">
        <ele>14.08206272125</ele>
        <time>2020-11-21T14:21:35.940Z</time>
      </trkpt>
      <trkpt lat="43.6075" lon="3.89669">
        <ele>14.08256530762</ele>
        <time>2020-11-21T14:21:55.987Z</time>
      </trkpt>
      <trkpt lat="43.60764" lon="3.89671">
        <ele>13.24535274506</ele>
        <time>2020-11-21T14:22:16.036Z</time>
      </trkpt>
      <trkpt lat="43.60764" lon="3.89671">
        <ele>13.24585533142</ele>
        <time>2020-11-21T14:22:36.085Z</time>
      </trkpt>
      <trkpt lat="43.60835" lon="3.89681">
        <ele>13</ele>
        <time>2020-11-21T14:22:56.149Z</time>
      </trkpt>
      <trkpt lat="43.60834" lon="3.89688">
        <ele>13</ele>
        <time>2020-11-21T14:23:16.214Z</time>
      </trkpt>
      <trkpt lat="43.60834" lon="3.89698">
        <ele>13</ele>
        <time>2020-11-21T14:23:36.280Z</time>
      </trkpt>
      <trkpt lat="43.60833" lon="3.89702">
        <ele>13</ele>
        <time>2020-11-21T14:23:56.347Z</time>
      </trkpt>
      <trkpt lat="43.6083" lon="3.89765">
        <ele>13.16040897369</ele>
        <time>2020-11-21T14:24:16.423Z</time>
      </trkpt>
      <trkpt lat="43.60829" lon="3.89774">
        <ele>13.32606315613</ele>
        <time>2020-11-21T14:24:36.500Z</time>
      </trkpt>
      <trkpt lat="43.60898" lon="3.89753">
        <ele>13</ele>
        <time>2020-11-21T14:24:56.592Z</time>
      </trkpt>
      <trkpt lat="43.60934" lon="3.8975">
        <ele>13.80530166626</ele>
        <time>2020-11-21T14:25:16.691Z</time>
      </trkpt>
      <trkpt lat="43.60965" lon="3.89775">
        <ele>13.45870780945</ele>
        <time>2020-11-21T14:25:36.797Z</time>
      </trkpt>
      <trkpt lat="43.60976" lon="3.8986">
        <ele>16.97340583801</ele>
        <time>2020-11-21T14:25:56.916Z</time>
      </trkpt>
      <trkpt lat="43.60988" lon="3.89868">
        <ele>17.25680160522</ele>
        <time>2020-11-21T14:26:17.037Z</time>
      </trkpt>
      <trkpt lat="43.60998" lon="3.89869">
        <ele>17.51424980164</ele>
        <time>2020-11-21T14:26:37.160Z</time>
      </trkpt>
      <trkpt lat="43.61001" lon="3.89877">
        <ele>17.59148597717</ele>
        <time>2020-11-21T14:26:57.285Z</time>
      </trkpt>
      <trkpt lat="43.61003" lon="3.89889">
        <ele>17.61722946167</ele>
        <time>2020-11-21T14:27:17.411Z</time>
      </trkpt>
      <trkpt lat="43.61006" lon="3.89897">
        <ele>17.69426345825</ele>
        <time>2020-11-21T14:27:37.539Z</time>
      </trkpt>
      <trkpt lat="43.61019" lon="3.89894">
        <ele>17.99659538269</ele>
        <time>2020-11-21T14:27:57.669Z</time>
      </trkpt>
      <trkpt lat="43.61022" lon="3.89899">
        <ele>17.91956329346</ele>
        <time>2020-11-21T14:28:17.800Z</time>
      </trkpt>
      <trkpt lat="43.61048" lon="3.89877">
        <ele>17.30168533325</ele>
        <time>2020-11-21T14:28:37.937Z</time>
      </trkpt>
      <trkpt lat="43.61092" lon="3.89867">
        <ele>16.24594116211</ele>
        <time>2020-11-21T14:28:58.083Z</time>
      </trkpt>
      <trkpt lat="43.61111" lon="3.8986">
        <ele>16.06662750244</ele>
        <time>2020-11-21T14:29:18.233Z</time>
      </trkpt>
      <trkpt lat="43.61209" lon="3.89835">
        <ele>17.78804779053</ele>
        <time>2020-11-21T14:29:38.403Z</time>
      </trkpt>
      <trkpt lat="43.61209" lon="3.89835">
        <ele>17.78794670105</ele>
        <time>2020-11-21T14:29:58.573Z</time>
      </trkpt>
      <trkpt lat="43.61308" lon="3.89825">
        <ele>19.81448173523</ele>
        <time>2020-11-21T14:30:18.763Z</time>
      </trkpt>
      <trkpt lat="43.61404" lon="3.89822">
        <ele>20.57869720459</ele>
        <time>2020-11-21T14:30:38.972Z</time>
      </trkpt>
      <trkpt lat="43.61415" lon="3.89822">
        <ele>20.57869720459</ele>
        <time>2020-11-21T14:30:59.183Z</time>
      </trkpt>
      <trkpt lat="43.61455" lon="3.89812">
        <ele>20.22205352783</ele>
        <time>2020-11-21T14:31:19.402Z</time>
      </trkpt>
      <trkpt lat="43.6149" lon="3.89803">
        <ele>20</ele>
        <time>2020-11-21T14:31:39.628Z</time>
      </trkpt>
      <trkpt lat="43.6149" lon="3.89803">
        <ele>20</ele>
        <time>2020-11-21T14:31:59.854Z</time>
      </trkpt>
      <trkpt lat="43.61521" lon="3.89794">
        <ele>20.05202484131</ele>
        <time>2020-11-21T14:32:20.087Z</time>
      </trkpt>
      <trkpt lat="43.61527" lon="3.8979">
        <ele>20.20649337769</ele>
        <time>2020-11-21T14:32:40.321Z</time>
      </trkpt>
      <trkpt lat="43.61632" lon="3.89759">
        <ele>20.6352519989</ele>
        <time>2020-11-21T14:33:00.577Z</time>
      </trkpt>
      <trkpt lat="43.61632" lon="3.89759">
        <ele>20.63535308838</ele>
        <time>2020-11-21T14:33:20.833Z</time>
      </trkpt>
      <trkpt lat="43.61655" lon="3.89754">
        <ele>20.36493110657</ele>
        <time>2020-11-21T14:33:41.093Z</time>
      </trkpt>
      <trkpt lat="43.6171" lon="3.89746">
        <ele>20.64474868774</ele>
        <time>2020-11-21T14:34:01.364Z</time>
      </trkpt>
      <trkpt lat="43.61757" lon="3.89743">
        <ele>20.06514930725</ele>
        <time>2020-11-21T14:34:21.645Z</time>
      </trkpt>
      <trkpt lat="43.61775" lon="3.89734">
        <ele>19.59994125366</ele>
        <time>2020-11-21T14:34:41.930Z</time>
      </trkpt>
      <trkpt lat="43.61775" lon="3.89734">
        <ele>19.59984016418</ele>
        <time>2020-11-21T14:35:02.215Z</time>
      </trkpt>
      <trkpt lat="43.61796" lon="3.89734">
        <ele>19.85729026794</ele>
        <time>2020-11-21T14:35:22.504Z</time>
      </trkpt>
      <trkpt lat="43.61816" lon="3.8974">
        <ele>20.16633033752</ele>
        <time>2020-11-21T14:35:42.797Z</time>
      </trkpt>
      <trkpt lat="43.61828" lon="3.89741">
        <ele>20.32069778442</ele>
        <time>2020-11-21T14:36:03.092Z</time>
      </trkpt>
      <trkpt lat="43.61828" lon="3.89727">
        <ele>20.15335655212</ele>
        <time>2020-11-21T14:36:23.389Z</time>
      </trkpt>
      <trkpt lat="43.61829" lon="3.89717">
        <ele>20.05047798157</ele>
        <time>2020-11-21T14:36:43.688Z</time>
      </trkpt>
      <trkpt lat="43.6183" lon="3.89707">
        <ele>19.93462562561</ele>
        <time>2020-11-21T14:37:03.988Z</time>
      </trkpt>
      <trkpt lat="43.6183" lon="3.89699">
        <ele>19.84441757202</ele>
        <time>2020-11-21T14:37:24.289Z</time>
      </trkpt>
      <trkpt lat="43.61837" lon="3.89604">
        <ele>21.21112442017</ele>
        <time>2020-11-21T14:37:44.604Z</time>
      </trkpt>
      <trkpt lat="43.61844" lon="3.8953">
        <ele>22.02198791504</ele>
        <time>2020-11-21T14:38:04.930Z</time>
      </trkpt>
      <trkpt lat="43.61846" lon="3.89507">
        <ele>22.04566574097</ele>
        <time>2020-11-21T14:38:25.259Z</time>
      </trkpt>
      <trkpt lat="43.6185" lon="3.89463">
        <ele>22.67641639709</ele>
        <time>2020-11-21T14:38:45.595Z</time>
      </trkpt>
      <trkpt lat="43.61852" lon="3.89442">
        <ele>22.97815132141</ele>
        <time>2020-11-21T14:39:05.934Z</time>
      </trkpt>
      <trkpt lat="43.61859" lon="3.89386">
        <ele>23.72835540771</ele>
        <time>2020-11-21T14:39:26.281Z</time>
      </trkpt>
      <trkpt lat="43.61862" lon="3.89361">
        <ele>24</ele>
        <time>2020-11-21T14:39:46.632Z</time>
      </trkpt>
      <trkpt lat="43.61862" lon="3.89361">
        <ele>24</ele>
        <time>2020-11-21T14:40:06.983Z</time>
      </trkpt>
      <trkpt lat="43.61924" lon="3.89382">
        <ele>24</ele>
        <time>2020-11-21T14:40:27.347Z</time>
      </trkpt>
      <trkpt lat="43.61934" lon="3.89385">
        <ele>24</ele>
        <time>2020-11-21T14:40:47.713Z</time>
      </trkpt>
      <trkpt lat="43.61951" lon="3.89392">
        <ele>23.81213188171</ele>
        <time>2020-11-21T14:41:08.082Z</time>
      </trkpt>
      <trkpt lat="43.61969" lon="3.894">
        <ele>23.59329986572</ele>
        <time>2020-11-21T14:41:28.455Z</time>
      </trkpt>
      <trkpt lat="43.61978" lon="3.89404">
        <ele>23.49032020569</ele>
        <time>2020-11-21T14:41:48.830Z</time>
      </trkpt>
      <trkpt lat="43.61984" lon="3.8941">
        <ele>23.4130859375</ele>
        <time>2020-11-21T14:42:09.206Z</time>
      </trkpt>
      <trkpt lat="43.61984" lon="3.8941">
        <ele>23.41318702698</ele>
        <time>2020-11-21T14:42:29.582Z</time>
      </trkpt>
      <trkpt lat="43.62019" lon="3.89435">
        <ele>23.05538749695</ele>
        <time>2020-11-21T14:42:49.966Z</time>
      </trkpt>
      <trkpt lat="43.62096" lon="3.89467">
        <ele>22.66921234131</ele>
        <time>2020-11-21T14:43:10.366Z</time>
      </trkpt>
      <trkpt lat="43.62096" lon="3.89467">
        <ele>22.66921234131</ele>
        <time>2020-11-21T14:43:30.766Z</time>
      </trkpt>
      <trkpt lat="43.62105" lon="3.89471">
        <ele>22.58909416199</ele>
        <time>2020-11-21T14:43:51.168Z</time>
      </trkpt>
      <trkpt lat="43.62133" lon="3.89466">
        <ele>22.30590057373</ele>
        <time>2020-11-21T14:44:11.576Z</time>
      </trkpt>
      <trkpt lat="43.62147" lon="3.89474">
        <ele>22.04845046997</ele>
        <time>2020-11-21T14:44:31.987Z</time>
      </trkpt>
      <trkpt lat="43.62148" lon="3.89473">
        <ele>22.04855155945</ele>
        <time>2020-11-21T14:44:52.398Z</time>
      </trkpt>
      <trkpt lat="43.62183" lon="3.89469">
        <ele>21.68812179565</ele>
        <time>2020-11-21T14:45:12.816Z</time>
      </trkpt>
      <trkpt lat="43.62193" lon="3.8947">
        <ele>22.03164100647</ele>
        <time>2020-11-21T14:45:33.236Z</time>
      </trkpt>
      <trkpt lat="43.62259" lon="3.89473">
        <ele>25.62101745605</ele>
        <time>2020-11-21T14:45:53.669Z</time>
      </trkpt>
      <trkpt lat="43.62298" lon="3.89476">
        <ele>26.47803688049</ele>
        <time>2020-11-21T14:46:14.110Z</time>
      </trkpt>
      <trkpt lat="43.62298" lon="3.89476">
        <ele>26.47813796997</ele>
        <time>2020-11-21T14:46:34.551Z</time>
      </trkpt>
      <trkpt lat="43.62358" lon="3.89481">
        <ele>27.0701713562</ele>
        <time>2020-11-21T14:46:55.004Z</time>
      </trkpt>
      <trkpt lat="43.62358" lon="3.89481">
        <ele>27.07027053833</ele>
        <time>2020-11-21T14:47:15.457Z</time>
      </trkpt>
      <trkpt lat="43.62434" lon="3.89475">
        <ele>27.01952552795</ele>
        <time>2020-11-21T14:47:35.925Z</time>
      </trkpt>
      <trkpt lat="43.62454" lon="3.89472">
        <ele>27</ele>
        <time>2020-11-21T14:47:56.398Z</time>
      </trkpt>
      <trkpt lat="43.62466" lon="3.89462">
        <ele>27</ele>
        <time>2020-11-21T14:48:16.873Z</time>
      </trkpt>
      <trkpt lat="43.62481" lon="3.89462">
        <ele>27</ele>
        <time>2020-11-21T14:48:37.351Z</time>
      </trkpt>
      <trkpt lat="43.62513" lon="3.89492">
        <ele>27</ele>
        <time>2020-11-21T14:48:57.837Z</time>
      </trkpt>
      <trkpt lat="43.62563" lon="3.89501">
        <ele>27.52506828308</ele>
        <time>2020-11-21T14:49:18.333Z</time>
      </trkpt>
      <trkpt lat="43.62611" lon="3.89501">
        <ele>28.47882461548</ele>
        <time>2020-11-21T14:49:38.839Z</time>
      </trkpt>
      <trkpt lat="43.6262" lon="3.89501">
        <ele>28.710729599</ele>
        <time>2020-11-21T14:49:59.347Z</time>
      </trkpt>
      <trkpt lat="43.62624" lon="3.895">
        <ele>28.80083656311</ele>
        <time>2020-11-21T14:50:19.855Z</time>
      </trkpt>
      <trkpt lat="43.62729" lon="3.89487">
        <ele>29.75132751465</ele>
        <time>2020-11-21T14:50:40.384Z</time>
      </trkpt>
      <trkpt lat="43.62729" lon="3.89487">
        <ele>29.75162887573</ele>
        <time>2020-11-21T14:51:00.913Z</time>
      </trkpt>
      <trkpt lat="43.62833" lon="3.89422">
        <ele>28.15536117554</ele>
        <time>2020-11-21T14:51:21.465Z</time>
      </trkpt>
      <trkpt lat="43.62839" lon="3.89418">
        <ele>28.09151268005</ele>
        <time>2020-11-21T14:51:42.019Z</time>
      </trkpt>
      <trkpt lat="43.62852" lon="3.89419">
        <ele>27.74175834656</ele>
        <time>2020-11-21T14:52:02.575Z</time>
      </trkpt>
      <trkpt lat="43.62872" lon="3.89407">
        <ele>27.0080280304</ele>
        <time>2020-11-21T14:52:23.135Z</time>
      </trkpt>
      <trkpt lat="43.6286" lon="3.89384">
        <ele>28.56609916687</ele>
        <time>2020-11-21T14:52:43.700Z</time>
      </trkpt>
      <trkpt lat="43.6286" lon="3.89373">
        <ele>28.95227241516</ele>
        <time>2020-11-21T14:53:04.266Z</time>
      </trkpt>
      <trkpt lat="43.62912" lon="3.89369">
        <ele>30.5527381897</ele>
        <time>2020-11-21T14:53:24.843Z</time>
      </trkpt>
      <trkpt lat="43.62949" lon="3.89356">
        <ele>32.9044342041</ele>
        <time>2020-11-21T14:53:45.427Z</time>
      </trkpt>
      <trkpt lat="43.62967" lon="3.89346">
        <ele>33.61231994629</ele>
        <time>2020-11-21T14:54:06.015Z</time>
      </trkpt>
      <trkpt lat="43.63007" lon="3.89332">
        <ele>34.62028503418</ele>
        <time>2020-11-21T14:54:26.611Z</time>
      </trkpt>
      <trkpt lat="43.63032" lon="3.8933">
        <ele>34.52537918091</ele>
        <time>2020-11-21T14:54:47.212Z</time>
      </trkpt>
      <trkpt lat="43.63037" lon="3.8933">
        <ele>34.38633346558</ele>
        <time>2020-11-21T14:55:07.814Z</time>
      </trkpt>
      <trkpt lat="43.63037" lon="3.8933">
        <ele>34.37784576416</ele>
        <time>2020-11-21T14:55:28.416Z</time>
      </trkpt>
      <trkpt lat="43.63037" lon="3.8933">
        <ele>34.3776473999</ele>
        <time>2020-11-21T14:55:49.018Z</time>
      </trkpt>
      <trkpt lat="43.63037" lon="3.8933">
        <ele>34.37744522095</ele>
        <time>2020-11-21T14:56:09.620Z</time>
      </trkpt>
      <trkpt lat="43.63049" lon="3.89331">
        <ele>34.02334976196</ele>
        <time>2020-11-21T14:56:30.225Z</time>
      </trkpt>
      <trkpt lat="43.63124" lon="3.89324">
        <ele>31.59264183044</ele>
        <time>2020-11-21T14:56:50.845Z</time>
      </trkpt>
      <trkpt lat="43.63124" lon="3.89324">
        <ele>31.59234046936</ele>
        <time>2020-11-21T14:57:11.465Z</time>
      </trkpt>
      <trkpt lat="43.63152" lon="3.89309">
        <ele>32.3355140686</ele>
        <time>2020-11-21T14:57:32.091Z</time>
      </trkpt>
      <trkpt lat="43.63223" lon="3.89269">
        <ele>37.20342636108</ele>
        <time>2020-11-21T14:57:52.732Z</time>
      </trkpt>
      <trkpt lat="43.63228" lon="3.89268">
        <ele>37.31927871704</ele>
        <time>2020-11-21T14:58:13.374Z</time>
      </trkpt>
      <trkpt lat="43.6327" lon="3.89234">
        <ele>42.14022445679</ele>
        <time>2020-11-21T14:58:34.026Z</time>
      </trkpt>
      <trkpt lat="43.6327" lon="3.89234">
        <ele>42.13972091675</ele>
        <time>2020-11-21T14:58:54.678Z</time>
      </trkpt>
      <trkpt lat="43.63303" lon="3.89178">
        <ele>44.83911132812</ele>
        <time>2020-11-21T14:59:15.340Z</time>
      </trkpt>
      <trkpt lat="43.63346" lon="3.89068">
        <ele>41.17699050903</ele>
        <time>2020-11-21T14:59:36.020Z</time>
      </trkpt>
      <trkpt lat="43.63349" lon="3.89048">
        <ele>40.14719390869</ele>
        <time>2020-11-21T14:59:56.703Z</time>
      </trkpt>
      <trkpt lat="43.63356" lon="3.88972">
        <ele>45.17092895508</ele>
        <time>2020-11-21T15:00:17.398Z</time>
      </trkpt>
      <trkpt lat="43.63368" lon="3.88939">
        <ele>46.81491088867</ele>
        <time>2020-11-21T15:00:38.098Z</time>
      </trkpt>
      <trkpt lat="43.6339" lon="3.88918">
        <ele>46.58320617676</ele>
        <time>2020-11-21T15:00:58.803Z</time>
      </trkpt>
      <trkpt lat="43.63391" lon="3.88917">
        <ele>46.58139419556</ele>
        <time>2020-11-21T15:01:19.508Z</time>
      </trkpt>
      <trkpt lat="43.63415" lon="3.88902">
        <ele>46.19123077393</ele>
        <time>2020-11-21T15:01:40.219Z</time>
      </trkpt>
      <trkpt lat="43.63438" lon="3.88902">
        <ele>43.71996688843</ele>
        <time>2020-11-21T15:02:00.934Z</time>
      </trkpt>
      <trkpt lat="43.63506" lon="3.88919">
        <ele>36.13320541382</ele>
        <time>2020-11-21T15:02:21.663Z</time>
      </trkpt>
      <trkpt lat="43.63537" lon="3.88937">
        <ele>30.96245574951</ele>
        <time>2020-11-21T15:02:42.399Z</time>
      </trkpt>
      <trkpt lat="43.63577" lon="3.88972">
        <ele>31.40502738953</ele>
        <time>2020-11-21T15:03:03.144Z</time>
      </trkpt>
      <trkpt lat="43.63627" lon="3.89006">
        <ele>32.88364028931</ele>
        <time>2020-11-21T15:03:23.900Z</time>
      </trkpt>
      <trkpt lat="43.63735" lon="3.89137">
        <ele>32.09111785889</ele>
        <time>2020-11-21T15:03:44.685Z</time>
      </trkpt>
      <trkpt lat="43.63795" lon="3.89183">
        <ele>31.24124336243</ele>
        <time>2020-11-21T15:04:05.484Z</time>
      </trkpt>
      <trkpt lat="43.63795" lon="3.89183">
        <ele>31.24124336243</ele>
        <time>2020-11-21T15:04:26.283Z</time>
      </trkpt>
      <trkpt lat="43.63839" lon="3.89214">
        <ele>30.70711326599</ele>
        <time>2020-11-21T15:04:47.092Z</time>
      </trkpt>
      <trkpt lat="43.6388" lon="3.89227">
        <ele>32.54792785645</ele>
        <time>2020-11-21T15:05:07.909Z</time>
      </trkpt>
      <trkpt lat="43.63942" lon="3.89208">
        <ele>37.10094451904</ele>
        <time>2020-11-21T15:05:28.739Z</time>
      </trkpt>
      <trkpt lat="43.63942" lon="3.89208">
        <ele>37.10054397583</ele>
        <time>2020-11-21T15:05:49.569Z</time>
      </trkpt>
      <trkpt lat="43.63991" lon="3.8919">
        <ele>42.27895736694</ele>
        <time>2020-11-21T15:06:10.409Z</time>
      </trkpt>
      <trkpt lat="43.63991" lon="3.8919">
        <ele>42.30557250977</ele>
        <time>2020-11-21T15:06:31.249Z</time>
      </trkpt>
      <trkpt lat="43.63997" lon="3.89187">
        <ele>42.82650756836</ele>
        <time>2020-11-21T15:06:52.090Z</time>
      </trkpt>
      <trkpt lat="43.64054" lon="3.89137">
        <ele>45.57292938232</ele>
        <time>2020-11-21T15:07:12.945Z</time>
      </trkpt>
      <trkpt lat="43.64062" lon="3.89132">
        <ele>46.17793273926</ele>
        <time>2020-11-21T15:07:33.802Z</time>
      </trkpt>
      <trkpt lat="43.64062" lon="3.88745">
        <ele>65.72554016113</ele>
        <time>2020-11-21T15:07:54.715Z</time>
      </trkpt>
      <trkpt lat="43.64054" lon="3.88642">
        <ele>68.71781921387</ele>
        <time>2020-11-21T15:08:15.643Z</time>
      </trkpt>
      <trkpt lat="43.64018" lon="3.88508">
        <ele>67.58256530762</ele>
        <time>2020-11-21T15:08:36.592Z</time>
      </trkpt>
      <trkpt lat="43.64017" lon="3.88501">
        <ele>67.24912261963</ele>
        <time>2020-11-21T15:08:57.542Z</time>
      </trkpt>
      <trkpt lat="43.64017" lon="3.88501">
        <ele>67.23178863525</ele>
        <time>2020-11-21T15:09:18.492Z</time>
      </trkpt>
      <trkpt lat="43.64004" lon="3.88447">
        <ele>64.60902404785</ele>
        <time>2020-11-21T15:09:39.450Z</time>
      </trkpt>
      <trkpt lat="43.63992" lon="3.88448">
        <ele>63.24544906616</ele>
        <time>2020-11-21T15:10:00.411Z</time>
      </trkpt>
      <trkpt lat="43.63986" lon="3.8844">
        <ele>62.46035003662</ele>
        <time>2020-11-21T15:10:21.373Z</time>
      </trkpt>
      <trkpt lat="43.63973" lon="3.88441">
        <ele>61.09484481812</ele>
        <time>2020-11-21T15:10:42.338Z</time>
      </trkpt>
      <trkpt lat="43.63966" lon="3.88425">
        <ele>60.07894515991</ele>
        <time>2020-11-21T15:11:03.306Z</time>
      </trkpt>
      <trkpt lat="43.63935" lon="3.88414">
        <ele>56.66791534424</ele>
        <time>2020-11-21T15:11:24.280Z</time>
      </trkpt>
      <trkpt lat="43.63934" lon="3.88391">
        <ele>56.37184906006</ele>
        <time>2020-11-21T15:11:45.257Z</time>
      </trkpt>
      <trkpt lat="43.63911" lon="3.8835">
        <ele>55.49401092529</ele>
        <time>2020-11-21T15:12:06.242Z</time>
      </trkpt>
      <trkpt lat="43.63884" lon="3.88353">
        <ele>54.81177139282</ele>
        <time>2020-11-21T15:12:27.232Z</time>
      </trkpt>
      <trkpt lat="43.63873" lon="3.88353">
        <ele>54.52857589722</ele>
        <time>2020-11-21T15:12:48.225Z</time>
      </trkpt>
      <trkpt lat="43.63854" lon="3.88344">
        <ele>54.19369125366</ele>
        <time>2020-11-21T15:13:09.221Z</time>
      </trkpt>
      <trkpt lat="43.63853" lon="3.88333">
        <ele>54.2968711853</ele>
        <time>2020-11-21T15:13:30.219Z</time>
      </trkpt>
      <trkpt lat="43.63851" lon="3.88325">
        <ele>54.58850860596</ele>
        <time>2020-11-21T15:13:51.218Z</time>
      </trkpt>
      <trkpt lat="43.63846" lon="3.883">
        <ele>55.78564834595</ele>
        <time>2020-11-21T15:14:12.221Z</time>
      </trkpt>
      <trkpt lat="43.63822" lon="3.88211">
        <ele>58.98932647705</ele>
        <time>2020-11-21T15:14:33.238Z</time>
      </trkpt>
      <trkpt lat="43.63808" lon="3.8818">
        <ele>60.24817276001</ele>
        <time>2020-11-21T15:14:54.260Z</time>
      </trkpt>
      <trkpt lat="43.63808" lon="3.8818">
        <ele>60.24927902222</ele>
        <time>2020-11-21T15:15:15.282Z</time>
      </trkpt>
      <trkpt lat="43.63777" lon="3.88116">
        <ele>60.49385452271</ele>
        <time>2020-11-21T15:15:36.315Z</time>
      </trkpt>
      <trkpt lat="43.6375" lon="3.88038">
        <ele>59.31453704834</ele>
        <time>2020-11-21T15:15:57.361Z</time>
      </trkpt>
      <trkpt lat="43.63721" lon="3.88">
        <ele>60.45127105713</ele>
        <time>2020-11-21T15:16:18.415Z</time>
      </trkpt>
      <trkpt lat="43.63699" lon="3.87984">
        <ele>61.95664215088</ele>
        <time>2020-11-21T15:16:39.474Z</time>
      </trkpt>
      <trkpt lat="43.63688" lon="3.8797">
        <ele>62.52303314209</ele>
        <time>2020-11-21T15:17:00.536Z</time>
      </trkpt>
      <trkpt lat="43.6368" lon="3.87925">
        <ele>61.83724594116</ele>
        <time>2020-11-21T15:17:21.605Z</time>
      </trkpt>
      <trkpt lat="43.63685" lon="3.87857">
        <ele>58.12907409668</ele>
        <time>2020-11-21T15:17:42.684Z</time>
      </trkpt>
      <trkpt lat="43.63682" lon="3.87827">
        <ele>58.04046630859</ele>
        <time>2020-11-21T15:18:03.767Z</time>
      </trkpt>
      <trkpt lat="43.63638" lon="3.87667">
        <ele>56.61506271362</ele>
        <time>2020-11-21T15:18:24.875Z</time>
      </trkpt>
      <trkpt lat="43.63636" lon="3.87638">
        <ele>56.02715301514</ele>
        <time>2020-11-21T15:18:45.987Z</time>
      </trkpt>
      <trkpt lat="43.63652" lon="3.87582">
        <ele>56.59071350098</ele>
        <time>2020-11-21T15:19:07.108Z</time>
      </trkpt>
      <trkpt lat="43.63652" lon="3.87582">
        <ele>56.59061431885</ele>
        <time>2020-11-21T15:19:28.229Z</time>
      </trkpt>
      <trkpt lat="43.63629" lon="3.87548">
        <ele>56.30195999146</ele>
        <time>2020-11-21T15:19:49.356Z</time>
      </trkpt>
      <trkpt lat="43.63628" lon="3.87531">
        <ele>56.09600067139</ele>
        <time>2020-11-21T15:20:10.486Z</time>
      </trkpt>
      <trkpt lat="43.63647" lon="3.87431">
        <ele>58.60682678223</ele>
        <time>2020-11-21T15:20:31.631Z</time>
      </trkpt>
      <trkpt lat="43.63646" lon="3.87381">
        <ele>62.00436782837</ele>
        <time>2020-11-21T15:20:52.783Z</time>
      </trkpt>
      <trkpt lat="43.63646" lon="3.87381">
        <ele>62.0044670105</ele>
        <time>2020-11-21T15:21:13.935Z</time>
      </trkpt>
      <trkpt lat="43.63649" lon="3.87345">
        <ele>64.48250579834</ele>
        <time>2020-11-21T15:21:35.092Z</time>
      </trkpt>
      <trkpt lat="43.6366" lon="3.87346">
        <ele>64.25080108643</ele>
        <time>2020-11-21T15:21:56.252Z</time>
      </trkpt>
      <trkpt lat="43.63709" lon="3.87356">
        <ele>63.58933258057</ele>
        <time>2020-11-21T15:22:17.421Z</time>
      </trkpt>
      <trkpt lat="43.63731" lon="3.87359">
        <ele>64.08654785156</ele>
        <time>2020-11-21T15:22:38.595Z</time>
      </trkpt>
      <trkpt lat="43.63748" lon="3.87362">
        <ele>64.4984664917</ele>
        <time>2020-11-21T15:22:59.772Z</time>
      </trkpt>
      <trkpt lat="43.6377" lon="3.87366">
        <ele>65.02673339844</ele>
        <time>2020-11-21T15:23:20.954Z</time>
      </trkpt>
      <trkpt lat="43.63804" lon="3.87371">
        <ele>67.15560913086</ele>
        <time>2020-11-21T15:23:42.142Z</time>
      </trkpt>
      <trkpt lat="43.63833" lon="3.87375">
        <ele>69.13796234131</ele>
        <time>2020-11-21T15:24:03.336Z</time>
      </trkpt>
      <trkpt lat="43.63846" lon="3.87378">
        <ele>70.01329040527</ele>
        <time>2020-11-21T15:24:24.533Z</time>
      </trkpt>
      <trkpt lat="43.63855" lon="3.87379">
        <ele>70.86506652832</ele>
        <time>2020-11-21T15:24:45.732Z</time>
      </trkpt>
      <trkpt lat="43.63861" lon="3.87378">
        <ele>71.59768676758</ele>
        <time>2020-11-21T15:25:06.932Z</time>
      </trkpt>
      <trkpt lat="43.63864" lon="3.87376">
        <ele>72.04933166504</ele>
        <time>2020-11-21T15:25:28.133Z</time>
      </trkpt>
      <trkpt lat="43.63896" lon="3.87366">
        <ele>76.10370635986</ele>
        <time>2020-11-21T15:25:49.340Z</time>
      </trkpt>
      <trkpt lat="43.63896" lon="3.87366">
        <ele>76.14169311523</ele>
        <time>2020-11-21T15:26:10.547Z</time>
      </trkpt>
      <trkpt lat="43.63897" lon="3.8737">
        <ele>76.19429016113</ele>
        <time>2020-11-21T15:26:31.755Z</time>
      </trkpt>
      <trkpt lat="43.63924" lon="3.87355">
        <ele>79.62844085693</ele>
        <time>2020-11-21T15:26:52.969Z</time>
      </trkpt>
      <trkpt lat="43.63928" lon="3.8735">
        <ele>80.22834014893</ele>
        <time>2020-11-21T15:27:14.184Z</time>
      </trkpt>
      <trkpt lat="43.63929" lon="3.87343">
        <ele>80.20194244385</ele>
        <time>2020-11-21T15:27:35.400Z</time>
      </trkpt>
      <trkpt lat="43.63946" lon="3.87347">
        <ele>81.39786529541</ele>
        <time>2020-11-21T15:27:56.619Z</time>
      </trkpt>
      <trkpt lat="43.63955" lon="3.87345">
        <ele>81.8897857666</ele>
        <time>2020-11-21T15:28:17.840Z</time>
      </trkpt>
      <trkpt lat="43.63966" lon="3.8734">
        <ele>82.42969512939</ele>
        <time>2020-11-21T15:28:39.063Z</time>
      </trkpt>
      <trkpt lat="43.63975" lon="3.87334">
        <ele>82.82563018799</ele>
        <time>2020-11-21T15:29:00.288Z</time>
      </trkpt>
      <trkpt lat="43.63988" lon="3.87321">
        <ele>83.24312591553</ele>
        <time>2020-11-21T15:29:21.517Z</time>
      </trkpt>
      <trkpt lat="43.64003" lon="3.87308">
        <ele>83.48324584961</ele>
        <time>2020-11-21T15:29:42.749Z</time>
      </trkpt>
      <trkpt lat="43.64006" lon="3.87305">
        <ele>83.53107452393</ele>
        <time>2020-11-21T15:30:03.982Z</time>
      </trkpt>
      <trkpt lat="43.64004" lon="3.87307">
        <ele>83.50708007812</ele>
        <time>2020-11-21T15:30:25.215Z</time>
      </trkpt>
      <trkpt lat="43.64001" lon="3.87303">
        <ele>83.21912384033</ele>
        <time>2020-11-21T15:30:46.449Z</time>
      </trkpt>
      <trkpt lat="43.63996" lon="3.87299">
        <ele>82.83518981934</ele>
        <time>2020-11-21T15:31:07.684Z</time>
      </trkpt>
      <trkpt lat="43.63994" lon="3.87298">
        <ele>82.70321655273</ele>
        <time>2020-11-21T15:31:28.920Z</time>
      </trkpt>
      <trkpt lat="43.63997" lon="3.87292">
        <ele>82.63122558594</ele>
        <time>2020-11-21T15:31:50.157Z</time>
      </trkpt>
      <trkpt lat="43.63998" lon="3.87289">
        <ele>82.57123565674</ele>
        <time>2020-11-21T15:32:11.394Z</time>
      </trkpt>
      <trkpt lat="43.64005" lon="3.87286">
        <ele>82.79919433594</ele>
        <time>2020-11-21T15:32:32.633Z</time>
      </trkpt>
      <trkpt lat="43.64009" lon="3.87285">
        <ele>82.95516967773</ele>
        <time>2020-11-21T15:32:53.873Z</time>
      </trkpt>
      <trkpt lat="43.64021" lon="3.87254">
        <ele>83.7032699585</ele>
        <time>2020-11-21T15:33:15.118Z</time>
      </trkpt>
      <trkpt lat="43.64051" lon="3.87187">
        <ele>85.55973052979</ele>
        <time>2020-11-21T15:33:36.374Z</time>
      </trkpt>
      <trkpt lat="43.64053" lon="3.87183">
        <ele>85.43560028076</ele>
        <time>2020-11-21T15:33:57.631Z</time>
      </trkpt>
      <trkpt lat="43.64065" lon="3.8719">
        <ele>85.44277191162</ele>
        <time>2020-11-21T15:34:18.890Z</time>
      </trkpt>
      <trkpt lat="43.64078" lon="3.8719">
        <ele>85.28680419922</ele>
        <time>2020-11-21T15:34:40.152Z</time>
      </trkpt>
      <trkpt lat="43.64085" lon="3.87187">
        <ele>85.14765167236</ele>
        <time>2020-11-21T15:35:01.416Z</time>
      </trkpt>
      <trkpt lat="43.64087" lon="3.87184">
        <ele>85.05166625977</ele>
        <time>2020-11-21T15:35:22.680Z</time>
      </trkpt>
      <trkpt lat="43.64088" lon="3.87173">
        <ele>84.93128967285</ele>
        <time>2020-11-21T15:35:43.946Z</time>
      </trkpt>
      <trkpt lat="43.64089" lon="3.87168">
        <ele>85.23123931885</ele>
        <time>2020-11-21T15:36:05.212Z</time>
      </trkpt>
      <trkpt lat="43.64093" lon="3.87165">
        <ele>85.61517333984</ele>
        <time>2020-11-21T15:36:26.479Z</time>
      </trkpt>
      <trkpt lat="43.64097" lon="3.8716">
        <ele>86.09510040283</ele>
        <time>2020-11-21T15:36:47.747Z</time>
      </trkpt>
      <trkpt lat="43.641" lon="3.87154">
        <ele>86.56301879883</ele>
        <time>2020-11-21T15:37:09.017Z</time>
      </trkpt>
      <trkpt lat="43.64103" lon="3.87142">
        <ele>87.23593902588</ele>
        <time>2020-11-21T15:37:30.288Z</time>
      </trkpt>
      <trkpt lat="43.64107" lon="3.87133">
        <ele>87.37991333008</ele>
        <time>2020-11-21T15:37:51.561Z</time>
      </trkpt>
      <trkpt lat="43.64135" lon="3.87128">
        <ele>86.25293731689</ele>
        <time>2020-11-21T15:38:12.840Z</time>
      </trkpt>
      <trkpt lat="43.64145" lon="3.87131">
        <ele>85.8090133667</ele>
        <time>2020-11-21T15:38:34.121Z</time>
      </trkpt>
      <trkpt lat="43.64152" lon="3.87128">
        <ele>86.0489730835</ele>
        <time>2020-11-21T15:38:55.403Z</time>
      </trkpt>
      <trkpt lat="43.64159" lon="3.87126">
        <ele>86.1809463501</ele>
        <time>2020-11-21T15:39:16.686Z</time>
      </trkpt>
      <trkpt lat="43.64164" lon="3.87118">
        <ele>86.98481750488</ele>
        <time>2020-11-21T15:39:37.971Z</time>
      </trkpt>
      <trkpt lat="43.64168" lon="3.87103">
        <ele>88.17436981201</ele>
        <time>2020-11-21T15:39:59.258Z</time>
      </trkpt>
      <trkpt lat="43.64178" lon="3.87099">
        <ele>88.00640106201</ele>
        <time>2020-11-21T15:40:20.547Z</time>
      </trkpt>
      <trkpt lat="43.64206" lon="3.87097">
        <ele>85.43749237061</ele>
        <time>2020-11-21T15:40:41.842Z</time>
      </trkpt>
      <trkpt lat="43.64209" lon="3.87097">
        <ele>84.9786605835</ele>
        <time>2020-11-21T15:41:03.138Z</time>
      </trkpt>
      <trkpt lat="43.64213" lon="3.87101">
        <ele>84.25878143311</ele>
        <time>2020-11-21T15:41:24.435Z</time>
      </trkpt>
      <trkpt lat="43.64223" lon="3.87114">
        <ele>81.69478607178</ele>
        <time>2020-11-21T15:41:45.734Z</time>
      </trkpt>
      <trkpt lat="43.64227" lon="3.87115">
        <ele>80.99890136719</ele>
        <time>2020-11-21T15:42:07.034Z</time>
      </trkpt>
      <trkpt lat="43.64238" lon="3.87107">
        <ele>80.37500762939</ele>
        <time>2020-11-21T15:42:28.337Z</time>
      </trkpt>
      <trkpt lat="43.64244" lon="3.87103">
        <ele>79.72354125977</ele>
        <time>2020-11-21T15:42:49.641Z</time>
      </trkpt>
      <trkpt lat="43.64251" lon="3.87102">
        <ele>78.75170135498</ele>
        <time>2020-11-21T15:43:10.946Z</time>
      </trkpt>
      <trkpt lat="43.64265" lon="3.87106">
        <ele>76.59206390381</ele>
        <time>2020-11-21T15:43:32.254Z</time>
      </trkpt>
      <trkpt lat="43.64282" lon="3.87103">
        <ele>75.48930358887</ele>
        <time>2020-11-21T15:43:53.566Z</time>
      </trkpt>
      <trkpt lat="43.64285" lon="3.87102">
        <ele>75.43681335449</ele>
        <time>2020-11-21T15:44:14.878Z</time>
      </trkpt>
      <trkpt lat="43.64287" lon="3.87101">
        <ele>75.39331817627</ele>
        <time>2020-11-21T15:44:36.191Z</time>
      </trkpt>
      <trkpt lat="43.64313" lon="3.87095">
        <ele>74.31349945068</ele>
        <time>2020-11-21T15:44:57.509Z</time>
      </trkpt>
      <trkpt lat="43.64343" lon="3.87096">
        <ele>71.99407958984</ele>
        <time>2020-11-21T15:45:18.833Z</time>
      </trkpt>
      <trkpt lat="43.64355" lon="3.8709">
        <ele>71.15004730225</ele>
        <time>2020-11-21T15:45:40.160Z</time>
      </trkpt>
      <trkpt lat="43.64364" lon="3.87081">
        <ele>70.61013793945</ele>
        <time>2020-11-21T15:46:01.489Z</time>
      </trkpt>
      <trkpt lat="43.64375" lon="3.87063">
        <ele>70.62213897705</ele>
        <time>2020-11-21T15:46:22.821Z</time>
      </trkpt>
      <trkpt lat="43.64378" lon="3.87058">
        <ele>70.71827697754</ele>
        <time>2020-11-21T15:46:44.154Z</time>
      </trkpt>
      <trkpt lat="43.64379" lon="3.87055">
        <ele>70.76611328125</ele>
        <time>2020-11-21T15:47:05.488Z</time>
      </trkpt>
      <trkpt lat="43.64384" lon="3.87026">
        <ele>70.72351837158</ele>
        <time>2020-11-21T15:47:26.826Z</time>
      </trkpt>
      <trkpt lat="43.64388" lon="3.86996">
        <ele>72.7855758667</ele>
        <time>2020-11-21T15:47:48.168Z</time>
      </trkpt>
      <trkpt lat="43.64392" lon="3.86974">
        <ele>74.06655883789</ele>
        <time>2020-11-21T15:48:09.514Z</time>
      </trkpt>
      <trkpt lat="43.64391" lon="3.86947">
        <ele>76.27419281006</ele>
        <time>2020-11-21T15:48:30.864Z</time>
      </trkpt>
      <trkpt lat="43.64395" lon="3.86932">
        <ele>76.20831298828</ele>
        <time>2020-11-21T15:48:52.216Z</time>
      </trkpt>
      <trkpt lat="43.64402" lon="3.86917">
        <ele>75.26047515869</ele>
        <time>2020-11-21T15:49:13.571Z</time>
      </trkpt>
      <trkpt lat="43.64404" lon="3.86907">
        <ele>75.30615997314</ele>
        <time>2020-11-21T15:49:34.927Z</time>
      </trkpt>
      <trkpt lat="43.64404" lon="3.86902">
        <ele>75.42455291748</ele>
        <time>2020-11-21T15:49:56.284Z</time>
      </trkpt>
      <trkpt lat="43.64404" lon="3.86899">
        <ele>75.49813079834</ele>
        <time>2020-11-21T15:50:17.641Z</time>
      </trkpt>
      <trkpt lat="43.64427" lon="3.86822">
        <ele>68.6588973999</ele>
        <time>2020-11-21T15:50:39.010Z</time>
      </trkpt>
      <trkpt lat="43.64427" lon="3.86819">
        <ele>68.51673126221</ele>
        <time>2020-11-21T15:51:00.380Z</time>
      </trkpt>
      <trkpt lat="43.64476" lon="3.86899">
        <ele>56.6953125</ele>
        <time>2020-11-21T15:51:21.765Z</time>
      </trkpt>
      <trkpt lat="43.64478" lon="3.86902">
        <ele>56.32222747803</ele>
        <time>2020-11-21T15:51:43.150Z</time>
      </trkpt>
      <trkpt lat="43.64479" lon="3.86904">
        <ele>55.99463653564</ele>
        <time>2020-11-21T15:52:04.536Z</time>
      </trkpt>
      <trkpt lat="43.64475" lon="3.86913">
        <ele>56.69052124023</ele>
        <time>2020-11-21T15:52:25.923Z</time>
      </trkpt>
      <trkpt lat="43.64475" lon="3.86921">
        <ele>56.49855422974</ele>
        <time>2020-11-21T15:52:47.311Z</time>
      </trkpt>
      <trkpt lat="43.64478" lon="3.86931">
        <ele>55.57470703125</ele>
        <time>2020-11-21T15:53:08.701Z</time>
      </trkpt>
      <trkpt lat="43.64483" lon="3.86938">
        <ele>54.26692581177</ele>
        <time>2020-11-21T15:53:30.092Z</time>
      </trkpt>
      <trkpt lat="43.64485" lon="3.86939">
        <ele>53.78700637817</ele>
        <time>2020-11-21T15:53:51.484Z</time>
      </trkpt>
      <trkpt lat="43.6449" lon="3.86953">
        <ele>52.14916992188</ele>
        <time>2020-11-21T15:54:12.878Z</time>
      </trkpt>
      <trkpt lat="43.64493" lon="3.86977">
        <ele>50.6014289856</ele>
        <time>2020-11-21T15:54:34.276Z</time>
      </trkpt>
      <trkpt lat="43.64502" lon="3.87022">
        <ele>46.34444046021</ele>
        <time>2020-11-21T15:54:55.680Z</time>
      </trkpt>
      <trkpt lat="43.6451" lon="3.87059">
        <ele>46.48383712769</ele>
        <time>2020-11-21T15:55:17.090Z</time>
      </trkpt>
      <trkpt lat="43.64511" lon="3.87092">
        <ele>47.87560272217</ele>
        <time>2020-11-21T15:55:38.505Z</time>
      </trkpt>
      <trkpt lat="43.64507" lon="3.87195">
        <ele>47.38706588745</ele>
        <time>2020-11-21T15:55:59.935Z</time>
      </trkpt>
      <trkpt lat="43.64503" lon="3.87234">
        <ele>47.39906311035</ele>
        <time>2020-11-21T15:56:21.371Z</time>
      </trkpt>
      <trkpt lat="43.64498" lon="3.87254">
        <ele>47.75900268555</ele>
        <time>2020-11-21T15:56:42.810Z</time>
      </trkpt>
      <trkpt lat="43.64487" lon="3.8729">
        <ele>49.46848678589</ele>
        <time>2020-11-21T15:57:04.254Z</time>
      </trkpt>
      <trkpt lat="43.64487" lon="3.87318">
        <ele>50.47631835938</ele>
        <time>2020-11-21T15:57:25.702Z</time>
      </trkpt>
      <trkpt lat="43.6449" lon="3.87336">
        <ele>50.76427078247</ele>
        <time>2020-11-21T15:57:47.153Z</time>
      </trkpt>
      <trkpt lat="43.64526" lon="3.8747">
        <ele>51.98583602905</ele>
        <time>2020-11-21T15:58:08.625Z</time>
      </trkpt>
      <trkpt lat="43.64528" lon="3.87479">
        <ele>51.98583602905</ele>
        <time>2020-11-21T15:58:30.098Z</time>
      </trkpt>
      <trkpt lat="43.64528" lon="3.87506">
        <ele>52.63372802734</ele>
        <time>2020-11-21T15:58:51.575Z</time>
      </trkpt>
      <trkpt lat="43.64535" lon="3.8751">
        <ele>51.97383499146</ele>
        <time>2020-11-21T15:59:13.054Z</time>
      </trkpt>
      <trkpt lat="43.64537" lon="3.87513">
        <ele>51.82986068726</ele>
        <time>2020-11-21T15:59:34.533Z</time>
      </trkpt>
      <trkpt lat="43.64531" lon="3.87548">
        <ele>53.57194137573</ele>
        <time>2020-11-21T15:59:56.017Z</time>
      </trkpt>
      <trkpt lat="43.64532" lon="3.87574">
        <ele>53.53594970703</ele>
        <time>2020-11-21T16:00:17.505Z</time>
      </trkpt>
      <trkpt lat="43.64532" lon="3.87574">
        <ele>53.53594970703</ele>
        <time>2020-11-21T16:00:38.993Z</time>
      </trkpt>
      <trkpt lat="43.64532" lon="3.87581">
        <ele>53.53594970703</ele>
        <time>2020-11-21T16:01:00.482Z</time>
      </trkpt>
      <trkpt lat="43.64531" lon="3.8756">
        <ele>53.57194137573</ele>
        <time>2020-11-21T16:01:21.974Z</time>
      </trkpt>
      <trkpt lat="43.64535" lon="3.87524">
        <ele>52.36153793335</ele>
        <time>2020-11-21T16:01:43.472Z</time>
      </trkpt>
      <trkpt lat="43.64537" lon="3.87513">
        <ele>51.82986068726</ele>
        <time>2020-11-21T16:02:04.971Z</time>
      </trkpt>
      <trkpt lat="43.64535" lon="3.8751">
        <ele>51.97383499146</ele>
        <time>2020-11-21T16:02:26.471Z</time>
      </trkpt>
      <trkpt lat="43.64528" lon="3.87506">
        <ele>52.63372802734</ele>
        <time>2020-11-21T16:02:47.972Z</time>
      </trkpt>
      <trkpt lat="43.64526" lon="3.87512">
        <ele>52.99366760254</ele>
        <time>2020-11-21T16:03:09.474Z</time>
      </trkpt>
      <trkpt lat="43.64514" lon="3.87552">
        <ele>54.42896270752</ele>
        <time>2020-11-21T16:03:30.983Z</time>
      </trkpt>
      <trkpt lat="43.64512" lon="3.87575">
        <ele>54.59693527222</ele>
        <time>2020-11-21T16:03:52.495Z</time>
      </trkpt>
      <trkpt lat="43.64517" lon="3.87588">
        <ele>54.17700576782</ele>
        <time>2020-11-21T16:04:14.009Z</time>
      </trkpt>
      <trkpt lat="43.64524" lon="3.87597">
        <ele>53.82390213013</ele>
        <time>2020-11-21T16:04:35.525Z</time>
      </trkpt>
      <trkpt lat="43.64551" lon="3.8762">
        <ele>52.19307327271</ele>
        <time>2020-11-21T16:04:57.047Z</time>
      </trkpt>
      <trkpt lat="43.64567" lon="3.8764">
        <ele>50.65732955933</ele>
        <time>2020-11-21T16:05:18.574Z</time>
      </trkpt>
      <trkpt lat="43.64587" lon="3.87668">
        <ele>48.59366989136</ele>
        <time>2020-11-21T16:05:40.106Z</time>
      </trkpt>
      <trkpt lat="43.64589" lon="3.87666">
        <ele>48.61766815186</ele>
        <time>2020-11-21T16:06:01.639Z</time>
      </trkpt>
      <trkpt lat="43.64621" lon="3.87673">
        <ele>46.68490600586</ele>
        <time>2020-11-21T16:06:23.178Z</time>
      </trkpt>
      <trkpt lat="43.64642" lon="3.87679">
        <ele>45.13716125488</ele>
        <time>2020-11-21T16:06:44.722Z</time>
      </trkpt>
      <trkpt lat="43.64655" lon="3.87689">
        <ele>43.8773727417</ele>
        <time>2020-11-21T16:07:06.269Z</time>
      </trkpt>
      <trkpt lat="43.6467" lon="3.87706">
        <ele>43.93083953857</ele>
        <time>2020-11-21T16:07:27.819Z</time>
      </trkpt>
      <trkpt lat="43.64677" lon="3.87718">
        <ele>44.23078918457</ele>
        <time>2020-11-21T16:07:49.372Z</time>
      </trkpt>
      <trkpt lat="43.64693" lon="3.87755">
        <ele>45.49058151245</ele>
        <time>2020-11-21T16:08:10.931Z</time>
      </trkpt>
      <trkpt lat="43.64722" lon="3.87841">
        <ele>47.27739715576</ele>
        <time>2020-11-21T16:08:32.504Z</time>
      </trkpt>
      <trkpt lat="43.64727" lon="3.87855">
        <ele>47.48136520386</ele>
        <time>2020-11-21T16:08:54.079Z</time>
      </trkpt>
      <trkpt lat="43.64749" lon="3.87845">
        <ele>45.80164337158</ele>
        <time>2020-11-21T16:09:15.659Z</time>
      </trkpt>
      <trkpt lat="43.64754" lon="3.87847">
        <ele>45.57368469238</ele>
        <time>2020-11-21T16:09:37.240Z</time>
      </trkpt>
      <trkpt lat="43.6476" lon="3.87864">
        <ele>45.1798210144</ele>
        <time>2020-11-21T16:09:58.823Z</time>
      </trkpt>
      <trkpt lat="43.64762" lon="3.87877">
        <ele>44.43594741821</ele>
        <time>2020-11-21T16:10:20.408Z</time>
      </trkpt>
      <trkpt lat="43.64771" lon="3.87882">
        <ele>43.74489974976</ele>
        <time>2020-11-21T16:10:41.995Z</time>
      </trkpt>
      <trkpt lat="43.64784" lon="3.87876">
        <ele>43.86926269531</ele>
        <time>2020-11-21T16:11:03.585Z</time>
      </trkpt>
      <trkpt lat="43.64789" lon="3.87874">
        <ele>43.88694000244</ele>
        <time>2020-11-21T16:11:25.176Z</time>
      </trkpt>
      <trkpt lat="43.64844" lon="3.87845">
        <ele>42.96558380127</ele>
        <time>2020-11-21T16:11:46.779Z</time>
      </trkpt>
      <trkpt lat="43.64847" lon="3.87846">
        <ele>43.04956817627</ele>
        <time>2020-11-21T16:12:08.382Z</time>
      </trkpt>
      <trkpt lat="43.64863" lon="3.87885">
        <ele>41.73341369629</ele>
        <time>2020-11-21T16:12:29.992Z</time>
      </trkpt>
      <trkpt lat="43.64863" lon="3.87886">
        <ele>41.67930984497</ele>
        <time>2020-11-21T16:12:51.602Z</time>
      </trkpt>
      <trkpt lat="43.64865" lon="3.87891">
        <ele>41.45134735107</ele>
        <time>2020-11-21T16:13:13.213Z</time>
      </trkpt>
      <trkpt lat="43.64945" lon="3.87812">
        <ele>41.31762313843</ele>
        <time>2020-11-21T16:13:34.844Z</time>
      </trkpt>
      <trkpt lat="43.64949" lon="3.87808">
        <ele>41.41511917114</ele>
        <time>2020-11-21T16:13:56.476Z</time>
      </trkpt>
      <trkpt lat="43.64957" lon="3.87811">
        <ele>40.95666885376</ele>
        <time>2020-11-21T16:14:18.109Z</time>
      </trkpt>
      <trkpt lat="43.64966" lon="3.87776">
        <ele>41.1054725647</ele>
        <time>2020-11-21T16:14:39.748Z</time>
      </trkpt>
      <trkpt lat="43.65051" lon="3.87432">
        <ele>37.70833587646</ele>
        <time>2020-11-21T16:15:01.439Z</time>
      </trkpt>
      <trkpt lat="43.65072" lon="3.87348">
        <ele>39.80210494995</ele>
        <time>2020-11-21T16:15:23.143Z</time>
      </trkpt>
      <trkpt lat="43.65089" lon="3.87293">
        <ele>41.54261398315</ele>
        <time>2020-11-21T16:15:44.856Z</time>
      </trkpt>
      <trkpt lat="43.65098" lon="3.8727">
        <ele>42.74241638184</ele>
        <time>2020-11-21T16:16:06.573Z</time>
      </trkpt>
      <trkpt lat="43.65097" lon="3.87267">
        <ele>42.73011398315</ele>
        <time>2020-11-21T16:16:28.290Z</time>
      </trkpt>
      <trkpt lat="43.6511" lon="3.87199">
        <ele>42.38217163086</ele>
        <time>2020-11-21T16:16:50.017Z</time>
      </trkpt>
      <trkpt lat="43.65116" lon="3.87181">
        <ele>41.94085693359</ele>
        <time>2020-11-21T16:17:11.747Z</time>
      </trkpt>
      <trkpt lat="43.65124" lon="3.87173">
        <ele>41.94085693359</ele>
        <time>2020-11-21T16:17:33.479Z</time>
      </trkpt>
      <trkpt lat="43.65132" lon="3.87167">
        <ele>41.91686248779</ele>
        <time>2020-11-21T16:17:55.213Z</time>
      </trkpt>
      <trkpt lat="43.65156" lon="3.87154">
        <ele>41.78488540649</ele>
        <time>2020-11-21T16:18:16.952Z</time>
      </trkpt>
      <trkpt lat="43.6516" lon="3.87147">
        <ele>41.8208770752</ele>
        <time>2020-11-21T16:18:38.693Z</time>
      </trkpt>
      <trkpt lat="43.6516" lon="3.87142">
        <ele>41.87956237793</ele>
        <time>2020-11-21T16:19:00.434Z</time>
      </trkpt>
      <trkpt lat="43.65159" lon="3.87132">
        <ele>42.01284790039</ele>
        <time>2020-11-21T16:19:22.177Z</time>
      </trkpt>
      <trkpt lat="43.65158" lon="3.87124">
        <ele>42.12082672119</ele>
        <time>2020-11-21T16:19:43.921Z</time>
      </trkpt>
      <trkpt lat="43.65163" lon="3.87108">
        <ele>42.25280761719</ele>
        <time>2020-11-21T16:20:05.668Z</time>
      </trkpt>
      <trkpt lat="43.65174" lon="3.87081">
        <ele>42.88954925537</ele>
        <time>2020-11-21T16:20:27.419Z</time>
      </trkpt>
      <trkpt lat="43.65184" lon="3.87072">
        <ele>42.86555480957</ele>
        <time>2020-11-21T16:20:49.172Z</time>
      </trkpt>
      <trkpt lat="43.65207" lon="3.87057">
        <ele>42.92691802979</ele>
        <time>2020-11-21T16:21:10.930Z</time>
      </trkpt>
      <trkpt lat="43.65222" lon="3.87042">
        <ele>42.49668884277</ele>
        <time>2020-11-21T16:21:32.692Z</time>
      </trkpt>
      <trkpt lat="43.65242" lon="3.87014">
        <ele>41.51902389526</ele>
        <time>2020-11-21T16:21:54.460Z</time>
      </trkpt>
      <trkpt lat="43.6526" lon="3.86982">
        <ele>42.18144989014</ele>
        <time>2020-11-21T16:22:16.234Z</time>
      </trkpt>
      <trkpt lat="43.65264" lon="3.86971">
        <ele>42.61337661743</ele>
        <time>2020-11-21T16:22:38.010Z</time>
      </trkpt>
      <trkpt lat="43.65268" lon="3.86935">
        <ele>44.00526809692</ele>
        <time>2020-11-21T16:22:59.791Z</time>
      </trkpt>
      <trkpt lat="43.6527" lon="3.86926">
        <ele>43.81051254272</ele>
        <time>2020-11-21T16:23:21.573Z</time>
      </trkpt>
      <trkpt lat="43.65273" lon="3.86921">
        <ele>43.64253997803</ele>
        <time>2020-11-21T16:23:43.356Z</time>
      </trkpt>
      <trkpt lat="43.65278" lon="3.86917">
        <ele>43.41457748413</ele>
        <time>2020-11-21T16:24:05.140Z</time>
      </trkpt>
      <trkpt lat="43.65294" lon="3.86911">
        <ele>42.76668548584</ele>
        <time>2020-11-21T16:24:26.928Z</time>
      </trkpt>
      <trkpt lat="43.65296" lon="3.8691">
        <ele>42.67816543579</ele>
        <time>2020-11-21T16:24:48.716Z</time>
      </trkpt>
      <trkpt lat="43.65309" lon="3.86905">
        <ele>42.15478897095</ele>
        <time>2020-11-21T16:25:10.507Z</time>
      </trkpt>
      <trkpt lat="43.65452" lon="3.86808">
        <ele>42.19271469116</ele>
        <time>2020-11-21T16:25:32.330Z</time>
      </trkpt>
      <trkpt lat="43.65464" lon="3.868">
        <ele>42.00174331665</ele>
        <time>2020-11-21T16:25:54.155Z</time>
      </trkpt>
      <trkpt lat="43.65578" lon="3.86751">
        <ele>41</ele>
        <time>2020-11-21T16:26:16.004Z</time>
      </trkpt>
      <trkpt lat="43.65591" lon="3.86745">
        <ele>42.17464828491</ele>
        <time>2020-11-21T16:26:37.856Z</time>
      </trkpt>
      <trkpt lat="43.65645" lon="3.86698">
        <ele>44.03646469116</ele>
        <time>2020-11-21T16:26:59.721Z</time>
      </trkpt>
      <trkpt lat="43.65657" lon="3.86688">
        <ele>43.741771698</ele>
        <time>2020-11-21T16:27:21.588Z</time>
      </trkpt>
      <trkpt lat="43.65837" lon="3.86695">
        <ele>43.49740600586</ele>
        <time>2020-11-21T16:27:43.492Z</time>
      </trkpt>
      <trkpt lat="43.65851" lon="3.86695">
        <ele>43.81016540527</ele>
        <time>2020-11-21T16:28:05.398Z</time>
      </trkpt>
      <trkpt lat="43.65878" lon="3.86699">
        <ele>44.52995300293</ele>
        <time>2020-11-21T16:28:27.310Z</time>
      </trkpt>
      <trkpt lat="43.65891" lon="3.86701">
        <ele>44.73378372192</ele>
        <time>2020-11-21T16:28:49.224Z</time>
      </trkpt>
      <trkpt lat="43.65904" lon="3.86743">
        <ele>45.77252960205</ele>
        <time>2020-11-21T16:29:11.145Z</time>
      </trkpt>
      <trkpt lat="43.65909" lon="3.8676">
        <ele>45.67358398438</ele>
        <time>2020-11-21T16:29:33.069Z</time>
      </trkpt>
      <trkpt lat="43.65908" lon="3.86758">
        <ele>45.67471694946</ele>
        <time>2020-11-21T16:29:54.993Z</time>
      </trkpt>
      <trkpt lat="43.65914" lon="3.86776">
        <ele>45.94865036011</ele>
        <time>2020-11-21T16:30:16.920Z</time>
      </trkpt>
      <trkpt lat="43.65919" lon="3.86784">
        <ele>46.9204864502</ele>
        <time>2020-11-21T16:30:38.848Z</time>
      </trkpt>
      <trkpt lat="43.65924" lon="3.86787">
        <ele>47.47239685059</ele>
        <time>2020-11-21T16:31:00.777Z</time>
      </trkpt>
      <trkpt lat="43.65936" lon="3.86791">
        <ele>48.52822113037</ele>
        <time>2020-11-21T16:31:22.709Z</time>
      </trkpt>
      <trkpt lat="43.65949" lon="3.86792">
        <ele>48.9245262146</ele>
        <time>2020-11-21T16:31:44.644Z</time>
      </trkpt>
      <trkpt lat="43.65964" lon="3.86782">
        <ele>49.34619140625</ele>
        <time>2020-11-21T16:32:06.582Z</time>
      </trkpt>
      <trkpt lat="43.65986" lon="3.86771">
        <ele>50.55554962158</ele>
        <time>2020-11-21T16:32:28.525Z</time>
      </trkpt>
      <trkpt lat="43.66005" lon="3.86766">
        <ele>51.80334091187</ele>
        <time>2020-11-21T16:32:50.471Z</time>
      </trkpt>
      <trkpt lat="43.66012" lon="3.86769">
        <ele>52.37924575806</ele>
        <time>2020-11-21T16:33:12.419Z</time>
      </trkpt>
      <trkpt lat="43.66016" lon="3.86778">
        <ele>52.9455909729</ele>
        <time>2020-11-21T16:33:34.368Z</time>
      </trkpt>
      <trkpt lat="43.66018" lon="3.86814">
        <ele>54.38535308838</ele>
        <time>2020-11-21T16:33:56.323Z</time>
      </trkpt>
      <trkpt lat="43.66023" lon="3.86829">
        <ele>55.24150085449</ele>
        <time>2020-11-21T16:34:18.280Z</time>
      </trkpt>
      <trkpt lat="43.66028" lon="3.86831">
        <ele>55.61343765259</ele>
        <time>2020-11-21T16:34:40.238Z</time>
      </trkpt>
      <trkpt lat="43.66038" lon="3.86825">
        <ele>55.99737167358</ele>
        <time>2020-11-21T16:35:02.198Z</time>
      </trkpt>
      <trkpt lat="43.66044" lon="3.86816">
        <ele>56.03336715698</ele>
        <time>2020-11-21T16:35:24.160Z</time>
      </trkpt>
      <trkpt lat="43.66046" lon="3.86806">
        <ele>55.77569580078</ele>
        <time>2020-11-21T16:35:46.124Z</time>
      </trkpt>
      <trkpt lat="43.66046" lon="3.86805">
        <ele>55.75741195679</ele>
        <time>2020-11-21T16:36:08.088Z</time>
      </trkpt>
      <trkpt lat="43.66048" lon="3.86789">
        <ele>54.85375976562</ele>
        <time>2020-11-21T16:36:30.054Z</time>
      </trkpt>
      <trkpt lat="43.66054" lon="3.86772">
        <ele>53.80261230469</ele>
        <time>2020-11-21T16:36:52.023Z</time>
      </trkpt>
      <trkpt lat="43.66069" lon="3.86757">
        <ele>53.62264251709</ele>
        <time>2020-11-21T16:37:13.996Z</time>
      </trkpt>
      <trkpt lat="43.66109" lon="3.86731">
        <ele>53.87322616577</ele>
        <time>2020-11-21T16:37:35.977Z</time>
      </trkpt>
      <trkpt lat="43.66132" lon="3.86721">
        <ele>54.89305877686</ele>
        <time>2020-11-21T16:37:57.963Z</time>
      </trkpt>
      <trkpt lat="43.66152" lon="3.8671">
        <ele>56.73155212402</ele>
        <time>2020-11-21T16:38:19.953Z</time>
      </trkpt>
      <trkpt lat="43.66162" lon="3.86707">
        <ele>57.69139480591</ele>
        <time>2020-11-21T16:38:41.946Z</time>
      </trkpt>
      <trkpt lat="43.66168" lon="3.86708">
        <ele>58.2672996521</ele>
        <time>2020-11-21T16:39:03.940Z</time>
      </trkpt>
      <trkpt lat="43.66188" lon="3.86724">
        <ele>60.09349060059</ele>
        <time>2020-11-21T16:39:25.938Z</time>
      </trkpt>
      <trkpt lat="43.66216" lon="3.8675">
        <ele>61.43726348877</ele>
        <time>2020-11-21T16:39:47.943Z</time>
      </trkpt>
      <trkpt lat="43.66228" lon="3.86735">
        <ele>62.01316833496</ele>
        <time>2020-11-21T16:40:09.951Z</time>
      </trkpt>
      <trkpt lat="43.66234" lon="3.86731">
        <ele>62.14760971069</ele>
        <time>2020-11-21T16:40:31.961Z</time>
      </trkpt>
      <trkpt lat="43.66266" lon="3.86728">
        <ele>62.84349441528</ele>
        <time>2020-11-21T16:40:53.977Z</time>
      </trkpt>
      <trkpt lat="43.6628" lon="3.86724">
        <ele>63.08345413208</ele>
        <time>2020-11-21T16:41:15.996Z</time>
      </trkpt>
      <trkpt lat="43.66303" lon="3.86721">
        <ele>63.48958587646</ele>
        <time>2020-11-21T16:41:38.020Z</time>
      </trkpt>
      <trkpt lat="43.66315" lon="3.86724">
        <ele>63.52557754517</ele>
        <time>2020-11-21T16:42:00.046Z</time>
      </trkpt>
      <trkpt lat="43.66321" lon="3.86729">
        <ele>63.75354003906</ele>
        <time>2020-11-21T16:42:22.073Z</time>
      </trkpt>
      <trkpt lat="43.66398" lon="3.86782">
        <ele>66.99381256104</ele>
        <time>2020-11-21T16:42:44.118Z</time>
      </trkpt>
      <trkpt lat="43.66447" lon="3.86813">
        <ele>70.47210693359</ele>
        <time>2020-11-21T16:43:06.173Z</time>
      </trkpt>
      <trkpt lat="43.6648" lon="3.86834">
        <ele>73.13566589355</ele>
        <time>2020-11-21T16:43:28.236Z</time>
      </trkpt>
      <trkpt lat="43.66491" lon="3.86839">
        <ele>73.80754852295</ele>
        <time>2020-11-21T16:43:50.301Z</time>
      </trkpt>
      <trkpt lat="43.66501" lon="3.86842">
        <ele>74.25148010254</ele>
        <time>2020-11-21T16:44:12.368Z</time>
      </trkpt>
      <trkpt lat="43.66524" lon="3.86846">
        <ele>74.27835083008</ele>
        <time>2020-11-21T16:44:34.440Z</time>
      </trkpt>
      <trkpt lat="43.66532" lon="3.8685">
        <ele>74.13436889648</ele>
        <time>2020-11-21T16:44:56.513Z</time>
      </trkpt>
      <trkpt lat="43.66551" lon="3.86868">
        <ele>74.06072998047</ele>
        <time>2020-11-21T16:45:18.591Z</time>
      </trkpt>
      <trkpt lat="43.66572" lon="3.86893">
        <ele>73.79677581787</ele>
        <time>2020-11-21T16:45:40.675Z</time>
      </trkpt>
      <trkpt lat="43.66592" lon="3.86922">
        <ele>73.85676574707</ele>
        <time>2020-11-21T16:46:02.764Z</time>
      </trkpt>
      <trkpt lat="43.66599" lon="3.86929">
        <ele>73.68879699707</ele>
        <time>2020-11-21T16:46:24.855Z</time>
      </trkpt>
      <trkpt lat="43.66608" lon="3.86934">
        <ele>73.79566192627</ele>
        <time>2020-11-21T16:46:46.948Z</time>
      </trkpt>
      <trkpt lat="43.66614" lon="3.86935">
        <ele>73.99962615967</ele>
        <time>2020-11-21T16:47:09.042Z</time>
      </trkpt>
      <trkpt lat="43.66619" lon="3.86933">
        <ele>73.99962615967</ele>
        <time>2020-11-21T16:47:31.137Z</time>
      </trkpt>
      <trkpt lat="43.66628" lon="3.86913">
        <ele>73.01579284668</ele>
        <time>2020-11-21T16:47:53.236Z</time>
      </trkpt>
      <trkpt lat="43.66639" lon="3.86879">
        <ele>71.07984924316</ele>
        <time>2020-11-21T16:48:15.340Z</time>
      </trkpt>
      <trkpt lat="43.66645" lon="3.86869">
        <ele>70.43195343018</ele>
        <time>2020-11-21T16:48:37.446Z</time>
      </trkpt>
      <trkpt lat="43.66654" lon="3.86863">
        <ele>70.10800933838</ele>
        <time>2020-11-21T16:48:59.554Z</time>
      </trkpt>
      <trkpt lat="43.6667" lon="3.86859">
        <ele>70.01202392578</ele>
        <time>2020-11-21T16:49:21.665Z</time>
      </trkpt>
      <trkpt lat="43.66687" lon="3.86859">
        <ele>70.17449188232</ele>
        <time>2020-11-21T16:49:43.780Z</time>
      </trkpt>
      <trkpt lat="43.66697" lon="3.86861">
        <ele>69.81435394287</ele>
        <time>2020-11-21T16:50:05.897Z</time>
      </trkpt>
      <trkpt lat="43.66707" lon="3.86865">
        <ele>69.59838867188</ele>
        <time>2020-11-21T16:50:28.016Z</time>
      </trkpt>
      <trkpt lat="43.66713" lon="3.86872">
        <ele>69.91033935547</ele>
        <time>2020-11-21T16:50:50.136Z</time>
      </trkpt>
      <trkpt lat="43.66727" lon="3.86897">
        <ele>71.47007751465</ele>
        <time>2020-11-21T16:51:12.261Z</time>
      </trkpt>
      <trkpt lat="43.66731" lon="3.86911">
        <ele>72.33413696289</ele>
        <time>2020-11-21T16:51:34.388Z</time>
      </trkpt>
      <trkpt lat="43.6673" lon="3.86928">
        <ele>73.59392547607</ele>
        <time>2020-11-21T16:51:56.518Z</time>
      </trkpt>
      <trkpt lat="43.66731" lon="3.86945">
        <ele>75.17831420898</ele>
        <time>2020-11-21T16:52:18.650Z</time>
      </trkpt>
      <trkpt lat="43.66735" lon="3.86966">
        <ele>78.05783081055</ele>
        <time>2020-11-21T16:52:40.785Z</time>
      </trkpt>
      <trkpt lat="43.66742" lon="3.87011">
        <ele>83.15858459473</ele>
        <time>2020-11-21T16:53:02.927Z</time>
      </trkpt>
      <trkpt lat="43.66741" lon="3.87049">
        <ele>87.1136932373</ele>
        <time>2020-11-21T16:53:25.074Z</time>
      </trkpt>
      <trkpt lat="43.66738" lon="3.87074">
        <ele>90.00521087646</ele>
        <time>2020-11-21T16:53:47.225Z</time>
      </trkpt>
      <trkpt lat="43.66731" lon="3.87102">
        <ele>92.28970336914</ele>
        <time>2020-11-21T16:54:09.380Z</time>
      </trkpt>
      <trkpt lat="43.6673" lon="3.87144">
        <ele>95.35363769531</ele>
        <time>2020-11-21T16:54:31.541Z</time>
      </trkpt>
      <trkpt lat="43.66734" lon="3.8716">
        <ele>96.81679534912</ele>
        <time>2020-11-21T16:54:53.705Z</time>
      </trkpt>
      <trkpt lat="43.66738" lon="3.87165">
        <ele>97.42869567871</ele>
        <time>2020-11-21T16:55:15.870Z</time>
      </trkpt>
      <trkpt lat="43.66743" lon="3.87166">
        <ele>97.75263977051</ele>
        <time>2020-11-21T16:55:38.036Z</time>
      </trkpt>
      <trkpt lat="43.66762" lon="3.87158">
        <ele>98.28115081787</ele>
        <time>2020-11-21T16:56:00.206Z</time>
      </trkpt>
      <trkpt lat="43.66792" lon="3.87146">
        <ele>99.21699523926</ele>
        <time>2020-11-21T16:56:22.382Z</time>
      </trkpt>
      <trkpt lat="43.66806" lon="3.87144">
        <ele>99.91287994385</ele>
        <time>2020-11-21T16:56:44.561Z</time>
      </trkpt>
      <trkpt lat="43.66817" lon="3.87145">
        <ele>100.85359191895</ele>
        <time>2020-11-21T16:57:06.742Z</time>
      </trkpt>
      <trkpt lat="43.66848" lon="3.87146">
        <ele>103.5192565918</ele>
        <time>2020-11-21T16:57:28.930Z</time>
      </trkpt>
      <trkpt lat="43.6685" lon="3.87146">
        <ele>103.67311859131</ele>
        <time>2020-11-21T16:57:51.118Z</time>
      </trkpt>
      <trkpt lat="43.6686" lon="3.87144">
        <ele>103.81479644775</ele>
        <time>2020-11-21T16:58:13.308Z</time>
      </trkpt>
      <trkpt lat="43.66894" lon="3.8714">
        <ele>103.79933929443</ele>
        <time>2020-11-21T16:58:35.505Z</time>
      </trkpt>
      <trkpt lat="43.66918" lon="3.87138">
        <ele>104.32724761963</ele>
        <time>2020-11-21T16:58:57.707Z</time>
      </trkpt>
      <trkpt lat="43.66945" lon="3.8714">
        <ele>104.81141662598</ele>
        <time>2020-11-21T16:59:19.914Z</time>
      </trkpt>
      <trkpt lat="43.66996" lon="3.87146">
        <ele>103.99514770508</ele>
        <time>2020-11-21T16:59:42.131Z</time>
      </trkpt>
      <trkpt lat="43.67019" lon="3.87151">
        <ele>103.25127410889</ele>
        <time>2020-11-21T17:00:04.353Z</time>
      </trkpt>
      <trkpt lat="43.67029" lon="3.87159">
        <ele>103.68832397461</ele>
        <time>2020-11-21T17:00:26.577Z</time>
      </trkpt>
      <trkpt lat="43.67042" lon="3.87179">
        <ele>104.97211456299</ele>
        <time>2020-11-21T17:00:48.805Z</time>
      </trkpt>
      <trkpt lat="43.6705" lon="3.87188">
        <ele>105.52402496338</ele>
        <time>2020-11-21T17:01:11.035Z</time>
      </trkpt>
      <trkpt lat="43.67062" lon="3.87212">
        <ele>107.91645050049</ele>
        <time>2020-11-21T17:01:33.269Z</time>
      </trkpt>
      <trkpt lat="43.67087" lon="3.87249">
        <ele>111.61183166504</ele>
        <time>2020-11-21T17:01:55.511Z</time>
      </trkpt>
      <trkpt lat="43.67101" lon="3.87264">
        <ele>113.06359100342</ele>
        <time>2020-11-21T17:02:17.756Z</time>
      </trkpt>
      <trkpt lat="43.67126" lon="3.87216">
        <ele>104.80554199219</ele>
        <time>2020-11-21T17:02:40.010Z</time>
      </trkpt>
      <trkpt lat="43.67144" lon="3.87175">
        <ele>98.46650695801</ele>
        <time>2020-11-21T17:03:02.271Z</time>
      </trkpt>
      <trkpt lat="43.67146" lon="3.87154">
        <ele>95.22704315186</ele>
        <time>2020-11-21T17:03:24.535Z</time>
      </trkpt>
      <trkpt lat="43.67155" lon="3.87109">
        <ele>91.32630157471</ele>
        <time>2020-11-21T17:03:46.806Z</time>
      </trkpt>
      <trkpt lat="43.6717" lon="3.87042">
        <ele>83.84749603271</ele>
        <time>2020-11-21T17:04:09.087Z</time>
      </trkpt>
      <trkpt lat="43.67179" lon="3.87015">
        <ele>80.24765777588</ele>
        <time>2020-11-21T17:04:31.372Z</time>
      </trkpt>
      <trkpt lat="43.67195" lon="3.86986">
        <ele>77.99092102051</ele>
        <time>2020-11-21T17:04:53.662Z</time>
      </trkpt>
      <trkpt lat="43.67215" lon="3.8696">
        <ele>76.59588623047</ele>
        <time>2020-11-21T17:05:15.958Z</time>
      </trkpt>
      <trkpt lat="43.67245" lon="3.86933">
        <ele>74.88648986816</ele>
        <time>2020-11-21T17:05:38.261Z</time>
      </trkpt>
      <trkpt lat="43.67291" lon="3.86897">
        <ele>69.84912872314</ele>
        <time>2020-11-21T17:06:00.575Z</time>
      </trkpt>
      <trkpt lat="43.67317" lon="3.86838">
        <ele>63.03631210327</ele>
        <time>2020-11-21T17:06:22.899Z</time>
      </trkpt>
      <trkpt lat="43.67328" lon="3.86825">
        <ele>61.48764038086</ele>
        <time>2020-11-21T17:06:45.226Z</time>
      </trkpt>
      <trkpt lat="43.67334" lon="3.8681">
        <ele>60.44381332397</ele>
        <time>2020-11-21T17:07:07.555Z</time>
      </trkpt>
      <trkpt lat="43.67341" lon="3.86781">
        <ele>58.2601776123</ele>
        <time>2020-11-21T17:07:29.888Z</time>
      </trkpt>
      <trkpt lat="43.67342" lon="3.86772">
        <ele>57.56896972656</ele>
        <time>2020-11-21T17:07:52.223Z</time>
      </trkpt>
      <trkpt lat="43.67345" lon="3.86771">
        <ele>57.62895965576</ele>
        <time>2020-11-21T17:08:14.558Z</time>
      </trkpt>
      <trkpt lat="43.67348" lon="3.86768">
        <ele>57.59296417236</ele>
        <time>2020-11-21T17:08:36.894Z</time>
      </trkpt>
      <trkpt lat="43.6735" lon="3.8676">
        <ele>57.16243362427</ele>
        <time>2020-11-21T17:08:59.231Z</time>
      </trkpt>
      <trkpt lat="43.67349" lon="3.86752">
        <ele>56.65851974487</ele>
        <time>2020-11-21T17:09:21.570Z</time>
      </trkpt>
      <trkpt lat="43.67344" lon="3.86747">
        <ele>56.23859024048</ele>
        <time>2020-11-21T17:09:43.910Z</time>
      </trkpt>
      <trkpt lat="43.67341" lon="3.86746">
        <ele>56.10660934448</ele>
        <time>2020-11-21T17:10:06.250Z</time>
      </trkpt>
      <trkpt lat="43.67326" lon="3.86685">
        <ele>52.30081176758</ele>
        <time>2020-11-21T17:10:28.600Z</time>
      </trkpt>
      <trkpt lat="43.67316" lon="3.86634">
        <ele>51.6577796936</ele>
        <time>2020-11-21T17:10:50.957Z</time>
      </trkpt>
      <trkpt lat="43.67314" lon="3.86637">
        <ele>51.61155319214</ele>
        <time>2020-11-21T17:11:13.315Z</time>
      </trkpt>
      <trkpt lat="43.67314" lon="3.86637">
        <ele>51.61185455322</ele>
        <time>2020-11-21T17:11:35.673Z</time>
      </trkpt>
      <trkpt lat="43.67294" lon="3.86541">
        <ele>51.58521652222</ele>
        <time>2020-11-21T17:11:58.046Z</time>
      </trkpt>
      <trkpt lat="43.67301" lon="3.86537">
        <ele>51.7656288147</ele>
        <time>2020-11-21T17:12:20.420Z</time>
      </trkpt>
      <trkpt lat="43.67291" lon="3.86476">
        <ele>52.62343215942</ele>
        <time>2020-11-21T17:12:42.803Z</time>
      </trkpt>
      <trkpt lat="43.67323" lon="3.86439">
        <ele>53.00815963745</ele>
        <time>2020-11-21T17:13:05.195Z</time>
      </trkpt>
      <trkpt lat="43.6735" lon="3.86426">
        <ele>53.03802490234</ele>
        <time>2020-11-21T17:13:27.592Z</time>
      </trkpt>
      <trkpt lat="43.67332" lon="3.86389">
        <ele>53.25675582886</ele>
        <time>2020-11-21T17:13:49.996Z</time>
      </trkpt>
      <trkpt lat="43.67298" lon="3.86331">
        <ele>53.9513092041</ele>
        <time>2020-11-21T17:14:12.411Z</time>
      </trkpt>
      <trkpt lat="43.67286" lon="3.86284">
        <ele>54.72359085083</ele>
        <time>2020-11-21T17:14:34.833Z</time>
      </trkpt>
      <trkpt lat="43.67277" lon="3.86268">
        <ele>55.2744102478</ele>
        <time>2020-11-21T17:14:57.258Z</time>
      </trkpt>
      <trkpt lat="43.67334" lon="3.86226">
        <ele>59.41352462769</ele>
        <time>2020-11-21T17:15:19.696Z</time>
      </trkpt>
      <trkpt lat="43.67344" lon="3.86208">
        <ele>62.24596786499</ele>
        <time>2020-11-21T17:15:42.137Z</time>
      </trkpt>
      <trkpt lat="43.67385" lon="3.86168">
        <ele>66.0080871582</ele>
        <time>2020-11-21T17:16:04.588Z</time>
      </trkpt>
      <trkpt lat="43.67396" lon="3.86148">
        <ele>67.02295684814</ele>
        <time>2020-11-21T17:16:27.043Z</time>
      </trkpt>
      <trkpt lat="43.674" lon="3.86118">
        <ele>69.70043182373</ele>
        <time>2020-11-21T17:16:49.502Z</time>
      </trkpt>
      <trkpt lat="43.67398" lon="3.86033">
        <ele>64.50635528564</ele>
        <time>2020-11-21T17:17:11.974Z</time>
      </trkpt>
      <trkpt lat="43.67409" lon="3.85991">
        <ele>63.1201171875</ele>
        <time>2020-11-21T17:17:34.452Z</time>
      </trkpt>
      <trkpt lat="43.67409" lon="3.85991">
        <ele>63.1201171875</ele>
        <time>2020-11-21T17:17:56.930Z</time>
      </trkpt>
      <trkpt lat="43.67403" lon="3.85925">
        <ele>60.69627380371</ele>
        <time>2020-11-21T17:18:19.418Z</time>
      </trkpt>
      <trkpt lat="43.67394" lon="3.85924">
        <ele>60.7477645874</ele>
        <time>2020-11-21T17:18:41.908Z</time>
      </trkpt>
      <trkpt lat="43.67389" lon="3.85911">
        <ele>61.36564254761</ele>
        <time>2020-11-21T17:19:04.400Z</time>
      </trkpt>
      <trkpt lat="43.67386" lon="3.85889">
        <ele>62.39543914795</ele>
        <time>2020-11-21T17:19:26.895Z</time>
      </trkpt>
      <trkpt lat="43.67385" lon="3.85841">
        <ele>63.93874740601</ele>
        <time>2020-11-21T17:19:49.397Z</time>
      </trkpt>
      <trkpt lat="43.67384" lon="3.85818">
        <ele>65.09747314453</ele>
        <time>2020-11-21T17:20:11.902Z</time>
      </trkpt>
      <trkpt lat="43.67384" lon="3.85811">
        <ele>65.40641021729</ele>
        <time>2020-11-21T17:20:34.408Z</time>
      </trkpt>
      <trkpt lat="43.6738" lon="3.85815">
        <ele>65.3325958252</ele>
        <time>2020-11-21T17:20:56.915Z</time>
      </trkpt>
    </trkseg>
  </trk>
</gpx>